<?xml version="1.0" encoding="UTF-8"?>
<gpx version="1.1" creator="https://www.youtrack.es" xsi:schemaLocation="http://www.topografix.com/GPX/1/1 http://www.topografix.com/GPX/1/1/gpx.xsd http://www.garmin.com/xmlschemas/GpxExtensions/v3 http://www.garmin.com/xmlschemas/GpxExtensionsv3.xsd http://www.garmin.com/xmlschemas/TrackPointExtension/v1 http://www.garmin.com/xmlschemas/TrackPointExtensionv1.xsd" xmlns:gpxtpx="http://www.garmin.com/xmlschemas/TrackPointExtension/v1" xmlns:gpxx="http://www.garmin.com/xmlschemas/GpxExtensions/v3" xmlns:xsi="http://www.w3.org/2001/XMLSchema-instance">
  <metadata>
    <link href="https://www.youtrack.es">
      <text>YouTrack.es</text>
    </link>
    <time>2026-05-10T19:44:48Z</time>
  </metadata>
  <trk>
    <src>https://www.youtrack.es</src>
    <link href="https://www.youtrack.es/ruta/37567-corriolada-de-diumenge">
      <text>YouTrack.es</text>
    </link>
    <trkseg>
      <trkpt lat="41.14718" lon="1.40648">
        <ele>3.6</ele>
        <time>2022-10-23 08:14:45</time>
      </trkpt>
      <trkpt lat="41.14716" lon="1.40628">
        <ele>3.8</ele>
        <time>2022-10-23 08:14:46</time>
      </trkpt>
      <trkpt lat="41.14718" lon="1.40604">
        <ele>4.6</ele>
        <time>2022-10-23 08:14:47</time>
      </trkpt>
      <trkpt lat="41.14713" lon="1.40584">
        <ele>4.6</ele>
        <time>2022-10-23 08:14:48</time>
      </trkpt>
      <trkpt lat="41.14707" lon="1.4056">
        <ele>5.8</ele>
        <time>2022-10-23 08:14:49</time>
      </trkpt>
      <trkpt lat="41.14706" lon="1.40557">
        <ele>5.8</ele>
        <time>2022-10-23 08:14:50</time>
      </trkpt>
      <trkpt lat="41.14705" lon="1.4055">
        <ele>6</ele>
        <time>2022-10-23 08:14:51</time>
      </trkpt>
      <trkpt lat="41.14702" lon="1.40535">
        <ele>6.4</ele>
        <time>2022-10-23 08:14:54</time>
      </trkpt>
      <trkpt lat="41.14702" lon="1.40532">
        <ele>6.6</ele>
        <time>2022-10-23 08:15:09</time>
      </trkpt>
      <trkpt lat="41.14701" lon="1.40525">
        <ele>6.8</ele>
        <time>2022-10-23 08:15:13</time>
      </trkpt>
      <trkpt lat="41.14698" lon="1.40503">
        <ele>8</ele>
        <time>2022-10-23 08:15:17</time>
      </trkpt>
      <trkpt lat="41.14697" lon="1.40497">
        <ele>8.2</ele>
        <time>2022-10-23 08:15:19</time>
      </trkpt>
      <trkpt lat="41.14695" lon="1.40484">
        <ele>8.8</ele>
        <time>2022-10-23 08:15:25</time>
      </trkpt>
      <trkpt lat="41.14693" lon="1.40475">
        <ele>9</ele>
        <time>2022-10-23 08:15:33</time>
      </trkpt>
      <trkpt lat="41.14692" lon="1.40469">
        <ele>9.2</ele>
        <time>2022-10-23 08:15:40</time>
      </trkpt>
      <trkpt lat="41.1469" lon="1.40456">
        <ele>9.4</ele>
        <time>2022-10-23 08:15:48</time>
      </trkpt>
      <trkpt lat="41.14689" lon="1.4044">
        <ele>10</ele>
        <time>2022-10-23 08:15:49</time>
      </trkpt>
      <trkpt lat="41.14687" lon="1.40424">
        <ele>10.6</ele>
        <time>2022-10-23 08:15:51</time>
      </trkpt>
      <trkpt lat="41.14687" lon="1.40416">
        <ele>11.2</ele>
        <time>2022-10-23 08:15:56</time>
      </trkpt>
      <trkpt lat="41.14686" lon="1.40413">
        <ele>11.4</ele>
        <time>2022-10-23 08:15:57</time>
      </trkpt>
      <trkpt lat="41.14687" lon="1.40396">
        <ele>12</ele>
        <time>2022-10-23 08:15:59</time>
      </trkpt>
      <trkpt lat="41.14686" lon="1.40387">
        <ele>12.2</ele>
        <time>2022-10-23 08:16:06</time>
      </trkpt>
      <trkpt lat="41.14683" lon="1.40377">
        <ele>13</ele>
        <time>2022-10-23 08:16:08</time>
      </trkpt>
      <trkpt lat="41.14682" lon="1.40367">
        <ele>13.4</ele>
        <time>2022-10-23 08:16:12</time>
      </trkpt>
      <trkpt lat="41.14681" lon="1.40345">
        <ele>14.2</ele>
        <time>2022-10-23 08:16:15</time>
      </trkpt>
      <trkpt lat="41.1468" lon="1.40335">
        <ele>14.6</ele>
        <time>2022-10-23 08:16:17</time>
      </trkpt>
      <trkpt lat="41.14679" lon="1.40313">
        <ele>15.4</ele>
        <time>2022-10-23 08:16:21</time>
      </trkpt>
      <trkpt lat="41.14679" lon="1.40306">
        <ele>15.6</ele>
        <time>2022-10-23 08:16:26</time>
      </trkpt>
      <trkpt lat="41.14676" lon="1.40276">
        <ele>16.6</ele>
        <time>2022-10-23 08:16:31</time>
      </trkpt>
      <trkpt lat="41.14676" lon="1.40273">
        <ele>16.6</ele>
        <time>2022-10-23 08:16:34</time>
      </trkpt>
      <trkpt lat="41.14674" lon="1.40246">
        <ele>17.6</ele>
        <time>2022-10-23 08:16:35</time>
      </trkpt>
      <trkpt lat="41.14673" lon="1.40243">
        <ele>18</ele>
        <time>2022-10-23 08:16:41</time>
      </trkpt>
      <trkpt lat="41.14672" lon="1.40216">
        <ele>19</ele>
        <time>2022-10-23 08:16:44</time>
      </trkpt>
      <trkpt lat="41.14672" lon="1.40213">
        <ele>19</ele>
        <time>2022-10-23 08:16:47</time>
      </trkpt>
      <trkpt lat="41.14671" lon="1.40189">
        <ele>20</ele>
        <time>2022-10-23 08:16:50</time>
      </trkpt>
      <trkpt lat="41.14672" lon="1.40179">
        <ele>20.2</ele>
        <time>2022-10-23 08:16:57</time>
      </trkpt>
      <trkpt lat="41.14675" lon="1.40153">
        <ele>20.8</ele>
        <time>2022-10-23 08:17:00</time>
      </trkpt>
      <trkpt lat="41.14676" lon="1.4015">
        <ele>21</ele>
        <time>2022-10-23 08:17:07</time>
      </trkpt>
      <trkpt lat="41.1468" lon="1.40138">
        <ele>21.4</ele>
        <time>2022-10-23 08:17:09</time>
      </trkpt>
      <trkpt lat="41.14683" lon="1.4013">
        <ele>21.6</ele>
        <time>2022-10-23 08:17:18</time>
      </trkpt>
      <trkpt lat="41.1469" lon="1.40117">
        <ele>22</ele>
        <time>2022-10-23 08:17:19</time>
      </trkpt>
      <trkpt lat="41.14693" lon="1.40111">
        <ele>22</ele>
        <time>2022-10-23 08:17:27</time>
      </trkpt>
      <trkpt lat="41.14694" lon="1.40108">
        <ele>22.2</ele>
        <time>2022-10-23 08:17:28</time>
      </trkpt>
      <trkpt lat="41.14699" lon="1.40098">
        <ele>22.6</ele>
        <time>2022-10-23 08:17:36</time>
      </trkpt>
      <trkpt lat="41.14704" lon="1.40085">
        <ele>23.2</ele>
        <time>2022-10-23 08:17:37</time>
      </trkpt>
      <trkpt lat="41.14708" lon="1.40076">
        <ele>23.4</ele>
        <time>2022-10-23 08:17:44</time>
      </trkpt>
      <trkpt lat="41.14713" lon="1.40061">
        <ele>24.2</ele>
        <time>2022-10-23 08:17:47</time>
      </trkpt>
      <trkpt lat="41.14715" lon="1.40055">
        <ele>24.4</ele>
        <time>2022-10-23 08:17:55</time>
      </trkpt>
      <trkpt lat="41.14722" lon="1.40034">
        <ele>25.4</ele>
        <time>2022-10-23 08:17:56</time>
      </trkpt>
      <trkpt lat="41.14727" lon="1.40014">
        <ele>26</ele>
        <time>2022-10-23 08:18:00</time>
      </trkpt>
      <trkpt lat="41.14729" lon="1.39997">
        <ele>26.4</ele>
        <time>2022-10-23 08:18:03</time>
      </trkpt>
      <trkpt lat="41.14731" lon="1.39982">
        <ele>26.4</ele>
        <time>2022-10-23 08:18:08</time>
      </trkpt>
      <trkpt lat="41.14734" lon="1.39961">
        <ele>26</ele>
        <time>2022-10-23 08:18:10</time>
      </trkpt>
      <trkpt lat="41.14735" lon="1.39948">
        <ele>25.6</ele>
        <time>2022-10-23 08:18:11</time>
      </trkpt>
      <trkpt lat="41.14737" lon="1.39934">
        <ele>25.2</ele>
        <time>2022-10-23 08:18:15</time>
      </trkpt>
      <trkpt lat="41.14741" lon="1.39901">
        <ele>24.8</ele>
        <time>2022-10-23 08:18:20</time>
      </trkpt>
      <trkpt lat="41.14741" lon="1.39892">
        <ele>24.6</ele>
        <time>2022-10-23 08:18:23</time>
      </trkpt>
      <trkpt lat="41.14741" lon="1.39874">
        <ele>24.2</ele>
        <time>2022-10-23 08:18:28</time>
      </trkpt>
      <trkpt lat="41.1474" lon="1.39865">
        <ele>23.8</ele>
        <time>2022-10-23 08:18:30</time>
      </trkpt>
      <trkpt lat="41.1474" lon="1.39855">
        <ele>23.6</ele>
        <time>2022-10-23 08:18:37</time>
      </trkpt>
      <trkpt lat="41.1474" lon="1.39835">
        <ele>23</ele>
        <time>2022-10-23 08:18:43</time>
      </trkpt>
      <trkpt lat="41.1474" lon="1.39805">
        <ele>21.8</ele>
        <time>2022-10-23 08:18:47</time>
      </trkpt>
      <trkpt lat="41.1474" lon="1.39795">
        <ele>21.4</ele>
        <time>2022-10-23 08:18:50</time>
      </trkpt>
      <trkpt lat="41.1474" lon="1.39775">
        <ele>20.8</ele>
        <time>2022-10-23 08:18:54</time>
      </trkpt>
      <trkpt lat="41.1474" lon="1.39746">
        <ele>19.6</ele>
        <time>2022-10-23 08:18:56</time>
      </trkpt>
      <trkpt lat="41.14741" lon="1.39721">
        <ele>18.6</ele>
        <time>2022-10-23 08:18:58</time>
      </trkpt>
      <trkpt lat="41.14743" lon="1.39714">
        <ele>18.4</ele>
        <time>2022-10-23 08:19:02</time>
      </trkpt>
      <trkpt lat="41.1475" lon="1.39702">
        <ele>18</ele>
        <time>2022-10-23 08:19:03</time>
      </trkpt>
      <trkpt lat="41.14759" lon="1.39693">
        <ele>17.2</ele>
        <time>2022-10-23 08:19:05</time>
      </trkpt>
      <trkpt lat="41.14777" lon="1.39675">
        <ele>16.6</ele>
        <time>2022-10-23 08:19:06</time>
      </trkpt>
      <trkpt lat="41.14788" lon="1.39664">
        <ele>16.2</ele>
        <time>2022-10-23 08:19:07</time>
      </trkpt>
      <trkpt lat="41.14803" lon="1.39653">
        <ele>16</ele>
        <time>2022-10-23 08:19:09</time>
      </trkpt>
      <trkpt lat="41.14831" lon="1.39637">
        <ele>16</ele>
        <time>2022-10-23 08:19:12</time>
      </trkpt>
      <trkpt lat="41.14836" lon="1.39635">
        <ele>16</ele>
        <time>2022-10-23 08:19:13</time>
      </trkpt>
      <trkpt lat="41.1484" lon="1.39633">
        <ele>16</ele>
        <time>2022-10-23 08:19:15</time>
      </trkpt>
      <trkpt lat="41.14844" lon="1.39631">
        <ele>16</ele>
        <time>2022-10-23 08:19:18</time>
      </trkpt>
      <trkpt lat="41.14862" lon="1.39617">
        <ele>16</ele>
        <time>2022-10-23 08:19:21</time>
      </trkpt>
      <trkpt lat="41.14863" lon="1.39606">
        <ele>16.2</ele>
        <time>2022-10-23 08:19:22</time>
      </trkpt>
      <trkpt lat="41.14861" lon="1.396">
        <ele>16.2</ele>
        <time>2022-10-23 08:19:24</time>
      </trkpt>
      <trkpt lat="41.1486" lon="1.39594">
        <ele>16.2</ele>
        <time>2022-10-23 08:19:26</time>
      </trkpt>
      <trkpt lat="41.14858" lon="1.39587">
        <ele>16.2</ele>
        <time>2022-10-23 08:19:30</time>
      </trkpt>
      <trkpt lat="41.14847" lon="1.39556">
        <ele>16.2</ele>
        <time>2022-10-23 08:19:33</time>
      </trkpt>
      <trkpt lat="41.14842" lon="1.39536">
        <ele>16</ele>
        <time>2022-10-23 08:19:37</time>
      </trkpt>
      <trkpt lat="41.14834" lon="1.39509">
        <ele>15.6</ele>
        <time>2022-10-23 08:19:44</time>
      </trkpt>
      <trkpt lat="41.14822" lon="1.39474">
        <ele>15</ele>
        <time>2022-10-23 08:19:45</time>
      </trkpt>
      <trkpt lat="41.14815" lon="1.39452">
        <ele>14.2</ele>
        <time>2022-10-23 08:19:46</time>
      </trkpt>
      <trkpt lat="41.14813" lon="1.39446">
        <ele>14</ele>
        <time>2022-10-23 08:19:47</time>
      </trkpt>
      <trkpt lat="41.14808" lon="1.39424">
        <ele>13.2</ele>
        <time>2022-10-23 08:19:53</time>
      </trkpt>
      <trkpt lat="41.14808" lon="1.39421">
        <ele>13</ele>
        <time>2022-10-23 08:19:55</time>
      </trkpt>
      <trkpt lat="41.14807" lon="1.39418">
        <ele>12.8</ele>
        <time>2022-10-23 08:19:56</time>
      </trkpt>
      <trkpt lat="41.14806" lon="1.39411">
        <ele>12.6</ele>
        <time>2022-10-23 08:19:57</time>
      </trkpt>
      <trkpt lat="41.14805" lon="1.39407">
        <ele>12.4</ele>
        <time>2022-10-23 08:19:58</time>
      </trkpt>
      <trkpt lat="41.14801" lon="1.39398">
        <ele>12.4</ele>
        <time>2022-10-23 08:20:03</time>
      </trkpt>
      <trkpt lat="41.14802" lon="1.39394">
        <ele>12.4</ele>
        <time>2022-10-23 08:20:06</time>
      </trkpt>
      <trkpt lat="41.14808" lon="1.39383">
        <ele>12.4</ele>
        <time>2022-10-23 08:20:10</time>
      </trkpt>
      <trkpt lat="41.14806" lon="1.39367">
        <ele>12.2</ele>
        <time>2022-10-23 08:20:15</time>
      </trkpt>
      <trkpt lat="41.148" lon="1.39344">
        <ele>11.8</ele>
        <time>2022-10-23 08:20:18</time>
      </trkpt>
      <trkpt lat="41.148" lon="1.39337">
        <ele>11.6</ele>
        <time>2022-10-23 08:20:19</time>
      </trkpt>
      <trkpt lat="41.148" lon="1.3933">
        <ele>11.4</ele>
        <time>2022-10-23 08:20:23</time>
      </trkpt>
      <trkpt lat="41.148" lon="1.39316">
        <ele>11.2</ele>
        <time>2022-10-23 08:20:24</time>
      </trkpt>
      <trkpt lat="41.148" lon="1.3931">
        <ele>11</ele>
        <time>2022-10-23 08:20:25</time>
      </trkpt>
      <trkpt lat="41.14801" lon="1.39297">
        <ele>10.6</ele>
        <time>2022-10-23 08:20:27</time>
      </trkpt>
      <trkpt lat="41.14809" lon="1.3925">
        <ele>10.6</ele>
        <time>2022-10-23 08:20:28</time>
      </trkpt>
      <trkpt lat="41.1482" lon="1.39186">
        <ele>10.8</ele>
        <time>2022-10-23 08:20:31</time>
      </trkpt>
      <trkpt lat="41.14832" lon="1.39136">
        <ele>11</ele>
        <time>2022-10-23 08:20:32</time>
      </trkpt>
      <trkpt lat="41.14839" lon="1.39114">
        <ele>11.2</ele>
        <time>2022-10-23 08:20:35</time>
      </trkpt>
      <trkpt lat="41.14846" lon="1.39092">
        <ele>11.2</ele>
        <time>2022-10-23 08:20:38</time>
      </trkpt>
      <trkpt lat="41.14858" lon="1.39055">
        <ele>11.6</ele>
        <time>2022-10-23 08:20:42</time>
      </trkpt>
      <trkpt lat="41.14863" lon="1.39043">
        <ele>12.2</ele>
        <time>2022-10-23 08:20:43</time>
      </trkpt>
      <trkpt lat="41.14865" lon="1.3904">
        <ele>12.2</ele>
        <time>2022-10-23 08:20:44</time>
      </trkpt>
      <trkpt lat="41.14868" lon="1.39037">
        <ele>12.4</ele>
        <time>2022-10-23 08:20:46</time>
      </trkpt>
      <trkpt lat="41.14882" lon="1.39037">
        <ele>13.2</ele>
        <time>2022-10-23 08:20:47</time>
      </trkpt>
      <trkpt lat="41.14886" lon="1.39039">
        <ele>13.4</ele>
        <time>2022-10-23 08:20:49</time>
      </trkpt>
      <trkpt lat="41.14901" lon="1.39045">
        <ele>13.6</ele>
        <time>2022-10-23 08:20:57</time>
      </trkpt>
      <trkpt lat="41.14913" lon="1.39048">
        <ele>13.6</ele>
        <time>2022-10-23 08:21:08</time>
      </trkpt>
      <trkpt lat="41.14936" lon="1.3905">
        <ele>13.6</ele>
        <time>2022-10-23 08:21:17</time>
      </trkpt>
      <trkpt lat="41.14946" lon="1.39035">
        <ele>13.4</ele>
        <time>2022-10-23 08:21:21</time>
      </trkpt>
      <trkpt lat="41.14963" lon="1.38999">
        <ele>13.2</ele>
        <time>2022-10-23 08:21:25</time>
      </trkpt>
      <trkpt lat="41.14987" lon="1.3895">
        <ele>12.8</ele>
        <time>2022-10-23 08:21:33</time>
      </trkpt>
      <trkpt lat="41.14989" lon="1.38946">
        <ele>12.8</ele>
        <time>2022-10-23 08:21:36</time>
      </trkpt>
      <trkpt lat="41.15006" lon="1.38921">
        <ele>12.8</ele>
        <time>2022-10-23 08:21:37</time>
      </trkpt>
      <trkpt lat="41.15012" lon="1.38914">
        <ele>12.8</ele>
        <time>2022-10-23 08:21:38</time>
      </trkpt>
      <trkpt lat="41.15034" lon="1.38888">
        <ele>13</ele>
        <time>2022-10-23 08:21:42</time>
      </trkpt>
      <trkpt lat="41.15044" lon="1.38872">
        <ele>13</ele>
        <time>2022-10-23 08:21:43</time>
      </trkpt>
      <trkpt lat="41.15052" lon="1.38855">
        <ele>13</ele>
        <time>2022-10-23 08:21:47</time>
      </trkpt>
      <trkpt lat="41.15069" lon="1.3882">
        <ele>13.2</ele>
        <time>2022-10-23 08:21:50</time>
      </trkpt>
      <trkpt lat="41.15079" lon="1.38802">
        <ele>13.2</ele>
        <time>2022-10-23 08:21:56</time>
      </trkpt>
      <trkpt lat="41.15092" lon="1.38782">
        <ele>13.4</ele>
        <time>2022-10-23 08:22:00</time>
      </trkpt>
      <trkpt lat="41.15109" lon="1.38747">
        <ele>13.8</ele>
        <time>2022-10-23 08:22:08</time>
      </trkpt>
      <trkpt lat="41.15123" lon="1.38709">
        <ele>14</ele>
        <time>2022-10-23 08:22:18</time>
      </trkpt>
      <trkpt lat="41.15124" lon="1.38704">
        <ele>14</ele>
        <time>2022-10-23 08:22:19</time>
      </trkpt>
      <trkpt lat="41.15136" lon="1.38671">
        <ele>14.6</ele>
        <time>2022-10-23 08:22:25</time>
      </trkpt>
      <trkpt lat="41.15143" lon="1.38652">
        <ele>14.6</ele>
        <time>2022-10-23 08:22:27</time>
      </trkpt>
      <trkpt lat="41.1515" lon="1.38628">
        <ele>15</ele>
        <time>2022-10-23 08:22:34</time>
      </trkpt>
      <trkpt lat="41.15162" lon="1.38595">
        <ele>15.4</ele>
        <time>2022-10-23 08:22:38</time>
      </trkpt>
      <trkpt lat="41.15168" lon="1.38576">
        <ele>15.6</ele>
        <time>2022-10-23 08:22:42</time>
      </trkpt>
      <trkpt lat="41.15172" lon="1.38557">
        <ele>15.8</ele>
        <time>2022-10-23 08:22:50</time>
      </trkpt>
      <trkpt lat="41.15181" lon="1.3852">
        <ele>16.6</ele>
        <time>2022-10-23 08:22:54</time>
      </trkpt>
      <trkpt lat="41.15196" lon="1.3849">
        <ele>17.6</ele>
        <time>2022-10-23 08:22:59</time>
      </trkpt>
      <trkpt lat="41.15199" lon="1.38482">
        <ele>17.6</ele>
        <time>2022-10-23 08:23:07</time>
      </trkpt>
      <trkpt lat="41.15207" lon="1.3846">
        <ele>18</ele>
        <time>2022-10-23 08:23:15</time>
      </trkpt>
      <trkpt lat="41.15212" lon="1.38448">
        <ele>18.2</ele>
        <time>2022-10-23 08:23:16</time>
      </trkpt>
      <trkpt lat="41.15217" lon="1.38435">
        <ele>18.8</ele>
        <time>2022-10-23 08:23:23</time>
      </trkpt>
      <trkpt lat="41.15227" lon="1.38413">
        <ele>19.8</ele>
        <time>2022-10-23 08:23:27</time>
      </trkpt>
      <trkpt lat="41.15229" lon="1.38409">
        <ele>19.8</ele>
        <time>2022-10-23 08:23:32</time>
      </trkpt>
      <trkpt lat="41.15245" lon="1.38377">
        <ele>20.8</ele>
        <time>2022-10-23 08:23:39</time>
      </trkpt>
      <trkpt lat="41.15246" lon="1.38373">
        <ele>20.8</ele>
        <time>2022-10-23 08:23:43</time>
      </trkpt>
      <trkpt lat="41.15262" lon="1.38346">
        <ele>21.2</ele>
        <time>2022-10-23 08:23:47</time>
      </trkpt>
      <trkpt lat="41.15267" lon="1.38335">
        <ele>21.4</ele>
        <time>2022-10-23 08:23:55</time>
      </trkpt>
      <trkpt lat="41.15267" lon="1.38327">
        <ele>21.4</ele>
        <time>2022-10-23 08:24:02</time>
      </trkpt>
      <trkpt lat="41.15267" lon="1.38323">
        <ele>21.4</ele>
        <time>2022-10-23 08:24:04</time>
      </trkpt>
      <trkpt lat="41.15273" lon="1.38312">
        <ele>21.6</ele>
        <time>2022-10-23 08:24:09</time>
      </trkpt>
      <trkpt lat="41.15279" lon="1.38302">
        <ele>22</ele>
        <time>2022-10-23 08:24:12</time>
      </trkpt>
      <trkpt lat="41.15287" lon="1.38286">
        <ele>23</ele>
        <time>2022-10-23 08:24:15</time>
      </trkpt>
      <trkpt lat="41.15295" lon="1.38263">
        <ele>23.4</ele>
        <time>2022-10-23 08:24:21</time>
      </trkpt>
      <trkpt lat="41.15297" lon="1.38258">
        <ele>23.4</ele>
        <time>2022-10-23 08:24:22</time>
      </trkpt>
      <trkpt lat="41.15304" lon="1.38248">
        <ele>23.4</ele>
        <time>2022-10-23 08:24:31</time>
      </trkpt>
      <trkpt lat="41.1532" lon="1.38225">
        <ele>23.6</ele>
        <time>2022-10-23 08:24:32</time>
      </trkpt>
      <trkpt lat="41.15327" lon="1.38214">
        <ele>24</ele>
        <time>2022-10-23 08:24:39</time>
      </trkpt>
      <trkpt lat="41.15334" lon="1.38205">
        <ele>24.2</ele>
        <time>2022-10-23 08:24:42</time>
      </trkpt>
      <trkpt lat="41.15347" lon="1.38196">
        <ele>25.2</ele>
        <time>2022-10-23 08:24:44</time>
      </trkpt>
      <trkpt lat="41.1535" lon="1.38195">
        <ele>25.4</ele>
        <time>2022-10-23 08:24:45</time>
      </trkpt>
      <trkpt lat="41.15364" lon="1.38185">
        <ele>25.6</ele>
        <time>2022-10-23 08:24:48</time>
      </trkpt>
      <trkpt lat="41.1537" lon="1.3817">
        <ele>26.2</ele>
        <time>2022-10-23 08:24:51</time>
      </trkpt>
      <trkpt lat="41.15371" lon="1.38162">
        <ele>26.4</ele>
        <time>2022-10-23 08:24:55</time>
      </trkpt>
      <trkpt lat="41.15371" lon="1.38145">
        <ele>26.6</ele>
        <time>2022-10-23 08:25:00</time>
      </trkpt>
      <trkpt lat="41.15378" lon="1.38125">
        <ele>26.8</ele>
        <time>2022-10-23 08:25:01</time>
      </trkpt>
      <trkpt lat="41.15387" lon="1.38108">
        <ele>27</ele>
        <time>2022-10-23 08:25:04</time>
      </trkpt>
      <trkpt lat="41.15389" lon="1.38106">
        <ele>27</ele>
        <time>2022-10-23 08:25:11</time>
      </trkpt>
      <trkpt lat="41.15394" lon="1.38096">
        <ele>27.2</ele>
        <time>2022-10-23 08:25:14</time>
      </trkpt>
      <trkpt lat="41.15398" lon="1.38089">
        <ele>27.2</ele>
        <time>2022-10-23 08:25:17</time>
      </trkpt>
      <trkpt lat="41.15401" lon="1.38086">
        <ele>27.6</ele>
        <time>2022-10-23 08:25:21</time>
      </trkpt>
      <trkpt lat="41.15404" lon="1.3808">
        <ele>28</ele>
        <time>2022-10-23 08:25:22</time>
      </trkpt>
      <trkpt lat="41.15415" lon="1.38067">
        <ele>28.4</ele>
        <time>2022-10-23 08:25:27</time>
      </trkpt>
      <trkpt lat="41.1542" lon="1.38062">
        <ele>28.6</ele>
        <time>2022-10-23 08:25:31</time>
      </trkpt>
      <trkpt lat="41.15422" lon="1.38059">
        <ele>28.8</ele>
        <time>2022-10-23 08:25:33</time>
      </trkpt>
      <trkpt lat="41.15428" lon="1.38052">
        <ele>29.6</ele>
        <time>2022-10-23 08:25:37</time>
      </trkpt>
      <trkpt lat="41.15431" lon="1.38047">
        <ele>29.8</ele>
        <time>2022-10-23 08:25:42</time>
      </trkpt>
      <trkpt lat="41.1543" lon="1.38044">
        <ele>30</ele>
        <time>2022-10-23 08:25:47</time>
      </trkpt>
      <trkpt lat="41.15429" lon="1.38043">
        <ele>30</ele>
        <time>2022-10-23 08:25:48</time>
      </trkpt>
      <trkpt lat="41.15418" lon="1.38038">
        <ele>30.4</ele>
        <time>2022-10-23 08:25:51</time>
      </trkpt>
      <trkpt lat="41.15415" lon="1.38037">
        <ele>30.6</ele>
        <time>2022-10-23 08:25:53</time>
      </trkpt>
      <trkpt lat="41.15409" lon="1.38034">
        <ele>31</ele>
        <time>2022-10-23 08:25:54</time>
      </trkpt>
      <trkpt lat="41.15399" lon="1.38031">
        <ele>31.4</ele>
        <time>2022-10-23 08:25:56</time>
      </trkpt>
      <trkpt lat="41.15389" lon="1.38028">
        <ele>31.6</ele>
        <time>2022-10-23 08:26:01</time>
      </trkpt>
      <trkpt lat="41.15356" lon="1.38023">
        <ele>32</ele>
        <time>2022-10-23 08:26:03</time>
      </trkpt>
      <trkpt lat="41.15348" lon="1.38022">
        <ele>32.2</ele>
        <time>2022-10-23 08:26:04</time>
      </trkpt>
      <trkpt lat="41.15326" lon="1.38015">
        <ele>32.4</ele>
        <time>2022-10-23 08:26:07</time>
      </trkpt>
      <trkpt lat="41.15302" lon="1.38005">
        <ele>32.8</ele>
        <time>2022-10-23 08:26:09</time>
      </trkpt>
      <trkpt lat="41.15296" lon="1.38001">
        <ele>33.2</ele>
        <time>2022-10-23 08:26:10</time>
      </trkpt>
      <trkpt lat="41.15293" lon="1.37998">
        <ele>33.2</ele>
        <time>2022-10-23 08:26:11</time>
      </trkpt>
      <trkpt lat="41.15291" lon="1.37995">
        <ele>33.4</ele>
        <time>2022-10-23 08:26:15</time>
      </trkpt>
      <trkpt lat="41.15293" lon="1.37989">
        <ele>33.4</ele>
        <time>2022-10-23 08:26:16</time>
      </trkpt>
      <trkpt lat="41.15305" lon="1.3799">
        <ele>34</ele>
        <time>2022-10-23 08:26:18</time>
      </trkpt>
      <trkpt lat="41.15309" lon="1.37992">
        <ele>34</ele>
        <time>2022-10-23 08:26:21</time>
      </trkpt>
      <trkpt lat="41.15331" lon="1.38002">
        <ele>34.2</ele>
        <time>2022-10-23 08:26:24</time>
      </trkpt>
      <trkpt lat="41.15348" lon="1.38007">
        <ele>34</ele>
        <time>2022-10-23 08:26:33</time>
      </trkpt>
      <trkpt lat="41.15359" lon="1.38009">
        <ele>34</ele>
        <time>2022-10-23 08:26:35</time>
      </trkpt>
      <trkpt lat="41.15387" lon="1.38009">
        <ele>34.2</ele>
        <time>2022-10-23 08:26:41</time>
      </trkpt>
      <trkpt lat="41.15394" lon="1.38009">
        <ele>34.2</ele>
        <time>2022-10-23 08:26:48</time>
      </trkpt>
      <trkpt lat="41.15416" lon="1.38005">
        <ele>35</ele>
        <time>2022-10-23 08:26:50</time>
      </trkpt>
      <trkpt lat="41.15418" lon="1.38005">
        <ele>35.2</ele>
        <time>2022-10-23 08:26:51</time>
      </trkpt>
      <trkpt lat="41.15431" lon="1.38002">
        <ele>36.2</ele>
        <time>2022-10-23 08:26:52</time>
      </trkpt>
      <trkpt lat="41.15434" lon="1.38001">
        <ele>36.6</ele>
        <time>2022-10-23 08:26:54</time>
      </trkpt>
      <trkpt lat="41.15447" lon="1.37999">
        <ele>37.4</ele>
        <time>2022-10-23 08:26:58</time>
      </trkpt>
      <trkpt lat="41.15453" lon="1.37997">
        <ele>37.8</ele>
        <time>2022-10-23 08:26:59</time>
      </trkpt>
      <trkpt lat="41.15459" lon="1.37997">
        <ele>38.4</ele>
        <time>2022-10-23 08:27:05</time>
      </trkpt>
      <trkpt lat="41.1546" lon="1.37998">
        <ele>38.6</ele>
        <time>2022-10-23 08:27:10</time>
      </trkpt>
      <trkpt lat="41.15464" lon="1.38004">
        <ele>39.6</ele>
        <time>2022-10-23 08:27:13</time>
      </trkpt>
      <trkpt lat="41.15468" lon="1.38012">
        <ele>39.6</ele>
        <time>2022-10-23 08:27:21</time>
      </trkpt>
      <trkpt lat="41.15479" lon="1.38024">
        <ele>39.6</ele>
        <time>2022-10-23 08:27:23</time>
      </trkpt>
      <trkpt lat="41.15484" lon="1.38024">
        <ele>39.6</ele>
        <time>2022-10-23 08:27:30</time>
      </trkpt>
      <trkpt lat="41.15489" lon="1.38023">
        <ele>39.6</ele>
        <time>2022-10-23 08:27:31</time>
      </trkpt>
      <trkpt lat="41.15506" lon="1.38011">
        <ele>40</ele>
        <time>2022-10-23 08:27:36</time>
      </trkpt>
      <trkpt lat="41.15526" lon="1.38003">
        <ele>40.4</ele>
        <time>2022-10-23 08:27:37</time>
      </trkpt>
      <trkpt lat="41.15538" lon="1.38003">
        <ele>40.8</ele>
        <time>2022-10-23 08:27:42</time>
      </trkpt>
      <trkpt lat="41.15557" lon="1.38005">
        <ele>41.2</ele>
        <time>2022-10-23 08:27:45</time>
      </trkpt>
      <trkpt lat="41.15561" lon="1.38005">
        <ele>41.2</ele>
        <time>2022-10-23 08:27:48</time>
      </trkpt>
      <trkpt lat="41.15581" lon="1.3801">
        <ele>41.2</ele>
        <time>2022-10-23 08:27:50</time>
      </trkpt>
      <trkpt lat="41.15585" lon="1.38012">
        <ele>41.2</ele>
        <time>2022-10-23 08:28:22</time>
      </trkpt>
      <trkpt lat="41.15592" lon="1.38017">
        <ele>41.2</ele>
        <time>2022-10-23 08:28:25</time>
      </trkpt>
      <trkpt lat="41.15599" lon="1.38023">
        <ele>41</ele>
        <time>2022-10-23 08:28:31</time>
      </trkpt>
      <trkpt lat="41.15602" lon="1.38026">
        <ele>40.8</ele>
        <time>2022-10-23 08:28:33</time>
      </trkpt>
      <trkpt lat="41.15615" lon="1.38027">
        <ele>40.6</ele>
        <time>2022-10-23 08:28:35</time>
      </trkpt>
      <trkpt lat="41.15624" lon="1.38014">
        <ele>40</ele>
        <time>2022-10-23 08:28:41</time>
      </trkpt>
      <trkpt lat="41.15628" lon="1.38004">
        <ele>40</ele>
        <time>2022-10-23 08:28:48</time>
      </trkpt>
      <trkpt lat="41.1563" lon="1.37999">
        <ele>39.8</ele>
        <time>2022-10-23 08:28:52</time>
      </trkpt>
      <trkpt lat="41.15632" lon="1.37994">
        <ele>39.6</ele>
        <time>2022-10-23 08:28:58</time>
      </trkpt>
      <trkpt lat="41.15635" lon="1.37988">
        <ele>39.4</ele>
        <time>2022-10-23 08:28:59</time>
      </trkpt>
      <trkpt lat="41.1564" lon="1.37978">
        <ele>39.4</ele>
        <time>2022-10-23 08:29:05</time>
      </trkpt>
      <trkpt lat="41.15642" lon="1.37971">
        <ele>39.2</ele>
        <time>2022-10-23 08:29:06</time>
      </trkpt>
      <trkpt lat="41.15644" lon="1.37959">
        <ele>39.2</ele>
        <time>2022-10-23 08:29:08</time>
      </trkpt>
      <trkpt lat="41.15646" lon="1.37933">
        <ele>39.2</ele>
        <time>2022-10-23 08:29:10</time>
      </trkpt>
      <trkpt lat="41.15646" lon="1.37914">
        <ele>39</ele>
        <time>2022-10-23 08:29:11</time>
      </trkpt>
      <trkpt lat="41.15645" lon="1.37907">
        <ele>39</ele>
        <time>2022-10-23 08:29:14</time>
      </trkpt>
      <trkpt lat="41.15643" lon="1.3787">
        <ele>38.6</ele>
        <time>2022-10-23 08:29:17</time>
      </trkpt>
      <trkpt lat="41.15643" lon="1.37861">
        <ele>38.4</ele>
        <time>2022-10-23 08:29:19</time>
      </trkpt>
      <trkpt lat="41.15642" lon="1.37822">
        <ele>37.6</ele>
        <time>2022-10-23 08:29:20</time>
      </trkpt>
      <trkpt lat="41.15643" lon="1.37813">
        <ele>37.4</ele>
        <time>2022-10-23 08:29:21</time>
      </trkpt>
      <trkpt lat="41.15643" lon="1.37803">
        <ele>37</ele>
        <time>2022-10-23 08:29:22</time>
      </trkpt>
      <trkpt lat="41.15644" lon="1.37783">
        <ele>36</ele>
        <time>2022-10-23 08:29:24</time>
      </trkpt>
      <trkpt lat="41.15645" lon="1.37754">
        <ele>34.4</ele>
        <time>2022-10-23 08:29:25</time>
      </trkpt>
      <trkpt lat="41.15645" lon="1.37738">
        <ele>33.8</ele>
        <time>2022-10-23 08:29:27</time>
      </trkpt>
      <trkpt lat="41.15645" lon="1.3773">
        <ele>33.4</ele>
        <time>2022-10-23 08:29:31</time>
      </trkpt>
      <trkpt lat="41.15646" lon="1.37697">
        <ele>32.2</ele>
        <time>2022-10-23 08:29:34</time>
      </trkpt>
      <trkpt lat="41.15646" lon="1.37672">
        <ele>31.6</ele>
        <time>2022-10-23 08:29:35</time>
      </trkpt>
      <trkpt lat="41.15648" lon="1.37663">
        <ele>31.4</ele>
        <time>2022-10-23 08:29:40</time>
      </trkpt>
      <trkpt lat="41.15652" lon="1.37646">
        <ele>30.8</ele>
        <time>2022-10-23 08:29:41</time>
      </trkpt>
      <trkpt lat="41.15654" lon="1.37638">
        <ele>30.4</ele>
        <time>2022-10-23 08:29:45</time>
      </trkpt>
      <trkpt lat="41.15664" lon="1.37623">
        <ele>29.8</ele>
        <time>2022-10-23 08:29:46</time>
      </trkpt>
      <trkpt lat="41.15669" lon="1.37621">
        <ele>29.6</ele>
        <time>2022-10-23 08:29:47</time>
      </trkpt>
      <trkpt lat="41.15678" lon="1.37621">
        <ele>29</ele>
        <time>2022-10-23 08:29:49</time>
      </trkpt>
      <trkpt lat="41.15687" lon="1.37622">
        <ele>28.4</ele>
        <time>2022-10-23 08:29:52</time>
      </trkpt>
      <trkpt lat="41.15702" lon="1.37624">
        <ele>28.2</ele>
        <time>2022-10-23 08:29:54</time>
      </trkpt>
      <trkpt lat="41.15715" lon="1.3762">
        <ele>27.4</ele>
        <time>2022-10-23 08:29:55</time>
      </trkpt>
      <trkpt lat="41.15718" lon="1.37616">
        <ele>27.2</ele>
        <time>2022-10-23 08:29:59</time>
      </trkpt>
      <trkpt lat="41.15726" lon="1.37601">
        <ele>26.8</ele>
        <time>2022-10-23 08:30:02</time>
      </trkpt>
      <trkpt lat="41.15727" lon="1.37596">
        <ele>26.8</ele>
        <time>2022-10-23 08:30:03</time>
      </trkpt>
      <trkpt lat="41.15727" lon="1.37592">
        <ele>26.8</ele>
        <time>2022-10-23 08:30:05</time>
      </trkpt>
      <trkpt lat="41.15729" lon="1.37573">
        <ele>26.6</ele>
        <time>2022-10-23 08:30:06</time>
      </trkpt>
      <trkpt lat="41.15729" lon="1.37565">
        <ele>26.4</ele>
        <time>2022-10-23 08:30:09</time>
      </trkpt>
      <trkpt lat="41.15728" lon="1.37526">
        <ele>25.8</ele>
        <time>2022-10-23 08:30:10</time>
      </trkpt>
      <trkpt lat="41.15728" lon="1.37518">
        <ele>25</ele>
        <time>2022-10-23 08:30:12</time>
      </trkpt>
      <trkpt lat="41.15728" lon="1.37509">
        <ele>24</ele>
        <time>2022-10-23 08:30:14</time>
      </trkpt>
      <trkpt lat="41.15727" lon="1.37507">
        <ele>23.6</ele>
        <time>2022-10-23 08:30:17</time>
      </trkpt>
      <trkpt lat="41.15728" lon="1.37508">
        <ele>23.2</ele>
        <time>2022-10-23 08:30:20</time>
      </trkpt>
      <trkpt lat="41.15728" lon="1.37506">
        <ele>23.2</ele>
        <time>2022-10-23 08:30:21</time>
      </trkpt>
      <trkpt lat="41.15728" lon="1.37504">
        <ele>23.2</ele>
        <time>2022-10-23 08:30:25</time>
      </trkpt>
      <trkpt lat="41.15728" lon="1.37501">
        <ele>23.2</ele>
        <time>2022-10-23 08:30:26</time>
      </trkpt>
      <trkpt lat="41.15727" lon="1.3748">
        <ele>23.2</ele>
        <time>2022-10-23 08:30:27</time>
      </trkpt>
      <trkpt lat="41.15727" lon="1.37459">
        <ele>23.2</ele>
        <time>2022-10-23 08:30:30</time>
      </trkpt>
      <trkpt lat="41.15728" lon="1.37444">
        <ele>23.2</ele>
        <time>2022-10-23 08:30:31</time>
      </trkpt>
      <trkpt lat="41.15728" lon="1.37436">
        <ele>23</ele>
        <time>2022-10-23 08:30:36</time>
      </trkpt>
      <trkpt lat="41.15726" lon="1.37387">
        <ele>23</ele>
        <time>2022-10-23 08:30:37</time>
      </trkpt>
      <trkpt lat="41.15724" lon="1.37371">
        <ele>22.6</ele>
        <time>2022-10-23 08:30:39</time>
      </trkpt>
      <trkpt lat="41.15726" lon="1.37359">
        <ele>22.2</ele>
        <time>2022-10-23 08:30:40</time>
      </trkpt>
      <trkpt lat="41.15736" lon="1.37351">
        <ele>21.6</ele>
        <time>2022-10-23 08:30:48</time>
      </trkpt>
      <trkpt lat="41.15743" lon="1.37349">
        <ele>21.4</ele>
        <time>2022-10-23 08:30:49</time>
      </trkpt>
      <trkpt lat="41.15749" lon="1.37345">
        <ele>21</ele>
        <time>2022-10-23 08:30:50</time>
      </trkpt>
      <trkpt lat="41.15761" lon="1.37336">
        <ele>20.6</ele>
        <time>2022-10-23 08:30:51</time>
      </trkpt>
      <trkpt lat="41.15767" lon="1.37331">
        <ele>20.4</ele>
        <time>2022-10-23 08:30:55</time>
      </trkpt>
      <trkpt lat="41.15777" lon="1.37322">
        <ele>19.2</ele>
        <time>2022-10-23 08:30:58</time>
      </trkpt>
      <trkpt lat="41.15785" lon="1.37314">
        <ele>18</ele>
        <time>2022-10-23 08:31:00</time>
      </trkpt>
      <trkpt lat="41.15787" lon="1.37309">
        <ele>17.8</ele>
        <time>2022-10-23 08:31:01</time>
      </trkpt>
      <trkpt lat="41.15786" lon="1.37294">
        <ele>17.6</ele>
        <time>2022-10-23 08:31:07</time>
      </trkpt>
      <trkpt lat="41.15784" lon="1.37281">
        <ele>17.4</ele>
        <time>2022-10-23 08:31:09</time>
      </trkpt>
      <trkpt lat="41.15783" lon="1.37274">
        <ele>17.2</ele>
        <time>2022-10-23 08:31:11</time>
      </trkpt>
      <trkpt lat="41.15783" lon="1.37267">
        <ele>17.2</ele>
        <time>2022-10-23 08:31:13</time>
      </trkpt>
      <trkpt lat="41.15786" lon="1.3723">
        <ele>17.4</ele>
        <time>2022-10-23 08:31:14</time>
      </trkpt>
      <trkpt lat="41.15787" lon="1.37224">
        <ele>17.4</ele>
        <time>2022-10-23 08:31:15</time>
      </trkpt>
      <trkpt lat="41.15789" lon="1.3721">
        <ele>17.4</ele>
        <time>2022-10-23 08:31:17</time>
      </trkpt>
      <trkpt lat="41.15791" lon="1.37198">
        <ele>17.6</ele>
        <time>2022-10-23 08:31:18</time>
      </trkpt>
      <trkpt lat="41.15792" lon="1.37187">
        <ele>17.6</ele>
        <time>2022-10-23 08:31:20</time>
      </trkpt>
      <trkpt lat="41.15794" lon="1.37171">
        <ele>17.6</ele>
        <time>2022-10-23 08:31:22</time>
      </trkpt>
      <trkpt lat="41.15796" lon="1.37153">
        <ele>17.6</ele>
        <time>2022-10-23 08:31:23</time>
      </trkpt>
      <trkpt lat="41.15797" lon="1.37147">
        <ele>17.6</ele>
        <time>2022-10-23 08:31:26</time>
      </trkpt>
      <trkpt lat="41.15796" lon="1.37124">
        <ele>17.6</ele>
        <time>2022-10-23 08:31:28</time>
      </trkpt>
      <trkpt lat="41.15794" lon="1.37107">
        <ele>17.6</ele>
        <time>2022-10-23 08:31:29</time>
      </trkpt>
      <trkpt lat="41.15792" lon="1.37089">
        <ele>17.6</ele>
        <time>2022-10-23 08:31:30</time>
      </trkpt>
      <trkpt lat="41.15792" lon="1.37077">
        <ele>17.4</ele>
        <time>2022-10-23 08:31:35</time>
      </trkpt>
      <trkpt lat="41.15792" lon="1.37066">
        <ele>17.4</ele>
        <time>2022-10-23 08:31:36</time>
      </trkpt>
      <trkpt lat="41.15792" lon="1.37049">
        <ele>17.4</ele>
        <time>2022-10-23 08:31:38</time>
      </trkpt>
      <trkpt lat="41.1579" lon="1.37037">
        <ele>17.4</ele>
        <time>2022-10-23 08:31:40</time>
      </trkpt>
      <trkpt lat="41.15789" lon="1.37032">
        <ele>17.4</ele>
        <time>2022-10-23 08:31:42</time>
      </trkpt>
      <trkpt lat="41.15785" lon="1.37021">
        <ele>17.4</ele>
        <time>2022-10-23 08:31:45</time>
      </trkpt>
      <trkpt lat="41.15783" lon="1.37015">
        <ele>17.4</ele>
        <time>2022-10-23 08:31:48</time>
      </trkpt>
      <trkpt lat="41.15778" lon="1.37003">
        <ele>17.4</ele>
        <time>2022-10-23 08:31:49</time>
      </trkpt>
      <trkpt lat="41.15777" lon="1.36996">
        <ele>17.4</ele>
        <time>2022-10-23 08:31:53</time>
      </trkpt>
      <trkpt lat="41.15776" lon="1.36982">
        <ele>17.4</ele>
        <time>2022-10-23 08:31:56</time>
      </trkpt>
      <trkpt lat="41.15776" lon="1.36967">
        <ele>17.2</ele>
        <time>2022-10-23 08:31:59</time>
      </trkpt>
      <trkpt lat="41.15776" lon="1.36953">
        <ele>17</ele>
        <time>2022-10-23 08:32:01</time>
      </trkpt>
      <trkpt lat="41.15777" lon="1.36947">
        <ele>16.8</ele>
        <time>2022-10-23 08:32:03</time>
      </trkpt>
      <trkpt lat="41.15778" lon="1.369">
        <ele>15.8</ele>
        <time>2022-10-23 08:32:06</time>
      </trkpt>
      <trkpt lat="41.15779" lon="1.36873">
        <ele>15.4</ele>
        <time>2022-10-23 08:32:08</time>
      </trkpt>
      <trkpt lat="41.15781" lon="1.36866">
        <ele>15.2</ele>
        <time>2022-10-23 08:32:09</time>
      </trkpt>
      <trkpt lat="41.15791" lon="1.36828">
        <ele>15</ele>
        <time>2022-10-23 08:32:11</time>
      </trkpt>
      <trkpt lat="41.15793" lon="1.36822">
        <ele>15</ele>
        <time>2022-10-23 08:32:12</time>
      </trkpt>
      <trkpt lat="41.15802" lon="1.36807">
        <ele>15</ele>
        <time>2022-10-23 08:32:14</time>
      </trkpt>
      <trkpt lat="41.15819" lon="1.36783">
        <ele>15</ele>
        <time>2022-10-23 08:32:15</time>
      </trkpt>
      <trkpt lat="41.15826" lon="1.36774">
        <ele>15</ele>
        <time>2022-10-23 08:32:17</time>
      </trkpt>
      <trkpt lat="41.15831" lon="1.36771">
        <ele>15</ele>
        <time>2022-10-23 08:32:19</time>
      </trkpt>
      <trkpt lat="41.15839" lon="1.36765">
        <ele>15</ele>
        <time>2022-10-23 08:32:21</time>
      </trkpt>
      <trkpt lat="41.15847" lon="1.36764">
        <ele>15</ele>
        <time>2022-10-23 08:32:22</time>
      </trkpt>
      <trkpt lat="41.15856" lon="1.36765">
        <ele>15</ele>
        <time>2022-10-23 08:32:29</time>
      </trkpt>
      <trkpt lat="41.15869" lon="1.36769">
        <ele>15.2</ele>
        <time>2022-10-23 08:32:33</time>
      </trkpt>
      <trkpt lat="41.15874" lon="1.36769">
        <ele>15.2</ele>
        <time>2022-10-23 08:32:34</time>
      </trkpt>
      <trkpt lat="41.15892" lon="1.36761">
        <ele>15.4</ele>
        <time>2022-10-23 08:32:40</time>
      </trkpt>
      <trkpt lat="41.15896" lon="1.36758">
        <ele>15.4</ele>
        <time>2022-10-23 08:32:41</time>
      </trkpt>
      <trkpt lat="41.15903" lon="1.36751">
        <ele>15.4</ele>
        <time>2022-10-23 08:32:44</time>
      </trkpt>
      <trkpt lat="41.15907" lon="1.3674">
        <ele>15.6</ele>
        <time>2022-10-23 08:32:49</time>
      </trkpt>
      <trkpt lat="41.15906" lon="1.36723">
        <ele>15.8</ele>
        <time>2022-10-23 08:32:51</time>
      </trkpt>
      <trkpt lat="41.15905" lon="1.36711">
        <ele>15.8</ele>
        <time>2022-10-23 08:32:52</time>
      </trkpt>
      <trkpt lat="41.15911" lon="1.36687">
        <ele>15.6</ele>
        <time>2022-10-23 08:32:54</time>
      </trkpt>
      <trkpt lat="41.15917" lon="1.36676">
        <ele>15.6</ele>
        <time>2022-10-23 08:32:56</time>
      </trkpt>
      <trkpt lat="41.15924" lon="1.36667">
        <ele>15.6</ele>
        <time>2022-10-23 08:32:58</time>
      </trkpt>
      <trkpt lat="41.15928" lon="1.36663">
        <ele>15.6</ele>
        <time>2022-10-23 08:33:01</time>
      </trkpt>
      <trkpt lat="41.15932" lon="1.3666">
        <ele>15.6</ele>
        <time>2022-10-23 08:33:02</time>
      </trkpt>
      <trkpt lat="41.15945" lon="1.3665">
        <ele>15.4</ele>
        <time>2022-10-23 08:33:06</time>
      </trkpt>
      <trkpt lat="41.15946" lon="1.36637">
        <ele>15.2</ele>
        <time>2022-10-23 08:33:07</time>
      </trkpt>
      <trkpt lat="41.15948" lon="1.36616">
        <ele>15.2</ele>
        <time>2022-10-23 08:33:09</time>
      </trkpt>
      <trkpt lat="41.15949" lon="1.36591">
        <ele>14.8</ele>
        <time>2022-10-23 08:33:11</time>
      </trkpt>
      <trkpt lat="41.15948" lon="1.36585">
        <ele>14.8</ele>
        <time>2022-10-23 08:33:14</time>
      </trkpt>
      <trkpt lat="41.15947" lon="1.36579">
        <ele>14.4</ele>
        <time>2022-10-23 08:33:16</time>
      </trkpt>
      <trkpt lat="41.15944" lon="1.36565">
        <ele>13.6</ele>
        <time>2022-10-23 08:33:20</time>
      </trkpt>
      <trkpt lat="41.15932" lon="1.36546">
        <ele>13</ele>
        <time>2022-10-23 08:33:22</time>
      </trkpt>
      <trkpt lat="41.15927" lon="1.36537">
        <ele>12.8</ele>
        <time>2022-10-23 08:33:24</time>
      </trkpt>
      <trkpt lat="41.15925" lon="1.36532">
        <ele>12.8</ele>
        <time>2022-10-23 08:33:25</time>
      </trkpt>
      <trkpt lat="41.15923" lon="1.36527">
        <ele>12.6</ele>
        <time>2022-10-23 08:33:26</time>
      </trkpt>
      <trkpt lat="41.15922" lon="1.36521">
        <ele>12.6</ele>
        <time>2022-10-23 08:33:30</time>
      </trkpt>
      <trkpt lat="41.15921" lon="1.36517">
        <ele>12.4</ele>
        <time>2022-10-23 08:33:33</time>
      </trkpt>
      <trkpt lat="41.15918" lon="1.36507">
        <ele>12.2</ele>
        <time>2022-10-23 08:33:37</time>
      </trkpt>
      <trkpt lat="41.15915" lon="1.36502">
        <ele>12.2</ele>
        <time>2022-10-23 08:33:41</time>
      </trkpt>
      <trkpt lat="41.15903" lon="1.36493">
        <ele>12</ele>
        <time>2022-10-23 08:33:42</time>
      </trkpt>
      <trkpt lat="41.15884" lon="1.36482">
        <ele>11.2</ele>
        <time>2022-10-23 08:33:43</time>
      </trkpt>
      <trkpt lat="41.15879" lon="1.36478">
        <ele>10.8</ele>
        <time>2022-10-23 08:33:46</time>
      </trkpt>
      <trkpt lat="41.15875" lon="1.36475">
        <ele>10.6</ele>
        <time>2022-10-23 08:33:51</time>
      </trkpt>
      <trkpt lat="41.15865" lon="1.36474">
        <ele>10.2</ele>
        <time>2022-10-23 08:33:53</time>
      </trkpt>
      <trkpt lat="41.1586" lon="1.36474">
        <ele>10.2</ele>
        <time>2022-10-23 08:33:54</time>
      </trkpt>
      <trkpt lat="41.15851" lon="1.36477">
        <ele>9.8</ele>
        <time>2022-10-23 08:33:55</time>
      </trkpt>
      <trkpt lat="41.15848" lon="1.36478">
        <ele>9.6</ele>
        <time>2022-10-23 08:33:56</time>
      </trkpt>
      <trkpt lat="41.15837" lon="1.36478">
        <ele>9.4</ele>
        <time>2022-10-23 08:33:57</time>
      </trkpt>
      <trkpt lat="41.15833" lon="1.36477">
        <ele>9.4</ele>
        <time>2022-10-23 08:33:59</time>
      </trkpt>
      <trkpt lat="41.1583" lon="1.36473">
        <ele>9.4</ele>
        <time>2022-10-23 08:34:00</time>
      </trkpt>
      <trkpt lat="41.15824" lon="1.36467">
        <ele>9.4</ele>
        <time>2022-10-23 08:34:03</time>
      </trkpt>
      <trkpt lat="41.15822" lon="1.36468">
        <ele>9.4</ele>
        <time>2022-10-23 08:34:07</time>
      </trkpt>
      <trkpt lat="41.15818" lon="1.36469">
        <ele>9.4</ele>
        <time>2022-10-23 08:34:08</time>
      </trkpt>
      <trkpt lat="41.15816" lon="1.3647">
        <ele>9.2</ele>
        <time>2022-10-23 08:34:09</time>
      </trkpt>
      <trkpt lat="41.15802" lon="1.36485">
        <ele>9.2</ele>
        <time>2022-10-23 08:34:11</time>
      </trkpt>
      <trkpt lat="41.15795" lon="1.3649">
        <ele>9.2</ele>
        <time>2022-10-23 08:34:12</time>
      </trkpt>
      <trkpt lat="41.15793" lon="1.36491">
        <ele>9.2</ele>
        <time>2022-10-23 08:34:14</time>
      </trkpt>
      <trkpt lat="41.15786" lon="1.36502">
        <ele>9.2</ele>
        <time>2022-10-23 08:34:15</time>
      </trkpt>
      <trkpt lat="41.15783" lon="1.36504">
        <ele>9.2</ele>
        <time>2022-10-23 08:34:20</time>
      </trkpt>
      <trkpt lat="41.15778" lon="1.36507">
        <ele>9.2</ele>
        <time>2022-10-23 08:34:22</time>
      </trkpt>
      <trkpt lat="41.15772" lon="1.36512">
        <ele>9.2</ele>
        <time>2022-10-23 08:34:24</time>
      </trkpt>
      <trkpt lat="41.1577" lon="1.36514">
        <ele>9.2</ele>
        <time>2022-10-23 08:34:29</time>
      </trkpt>
      <trkpt lat="41.15765" lon="1.36516">
        <ele>9.2</ele>
        <time>2022-10-23 08:34:30</time>
      </trkpt>
      <trkpt lat="41.15763" lon="1.36516">
        <ele>9.2</ele>
        <time>2022-10-23 08:34:32</time>
      </trkpt>
      <trkpt lat="41.15754" lon="1.36515">
        <ele>9</ele>
        <time>2022-10-23 08:34:33</time>
      </trkpt>
      <trkpt lat="41.15746" lon="1.36519">
        <ele>8.8</ele>
        <time>2022-10-23 08:34:40</time>
      </trkpt>
      <trkpt lat="41.15743" lon="1.3652">
        <ele>8.6</ele>
        <time>2022-10-23 08:34:44</time>
      </trkpt>
      <trkpt lat="41.15743" lon="1.36521">
        <ele>8</ele>
        <time>2022-10-23 08:34:45</time>
      </trkpt>
      <trkpt lat="41.15745" lon="1.3652">
        <ele>8</ele>
        <time>2022-10-23 08:34:49</time>
      </trkpt>
      <trkpt lat="41.15747" lon="1.3652">
        <ele>8</ele>
        <time>2022-10-23 08:34:50</time>
      </trkpt>
      <trkpt lat="41.15752" lon="1.36517">
        <ele>8</ele>
        <time>2022-10-23 08:34:52</time>
      </trkpt>
      <trkpt lat="41.15758" lon="1.36514">
        <ele>8</ele>
        <time>2022-10-23 08:34:55</time>
      </trkpt>
      <trkpt lat="41.1576" lon="1.36515">
        <ele>8</ele>
        <time>2022-10-23 08:34:56</time>
      </trkpt>
      <trkpt lat="41.15768" lon="1.36515">
        <ele>8.2</ele>
        <time>2022-10-23 08:34:58</time>
      </trkpt>
      <trkpt lat="41.15777" lon="1.36507">
        <ele>8.4</ele>
        <time>2022-10-23 08:34:59</time>
      </trkpt>
      <trkpt lat="41.15789" lon="1.36495">
        <ele>8.6</ele>
        <time>2022-10-23 08:35:03</time>
      </trkpt>
      <trkpt lat="41.15797" lon="1.36488">
        <ele>8.8</ele>
        <time>2022-10-23 08:35:07</time>
      </trkpt>
      <trkpt lat="41.15808" lon="1.36476">
        <ele>9</ele>
        <time>2022-10-23 08:35:09</time>
      </trkpt>
      <trkpt lat="41.15819" lon="1.36458">
        <ele>9</ele>
        <time>2022-10-23 08:35:24</time>
      </trkpt>
      <trkpt lat="41.15825" lon="1.3645">
        <ele>8.8</ele>
        <time>2022-10-23 08:35:26</time>
      </trkpt>
      <trkpt lat="41.15825" lon="1.36449">
        <ele>8.8</ele>
        <time>2022-10-23 08:35:32</time>
      </trkpt>
      <trkpt lat="41.15826" lon="1.36448">
        <ele>8.8</ele>
        <time>2022-10-23 08:35:35</time>
      </trkpt>
      <trkpt lat="41.15827" lon="1.36445">
        <ele>8.8</ele>
        <time>2022-10-23 08:35:38</time>
      </trkpt>
      <trkpt lat="41.15827" lon="1.36443">
        <ele>8.8</ele>
        <time>2022-10-23 08:35:39</time>
      </trkpt>
      <trkpt lat="41.15827" lon="1.36442">
        <ele>8.8</ele>
        <time>2022-10-23 08:35:43</time>
      </trkpt>
      <trkpt lat="41.15827" lon="1.36442">
        <ele>8.8</ele>
        <time>2022-10-23 08:35:48</time>
      </trkpt>
      <trkpt lat="41.15829" lon="1.3644">
        <ele>8.8</ele>
        <time>2022-10-23 08:35:53</time>
      </trkpt>
      <trkpt lat="41.15834" lon="1.36429">
        <ele>8.6</ele>
        <time>2022-10-23 08:35:57</time>
      </trkpt>
      <trkpt lat="41.15834" lon="1.36425">
        <ele>8.6</ele>
        <time>2022-10-23 08:36:02</time>
      </trkpt>
      <trkpt lat="41.15832" lon="1.36417">
        <ele>8.6</ele>
        <time>2022-10-23 08:36:08</time>
      </trkpt>
      <trkpt lat="41.15831" lon="1.36414">
        <ele>8.6</ele>
        <time>2022-10-23 08:36:14</time>
      </trkpt>
      <trkpt lat="41.15824" lon="1.36406">
        <ele>8.6</ele>
        <time>2022-10-23 08:36:17</time>
      </trkpt>
      <trkpt lat="41.15822" lon="1.36391">
        <ele>8.8</ele>
        <time>2022-10-23 08:36:19</time>
      </trkpt>
      <trkpt lat="41.15822" lon="1.36387">
        <ele>8.8</ele>
        <time>2022-10-23 08:36:23</time>
      </trkpt>
      <trkpt lat="41.15823" lon="1.36365">
        <ele>9.6</ele>
        <time>2022-10-23 08:36:25</time>
      </trkpt>
      <trkpt lat="41.15823" lon="1.36357">
        <ele>10</ele>
        <time>2022-10-23 08:36:26</time>
      </trkpt>
      <trkpt lat="41.1582" lon="1.36341">
        <ele>11</ele>
        <time>2022-10-23 08:36:29</time>
      </trkpt>
      <trkpt lat="41.15815" lon="1.36324">
        <ele>11.8</ele>
        <time>2022-10-23 08:36:31</time>
      </trkpt>
      <trkpt lat="41.15813" lon="1.36319">
        <ele>12.4</ele>
        <time>2022-10-23 08:36:37</time>
      </trkpt>
      <trkpt lat="41.15811" lon="1.36314">
        <ele>13.6</ele>
        <time>2022-10-23 08:36:39</time>
      </trkpt>
      <trkpt lat="41.15808" lon="1.36312">
        <ele>14.2</ele>
        <time>2022-10-23 08:36:42</time>
      </trkpt>
      <trkpt lat="41.15803" lon="1.36312">
        <ele>14.6</ele>
        <time>2022-10-23 08:36:43</time>
      </trkpt>
      <trkpt lat="41.15801" lon="1.36313">
        <ele>14.8</ele>
        <time>2022-10-23 08:36:46</time>
      </trkpt>
      <trkpt lat="41.15794" lon="1.36318">
        <ele>15.8</ele>
        <time>2022-10-23 08:36:50</time>
      </trkpt>
      <trkpt lat="41.15791" lon="1.36321">
        <ele>16</ele>
        <time>2022-10-23 08:36:51</time>
      </trkpt>
      <trkpt lat="41.15788" lon="1.36323">
        <ele>16.2</ele>
        <time>2022-10-23 08:36:57</time>
      </trkpt>
      <trkpt lat="41.15771" lon="1.3634">
        <ele>16.2</ele>
        <time>2022-10-23 08:36:59</time>
      </trkpt>
      <trkpt lat="41.15763" lon="1.36348">
        <ele>16.2</ele>
        <time>2022-10-23 08:37:04</time>
      </trkpt>
      <trkpt lat="41.15747" lon="1.36361">
        <ele>16.2</ele>
        <time>2022-10-23 08:37:10</time>
      </trkpt>
      <trkpt lat="41.15744" lon="1.36364">
        <ele>16.2</ele>
        <time>2022-10-23 08:37:12</time>
      </trkpt>
      <trkpt lat="41.1574" lon="1.36366">
        <ele>16.2</ele>
        <time>2022-10-23 08:37:15</time>
      </trkpt>
      <trkpt lat="41.15732" lon="1.36366">
        <ele>16.2</ele>
        <time>2022-10-23 08:37:17</time>
      </trkpt>
      <trkpt lat="41.15722" lon="1.36357">
        <ele>16.2</ele>
        <time>2022-10-23 08:37:19</time>
      </trkpt>
      <trkpt lat="41.15716" lon="1.36347">
        <ele>16.2</ele>
        <time>2022-10-23 08:37:20</time>
      </trkpt>
      <trkpt lat="41.15714" lon="1.36343">
        <ele>16.4</ele>
        <time>2022-10-23 08:37:23</time>
      </trkpt>
      <trkpt lat="41.15712" lon="1.36339">
        <ele>17</ele>
        <time>2022-10-23 08:37:24</time>
      </trkpt>
      <trkpt lat="41.15708" lon="1.36331">
        <ele>18.2</ele>
        <time>2022-10-23 08:37:25</time>
      </trkpt>
      <trkpt lat="41.15707" lon="1.36329">
        <ele>18.8</ele>
        <time>2022-10-23 08:37:31</time>
      </trkpt>
      <trkpt lat="41.15706" lon="1.36325">
        <ele>19.4</ele>
        <time>2022-10-23 08:37:34</time>
      </trkpt>
      <trkpt lat="41.15702" lon="1.36315">
        <ele>20.4</ele>
        <time>2022-10-23 08:37:39</time>
      </trkpt>
      <trkpt lat="41.157" lon="1.36312">
        <ele>20.8</ele>
        <time>2022-10-23 08:37:40</time>
      </trkpt>
      <trkpt lat="41.15697" lon="1.36305">
        <ele>21.6</ele>
        <time>2022-10-23 08:37:41</time>
      </trkpt>
      <trkpt lat="41.15695" lon="1.36299">
        <ele>22</ele>
        <time>2022-10-23 08:37:43</time>
      </trkpt>
      <trkpt lat="41.15692" lon="1.36294">
        <ele>22.6</ele>
        <time>2022-10-23 08:37:47</time>
      </trkpt>
      <trkpt lat="41.15689" lon="1.36284">
        <ele>23.6</ele>
        <time>2022-10-23 08:37:51</time>
      </trkpt>
      <trkpt lat="41.15686" lon="1.36277">
        <ele>24.8</ele>
        <time>2022-10-23 08:37:53</time>
      </trkpt>
      <trkpt lat="41.15684" lon="1.36269">
        <ele>25.4</ele>
        <time>2022-10-23 08:37:55</time>
      </trkpt>
      <trkpt lat="41.15682" lon="1.36265">
        <ele>25.8</ele>
        <time>2022-10-23 08:37:59</time>
      </trkpt>
      <trkpt lat="41.15679" lon="1.36256">
        <ele>26.8</ele>
        <time>2022-10-23 08:38:00</time>
      </trkpt>
      <trkpt lat="41.15679" lon="1.36254">
        <ele>27</ele>
        <time>2022-10-23 08:38:02</time>
      </trkpt>
      <trkpt lat="41.15674" lon="1.36244">
        <ele>28.2</ele>
        <time>2022-10-23 08:38:07</time>
      </trkpt>
      <trkpt lat="41.15672" lon="1.36238">
        <ele>28.8</ele>
        <time>2022-10-23 08:38:09</time>
      </trkpt>
      <trkpt lat="41.1567" lon="1.36234">
        <ele>29.2</ele>
        <time>2022-10-23 08:38:13</time>
      </trkpt>
      <trkpt lat="41.15667" lon="1.36223">
        <ele>30.8</ele>
        <time>2022-10-23 08:38:16</time>
      </trkpt>
      <trkpt lat="41.15666" lon="1.36219">
        <ele>31.2</ele>
        <time>2022-10-23 08:38:19</time>
      </trkpt>
      <trkpt lat="41.15666" lon="1.36214">
        <ele>31.6</ele>
        <time>2022-10-23 08:38:24</time>
      </trkpt>
      <trkpt lat="41.15664" lon="1.36205">
        <ele>32.8</ele>
        <time>2022-10-23 08:38:28</time>
      </trkpt>
      <trkpt lat="41.15664" lon="1.36196">
        <ele>33.8</ele>
        <time>2022-10-23 08:38:32</time>
      </trkpt>
      <trkpt lat="41.15664" lon="1.36193">
        <ele>34.2</ele>
        <time>2022-10-23 08:38:34</time>
      </trkpt>
      <trkpt lat="41.15663" lon="1.36186">
        <ele>35</ele>
        <time>2022-10-23 08:38:39</time>
      </trkpt>
      <trkpt lat="41.15662" lon="1.36174">
        <ele>36</ele>
        <time>2022-10-23 08:38:40</time>
      </trkpt>
      <trkpt lat="41.1566" lon="1.36165">
        <ele>37</ele>
        <time>2022-10-23 08:38:46</time>
      </trkpt>
      <trkpt lat="41.1566" lon="1.36163">
        <ele>37.2</ele>
        <time>2022-10-23 08:38:49</time>
      </trkpt>
      <trkpt lat="41.1566" lon="1.36156">
        <ele>38.4</ele>
        <time>2022-10-23 08:38:51</time>
      </trkpt>
      <trkpt lat="41.1566" lon="1.36146">
        <ele>39.6</ele>
        <time>2022-10-23 08:38:56</time>
      </trkpt>
      <trkpt lat="41.15661" lon="1.36135">
        <ele>40.6</ele>
        <time>2022-10-23 08:38:58</time>
      </trkpt>
      <trkpt lat="41.1566" lon="1.36128">
        <ele>41.2</ele>
        <time>2022-10-23 08:39:00</time>
      </trkpt>
      <trkpt lat="41.1566" lon="1.36116">
        <ele>41.8</ele>
        <time>2022-10-23 08:39:04</time>
      </trkpt>
      <trkpt lat="41.1566" lon="1.36105">
        <ele>42.4</ele>
        <time>2022-10-23 08:39:08</time>
      </trkpt>
      <trkpt lat="41.15659" lon="1.36097">
        <ele>42.8</ele>
        <time>2022-10-23 08:39:09</time>
      </trkpt>
      <trkpt lat="41.15657" lon="1.36087">
        <ele>43.2</ele>
        <time>2022-10-23 08:39:12</time>
      </trkpt>
      <trkpt lat="41.15654" lon="1.36073">
        <ele>43.8</ele>
        <time>2022-10-23 08:39:17</time>
      </trkpt>
      <trkpt lat="41.15652" lon="1.36066">
        <ele>44.2</ele>
        <time>2022-10-23 08:39:21</time>
      </trkpt>
      <trkpt lat="41.1565" lon="1.36059">
        <ele>44.2</ele>
        <time>2022-10-23 08:39:22</time>
      </trkpt>
      <trkpt lat="41.15647" lon="1.36045">
        <ele>44.8</ele>
        <time>2022-10-23 08:39:25</time>
      </trkpt>
      <trkpt lat="41.15647" lon="1.36043">
        <ele>44.8</ele>
        <time>2022-10-23 08:39:29</time>
      </trkpt>
      <trkpt lat="41.15644" lon="1.36032">
        <ele>45</ele>
        <time>2022-10-23 08:39:34</time>
      </trkpt>
      <trkpt lat="41.15637" lon="1.36023">
        <ele>45.2</ele>
        <time>2022-10-23 08:39:37</time>
      </trkpt>
      <trkpt lat="41.15635" lon="1.36021">
        <ele>45.2</ele>
        <time>2022-10-23 08:39:42</time>
      </trkpt>
      <trkpt lat="41.15631" lon="1.36016">
        <ele>45.4</ele>
        <time>2022-10-23 08:39:46</time>
      </trkpt>
      <trkpt lat="41.15628" lon="1.36012">
        <ele>45.4</ele>
        <time>2022-10-23 08:39:49</time>
      </trkpt>
      <trkpt lat="41.15618" lon="1.35993">
        <ele>45.8</ele>
        <time>2022-10-23 08:39:53</time>
      </trkpt>
      <trkpt lat="41.15615" lon="1.35987">
        <ele>45.8</ele>
        <time>2022-10-23 08:39:59</time>
      </trkpt>
      <trkpt lat="41.15608" lon="1.35973">
        <ele>46</ele>
        <time>2022-10-23 08:40:02</time>
      </trkpt>
      <trkpt lat="41.15606" lon="1.35966">
        <ele>46.2</ele>
        <time>2022-10-23 08:40:05</time>
      </trkpt>
      <trkpt lat="41.15604" lon="1.35962">
        <ele>46.4</ele>
        <time>2022-10-23 08:40:11</time>
      </trkpt>
      <trkpt lat="41.15603" lon="1.3596">
        <ele>46.6</ele>
        <time>2022-10-23 08:40:12</time>
      </trkpt>
      <trkpt lat="41.15599" lon="1.35958">
        <ele>47</ele>
        <time>2022-10-23 08:40:17</time>
      </trkpt>
      <trkpt lat="41.15592" lon="1.35951">
        <ele>47.4</ele>
        <time>2022-10-23 08:40:23</time>
      </trkpt>
      <trkpt lat="41.15585" lon="1.35927">
        <ele>47.4</ele>
        <time>2022-10-23 08:40:25</time>
      </trkpt>
      <trkpt lat="41.15582" lon="1.35914">
        <ele>47.4</ele>
        <time>2022-10-23 08:40:29</time>
      </trkpt>
      <trkpt lat="41.15576" lon="1.35882">
        <ele>46.2</ele>
        <time>2022-10-23 08:40:31</time>
      </trkpt>
      <trkpt lat="41.15574" lon="1.35876">
        <ele>45.8</ele>
        <time>2022-10-23 08:40:39</time>
      </trkpt>
      <trkpt lat="41.15565" lon="1.35855">
        <ele>45.2</ele>
        <time>2022-10-23 08:40:41</time>
      </trkpt>
      <trkpt lat="41.15563" lon="1.35834">
        <ele>44.8</ele>
        <time>2022-10-23 08:40:46</time>
      </trkpt>
      <trkpt lat="41.15562" lon="1.35823">
        <ele>44.8</ele>
        <time>2022-10-23 08:40:49</time>
      </trkpt>
      <trkpt lat="41.1556" lon="1.35812">
        <ele>44.8</ele>
        <time>2022-10-23 08:40:51</time>
      </trkpt>
      <trkpt lat="41.15557" lon="1.35789">
        <ele>45.2</ele>
        <time>2022-10-23 08:40:52</time>
      </trkpt>
      <trkpt lat="41.15556" lon="1.35784">
        <ele>45.8</ele>
        <time>2022-10-23 08:40:54</time>
      </trkpt>
      <trkpt lat="41.15554" lon="1.3577">
        <ele>46.8</ele>
        <time>2022-10-23 08:40:57</time>
      </trkpt>
      <trkpt lat="41.15553" lon="1.35765">
        <ele>47</ele>
        <time>2022-10-23 08:41:01</time>
      </trkpt>
      <trkpt lat="41.15549" lon="1.35751">
        <ele>47.8</ele>
        <time>2022-10-23 08:41:03</time>
      </trkpt>
      <trkpt lat="41.15549" lon="1.35749">
        <ele>48</ele>
        <time>2022-10-23 08:41:08</time>
      </trkpt>
      <trkpt lat="41.15545" lon="1.35739">
        <ele>49.2</ele>
        <time>2022-10-23 08:41:09</time>
      </trkpt>
      <trkpt lat="41.15541" lon="1.35731">
        <ele>50.2</ele>
        <time>2022-10-23 08:41:13</time>
      </trkpt>
      <trkpt lat="41.1554" lon="1.35729">
        <ele>50.4</ele>
        <time>2022-10-23 08:41:17</time>
      </trkpt>
      <trkpt lat="41.15537" lon="1.35716">
        <ele>51.6</ele>
        <time>2022-10-23 08:41:19</time>
      </trkpt>
      <trkpt lat="41.15536" lon="1.35714">
        <ele>51.8</ele>
        <time>2022-10-23 08:41:22</time>
      </trkpt>
      <trkpt lat="41.15534" lon="1.35711">
        <ele>52.2</ele>
        <time>2022-10-23 08:41:29</time>
      </trkpt>
      <trkpt lat="41.15531" lon="1.35708">
        <ele>52.6</ele>
        <time>2022-10-23 08:41:31</time>
      </trkpt>
      <trkpt lat="41.1553" lon="1.35707">
        <ele>52.8</ele>
        <time>2022-10-23 08:41:36</time>
      </trkpt>
      <trkpt lat="41.15529" lon="1.35705">
        <ele>53</ele>
        <time>2022-10-23 08:41:38</time>
      </trkpt>
      <trkpt lat="41.15528" lon="1.35699">
        <ele>53.8</ele>
        <time>2022-10-23 08:41:43</time>
      </trkpt>
      <trkpt lat="41.15528" lon="1.35697">
        <ele>54</ele>
        <time>2022-10-23 08:41:44</time>
      </trkpt>
      <trkpt lat="41.15528" lon="1.35694">
        <ele>54.4</ele>
        <time>2022-10-23 08:41:49</time>
      </trkpt>
      <trkpt lat="41.15528" lon="1.35692">
        <ele>54.6</ele>
        <time>2022-10-23 08:41:54</time>
      </trkpt>
      <trkpt lat="41.15527" lon="1.35689">
        <ele>55</ele>
        <time>2022-10-23 08:41:55</time>
      </trkpt>
      <trkpt lat="41.15527" lon="1.35688">
        <ele>55.4</ele>
        <time>2022-10-23 08:42:01</time>
      </trkpt>
      <trkpt lat="41.15526" lon="1.35684">
        <ele>55.8</ele>
        <time>2022-10-23 08:42:02</time>
      </trkpt>
      <trkpt lat="41.15526" lon="1.35682">
        <ele>56</ele>
        <time>2022-10-23 08:42:04</time>
      </trkpt>
      <trkpt lat="41.15526" lon="1.35681">
        <ele>56.4</ele>
        <time>2022-10-23 08:42:06</time>
      </trkpt>
      <trkpt lat="41.15525" lon="1.35677">
        <ele>57.2</ele>
        <time>2022-10-23 08:42:07</time>
      </trkpt>
      <trkpt lat="41.15524" lon="1.35675">
        <ele>57.4</ele>
        <time>2022-10-23 08:42:08</time>
      </trkpt>
      <trkpt lat="41.15523" lon="1.35672">
        <ele>58.2</ele>
        <time>2022-10-23 08:42:11</time>
      </trkpt>
      <trkpt lat="41.15521" lon="1.35669">
        <ele>58.6</ele>
        <time>2022-10-23 08:42:12</time>
      </trkpt>
      <trkpt lat="41.1552" lon="1.35667">
        <ele>58.8</ele>
        <time>2022-10-23 08:42:14</time>
      </trkpt>
      <trkpt lat="41.15517" lon="1.35662">
        <ele>59.6</ele>
        <time>2022-10-23 08:42:15</time>
      </trkpt>
      <trkpt lat="41.15516" lon="1.35661">
        <ele>59.8</ele>
        <time>2022-10-23 08:42:17</time>
      </trkpt>
      <trkpt lat="41.15513" lon="1.35656">
        <ele>60.6</ele>
        <time>2022-10-23 08:42:18</time>
      </trkpt>
      <trkpt lat="41.15511" lon="1.35654">
        <ele>60.8</ele>
        <time>2022-10-23 08:42:20</time>
      </trkpt>
      <trkpt lat="41.1551" lon="1.35653">
        <ele>61</ele>
        <time>2022-10-23 08:42:21</time>
      </trkpt>
      <trkpt lat="41.15505" lon="1.35648">
        <ele>61.6</ele>
        <time>2022-10-23 08:42:22</time>
      </trkpt>
      <trkpt lat="41.15501" lon="1.35644">
        <ele>61.8</ele>
        <time>2022-10-23 08:42:24</time>
      </trkpt>
      <trkpt lat="41.15499" lon="1.35639">
        <ele>62</ele>
        <time>2022-10-23 08:42:25</time>
      </trkpt>
      <trkpt lat="41.15494" lon="1.35628">
        <ele>62.8</ele>
        <time>2022-10-23 08:42:27</time>
      </trkpt>
      <trkpt lat="41.15491" lon="1.35624">
        <ele>63</ele>
        <time>2022-10-23 08:42:29</time>
      </trkpt>
      <trkpt lat="41.15485" lon="1.35616">
        <ele>63.8</ele>
        <time>2022-10-23 08:42:30</time>
      </trkpt>
      <trkpt lat="41.15482" lon="1.35613">
        <ele>64.2</ele>
        <time>2022-10-23 08:42:33</time>
      </trkpt>
      <trkpt lat="41.15478" lon="1.35606">
        <ele>65.4</ele>
        <time>2022-10-23 08:42:34</time>
      </trkpt>
      <trkpt lat="41.15476" lon="1.35605">
        <ele>65.4</ele>
        <time>2022-10-23 08:42:38</time>
      </trkpt>
      <trkpt lat="41.15473" lon="1.35601">
        <ele>65.6</ele>
        <time>2022-10-23 08:42:39</time>
      </trkpt>
      <trkpt lat="41.15471" lon="1.35597">
        <ele>66</ele>
        <time>2022-10-23 08:42:40</time>
      </trkpt>
      <trkpt lat="41.15469" lon="1.35591">
        <ele>66.4</ele>
        <time>2022-10-23 08:42:44</time>
      </trkpt>
      <trkpt lat="41.15469" lon="1.35589">
        <ele>66.6</ele>
        <time>2022-10-23 08:42:47</time>
      </trkpt>
      <trkpt lat="41.15468" lon="1.35587">
        <ele>66.6</ele>
        <time>2022-10-23 08:42:50</time>
      </trkpt>
      <trkpt lat="41.15466" lon="1.35575">
        <ele>67.4</ele>
        <time>2022-10-23 08:42:56</time>
      </trkpt>
      <trkpt lat="41.15466" lon="1.35573">
        <ele>67.6</ele>
        <time>2022-10-23 08:42:58</time>
      </trkpt>
      <trkpt lat="41.15465" lon="1.35565">
        <ele>68.8</ele>
        <time>2022-10-23 08:43:03</time>
      </trkpt>
      <trkpt lat="41.15464" lon="1.35563">
        <ele>69</ele>
        <time>2022-10-23 08:43:05</time>
      </trkpt>
      <trkpt lat="41.15464" lon="1.35561">
        <ele>69</ele>
        <time>2022-10-23 08:43:09</time>
      </trkpt>
      <trkpt lat="41.15464" lon="1.35553">
        <ele>69.8</ele>
        <time>2022-10-23 08:43:10</time>
      </trkpt>
      <trkpt lat="41.15464" lon="1.35551">
        <ele>70</ele>
        <time>2022-10-23 08:43:12</time>
      </trkpt>
      <trkpt lat="41.15463" lon="1.35539">
        <ele>70.4</ele>
        <time>2022-10-23 08:43:15</time>
      </trkpt>
      <trkpt lat="41.15461" lon="1.35526">
        <ele>71</ele>
        <time>2022-10-23 08:43:20</time>
      </trkpt>
      <trkpt lat="41.15459" lon="1.35519">
        <ele>71.2</ele>
        <time>2022-10-23 08:43:21</time>
      </trkpt>
      <trkpt lat="41.15456" lon="1.3551">
        <ele>71.2</ele>
        <time>2022-10-23 08:43:22</time>
      </trkpt>
      <trkpt lat="41.15454" lon="1.35503">
        <ele>71.2</ele>
        <time>2022-10-23 08:43:28</time>
      </trkpt>
      <trkpt lat="41.15448" lon="1.35477">
        <ele>70.8</ele>
        <time>2022-10-23 08:43:29</time>
      </trkpt>
      <trkpt lat="41.15441" lon="1.35451">
        <ele>70.6</ele>
        <time>2022-10-23 08:43:34</time>
      </trkpt>
      <trkpt lat="41.15435" lon="1.35424">
        <ele>70.6</ele>
        <time>2022-10-23 08:43:35</time>
      </trkpt>
      <trkpt lat="41.15431" lon="1.35403">
        <ele>70.6</ele>
        <time>2022-10-23 08:43:36</time>
      </trkpt>
      <trkpt lat="41.15427" lon="1.35385">
        <ele>70.6</ele>
        <time>2022-10-23 08:43:40</time>
      </trkpt>
      <trkpt lat="41.15426" lon="1.35375">
        <ele>70.4</ele>
        <time>2022-10-23 08:43:41</time>
      </trkpt>
      <trkpt lat="41.15425" lon="1.35359">
        <ele>70.2</ele>
        <time>2022-10-23 08:43:45</time>
      </trkpt>
      <trkpt lat="41.15425" lon="1.35348">
        <ele>70</ele>
        <time>2022-10-23 08:43:49</time>
      </trkpt>
      <trkpt lat="41.15425" lon="1.35334">
        <ele>69.4</ele>
        <time>2022-10-23 08:43:51</time>
      </trkpt>
      <trkpt lat="41.15426" lon="1.35312">
        <ele>69</ele>
        <time>2022-10-23 08:43:54</time>
      </trkpt>
      <trkpt lat="41.15426" lon="1.35306">
        <ele>68.6</ele>
        <time>2022-10-23 08:43:56</time>
      </trkpt>
      <trkpt lat="41.15425" lon="1.35292">
        <ele>67.6</ele>
        <time>2022-10-23 08:44:03</time>
      </trkpt>
      <trkpt lat="41.15426" lon="1.35288">
        <ele>67.4</ele>
        <time>2022-10-23 08:44:09</time>
      </trkpt>
      <trkpt lat="41.15426" lon="1.35262">
        <ele>67.2</ele>
        <time>2022-10-23 08:44:15</time>
      </trkpt>
      <trkpt lat="41.15425" lon="1.35239">
        <ele>67.2</ele>
        <time>2022-10-23 08:44:20</time>
      </trkpt>
      <trkpt lat="41.15424" lon="1.35219">
        <ele>67.2</ele>
        <time>2022-10-23 08:44:24</time>
      </trkpt>
      <trkpt lat="41.15424" lon="1.352">
        <ele>67.4</ele>
        <time>2022-10-23 08:44:26</time>
      </trkpt>
      <trkpt lat="41.15423" lon="1.35195">
        <ele>67.4</ele>
        <time>2022-10-23 08:44:29</time>
      </trkpt>
      <trkpt lat="41.15421" lon="1.35181">
        <ele>68</ele>
        <time>2022-10-23 08:44:31</time>
      </trkpt>
      <trkpt lat="41.15419" lon="1.35165">
        <ele>68.8</ele>
        <time>2022-10-23 08:44:33</time>
      </trkpt>
      <trkpt lat="41.15418" lon="1.35156">
        <ele>68.8</ele>
        <time>2022-10-23 08:44:36</time>
      </trkpt>
      <trkpt lat="41.15415" lon="1.35138">
        <ele>69</ele>
        <time>2022-10-23 08:44:37</time>
      </trkpt>
      <trkpt lat="41.15413" lon="1.35123">
        <ele>69</ele>
        <time>2022-10-23 08:44:40</time>
      </trkpt>
      <trkpt lat="41.15407" lon="1.35097">
        <ele>69</ele>
        <time>2022-10-23 08:44:41</time>
      </trkpt>
      <trkpt lat="41.15402" lon="1.3507">
        <ele>69.2</ele>
        <time>2022-10-23 08:44:47</time>
      </trkpt>
      <trkpt lat="41.15397" lon="1.35049">
        <ele>69.2</ele>
        <time>2022-10-23 08:44:52</time>
      </trkpt>
      <trkpt lat="41.15393" lon="1.35025">
        <ele>69.4</ele>
        <time>2022-10-23 08:44:57</time>
      </trkpt>
      <trkpt lat="41.154" lon="1.35014">
        <ele>69.4</ele>
        <time>2022-10-23 08:45:01</time>
      </trkpt>
      <trkpt lat="41.15404" lon="1.3501">
        <ele>69.4</ele>
        <time>2022-10-23 08:45:02</time>
      </trkpt>
      <trkpt lat="41.15409" lon="1.35006">
        <ele>69.4</ele>
        <time>2022-10-23 08:45:06</time>
      </trkpt>
      <trkpt lat="41.15426" lon="1.34994">
        <ele>69.4</ele>
        <time>2022-10-23 08:45:10</time>
      </trkpt>
      <trkpt lat="41.15456" lon="1.34973">
        <ele>67.6</ele>
        <time>2022-10-23 08:45:12</time>
      </trkpt>
      <trkpt lat="41.15462" lon="1.34968">
        <ele>67</ele>
        <time>2022-10-23 08:45:16</time>
      </trkpt>
      <trkpt lat="41.15469" lon="1.34963">
        <ele>66.4</ele>
        <time>2022-10-23 08:45:19</time>
      </trkpt>
      <trkpt lat="41.15482" lon="1.34955">
        <ele>65.4</ele>
        <time>2022-10-23 08:45:25</time>
      </trkpt>
      <trkpt lat="41.15494" lon="1.34945">
        <ele>64.4</ele>
        <time>2022-10-23 08:45:31</time>
      </trkpt>
      <trkpt lat="41.15499" lon="1.34941">
        <ele>64</ele>
        <time>2022-10-23 08:45:36</time>
      </trkpt>
      <trkpt lat="41.1551" lon="1.34933">
        <ele>63</ele>
        <time>2022-10-23 08:45:42</time>
      </trkpt>
      <trkpt lat="41.15524" lon="1.34921">
        <ele>62.4</ele>
        <time>2022-10-23 08:45:45</time>
      </trkpt>
      <trkpt lat="41.15528" lon="1.34918">
        <ele>62.4</ele>
        <time>2022-10-23 08:45:46</time>
      </trkpt>
      <trkpt lat="41.15547" lon="1.34903">
        <ele>62.4</ele>
        <time>2022-10-23 08:45:47</time>
      </trkpt>
      <trkpt lat="41.15564" lon="1.34889">
        <ele>64.2</ele>
        <time>2022-10-23 08:45:50</time>
      </trkpt>
      <trkpt lat="41.15573" lon="1.3488">
        <ele>65.2</ele>
        <time>2022-10-23 08:45:55</time>
      </trkpt>
      <trkpt lat="41.15581" lon="1.34873">
        <ele>65.6</ele>
        <time>2022-10-23 08:45:56</time>
      </trkpt>
      <trkpt lat="41.15594" lon="1.34856">
        <ele>65.8</ele>
        <time>2022-10-23 08:45:57</time>
      </trkpt>
      <trkpt lat="41.15601" lon="1.34848">
        <ele>65.6</ele>
        <time>2022-10-23 08:45:59</time>
      </trkpt>
      <trkpt lat="41.15607" lon="1.34841">
        <ele>65.6</ele>
        <time>2022-10-23 08:46:01</time>
      </trkpt>
      <trkpt lat="41.15625" lon="1.34819">
        <ele>65.4</ele>
        <time>2022-10-23 08:46:02</time>
      </trkpt>
      <trkpt lat="41.15644" lon="1.34796">
        <ele>65.6</ele>
        <time>2022-10-23 08:46:04</time>
      </trkpt>
      <trkpt lat="41.15653" lon="1.34785">
        <ele>66</ele>
        <time>2022-10-23 08:46:07</time>
      </trkpt>
      <trkpt lat="41.15658" lon="1.34781">
        <ele>66.2</ele>
        <time>2022-10-23 08:46:08</time>
      </trkpt>
      <trkpt lat="41.15661" lon="1.34778">
        <ele>66.4</ele>
        <time>2022-10-23 08:46:14</time>
      </trkpt>
      <trkpt lat="41.1567" lon="1.34773">
        <ele>66.8</ele>
        <time>2022-10-23 08:46:21</time>
      </trkpt>
      <trkpt lat="41.15674" lon="1.34771">
        <ele>66.8</ele>
        <time>2022-10-23 08:46:25</time>
      </trkpt>
      <trkpt lat="41.15684" lon="1.34765">
        <ele>66.8</ele>
        <time>2022-10-23 08:46:28</time>
      </trkpt>
      <trkpt lat="41.157" lon="1.34759">
        <ele>66.8</ele>
        <time>2022-10-23 08:46:34</time>
      </trkpt>
      <trkpt lat="41.15711" lon="1.34769">
        <ele>66.8</ele>
        <time>2022-10-23 08:46:37</time>
      </trkpt>
      <trkpt lat="41.1573" lon="1.34798">
        <ele>65.8</ele>
        <time>2022-10-23 08:46:39</time>
      </trkpt>
      <trkpt lat="41.15738" lon="1.34809">
        <ele>65.2</ele>
        <time>2022-10-23 08:46:46</time>
      </trkpt>
      <trkpt lat="41.15742" lon="1.34814">
        <ele>64.8</ele>
        <time>2022-10-23 08:46:54</time>
      </trkpt>
      <trkpt lat="41.15749" lon="1.34822">
        <ele>64.2</ele>
        <time>2022-10-23 08:46:58</time>
      </trkpt>
      <trkpt lat="41.15753" lon="1.34824">
        <ele>63.8</ele>
        <time>2022-10-23 08:47:00</time>
      </trkpt>
      <trkpt lat="41.1576" lon="1.34822">
        <ele>63</ele>
        <time>2022-10-23 08:47:01</time>
      </trkpt>
      <trkpt lat="41.15763" lon="1.34819">
        <ele>62.8</ele>
        <time>2022-10-23 08:47:04</time>
      </trkpt>
      <trkpt lat="41.15772" lon="1.34806">
        <ele>61.4</ele>
        <time>2022-10-23 08:47:05</time>
      </trkpt>
      <trkpt lat="41.15781" lon="1.34791">
        <ele>60</ele>
        <time>2022-10-23 08:47:08</time>
      </trkpt>
      <trkpt lat="41.15787" lon="1.34782">
        <ele>59.2</ele>
        <time>2022-10-23 08:47:13</time>
      </trkpt>
      <trkpt lat="41.1579" lon="1.34778">
        <ele>59</ele>
        <time>2022-10-23 08:47:16</time>
      </trkpt>
      <trkpt lat="41.15792" lon="1.34773">
        <ele>59</ele>
        <time>2022-10-23 08:47:21</time>
      </trkpt>
      <trkpt lat="41.158" lon="1.34761">
        <ele>58.8</ele>
        <time>2022-10-23 08:47:23</time>
      </trkpt>
      <trkpt lat="41.15804" lon="1.34755">
        <ele>58.8</ele>
        <time>2022-10-23 08:47:24</time>
      </trkpt>
      <trkpt lat="41.15811" lon="1.34743">
        <ele>59.2</ele>
        <time>2022-10-23 08:47:26</time>
      </trkpt>
      <trkpt lat="41.15816" lon="1.34735">
        <ele>60</ele>
        <time>2022-10-23 08:47:27</time>
      </trkpt>
      <trkpt lat="41.15823" lon="1.34727">
        <ele>60.8</ele>
        <time>2022-10-23 08:47:29</time>
      </trkpt>
      <trkpt lat="41.15829" lon="1.34722">
        <ele>61</ele>
        <time>2022-10-23 08:47:30</time>
      </trkpt>
      <trkpt lat="41.15832" lon="1.34719">
        <ele>61.4</ele>
        <time>2022-10-23 08:47:33</time>
      </trkpt>
      <trkpt lat="41.15839" lon="1.3471">
        <ele>62.2</ele>
        <time>2022-10-23 08:47:36</time>
      </trkpt>
      <trkpt lat="41.15843" lon="1.34704">
        <ele>62.4</ele>
        <time>2022-10-23 08:47:38</time>
      </trkpt>
      <trkpt lat="41.15845" lon="1.34698">
        <ele>62.8</ele>
        <time>2022-10-23 08:47:39</time>
      </trkpt>
      <trkpt lat="41.15846" lon="1.34695">
        <ele>62.8</ele>
        <time>2022-10-23 08:47:40</time>
      </trkpt>
      <trkpt lat="41.15849" lon="1.34688">
        <ele>63.4</ele>
        <time>2022-10-23 08:47:43</time>
      </trkpt>
      <trkpt lat="41.15851" lon="1.34681">
        <ele>63.8</ele>
        <time>2022-10-23 08:47:45</time>
      </trkpt>
      <trkpt lat="41.15852" lon="1.34678">
        <ele>64</ele>
        <time>2022-10-23 08:47:49</time>
      </trkpt>
      <trkpt lat="41.15853" lon="1.34674">
        <ele>64.4</ele>
        <time>2022-10-23 08:47:52</time>
      </trkpt>
      <trkpt lat="41.15856" lon="1.34668">
        <ele>65.2</ele>
        <time>2022-10-23 08:47:56</time>
      </trkpt>
      <trkpt lat="41.15858" lon="1.34666">
        <ele>65.4</ele>
        <time>2022-10-23 08:48:00</time>
      </trkpt>
      <trkpt lat="41.1586" lon="1.34662">
        <ele>66</ele>
        <time>2022-10-23 08:48:02</time>
      </trkpt>
      <trkpt lat="41.15863" lon="1.34658">
        <ele>66.6</ele>
        <time>2022-10-23 08:48:06</time>
      </trkpt>
      <trkpt lat="41.15865" lon="1.34651">
        <ele>67</ele>
        <time>2022-10-23 08:48:09</time>
      </trkpt>
      <trkpt lat="41.15865" lon="1.34649">
        <ele>67.2</ele>
        <time>2022-10-23 08:48:12</time>
      </trkpt>
      <trkpt lat="41.15865" lon="1.34646">
        <ele>67.4</ele>
        <time>2022-10-23 08:48:13</time>
      </trkpt>
      <trkpt lat="41.15863" lon="1.34644">
        <ele>67.6</ele>
        <time>2022-10-23 08:48:16</time>
      </trkpt>
      <trkpt lat="41.15862" lon="1.34643">
        <ele>67.6</ele>
        <time>2022-10-23 08:48:19</time>
      </trkpt>
      <trkpt lat="41.15856" lon="1.34642">
        <ele>68.2</ele>
        <time>2022-10-23 08:48:20</time>
      </trkpt>
      <trkpt lat="41.15854" lon="1.34641">
        <ele>68.6</ele>
        <time>2022-10-23 08:48:22</time>
      </trkpt>
      <trkpt lat="41.1585" lon="1.3464">
        <ele>69.4</ele>
        <time>2022-10-23 08:48:25</time>
      </trkpt>
      <trkpt lat="41.15847" lon="1.34637">
        <ele>69.8</ele>
        <time>2022-10-23 08:48:26</time>
      </trkpt>
      <trkpt lat="41.15844" lon="1.3463">
        <ele>70.2</ele>
        <time>2022-10-23 08:48:28</time>
      </trkpt>
      <trkpt lat="41.15844" lon="1.34627">
        <ele>70.4</ele>
        <time>2022-10-23 08:48:30</time>
      </trkpt>
      <trkpt lat="41.15843" lon="1.34618">
        <ele>71</ele>
        <time>2022-10-23 08:48:33</time>
      </trkpt>
      <trkpt lat="41.15843" lon="1.34609">
        <ele>71.6</ele>
        <time>2022-10-23 08:48:34</time>
      </trkpt>
      <trkpt lat="41.15843" lon="1.34603">
        <ele>72</ele>
        <time>2022-10-23 08:48:35</time>
      </trkpt>
      <trkpt lat="41.15841" lon="1.34594">
        <ele>72.6</ele>
        <time>2022-10-23 08:48:36</time>
      </trkpt>
      <trkpt lat="41.1584" lon="1.34589">
        <ele>73</ele>
        <time>2022-10-23 08:48:37</time>
      </trkpt>
      <trkpt lat="41.1584" lon="1.3458">
        <ele>73.8</ele>
        <time>2022-10-23 08:48:40</time>
      </trkpt>
      <trkpt lat="41.15844" lon="1.34576">
        <ele>74.2</ele>
        <time>2022-10-23 08:48:41</time>
      </trkpt>
      <trkpt lat="41.15849" lon="1.34571">
        <ele>74.8</ele>
        <time>2022-10-23 08:48:43</time>
      </trkpt>
      <trkpt lat="41.15859" lon="1.34566">
        <ele>75.2</ele>
        <time>2022-10-23 08:48:45</time>
      </trkpt>
      <trkpt lat="41.1587" lon="1.3456">
        <ele>76</ele>
        <time>2022-10-23 08:48:48</time>
      </trkpt>
      <trkpt lat="41.15871" lon="1.34558">
        <ele>76.2</ele>
        <time>2022-10-23 08:48:49</time>
      </trkpt>
      <trkpt lat="41.15874" lon="1.34549">
        <ele>76.4</ele>
        <time>2022-10-23 08:48:52</time>
      </trkpt>
      <trkpt lat="41.15874" lon="1.34546">
        <ele>76.4</ele>
        <time>2022-10-23 08:48:55</time>
      </trkpt>
      <trkpt lat="41.15883" lon="1.34531">
        <ele>77</ele>
        <time>2022-10-23 08:48:57</time>
      </trkpt>
      <trkpt lat="41.15888" lon="1.34528">
        <ele>77.4</ele>
        <time>2022-10-23 08:49:00</time>
      </trkpt>
      <trkpt lat="41.15896" lon="1.3452">
        <ele>77.8</ele>
        <time>2022-10-23 08:49:02</time>
      </trkpt>
      <trkpt lat="41.15905" lon="1.34512">
        <ele>78.4</ele>
        <time>2022-10-23 08:49:06</time>
      </trkpt>
      <trkpt lat="41.15907" lon="1.3451">
        <ele>78.4</ele>
        <time>2022-10-23 08:49:08</time>
      </trkpt>
      <trkpt lat="41.15912" lon="1.34504">
        <ele>78.8</ele>
        <time>2022-10-23 08:49:11</time>
      </trkpt>
      <trkpt lat="41.15918" lon="1.34498">
        <ele>79.4</ele>
        <time>2022-10-23 08:49:16</time>
      </trkpt>
      <trkpt lat="41.15919" lon="1.34495">
        <ele>79.4</ele>
        <time>2022-10-23 08:49:22</time>
      </trkpt>
      <trkpt lat="41.15929" lon="1.34481">
        <ele>80</ele>
        <time>2022-10-23 08:49:23</time>
      </trkpt>
      <trkpt lat="41.1594" lon="1.34468">
        <ele>80.2</ele>
        <time>2022-10-23 08:49:26</time>
      </trkpt>
      <trkpt lat="41.1595" lon="1.34459">
        <ele>80.6</ele>
        <time>2022-10-23 08:49:27</time>
      </trkpt>
      <trkpt lat="41.15955" lon="1.34452">
        <ele>81</ele>
        <time>2022-10-23 08:49:33</time>
      </trkpt>
      <trkpt lat="41.1596" lon="1.34446">
        <ele>81.4</ele>
        <time>2022-10-23 08:49:35</time>
      </trkpt>
      <trkpt lat="41.15962" lon="1.34444">
        <ele>81.4</ele>
        <time>2022-10-23 08:49:39</time>
      </trkpt>
      <trkpt lat="41.15964" lon="1.34442">
        <ele>81.8</ele>
        <time>2022-10-23 08:49:44</time>
      </trkpt>
      <trkpt lat="41.15968" lon="1.34433">
        <ele>82</ele>
        <time>2022-10-23 08:49:45</time>
      </trkpt>
      <trkpt lat="41.15971" lon="1.34423">
        <ele>82.2</ele>
        <time>2022-10-23 08:49:48</time>
      </trkpt>
      <trkpt lat="41.15972" lon="1.34414">
        <ele>82.4</ele>
        <time>2022-10-23 08:49:51</time>
      </trkpt>
      <trkpt lat="41.1597" lon="1.34398">
        <ele>82.6</ele>
        <time>2022-10-23 08:49:52</time>
      </trkpt>
      <trkpt lat="41.15976" lon="1.3438">
        <ele>83.6</ele>
        <time>2022-10-23 08:49:58</time>
      </trkpt>
      <trkpt lat="41.15985" lon="1.34372">
        <ele>84.8</ele>
        <time>2022-10-23 08:50:04</time>
      </trkpt>
      <trkpt lat="41.15989" lon="1.34369">
        <ele>85.4</ele>
        <time>2022-10-23 08:50:09</time>
      </trkpt>
      <trkpt lat="41.15992" lon="1.34365">
        <ele>85.8</ele>
        <time>2022-10-23 08:50:12</time>
      </trkpt>
      <trkpt lat="41.15997" lon="1.34359">
        <ele>86.6</ele>
        <time>2022-10-23 08:50:15</time>
      </trkpt>
      <trkpt lat="41.15998" lon="1.34357">
        <ele>86.8</ele>
        <time>2022-10-23 08:50:16</time>
      </trkpt>
      <trkpt lat="41.16006" lon="1.34349">
        <ele>87.8</ele>
        <time>2022-10-23 08:50:17</time>
      </trkpt>
      <trkpt lat="41.16007" lon="1.34348">
        <ele>88.2</ele>
        <time>2022-10-23 08:50:21</time>
      </trkpt>
      <trkpt lat="41.16014" lon="1.34343">
        <ele>89.6</ele>
        <time>2022-10-23 08:50:24</time>
      </trkpt>
      <trkpt lat="41.16017" lon="1.3434">
        <ele>90</ele>
        <time>2022-10-23 08:50:27</time>
      </trkpt>
      <trkpt lat="41.16023" lon="1.34334">
        <ele>90.6</ele>
        <time>2022-10-23 08:50:32</time>
      </trkpt>
      <trkpt lat="41.16026" lon="1.3433">
        <ele>91</ele>
        <time>2022-10-23 08:50:38</time>
      </trkpt>
      <trkpt lat="41.16031" lon="1.34322">
        <ele>91.8</ele>
        <time>2022-10-23 08:50:43</time>
      </trkpt>
      <trkpt lat="41.16032" lon="1.34321">
        <ele>91.8</ele>
        <time>2022-10-23 08:50:45</time>
      </trkpt>
      <trkpt lat="41.16034" lon="1.34318">
        <ele>92.2</ele>
        <time>2022-10-23 08:50:47</time>
      </trkpt>
      <trkpt lat="41.16035" lon="1.34312">
        <ele>92.4</ele>
        <time>2022-10-23 08:50:50</time>
      </trkpt>
      <trkpt lat="41.16031" lon="1.34306">
        <ele>92.8</ele>
        <time>2022-10-23 08:50:51</time>
      </trkpt>
      <trkpt lat="41.1603" lon="1.34305">
        <ele>92.8</ele>
        <time>2022-10-23 08:50:56</time>
      </trkpt>
      <trkpt lat="41.16026" lon="1.34303">
        <ele>93</ele>
        <time>2022-10-23 08:50:57</time>
      </trkpt>
      <trkpt lat="41.16015" lon="1.34297">
        <ele>93.6</ele>
        <time>2022-10-23 08:51:01</time>
      </trkpt>
      <trkpt lat="41.1601" lon="1.34294">
        <ele>93.8</ele>
        <time>2022-10-23 08:51:03</time>
      </trkpt>
      <trkpt lat="41.16005" lon="1.34292">
        <ele>94</ele>
        <time>2022-10-23 08:51:07</time>
      </trkpt>
      <trkpt lat="41.15997" lon="1.34283">
        <ele>94</ele>
        <time>2022-10-23 08:51:10</time>
      </trkpt>
      <trkpt lat="41.16001" lon="1.34272">
        <ele>94.2</ele>
        <time>2022-10-23 08:51:15</time>
      </trkpt>
      <trkpt lat="41.16005" lon="1.34267">
        <ele>94.2</ele>
        <time>2022-10-23 08:51:16</time>
      </trkpt>
      <trkpt lat="41.16008" lon="1.34264">
        <ele>94.2</ele>
        <time>2022-10-23 08:51:18</time>
      </trkpt>
      <trkpt lat="41.1601" lon="1.34261">
        <ele>94.2</ele>
        <time>2022-10-23 08:51:21</time>
      </trkpt>
      <trkpt lat="41.16014" lon="1.34247">
        <ele>94.8</ele>
        <time>2022-10-23 08:51:25</time>
      </trkpt>
      <trkpt lat="41.16015" lon="1.34245">
        <ele>95</ele>
        <time>2022-10-23 08:51:26</time>
      </trkpt>
      <trkpt lat="41.16021" lon="1.34231">
        <ele>95.6</ele>
        <time>2022-10-23 08:51:28</time>
      </trkpt>
      <trkpt lat="41.16024" lon="1.34222">
        <ele>95.8</ele>
        <time>2022-10-23 08:51:34</time>
      </trkpt>
      <trkpt lat="41.16027" lon="1.34213">
        <ele>95.8</ele>
        <time>2022-10-23 08:51:36</time>
      </trkpt>
      <trkpt lat="41.16034" lon="1.34197">
        <ele>95.8</ele>
        <time>2022-10-23 08:51:38</time>
      </trkpt>
      <trkpt lat="41.16039" lon="1.3418">
        <ele>95.2</ele>
        <time>2022-10-23 08:51:42</time>
      </trkpt>
      <trkpt lat="41.16043" lon="1.34169">
        <ele>94.6</ele>
        <time>2022-10-23 08:51:46</time>
      </trkpt>
      <trkpt lat="41.16048" lon="1.34157">
        <ele>93.8</ele>
        <time>2022-10-23 08:51:48</time>
      </trkpt>
      <trkpt lat="41.1605" lon="1.34152">
        <ele>93.6</ele>
        <time>2022-10-23 08:51:50</time>
      </trkpt>
      <trkpt lat="41.16055" lon="1.34141">
        <ele>93.4</ele>
        <time>2022-10-23 08:51:51</time>
      </trkpt>
      <trkpt lat="41.16058" lon="1.34131">
        <ele>92.6</ele>
        <time>2022-10-23 08:51:56</time>
      </trkpt>
      <trkpt lat="41.16064" lon="1.34116">
        <ele>92</ele>
        <time>2022-10-23 08:51:57</time>
      </trkpt>
      <trkpt lat="41.16067" lon="1.34112">
        <ele>91.8</ele>
        <time>2022-10-23 08:52:01</time>
      </trkpt>
      <trkpt lat="41.1607" lon="1.34108">
        <ele>91</ele>
        <time>2022-10-23 08:52:03</time>
      </trkpt>
      <trkpt lat="41.16074" lon="1.34096">
        <ele>89.6</ele>
        <time>2022-10-23 08:52:05</time>
      </trkpt>
      <trkpt lat="41.16075" lon="1.34091">
        <ele>89</ele>
        <time>2022-10-23 08:52:08</time>
      </trkpt>
      <trkpt lat="41.16075" lon="1.34081">
        <ele>88</ele>
        <time>2022-10-23 08:52:11</time>
      </trkpt>
      <trkpt lat="41.16077" lon="1.34072">
        <ele>87.2</ele>
        <time>2022-10-23 08:52:13</time>
      </trkpt>
      <trkpt lat="41.16079" lon="1.3407">
        <ele>86.8</ele>
        <time>2022-10-23 08:52:15</time>
      </trkpt>
      <trkpt lat="41.16084" lon="1.34067">
        <ele>85.8</ele>
        <time>2022-10-23 08:52:16</time>
      </trkpt>
      <trkpt lat="41.16087" lon="1.34064">
        <ele>85.4</ele>
        <time>2022-10-23 08:52:18</time>
      </trkpt>
      <trkpt lat="41.16094" lon="1.34055">
        <ele>84.4</ele>
        <time>2022-10-23 08:52:20</time>
      </trkpt>
      <trkpt lat="41.16096" lon="1.34048">
        <ele>84.2</ele>
        <time>2022-10-23 08:52:23</time>
      </trkpt>
      <trkpt lat="41.16102" lon="1.34024">
        <ele>83</ele>
        <time>2022-10-23 08:52:24</time>
      </trkpt>
      <trkpt lat="41.16106" lon="1.34007">
        <ele>82.4</ele>
        <time>2022-10-23 08:52:25</time>
      </trkpt>
      <trkpt lat="41.16108" lon="1.33999">
        <ele>82</ele>
        <time>2022-10-23 08:52:28</time>
      </trkpt>
      <trkpt lat="41.16112" lon="1.33985">
        <ele>80.8</ele>
        <time>2022-10-23 08:52:29</time>
      </trkpt>
      <trkpt lat="41.16119" lon="1.33958">
        <ele>80</ele>
        <time>2022-10-23 08:52:31</time>
      </trkpt>
      <trkpt lat="41.16125" lon="1.33932">
        <ele>79.8</ele>
        <time>2022-10-23 08:52:33</time>
      </trkpt>
      <trkpt lat="41.16128" lon="1.3392">
        <ele>79.8</ele>
        <time>2022-10-23 08:52:34</time>
      </trkpt>
      <trkpt lat="41.16131" lon="1.33908">
        <ele>80</ele>
        <time>2022-10-23 08:52:36</time>
      </trkpt>
      <trkpt lat="41.16141" lon="1.33872">
        <ele>80.8</ele>
        <time>2022-10-23 08:52:37</time>
      </trkpt>
      <trkpt lat="41.16142" lon="1.33868">
        <ele>81</ele>
        <time>2022-10-23 08:52:39</time>
      </trkpt>
      <trkpt lat="41.16146" lon="1.33859">
        <ele>81.6</ele>
        <time>2022-10-23 08:52:40</time>
      </trkpt>
      <trkpt lat="41.16147" lon="1.33858">
        <ele>82</ele>
        <time>2022-10-23 08:52:43</time>
      </trkpt>
      <trkpt lat="41.16152" lon="1.33857">
        <ele>83.2</ele>
        <time>2022-10-23 08:52:45</time>
      </trkpt>
      <trkpt lat="41.16154" lon="1.33858">
        <ele>83.4</ele>
        <time>2022-10-23 08:52:46</time>
      </trkpt>
      <trkpt lat="41.16158" lon="1.33858">
        <ele>84.2</ele>
        <time>2022-10-23 08:52:48</time>
      </trkpt>
      <trkpt lat="41.16162" lon="1.33855">
        <ele>84.8</ele>
        <time>2022-10-23 08:52:52</time>
      </trkpt>
      <trkpt lat="41.16163" lon="1.33853">
        <ele>85.4</ele>
        <time>2022-10-23 08:52:56</time>
      </trkpt>
      <trkpt lat="41.16162" lon="1.33847">
        <ele>86</ele>
        <time>2022-10-23 08:52:58</time>
      </trkpt>
      <trkpt lat="41.16157" lon="1.3384">
        <ele>86.4</ele>
        <time>2022-10-23 08:53:00</time>
      </trkpt>
      <trkpt lat="41.16156" lon="1.33837">
        <ele>86.6</ele>
        <time>2022-10-23 08:53:07</time>
      </trkpt>
      <trkpt lat="41.16155" lon="1.33834">
        <ele>86.8</ele>
        <time>2022-10-23 08:53:08</time>
      </trkpt>
      <trkpt lat="41.1615" lon="1.33823">
        <ele>87.8</ele>
        <time>2022-10-23 08:53:11</time>
      </trkpt>
      <trkpt lat="41.16141" lon="1.3381">
        <ele>88.4</ele>
        <time>2022-10-23 08:53:12</time>
      </trkpt>
      <trkpt lat="41.16136" lon="1.33799">
        <ele>88.4</ele>
        <time>2022-10-23 08:53:15</time>
      </trkpt>
      <trkpt lat="41.16126" lon="1.33781">
        <ele>88.4</ele>
        <time>2022-10-23 08:53:16</time>
      </trkpt>
      <trkpt lat="41.16114" lon="1.33768">
        <ele>88.4</ele>
        <time>2022-10-23 08:53:18</time>
      </trkpt>
      <trkpt lat="41.16113" lon="1.33767">
        <ele>88.2</ele>
        <time>2022-10-23 08:53:20</time>
      </trkpt>
      <trkpt lat="41.16111" lon="1.3377">
        <ele>88</ele>
        <time>2022-10-23 08:53:21</time>
      </trkpt>
      <trkpt lat="41.16101" lon="1.33768">
        <ele>87.6</ele>
        <time>2022-10-23 08:53:23</time>
      </trkpt>
      <trkpt lat="41.16095" lon="1.33765">
        <ele>87.2</ele>
        <time>2022-10-23 08:53:26</time>
      </trkpt>
      <trkpt lat="41.16091" lon="1.33763">
        <ele>87.2</ele>
        <time>2022-10-23 08:53:27</time>
      </trkpt>
      <trkpt lat="41.16079" lon="1.33759">
        <ele>87.2</ele>
        <time>2022-10-23 08:53:28</time>
      </trkpt>
      <trkpt lat="41.16064" lon="1.33749">
        <ele>87</ele>
        <time>2022-10-23 08:53:32</time>
      </trkpt>
      <trkpt lat="41.16055" lon="1.33744">
        <ele>86.8</ele>
        <time>2022-10-23 08:53:38</time>
      </trkpt>
      <trkpt lat="41.16051" lon="1.33743">
        <ele>86.6</ele>
        <time>2022-10-23 08:53:43</time>
      </trkpt>
      <trkpt lat="41.16047" lon="1.33742">
        <ele>86.4</ele>
        <time>2022-10-23 08:53:49</time>
      </trkpt>
      <trkpt lat="41.16032" lon="1.33744">
        <ele>86.4</ele>
        <time>2022-10-23 08:53:54</time>
      </trkpt>
      <trkpt lat="41.16027" lon="1.33745">
        <ele>86.4</ele>
        <time>2022-10-23 08:53:55</time>
      </trkpt>
      <trkpt lat="41.16022" lon="1.33744">
        <ele>86.4</ele>
        <time>2022-10-23 08:53:57</time>
      </trkpt>
      <trkpt lat="41.16013" lon="1.33739">
        <ele>86.2</ele>
        <time>2022-10-23 08:54:01</time>
      </trkpt>
      <trkpt lat="41.16004" lon="1.33733">
        <ele>85.6</ele>
        <time>2022-10-23 08:54:03</time>
      </trkpt>
      <trkpt lat="41.15999" lon="1.33731">
        <ele>85.2</ele>
        <time>2022-10-23 08:54:04</time>
      </trkpt>
      <trkpt lat="41.15996" lon="1.33729">
        <ele>84.4</ele>
        <time>2022-10-23 08:54:07</time>
      </trkpt>
      <trkpt lat="41.15992" lon="1.33727">
        <ele>83.4</ele>
        <time>2022-10-23 08:54:11</time>
      </trkpt>
      <trkpt lat="41.15987" lon="1.33723">
        <ele>82.4</ele>
        <time>2022-10-23 08:54:14</time>
      </trkpt>
      <trkpt lat="41.15984" lon="1.33722">
        <ele>82.2</ele>
        <time>2022-10-23 08:54:15</time>
      </trkpt>
      <trkpt lat="41.15975" lon="1.33722">
        <ele>81</ele>
        <time>2022-10-23 08:54:16</time>
      </trkpt>
      <trkpt lat="41.15972" lon="1.33722">
        <ele>80.6</ele>
        <time>2022-10-23 08:54:19</time>
      </trkpt>
      <trkpt lat="41.15965" lon="1.33726">
        <ele>79.8</ele>
        <time>2022-10-23 08:54:20</time>
      </trkpt>
      <trkpt lat="41.15961" lon="1.33728">
        <ele>78.8</ele>
        <time>2022-10-23 08:54:21</time>
      </trkpt>
      <trkpt lat="41.15957" lon="1.33727">
        <ele>78.4</ele>
        <time>2022-10-23 08:54:23</time>
      </trkpt>
      <trkpt lat="41.15944" lon="1.33723">
        <ele>77</ele>
        <time>2022-10-23 08:54:25</time>
      </trkpt>
      <trkpt lat="41.1594" lon="1.33723">
        <ele>76.2</ele>
        <time>2022-10-23 08:54:26</time>
      </trkpt>
      <trkpt lat="41.15936" lon="1.33723">
        <ele>75.8</ele>
        <time>2022-10-23 08:54:27</time>
      </trkpt>
      <trkpt lat="41.15924" lon="1.33721">
        <ele>74.2</ele>
        <time>2022-10-23 08:54:28</time>
      </trkpt>
      <trkpt lat="41.15921" lon="1.33719">
        <ele>73.6</ele>
        <time>2022-10-23 08:54:30</time>
      </trkpt>
      <trkpt lat="41.15918" lon="1.33717">
        <ele>73.2</ele>
        <time>2022-10-23 08:54:31</time>
      </trkpt>
      <trkpt lat="41.15912" lon="1.33713">
        <ele>72</ele>
        <time>2022-10-23 08:54:34</time>
      </trkpt>
      <trkpt lat="41.15909" lon="1.33709">
        <ele>71.4</ele>
        <time>2022-10-23 08:54:35</time>
      </trkpt>
      <trkpt lat="41.15905" lon="1.33702">
        <ele>70.8</ele>
        <time>2022-10-23 08:54:37</time>
      </trkpt>
      <trkpt lat="41.15905" lon="1.33695">
        <ele>69.8</ele>
        <time>2022-10-23 08:54:39</time>
      </trkpt>
      <trkpt lat="41.15905" lon="1.33691">
        <ele>69.4</ele>
        <time>2022-10-23 08:54:40</time>
      </trkpt>
      <trkpt lat="41.15901" lon="1.33677">
        <ele>68</ele>
        <time>2022-10-23 08:54:43</time>
      </trkpt>
      <trkpt lat="41.159" lon="1.33663">
        <ele>67.2</ele>
        <time>2022-10-23 08:54:44</time>
      </trkpt>
      <trkpt lat="41.15898" lon="1.33656">
        <ele>66.8</ele>
        <time>2022-10-23 08:54:45</time>
      </trkpt>
      <trkpt lat="41.15895" lon="1.33651">
        <ele>66.6</ele>
        <time>2022-10-23 08:54:48</time>
      </trkpt>
      <trkpt lat="41.15892" lon="1.33645">
        <ele>66.4</ele>
        <time>2022-10-23 08:54:49</time>
      </trkpt>
      <trkpt lat="41.15889" lon="1.33641">
        <ele>66.2</ele>
        <time>2022-10-23 08:54:50</time>
      </trkpt>
      <trkpt lat="41.15881" lon="1.33638">
        <ele>65.6</ele>
        <time>2022-10-23 08:54:52</time>
      </trkpt>
      <trkpt lat="41.15875" lon="1.33632">
        <ele>65</ele>
        <time>2022-10-23 08:54:53</time>
      </trkpt>
      <trkpt lat="41.15874" lon="1.33629">
        <ele>64.6</ele>
        <time>2022-10-23 08:54:55</time>
      </trkpt>
      <trkpt lat="41.15877" lon="1.33618">
        <ele>63.2</ele>
        <time>2022-10-23 08:54:57</time>
      </trkpt>
      <trkpt lat="41.15878" lon="1.33613">
        <ele>62.8</ele>
        <time>2022-10-23 08:54:58</time>
      </trkpt>
      <trkpt lat="41.15877" lon="1.33601">
        <ele>62.2</ele>
        <time>2022-10-23 08:55:01</time>
      </trkpt>
      <trkpt lat="41.15876" lon="1.33589">
        <ele>61.8</ele>
        <time>2022-10-23 08:55:04</time>
      </trkpt>
      <trkpt lat="41.15876" lon="1.33582">
        <ele>61.6</ele>
        <time>2022-10-23 08:55:06</time>
      </trkpt>
      <trkpt lat="41.15876" lon="1.33576">
        <ele>61.2</ele>
        <time>2022-10-23 08:55:07</time>
      </trkpt>
      <trkpt lat="41.15877" lon="1.33556">
        <ele>60.6</ele>
        <time>2022-10-23 08:55:08</time>
      </trkpt>
      <trkpt lat="41.15878" lon="1.3355">
        <ele>60.6</ele>
        <time>2022-10-23 08:55:09</time>
      </trkpt>
      <trkpt lat="41.15879" lon="1.33544">
        <ele>60.6</ele>
        <time>2022-10-23 08:55:11</time>
      </trkpt>
      <trkpt lat="41.15876" lon="1.33533">
        <ele>60.6</ele>
        <time>2022-10-23 08:55:14</time>
      </trkpt>
      <trkpt lat="41.15869" lon="1.33511">
        <ele>60.6</ele>
        <time>2022-10-23 08:55:15</time>
      </trkpt>
      <trkpt lat="41.15869" lon="1.335">
        <ele>60.6</ele>
        <time>2022-10-23 08:55:18</time>
      </trkpt>
      <trkpt lat="41.15871" lon="1.33483">
        <ele>61</ele>
        <time>2022-10-23 08:55:19</time>
      </trkpt>
      <trkpt lat="41.15872" lon="1.33462">
        <ele>61.2</ele>
        <time>2022-10-23 08:55:21</time>
      </trkpt>
      <trkpt lat="41.15872" lon="1.33458">
        <ele>61.2</ele>
        <time>2022-10-23 08:55:23</time>
      </trkpt>
      <trkpt lat="41.15873" lon="1.33445">
        <ele>61.4</ele>
        <time>2022-10-23 08:55:24</time>
      </trkpt>
      <trkpt lat="41.15875" lon="1.33443">
        <ele>61.6</ele>
        <time>2022-10-23 08:55:25</time>
      </trkpt>
      <trkpt lat="41.15884" lon="1.33431">
        <ele>62</ele>
        <time>2022-10-23 08:55:28</time>
      </trkpt>
      <trkpt lat="41.15887" lon="1.33424">
        <ele>62</ele>
        <time>2022-10-23 08:55:29</time>
      </trkpt>
      <trkpt lat="41.15889" lon="1.33421">
        <ele>62.2</ele>
        <time>2022-10-23 08:55:30</time>
      </trkpt>
      <trkpt lat="41.15894" lon="1.33416">
        <ele>62.6</ele>
        <time>2022-10-23 08:55:32</time>
      </trkpt>
      <trkpt lat="41.15902" lon="1.33407">
        <ele>63.4</ele>
        <time>2022-10-23 08:55:36</time>
      </trkpt>
      <trkpt lat="41.15904" lon="1.33401">
        <ele>63.6</ele>
        <time>2022-10-23 08:55:38</time>
      </trkpt>
      <trkpt lat="41.1591" lon="1.33387">
        <ele>64.6</ele>
        <time>2022-10-23 08:55:41</time>
      </trkpt>
      <trkpt lat="41.15911" lon="1.33385">
        <ele>64.8</ele>
        <time>2022-10-23 08:55:45</time>
      </trkpt>
      <trkpt lat="41.15916" lon="1.33375">
        <ele>65.2</ele>
        <time>2022-10-23 08:55:46</time>
      </trkpt>
      <trkpt lat="41.15918" lon="1.33373">
        <ele>65.4</ele>
        <time>2022-10-23 08:55:49</time>
      </trkpt>
      <trkpt lat="41.15921" lon="1.33369">
        <ele>65.6</ele>
        <time>2022-10-23 08:55:50</time>
      </trkpt>
      <trkpt lat="41.15928" lon="1.33366">
        <ele>66.2</ele>
        <time>2022-10-23 08:55:55</time>
      </trkpt>
      <trkpt lat="41.15935" lon="1.33356">
        <ele>66.2</ele>
        <time>2022-10-23 08:55:57</time>
      </trkpt>
      <trkpt lat="41.15938" lon="1.33354">
        <ele>66.4</ele>
        <time>2022-10-23 08:55:58</time>
      </trkpt>
      <trkpt lat="41.15942" lon="1.33351">
        <ele>66.6</ele>
        <time>2022-10-23 08:56:00</time>
      </trkpt>
      <trkpt lat="41.1595" lon="1.33342">
        <ele>67.6</ele>
        <time>2022-10-23 08:56:04</time>
      </trkpt>
      <trkpt lat="41.15954" lon="1.33341">
        <ele>67.8</ele>
        <time>2022-10-23 08:56:06</time>
      </trkpt>
      <trkpt lat="41.15959" lon="1.33338">
        <ele>68.2</ele>
        <time>2022-10-23 08:56:11</time>
      </trkpt>
      <trkpt lat="41.15965" lon="1.33333">
        <ele>69</ele>
        <time>2022-10-23 08:56:12</time>
      </trkpt>
      <trkpt lat="41.1597" lon="1.33334">
        <ele>70</ele>
        <time>2022-10-23 08:56:16</time>
      </trkpt>
      <trkpt lat="41.15979" lon="1.33332">
        <ele>71</ele>
        <time>2022-10-23 08:56:17</time>
      </trkpt>
      <trkpt lat="41.15981" lon="1.33331">
        <ele>71.2</ele>
        <time>2022-10-23 08:56:19</time>
      </trkpt>
      <trkpt lat="41.15988" lon="1.33324">
        <ele>72</ele>
        <time>2022-10-23 08:56:23</time>
      </trkpt>
      <trkpt lat="41.15994" lon="1.33319">
        <ele>72.4</ele>
        <time>2022-10-23 08:56:27</time>
      </trkpt>
      <trkpt lat="41.15995" lon="1.33317">
        <ele>72.6</ele>
        <time>2022-10-23 08:56:28</time>
      </trkpt>
      <trkpt lat="41.15996" lon="1.33315">
        <ele>72.8</ele>
        <time>2022-10-23 08:56:30</time>
      </trkpt>
      <trkpt lat="41.15997" lon="1.33296">
        <ele>73.2</ele>
        <time>2022-10-23 08:56:35</time>
      </trkpt>
      <trkpt lat="41.15998" lon="1.33266">
        <ele>73.4</ele>
        <time>2022-10-23 08:56:37</time>
      </trkpt>
      <trkpt lat="41.15999" lon="1.33261">
        <ele>73.4</ele>
        <time>2022-10-23 08:56:40</time>
      </trkpt>
      <trkpt lat="41.15998" lon="1.33237">
        <ele>73.2</ele>
        <time>2022-10-23 08:56:43</time>
      </trkpt>
      <trkpt lat="41.15998" lon="1.33214">
        <ele>72.8</ele>
        <time>2022-10-23 08:56:46</time>
      </trkpt>
      <trkpt lat="41.15995" lon="1.33199">
        <ele>72.8</ele>
        <time>2022-10-23 08:56:51</time>
      </trkpt>
      <trkpt lat="41.15983" lon="1.33175">
        <ele>73.2</ele>
        <time>2022-10-23 08:56:52</time>
      </trkpt>
      <trkpt lat="41.1598" lon="1.33172">
        <ele>73.6</ele>
        <time>2022-10-23 08:56:56</time>
      </trkpt>
      <trkpt lat="41.15968" lon="1.33167">
        <ele>73.6</ele>
        <time>2022-10-23 08:56:59</time>
      </trkpt>
      <trkpt lat="41.15937" lon="1.3317">
        <ele>73.6</ele>
        <time>2022-10-23 08:57:00</time>
      </trkpt>
      <trkpt lat="41.15912" lon="1.33175">
        <ele>72.6</ele>
        <time>2022-10-23 08:57:01</time>
      </trkpt>
      <trkpt lat="41.15908" lon="1.33176">
        <ele>72.4</ele>
        <time>2022-10-23 08:57:05</time>
      </trkpt>
      <trkpt lat="41.15904" lon="1.33178">
        <ele>72.2</ele>
        <time>2022-10-23 08:57:11</time>
      </trkpt>
      <trkpt lat="41.15882" lon="1.33185">
        <ele>71.8</ele>
        <time>2022-10-23 08:57:12</time>
      </trkpt>
      <trkpt lat="41.15873" lon="1.33186">
        <ele>71.8</ele>
        <time>2022-10-23 08:57:16</time>
      </trkpt>
      <trkpt lat="41.15854" lon="1.33189">
        <ele>71.8</ele>
        <time>2022-10-23 08:57:20</time>
      </trkpt>
      <trkpt lat="41.15847" lon="1.33192">
        <ele>71.8</ele>
        <time>2022-10-23 08:57:23</time>
      </trkpt>
      <trkpt lat="41.1583" lon="1.33201">
        <ele>72.2</ele>
        <time>2022-10-23 08:57:29</time>
      </trkpt>
      <trkpt lat="41.15817" lon="1.33204">
        <ele>72.4</ele>
        <time>2022-10-23 08:57:30</time>
      </trkpt>
      <trkpt lat="41.15813" lon="1.33204">
        <ele>72.4</ele>
        <time>2022-10-23 08:57:33</time>
      </trkpt>
      <trkpt lat="41.15805" lon="1.33204">
        <ele>72.4</ele>
        <time>2022-10-23 08:57:39</time>
      </trkpt>
      <trkpt lat="41.15797" lon="1.33205">
        <ele>72.4</ele>
        <time>2022-10-23 08:57:44</time>
      </trkpt>
      <trkpt lat="41.15783" lon="1.33195">
        <ele>72.2</ele>
        <time>2022-10-23 08:57:45</time>
      </trkpt>
      <trkpt lat="41.15773" lon="1.33184">
        <ele>71.4</ele>
        <time>2022-10-23 08:57:46</time>
      </trkpt>
      <trkpt lat="41.1577" lon="1.3318">
        <ele>71</ele>
        <time>2022-10-23 08:57:51</time>
      </trkpt>
      <trkpt lat="41.15766" lon="1.33176">
        <ele>70.8</ele>
        <time>2022-10-23 08:57:53</time>
      </trkpt>
      <trkpt lat="41.15763" lon="1.33172">
        <ele>70.4</ele>
        <time>2022-10-23 08:57:58</time>
      </trkpt>
      <trkpt lat="41.15759" lon="1.3317">
        <ele>69.8</ele>
        <time>2022-10-23 08:58:00</time>
      </trkpt>
      <trkpt lat="41.15746" lon="1.33165">
        <ele>69</ele>
        <time>2022-10-23 08:58:05</time>
      </trkpt>
      <trkpt lat="41.15742" lon="1.33163">
        <ele>68.6</ele>
        <time>2022-10-23 08:58:09</time>
      </trkpt>
      <trkpt lat="41.15738" lon="1.3316">
        <ele>68.4</ele>
        <time>2022-10-23 08:58:10</time>
      </trkpt>
      <trkpt lat="41.15733" lon="1.33157">
        <ele>68</ele>
        <time>2022-10-23 08:58:12</time>
      </trkpt>
      <trkpt lat="41.15725" lon="1.33151">
        <ele>67.2</ele>
        <time>2022-10-23 08:58:14</time>
      </trkpt>
      <trkpt lat="41.15714" lon="1.33139">
        <ele>66.2</ele>
        <time>2022-10-23 08:58:18</time>
      </trkpt>
      <trkpt lat="41.15709" lon="1.33135">
        <ele>65.8</ele>
        <time>2022-10-23 08:58:21</time>
      </trkpt>
      <trkpt lat="41.15704" lon="1.33131">
        <ele>65.2</ele>
        <time>2022-10-23 08:58:22</time>
      </trkpt>
      <trkpt lat="41.15701" lon="1.33127">
        <ele>64.8</ele>
        <time>2022-10-23 08:58:23</time>
      </trkpt>
      <trkpt lat="41.15691" lon="1.33113">
        <ele>63.8</ele>
        <time>2022-10-23 08:58:24</time>
      </trkpt>
      <trkpt lat="41.15686" lon="1.33109">
        <ele>63.4</ele>
        <time>2022-10-23 08:58:25</time>
      </trkpt>
      <trkpt lat="41.15678" lon="1.331">
        <ele>62.6</ele>
        <time>2022-10-23 08:58:28</time>
      </trkpt>
      <trkpt lat="41.1567" lon="1.33091">
        <ele>61.8</ele>
        <time>2022-10-23 08:58:29</time>
      </trkpt>
      <trkpt lat="41.15667" lon="1.33088">
        <ele>61.4</ele>
        <time>2022-10-23 08:58:30</time>
      </trkpt>
      <trkpt lat="41.15663" lon="1.33083">
        <ele>60.8</ele>
        <time>2022-10-23 08:58:31</time>
      </trkpt>
      <trkpt lat="41.15662" lon="1.3308">
        <ele>60.4</ele>
        <time>2022-10-23 08:58:33</time>
      </trkpt>
      <trkpt lat="41.1566" lon="1.33074">
        <ele>58.6</ele>
        <time>2022-10-23 08:58:36</time>
      </trkpt>
      <trkpt lat="41.15659" lon="1.33068">
        <ele>57.4</ele>
        <time>2022-10-23 08:58:37</time>
      </trkpt>
      <trkpt lat="41.1566" lon="1.33065">
        <ele>56.8</ele>
        <time>2022-10-23 08:58:38</time>
      </trkpt>
      <trkpt lat="41.1566" lon="1.33059">
        <ele>56.2</ele>
        <time>2022-10-23 08:58:39</time>
      </trkpt>
      <trkpt lat="41.15665" lon="1.33044">
        <ele>55</ele>
        <time>2022-10-23 08:58:42</time>
      </trkpt>
      <trkpt lat="41.15666" lon="1.33041">
        <ele>54.8</ele>
        <time>2022-10-23 08:58:43</time>
      </trkpt>
      <trkpt lat="41.15671" lon="1.33027">
        <ele>54</ele>
        <time>2022-10-23 08:58:45</time>
      </trkpt>
      <trkpt lat="41.15672" lon="1.33024">
        <ele>53.8</ele>
        <time>2022-10-23 08:58:47</time>
      </trkpt>
      <trkpt lat="41.15679" lon="1.33008">
        <ele>53.2</ele>
        <time>2022-10-23 08:58:48</time>
      </trkpt>
      <trkpt lat="41.15688" lon="1.32999">
        <ele>52.8</ele>
        <time>2022-10-23 08:58:50</time>
      </trkpt>
      <trkpt lat="41.15694" lon="1.32994">
        <ele>52.4</ele>
        <time>2022-10-23 08:58:51</time>
      </trkpt>
      <trkpt lat="41.15695" lon="1.3299">
        <ele>52</ele>
        <time>2022-10-23 08:58:53</time>
      </trkpt>
      <trkpt lat="41.15695" lon="1.32987">
        <ele>51.6</ele>
        <time>2022-10-23 08:58:55</time>
      </trkpt>
      <trkpt lat="41.15694" lon="1.32985">
        <ele>51.4</ele>
        <time>2022-10-23 08:58:56</time>
      </trkpt>
      <trkpt lat="41.15692" lon="1.32981">
        <ele>51</ele>
        <time>2022-10-23 08:58:58</time>
      </trkpt>
      <trkpt lat="41.15689" lon="1.32973">
        <ele>50.8</ele>
        <time>2022-10-23 08:59:02</time>
      </trkpt>
      <trkpt lat="41.15686" lon="1.32965">
        <ele>50.6</ele>
        <time>2022-10-23 08:59:03</time>
      </trkpt>
      <trkpt lat="41.15686" lon="1.32963">
        <ele>50.4</ele>
        <time>2022-10-23 08:59:07</time>
      </trkpt>
      <trkpt lat="41.15682" lon="1.32956">
        <ele>50</ele>
        <time>2022-10-23 08:59:08</time>
      </trkpt>
      <trkpt lat="41.15679" lon="1.32948">
        <ele>49.4</ele>
        <time>2022-10-23 08:59:12</time>
      </trkpt>
      <trkpt lat="41.15673" lon="1.32927">
        <ele>48.6</ele>
        <time>2022-10-23 08:59:15</time>
      </trkpt>
      <trkpt lat="41.15672" lon="1.32923">
        <ele>48.4</ele>
        <time>2022-10-23 08:59:17</time>
      </trkpt>
      <trkpt lat="41.15667" lon="1.3291">
        <ele>47.4</ele>
        <time>2022-10-23 08:59:18</time>
      </trkpt>
      <trkpt lat="41.15664" lon="1.32899">
        <ele>46.2</ele>
        <time>2022-10-23 08:59:19</time>
      </trkpt>
      <trkpt lat="41.15661" lon="1.3289">
        <ele>45.2</ele>
        <time>2022-10-23 08:59:20</time>
      </trkpt>
      <trkpt lat="41.1566" lon="1.32889">
        <ele>45</ele>
        <time>2022-10-23 08:59:22</time>
      </trkpt>
      <trkpt lat="41.15655" lon="1.32883">
        <ele>44</ele>
        <time>2022-10-23 08:59:25</time>
      </trkpt>
      <trkpt lat="41.15653" lon="1.32881">
        <ele>43.8</ele>
        <time>2022-10-23 08:59:29</time>
      </trkpt>
      <trkpt lat="41.1565" lon="1.32878">
        <ele>43.6</ele>
        <time>2022-10-23 08:59:30</time>
      </trkpt>
      <trkpt lat="41.15646" lon="1.32878">
        <ele>43.2</ele>
        <time>2022-10-23 08:59:33</time>
      </trkpt>
      <trkpt lat="41.15641" lon="1.32884">
        <ele>42.6</ele>
        <time>2022-10-23 08:59:36</time>
      </trkpt>
      <trkpt lat="41.15639" lon="1.32886">
        <ele>42.4</ele>
        <time>2022-10-23 08:59:42</time>
      </trkpt>
      <trkpt lat="41.15635" lon="1.32888">
        <ele>42</ele>
        <time>2022-10-23 08:59:43</time>
      </trkpt>
      <trkpt lat="41.15631" lon="1.32885">
        <ele>41.6</ele>
        <time>2022-10-23 08:59:47</time>
      </trkpt>
      <trkpt lat="41.15622" lon="1.32881">
        <ele>41.2</ele>
        <time>2022-10-23 08:59:50</time>
      </trkpt>
      <trkpt lat="41.15618" lon="1.3288">
        <ele>41.2</ele>
        <time>2022-10-23 08:59:53</time>
      </trkpt>
      <trkpt lat="41.15614" lon="1.3288">
        <ele>41</ele>
        <time>2022-10-23 08:59:54</time>
      </trkpt>
      <trkpt lat="41.15609" lon="1.3288">
        <ele>40.6</ele>
        <time>2022-10-23 08:59:58</time>
      </trkpt>
      <trkpt lat="41.15605" lon="1.32882">
        <ele>40.4</ele>
        <time>2022-10-23 08:59:59</time>
      </trkpt>
      <trkpt lat="41.15596" lon="1.32883">
        <ele>39.4</ele>
        <time>2022-10-23 09:00:01</time>
      </trkpt>
      <trkpt lat="41.15592" lon="1.32882">
        <ele>39</ele>
        <time>2022-10-23 09:00:03</time>
      </trkpt>
      <trkpt lat="41.1558" lon="1.3288">
        <ele>38</ele>
        <time>2022-10-23 09:00:06</time>
      </trkpt>
      <trkpt lat="41.15577" lon="1.32881">
        <ele>37.6</ele>
        <time>2022-10-23 09:00:07</time>
      </trkpt>
      <trkpt lat="41.15565" lon="1.32891">
        <ele>36.8</ele>
        <time>2022-10-23 09:00:09</time>
      </trkpt>
      <trkpt lat="41.15562" lon="1.32892">
        <ele>36.4</ele>
        <time>2022-10-23 09:00:11</time>
      </trkpt>
      <trkpt lat="41.15544" lon="1.32898">
        <ele>35.6</ele>
        <time>2022-10-23 09:00:14</time>
      </trkpt>
      <trkpt lat="41.15541" lon="1.329">
        <ele>35.6</ele>
        <time>2022-10-23 09:00:15</time>
      </trkpt>
      <trkpt lat="41.15533" lon="1.32914">
        <ele>35.4</ele>
        <time>2022-10-23 09:00:16</time>
      </trkpt>
      <trkpt lat="41.15525" lon="1.32917">
        <ele>35.2</ele>
        <time>2022-10-23 09:00:17</time>
      </trkpt>
      <trkpt lat="41.15519" lon="1.32921">
        <ele>35</ele>
        <time>2022-10-23 09:00:18</time>
      </trkpt>
      <trkpt lat="41.15511" lon="1.32933">
        <ele>34.8</ele>
        <time>2022-10-23 09:00:20</time>
      </trkpt>
      <trkpt lat="41.15513" lon="1.32944">
        <ele>34.8</ele>
        <time>2022-10-23 09:00:21</time>
      </trkpt>
      <trkpt lat="41.15509" lon="1.32955">
        <ele>34.8</ele>
        <time>2022-10-23 09:00:24</time>
      </trkpt>
      <trkpt lat="41.15498" lon="1.32967">
        <ele>34.8</ele>
        <time>2022-10-23 09:00:25</time>
      </trkpt>
      <trkpt lat="41.15486" lon="1.3297">
        <ele>34.8</ele>
        <time>2022-10-23 09:00:29</time>
      </trkpt>
      <trkpt lat="41.15476" lon="1.32962">
        <ele>34.8</ele>
        <time>2022-10-23 09:00:30</time>
      </trkpt>
      <trkpt lat="41.15473" lon="1.32959">
        <ele>34.8</ele>
        <time>2022-10-23 09:00:35</time>
      </trkpt>
      <trkpt lat="41.15469" lon="1.32956">
        <ele>34.6</ele>
        <time>2022-10-23 09:00:36</time>
      </trkpt>
      <trkpt lat="41.15465" lon="1.32953">
        <ele>34.6</ele>
        <time>2022-10-23 09:00:41</time>
      </trkpt>
      <trkpt lat="41.15456" lon="1.3295">
        <ele>34.2</ele>
        <time>2022-10-23 09:00:44</time>
      </trkpt>
      <trkpt lat="41.15447" lon="1.32949">
        <ele>33.8</ele>
        <time>2022-10-23 09:00:46</time>
      </trkpt>
      <trkpt lat="41.15442" lon="1.3295">
        <ele>33.6</ele>
        <time>2022-10-23 09:00:51</time>
      </trkpt>
      <trkpt lat="41.15434" lon="1.32954">
        <ele>32.8</ele>
        <time>2022-10-23 09:00:55</time>
      </trkpt>
      <trkpt lat="41.1543" lon="1.32956">
        <ele>32.4</ele>
        <time>2022-10-23 09:00:59</time>
      </trkpt>
      <trkpt lat="41.15417" lon="1.32963">
        <ele>32</ele>
        <time>2022-10-23 09:01:04</time>
      </trkpt>
      <trkpt lat="41.15411" lon="1.32968">
        <ele>31.8</ele>
        <time>2022-10-23 09:01:08</time>
      </trkpt>
      <trkpt lat="41.15399" lon="1.32976">
        <ele>31.8</ele>
        <time>2022-10-23 09:01:11</time>
      </trkpt>
      <trkpt lat="41.15395" lon="1.32978">
        <ele>31.8</ele>
        <time>2022-10-23 09:01:12</time>
      </trkpt>
      <trkpt lat="41.15378" lon="1.32982">
        <ele>31.8</ele>
        <time>2022-10-23 09:01:13</time>
      </trkpt>
      <trkpt lat="41.15369" lon="1.32984">
        <ele>31.6</ele>
        <time>2022-10-23 09:01:14</time>
      </trkpt>
      <trkpt lat="41.15367" lon="1.32982">
        <ele>31.6</ele>
        <time>2022-10-23 09:01:16</time>
      </trkpt>
      <trkpt lat="41.15363" lon="1.32968">
        <ele>31.6</ele>
        <time>2022-10-23 09:01:18</time>
      </trkpt>
      <trkpt lat="41.15358" lon="1.32943">
        <ele>31.4</ele>
        <time>2022-10-23 09:01:19</time>
      </trkpt>
      <trkpt lat="41.15354" lon="1.32903">
        <ele>31.4</ele>
        <time>2022-10-23 09:01:21</time>
      </trkpt>
      <trkpt lat="41.15357" lon="1.32889">
        <ele>31.6</ele>
        <time>2022-10-23 09:01:22</time>
      </trkpt>
      <trkpt lat="41.15358" lon="1.32886">
        <ele>31.6</ele>
        <time>2022-10-23 09:01:26</time>
      </trkpt>
      <trkpt lat="41.1536" lon="1.32879">
        <ele>32</ele>
        <time>2022-10-23 09:01:28</time>
      </trkpt>
      <trkpt lat="41.15361" lon="1.32877">
        <ele>32.2</ele>
        <time>2022-10-23 09:01:32</time>
      </trkpt>
      <trkpt lat="41.15363" lon="1.32874">
        <ele>32.8</ele>
        <time>2022-10-23 09:01:33</time>
      </trkpt>
      <trkpt lat="41.15365" lon="1.3287">
        <ele>33.6</ele>
        <time>2022-10-23 09:01:37</time>
      </trkpt>
      <trkpt lat="41.15367" lon="1.32867">
        <ele>34.4</ele>
        <time>2022-10-23 09:01:40</time>
      </trkpt>
      <trkpt lat="41.15368" lon="1.32865">
        <ele>34.6</ele>
        <time>2022-10-23 09:01:41</time>
      </trkpt>
      <trkpt lat="41.15368" lon="1.32862">
        <ele>35</ele>
        <time>2022-10-23 09:01:45</time>
      </trkpt>
      <trkpt lat="41.15371" lon="1.32853">
        <ele>35.8</ele>
        <time>2022-10-23 09:01:51</time>
      </trkpt>
      <trkpt lat="41.15373" lon="1.32846">
        <ele>36.2</ele>
        <time>2022-10-23 09:02:00</time>
      </trkpt>
      <trkpt lat="41.15375" lon="1.3284">
        <ele>36.6</ele>
        <time>2022-10-23 09:02:04</time>
      </trkpt>
      <trkpt lat="41.15378" lon="1.32834">
        <ele>36.8</ele>
        <time>2022-10-23 09:02:05</time>
      </trkpt>
      <trkpt lat="41.15386" lon="1.32822">
        <ele>37.4</ele>
        <time>2022-10-23 09:02:08</time>
      </trkpt>
      <trkpt lat="41.15388" lon="1.3282">
        <ele>37.8</ele>
        <time>2022-10-23 09:02:09</time>
      </trkpt>
      <trkpt lat="41.15397" lon="1.32811">
        <ele>38.6</ele>
        <time>2022-10-23 09:02:11</time>
      </trkpt>
      <trkpt lat="41.154" lon="1.32808">
        <ele>38.8</ele>
        <time>2022-10-23 09:02:13</time>
      </trkpt>
      <trkpt lat="41.15406" lon="1.32801">
        <ele>39.8</ele>
        <time>2022-10-23 09:02:15</time>
      </trkpt>
      <trkpt lat="41.1541" lon="1.32798">
        <ele>40</ele>
        <time>2022-10-23 09:02:16</time>
      </trkpt>
      <trkpt lat="41.15417" lon="1.32792">
        <ele>41</ele>
        <time>2022-10-23 09:02:17</time>
      </trkpt>
      <trkpt lat="41.15425" lon="1.32779">
        <ele>42</ele>
        <time>2022-10-23 09:02:21</time>
      </trkpt>
      <trkpt lat="41.15426" lon="1.32776">
        <ele>42</ele>
        <time>2022-10-23 09:02:24</time>
      </trkpt>
      <trkpt lat="41.15429" lon="1.32759">
        <ele>42.4</ele>
        <time>2022-10-23 09:02:27</time>
      </trkpt>
      <trkpt lat="41.15426" lon="1.32737">
        <ele>42.4</ele>
        <time>2022-10-23 09:02:30</time>
      </trkpt>
      <trkpt lat="41.15425" lon="1.32726">
        <ele>42.4</ele>
        <time>2022-10-23 09:02:36</time>
      </trkpt>
      <trkpt lat="41.15421" lon="1.32719">
        <ele>42.4</ele>
        <time>2022-10-23 09:02:37</time>
      </trkpt>
      <trkpt lat="41.15416" lon="1.32714">
        <ele>41.8</ele>
        <time>2022-10-23 09:02:42</time>
      </trkpt>
      <trkpt lat="41.15408" lon="1.32706">
        <ele>41.6</ele>
        <time>2022-10-23 09:02:44</time>
      </trkpt>
      <trkpt lat="41.15407" lon="1.32694">
        <ele>41.6</ele>
        <time>2022-10-23 09:02:48</time>
      </trkpt>
      <trkpt lat="41.15407" lon="1.3269">
        <ele>41.6</ele>
        <time>2022-10-23 09:02:50</time>
      </trkpt>
      <trkpt lat="41.15408" lon="1.32682">
        <ele>42.4</ele>
        <time>2022-10-23 09:02:54</time>
      </trkpt>
      <trkpt lat="41.15408" lon="1.32678">
        <ele>43.4</ele>
        <time>2022-10-23 09:02:59</time>
      </trkpt>
      <trkpt lat="41.15408" lon="1.32669">
        <ele>44.6</ele>
        <time>2022-10-23 09:03:00</time>
      </trkpt>
      <trkpt lat="41.15408" lon="1.32667">
        <ele>44.8</ele>
        <time>2022-10-23 09:03:06</time>
      </trkpt>
      <trkpt lat="41.15413" lon="1.32659">
        <ele>45.6</ele>
        <time>2022-10-23 09:03:11</time>
      </trkpt>
      <trkpt lat="41.15422" lon="1.32646">
        <ele>46.8</ele>
        <time>2022-10-23 09:03:13</time>
      </trkpt>
      <trkpt lat="41.15423" lon="1.32643">
        <ele>46.8</ele>
        <time>2022-10-23 09:03:15</time>
      </trkpt>
      <trkpt lat="41.15427" lon="1.32629">
        <ele>47.4</ele>
        <time>2022-10-23 09:03:17</time>
      </trkpt>
      <trkpt lat="41.15427" lon="1.32627">
        <ele>47.4</ele>
        <time>2022-10-23 09:03:21</time>
      </trkpt>
      <trkpt lat="41.15426" lon="1.32625">
        <ele>47.8</ele>
        <time>2022-10-23 09:03:26</time>
      </trkpt>
      <trkpt lat="41.15426" lon="1.32619">
        <ele>48.8</ele>
        <time>2022-10-23 09:03:28</time>
      </trkpt>
      <trkpt lat="41.15426" lon="1.3261">
        <ele>50</ele>
        <time>2022-10-23 09:03:32</time>
      </trkpt>
      <trkpt lat="41.15427" lon="1.32604">
        <ele>51.2</ele>
        <time>2022-10-23 09:03:34</time>
      </trkpt>
      <trkpt lat="41.15427" lon="1.32596">
        <ele>52.4</ele>
        <time>2022-10-23 09:03:38</time>
      </trkpt>
      <trkpt lat="41.15427" lon="1.32589">
        <ele>53.2</ele>
        <time>2022-10-23 09:03:39</time>
      </trkpt>
      <trkpt lat="41.15426" lon="1.32583">
        <ele>54</ele>
        <time>2022-10-23 09:03:43</time>
      </trkpt>
      <trkpt lat="41.15427" lon="1.32579">
        <ele>54.4</ele>
        <time>2022-10-23 09:03:50</time>
      </trkpt>
      <trkpt lat="41.15428" lon="1.32567">
        <ele>55.4</ele>
        <time>2022-10-23 09:03:51</time>
      </trkpt>
      <trkpt lat="41.1543" lon="1.32558">
        <ele>56.6</ele>
        <time>2022-10-23 09:03:57</time>
      </trkpt>
      <trkpt lat="41.15431" lon="1.32552">
        <ele>57.2</ele>
        <time>2022-10-23 09:03:58</time>
      </trkpt>
      <trkpt lat="41.15432" lon="1.32545">
        <ele>57.6</ele>
        <time>2022-10-23 09:03:59</time>
      </trkpt>
      <trkpt lat="41.15438" lon="1.32536">
        <ele>58.6</ele>
        <time>2022-10-23 09:04:02</time>
      </trkpt>
      <trkpt lat="41.15439" lon="1.32534">
        <ele>58.8</ele>
        <time>2022-10-23 09:04:06</time>
      </trkpt>
      <trkpt lat="41.15444" lon="1.32529">
        <ele>59.4</ele>
        <time>2022-10-23 09:04:09</time>
      </trkpt>
      <trkpt lat="41.15446" lon="1.32528">
        <ele>59.6</ele>
        <time>2022-10-23 09:04:13</time>
      </trkpt>
      <trkpt lat="41.15447" lon="1.32527">
        <ele>59.8</ele>
        <time>2022-10-23 09:04:17</time>
      </trkpt>
      <trkpt lat="41.15454" lon="1.32525">
        <ele>61</ele>
        <time>2022-10-23 09:04:20</time>
      </trkpt>
      <trkpt lat="41.15458" lon="1.32523">
        <ele>61.6</ele>
        <time>2022-10-23 09:04:22</time>
      </trkpt>
      <trkpt lat="41.15475" lon="1.32516">
        <ele>62</ele>
        <time>2022-10-23 09:04:28</time>
      </trkpt>
      <trkpt lat="41.15501" lon="1.32505">
        <ele>62.2</ele>
        <time>2022-10-23 09:04:33</time>
      </trkpt>
      <trkpt lat="41.15517" lon="1.325">
        <ele>62.2</ele>
        <time>2022-10-23 09:04:36</time>
      </trkpt>
      <trkpt lat="41.15527" lon="1.32499">
        <ele>62.4</ele>
        <time>2022-10-23 09:04:39</time>
      </trkpt>
      <trkpt lat="41.15557" lon="1.32497">
        <ele>62.6</ele>
        <time>2022-10-23 09:04:45</time>
      </trkpt>
      <trkpt lat="41.15584" lon="1.32498">
        <ele>63</ele>
        <time>2022-10-23 09:04:46</time>
      </trkpt>
      <trkpt lat="41.15606" lon="1.325">
        <ele>63</ele>
        <time>2022-10-23 09:04:50</time>
      </trkpt>
      <trkpt lat="41.15612" lon="1.32501">
        <ele>63.4</ele>
        <time>2022-10-23 09:04:51</time>
      </trkpt>
      <trkpt lat="41.1563" lon="1.32497">
        <ele>64</ele>
        <time>2022-10-23 09:04:52</time>
      </trkpt>
      <trkpt lat="41.15636" lon="1.32495">
        <ele>64.2</ele>
        <time>2022-10-23 09:04:56</time>
      </trkpt>
      <trkpt lat="41.15646" lon="1.3249">
        <ele>64.6</ele>
        <time>2022-10-23 09:04:58</time>
      </trkpt>
      <trkpt lat="41.15671" lon="1.32474">
        <ele>64.8</ele>
        <time>2022-10-23 09:05:04</time>
      </trkpt>
      <trkpt lat="41.15696" lon="1.32462">
        <ele>65</ele>
        <time>2022-10-23 09:05:13</time>
      </trkpt>
      <trkpt lat="41.15702" lon="1.32449">
        <ele>65.2</ele>
        <time>2022-10-23 09:05:18</time>
      </trkpt>
      <trkpt lat="41.15703" lon="1.32444">
        <ele>65.2</ele>
        <time>2022-10-23 09:05:21</time>
      </trkpt>
      <trkpt lat="41.15699" lon="1.32422">
        <ele>66</ele>
        <time>2022-10-23 09:05:29</time>
      </trkpt>
      <trkpt lat="41.15697" lon="1.3241">
        <ele>66.2</ele>
        <time>2022-10-23 09:05:37</time>
      </trkpt>
      <trkpt lat="41.15697" lon="1.32404">
        <ele>66.2</ele>
        <time>2022-10-23 09:05:44</time>
      </trkpt>
      <trkpt lat="41.15698" lon="1.32391">
        <ele>66.2</ele>
        <time>2022-10-23 09:05:46</time>
      </trkpt>
      <trkpt lat="41.15701" lon="1.32367">
        <ele>66</ele>
        <time>2022-10-23 09:05:52</time>
      </trkpt>
      <trkpt lat="41.15702" lon="1.32349">
        <ele>65.8</ele>
        <time>2022-10-23 09:05:54</time>
      </trkpt>
      <trkpt lat="41.15702" lon="1.32324">
        <ele>65.4</ele>
        <time>2022-10-23 09:05:57</time>
      </trkpt>
      <trkpt lat="41.15701" lon="1.32313">
        <ele>65.4</ele>
        <time>2022-10-23 09:06:04</time>
      </trkpt>
      <trkpt lat="41.15698" lon="1.3229">
        <ele>65.4</ele>
        <time>2022-10-23 09:06:11</time>
      </trkpt>
      <trkpt lat="41.15695" lon="1.32273">
        <ele>65.4</ele>
        <time>2022-10-23 09:06:14</time>
      </trkpt>
      <trkpt lat="41.15693" lon="1.3226">
        <ele>65.4</ele>
        <time>2022-10-23 09:06:15</time>
      </trkpt>
      <trkpt lat="41.1569" lon="1.32242">
        <ele>65.4</ele>
        <time>2022-10-23 09:06:19</time>
      </trkpt>
      <trkpt lat="41.15689" lon="1.32228">
        <ele>65.4</ele>
        <time>2022-10-23 09:06:21</time>
      </trkpt>
      <trkpt lat="41.1569" lon="1.32224">
        <ele>65.4</ele>
        <time>2022-10-23 09:06:22</time>
      </trkpt>
      <trkpt lat="41.15696" lon="1.32214">
        <ele>65.2</ele>
        <time>2022-10-23 09:06:24</time>
      </trkpt>
      <trkpt lat="41.15708" lon="1.32195">
        <ele>65.2</ele>
        <time>2022-10-23 09:06:28</time>
      </trkpt>
      <trkpt lat="41.15709" lon="1.32183">
        <ele>65.2</ele>
        <time>2022-10-23 09:06:31</time>
      </trkpt>
      <trkpt lat="41.15707" lon="1.32179">
        <ele>65.2</ele>
        <time>2022-10-23 09:06:35</time>
      </trkpt>
      <trkpt lat="41.15695" lon="1.32162">
        <ele>65.2</ele>
        <time>2022-10-23 09:06:37</time>
      </trkpt>
      <trkpt lat="41.15696" lon="1.32155">
        <ele>65.2</ele>
        <time>2022-10-23 09:06:42</time>
      </trkpt>
      <trkpt lat="41.15698" lon="1.32152">
        <ele>65.2</ele>
        <time>2022-10-23 09:06:46</time>
      </trkpt>
      <trkpt lat="41.15712" lon="1.32136">
        <ele>64.8</ele>
        <time>2022-10-23 09:06:49</time>
      </trkpt>
      <trkpt lat="41.15727" lon="1.32119">
        <ele>64.4</ele>
        <time>2022-10-23 09:06:53</time>
      </trkpt>
      <trkpt lat="41.15732" lon="1.32112">
        <ele>64.2</ele>
        <time>2022-10-23 09:06:56</time>
      </trkpt>
      <trkpt lat="41.15745" lon="1.32095">
        <ele>63.2</ele>
        <time>2022-10-23 09:06:57</time>
      </trkpt>
      <trkpt lat="41.15757" lon="1.32075">
        <ele>61.8</ele>
        <time>2022-10-23 09:07:00</time>
      </trkpt>
      <trkpt lat="41.15769" lon="1.32053">
        <ele>60.2</ele>
        <time>2022-10-23 09:07:06</time>
      </trkpt>
      <trkpt lat="41.15773" lon="1.32042">
        <ele>59.2</ele>
        <time>2022-10-23 09:07:09</time>
      </trkpt>
      <trkpt lat="41.15778" lon="1.32031">
        <ele>58.2</ele>
        <time>2022-10-23 09:07:10</time>
      </trkpt>
      <trkpt lat="41.15782" lon="1.3202">
        <ele>57.2</ele>
        <time>2022-10-23 09:07:16</time>
      </trkpt>
      <trkpt lat="41.15785" lon="1.32008">
        <ele>56.2</ele>
        <time>2022-10-23 09:07:18</time>
      </trkpt>
      <trkpt lat="41.15789" lon="1.31998">
        <ele>55.2</ele>
        <time>2022-10-23 09:07:19</time>
      </trkpt>
      <trkpt lat="41.15792" lon="1.31987">
        <ele>54</ele>
        <time>2022-10-23 09:07:23</time>
      </trkpt>
      <trkpt lat="41.15794" lon="1.31977">
        <ele>53.2</ele>
        <time>2022-10-23 09:07:26</time>
      </trkpt>
      <trkpt lat="41.15797" lon="1.31968">
        <ele>52.6</ele>
        <time>2022-10-23 09:07:27</time>
      </trkpt>
      <trkpt lat="41.15805" lon="1.31934">
        <ele>51.6</ele>
        <time>2022-10-23 09:07:29</time>
      </trkpt>
      <trkpt lat="41.15811" lon="1.31903">
        <ele>51.6</ele>
        <time>2022-10-23 09:07:31</time>
      </trkpt>
      <trkpt lat="41.15815" lon="1.31892">
        <ele>51.8</ele>
        <time>2022-10-23 09:07:33</time>
      </trkpt>
      <trkpt lat="41.15821" lon="1.31879">
        <ele>52.2</ele>
        <time>2022-10-23 09:07:34</time>
      </trkpt>
      <trkpt lat="41.15825" lon="1.31872">
        <ele>52.8</ele>
        <time>2022-10-23 09:07:35</time>
      </trkpt>
      <trkpt lat="41.15829" lon="1.31866">
        <ele>53.2</ele>
        <time>2022-10-23 09:07:36</time>
      </trkpt>
      <trkpt lat="41.15832" lon="1.31864">
        <ele>53.6</ele>
        <time>2022-10-23 09:07:37</time>
      </trkpt>
      <trkpt lat="41.15837" lon="1.31862">
        <ele>54.2</ele>
        <time>2022-10-23 09:07:38</time>
      </trkpt>
      <trkpt lat="41.15839" lon="1.31861">
        <ele>54.6</ele>
        <time>2022-10-23 09:07:39</time>
      </trkpt>
      <trkpt lat="41.1585" lon="1.31858">
        <ele>56</ele>
        <time>2022-10-23 09:07:40</time>
      </trkpt>
      <trkpt lat="41.15855" lon="1.31859">
        <ele>56.4</ele>
        <time>2022-10-23 09:07:41</time>
      </trkpt>
      <trkpt lat="41.15858" lon="1.31859">
        <ele>57</ele>
        <time>2022-10-23 09:07:45</time>
      </trkpt>
      <trkpt lat="41.15871" lon="1.31862">
        <ele>58</ele>
        <time>2022-10-23 09:07:50</time>
      </trkpt>
      <trkpt lat="41.15874" lon="1.31863">
        <ele>58.2</ele>
        <time>2022-10-23 09:07:52</time>
      </trkpt>
      <trkpt lat="41.15877" lon="1.31863">
        <ele>58.4</ele>
        <time>2022-10-23 09:07:55</time>
      </trkpt>
      <trkpt lat="41.15891" lon="1.31867">
        <ele>59.2</ele>
        <time>2022-10-23 09:07:57</time>
      </trkpt>
      <trkpt lat="41.15896" lon="1.31868">
        <ele>59.6</ele>
        <time>2022-10-23 09:07:59</time>
      </trkpt>
      <trkpt lat="41.15914" lon="1.31872">
        <ele>60</ele>
        <time>2022-10-23 09:08:00</time>
      </trkpt>
      <trkpt lat="41.1592" lon="1.31873">
        <ele>60.2</ele>
        <time>2022-10-23 09:08:02</time>
      </trkpt>
      <trkpt lat="41.15928" lon="1.31875">
        <ele>60.2</ele>
        <time>2022-10-23 09:08:03</time>
      </trkpt>
      <trkpt lat="41.15936" lon="1.31877">
        <ele>60.6</ele>
        <time>2022-10-23 09:08:07</time>
      </trkpt>
      <trkpt lat="41.15938" lon="1.31878">
        <ele>60.8</ele>
        <time>2022-10-23 09:08:09</time>
      </trkpt>
      <trkpt lat="41.1595" lon="1.31877">
        <ele>61.6</ele>
        <time>2022-10-23 09:08:10</time>
      </trkpt>
      <trkpt lat="41.15953" lon="1.31876">
        <ele>61.4</ele>
        <time>2022-10-23 09:08:15</time>
      </trkpt>
      <trkpt lat="41.15972" lon="1.31866">
        <ele>61.8</ele>
        <time>2022-10-23 09:08:16</time>
      </trkpt>
      <trkpt lat="41.15995" lon="1.31853">
        <ele>61.8</ele>
        <time>2022-10-23 09:08:17</time>
      </trkpt>
      <trkpt lat="41.15999" lon="1.31849">
        <ele>61.4</ele>
        <time>2022-10-23 09:08:22</time>
      </trkpt>
      <trkpt lat="41.16004" lon="1.31844">
        <ele>61</ele>
        <time>2022-10-23 09:08:24</time>
      </trkpt>
      <trkpt lat="41.16013" lon="1.31832">
        <ele>60.4</ele>
        <time>2022-10-23 09:08:30</time>
      </trkpt>
      <trkpt lat="41.16018" lon="1.31823">
        <ele>60</ele>
        <time>2022-10-23 09:08:32</time>
      </trkpt>
      <trkpt lat="41.16025" lon="1.31798">
        <ele>59</ele>
        <time>2022-10-23 09:08:35</time>
      </trkpt>
      <trkpt lat="41.16029" lon="1.31773">
        <ele>57.8</ele>
        <time>2022-10-23 09:08:38</time>
      </trkpt>
      <trkpt lat="41.16033" lon="1.3175">
        <ele>56</ele>
        <time>2022-10-23 09:08:39</time>
      </trkpt>
      <trkpt lat="41.16035" lon="1.31739">
        <ele>54.6</ele>
        <time>2022-10-23 09:08:44</time>
      </trkpt>
      <trkpt lat="41.16036" lon="1.31728">
        <ele>53.2</ele>
        <time>2022-10-23 09:08:45</time>
      </trkpt>
      <trkpt lat="41.16037" lon="1.31718">
        <ele>52.4</ele>
        <time>2022-10-23 09:08:50</time>
      </trkpt>
      <trkpt lat="41.16038" lon="1.3171">
        <ele>52</ele>
        <time>2022-10-23 09:08:55</time>
      </trkpt>
      <trkpt lat="41.16039" lon="1.31703">
        <ele>51.8</ele>
        <time>2022-10-23 09:08:56</time>
      </trkpt>
      <trkpt lat="41.16042" lon="1.31698">
        <ele>51.8</ele>
        <time>2022-10-23 09:08:57</time>
      </trkpt>
      <trkpt lat="41.16048" lon="1.31695">
        <ele>51.6</ele>
        <time>2022-10-23 09:08:59</time>
      </trkpt>
      <trkpt lat="41.16051" lon="1.31695">
        <ele>51.6</ele>
        <time>2022-10-23 09:09:00</time>
      </trkpt>
      <trkpt lat="41.16061" lon="1.31702">
        <ele>51.8</ele>
        <time>2022-10-23 09:09:02</time>
      </trkpt>
      <trkpt lat="41.16064" lon="1.31704">
        <ele>52</ele>
        <time>2022-10-23 09:09:04</time>
      </trkpt>
      <trkpt lat="41.16075" lon="1.3171">
        <ele>53.2</ele>
        <time>2022-10-23 09:09:06</time>
      </trkpt>
      <trkpt lat="41.16091" lon="1.3172">
        <ele>53.6</ele>
        <time>2022-10-23 09:09:07</time>
      </trkpt>
      <trkpt lat="41.16111" lon="1.31736">
        <ele>53.8</ele>
        <time>2022-10-23 09:09:08</time>
      </trkpt>
      <trkpt lat="41.16123" lon="1.31747">
        <ele>54.2</ele>
        <time>2022-10-23 09:09:09</time>
      </trkpt>
      <trkpt lat="41.16141" lon="1.31764">
        <ele>54.4</ele>
        <time>2022-10-23 09:09:10</time>
      </trkpt>
      <trkpt lat="41.16171" lon="1.31793">
        <ele>54.8</ele>
        <time>2022-10-23 09:09:11</time>
      </trkpt>
      <trkpt lat="41.16191" lon="1.31812">
        <ele>55.2</ele>
        <time>2022-10-23 09:09:12</time>
      </trkpt>
      <trkpt lat="41.16194" lon="1.31814">
        <ele>55.4</ele>
        <time>2022-10-23 09:09:14</time>
      </trkpt>
      <trkpt lat="41.16205" lon="1.31823">
        <ele>55.8</ele>
        <time>2022-10-23 09:09:15</time>
      </trkpt>
      <trkpt lat="41.16212" lon="1.31816">
        <ele>56</ele>
        <time>2022-10-23 09:09:18</time>
      </trkpt>
      <trkpt lat="41.16217" lon="1.31804">
        <ele>56.2</ele>
        <time>2022-10-23 09:09:19</time>
      </trkpt>
      <trkpt lat="41.16224" lon="1.31791">
        <ele>56.6</ele>
        <time>2022-10-23 09:09:22</time>
      </trkpt>
      <trkpt lat="41.16236" lon="1.31778">
        <ele>57.2</ele>
        <time>2022-10-23 09:09:27</time>
      </trkpt>
      <trkpt lat="41.16238" lon="1.31776">
        <ele>57.4</ele>
        <time>2022-10-23 09:09:34</time>
      </trkpt>
      <trkpt lat="41.1624" lon="1.31775">
        <ele>57.6</ele>
        <time>2022-10-23 09:09:38</time>
      </trkpt>
      <trkpt lat="41.16248" lon="1.31768">
        <ele>58</ele>
        <time>2022-10-23 09:09:44</time>
      </trkpt>
      <trkpt lat="41.16251" lon="1.31765">
        <ele>58.8</ele>
        <time>2022-10-23 09:09:54</time>
      </trkpt>
      <trkpt lat="41.16255" lon="1.31763">
        <ele>59.4</ele>
        <time>2022-10-23 09:10:01</time>
      </trkpt>
      <trkpt lat="41.16259" lon="1.31761">
        <ele>60</ele>
        <time>2022-10-23 09:10:02</time>
      </trkpt>
      <trkpt lat="41.16263" lon="1.31758">
        <ele>60.6</ele>
        <time>2022-10-23 09:10:06</time>
      </trkpt>
      <trkpt lat="41.16267" lon="1.31756">
        <ele>61.2</ele>
        <time>2022-10-23 09:10:09</time>
      </trkpt>
      <trkpt lat="41.16269" lon="1.31755">
        <ele>61.4</ele>
        <time>2022-10-23 09:10:12</time>
      </trkpt>
      <trkpt lat="41.16279" lon="1.3175">
        <ele>62.2</ele>
        <time>2022-10-23 09:10:16</time>
      </trkpt>
      <trkpt lat="41.16288" lon="1.31744">
        <ele>63.4</ele>
        <time>2022-10-23 09:10:22</time>
      </trkpt>
      <trkpt lat="41.16292" lon="1.31742">
        <ele>63.8</ele>
        <time>2022-10-23 09:10:23</time>
      </trkpt>
      <trkpt lat="41.163" lon="1.31738">
        <ele>64.4</ele>
        <time>2022-10-23 09:10:24</time>
      </trkpt>
      <trkpt lat="41.1631" lon="1.31731">
        <ele>65.4</ele>
        <time>2022-10-23 09:10:28</time>
      </trkpt>
      <trkpt lat="41.16314" lon="1.31729">
        <ele>65.8</ele>
        <time>2022-10-23 09:10:30</time>
      </trkpt>
      <trkpt lat="41.1632" lon="1.31718">
        <ele>66.6</ele>
        <time>2022-10-23 09:10:32</time>
      </trkpt>
      <trkpt lat="41.16321" lon="1.31716">
        <ele>66.8</ele>
        <time>2022-10-23 09:10:34</time>
      </trkpt>
      <trkpt lat="41.16327" lon="1.31706">
        <ele>67.6</ele>
        <time>2022-10-23 09:10:36</time>
      </trkpt>
      <trkpt lat="41.16331" lon="1.31704">
        <ele>68</ele>
        <time>2022-10-23 09:10:38</time>
      </trkpt>
      <trkpt lat="41.16343" lon="1.31704">
        <ele>68.8</ele>
        <time>2022-10-23 09:10:39</time>
      </trkpt>
      <trkpt lat="41.1635" lon="1.31705">
        <ele>69.2</ele>
        <time>2022-10-23 09:10:44</time>
      </trkpt>
      <trkpt lat="41.16356" lon="1.31704">
        <ele>69.8</ele>
        <time>2022-10-23 09:10:49</time>
      </trkpt>
      <trkpt lat="41.16363" lon="1.31703">
        <ele>70.4</ele>
        <time>2022-10-23 09:10:51</time>
      </trkpt>
      <trkpt lat="41.1637" lon="1.31702">
        <ele>70.8</ele>
        <time>2022-10-23 09:10:55</time>
      </trkpt>
      <trkpt lat="41.16377" lon="1.31695">
        <ele>71.8</ele>
        <time>2022-10-23 09:11:00</time>
      </trkpt>
      <trkpt lat="41.16379" lon="1.31693">
        <ele>72</ele>
        <time>2022-10-23 09:11:02</time>
      </trkpt>
      <trkpt lat="41.16386" lon="1.31684">
        <ele>73</ele>
        <time>2022-10-23 09:11:07</time>
      </trkpt>
      <trkpt lat="41.16392" lon="1.31679">
        <ele>73.6</ele>
        <time>2022-10-23 09:11:08</time>
      </trkpt>
      <trkpt lat="41.16396" lon="1.31678">
        <ele>73.8</ele>
        <time>2022-10-23 09:11:12</time>
      </trkpt>
      <trkpt lat="41.16397" lon="1.3168">
        <ele>74</ele>
        <time>2022-10-23 09:11:14</time>
      </trkpt>
      <trkpt lat="41.16398" lon="1.31682">
        <ele>74.2</ele>
        <time>2022-10-23 09:11:19</time>
      </trkpt>
      <trkpt lat="41.16406" lon="1.31688">
        <ele>75</ele>
        <time>2022-10-23 09:11:22</time>
      </trkpt>
      <trkpt lat="41.16408" lon="1.31688">
        <ele>75.4</ele>
        <time>2022-10-23 09:11:25</time>
      </trkpt>
      <trkpt lat="41.16418" lon="1.31692">
        <ele>75.8</ele>
        <time>2022-10-23 09:11:28</time>
      </trkpt>
      <trkpt lat="41.16422" lon="1.31693">
        <ele>76</ele>
        <time>2022-10-23 09:11:31</time>
      </trkpt>
      <trkpt lat="41.16442" lon="1.31692">
        <ele>77.2</ele>
        <time>2022-10-23 09:11:35</time>
      </trkpt>
      <trkpt lat="41.16444" lon="1.31692">
        <ele>77.4</ele>
        <time>2022-10-23 09:11:36</time>
      </trkpt>
      <trkpt lat="41.16459" lon="1.31692">
        <ele>78.2</ele>
        <time>2022-10-23 09:11:40</time>
      </trkpt>
      <trkpt lat="41.16471" lon="1.31691">
        <ele>78.8</ele>
        <time>2022-10-23 09:11:43</time>
      </trkpt>
      <trkpt lat="41.1648" lon="1.3169">
        <ele>79.4</ele>
        <time>2022-10-23 09:11:45</time>
      </trkpt>
      <trkpt lat="41.16491" lon="1.31693">
        <ele>80.6</ele>
        <time>2022-10-23 09:11:46</time>
      </trkpt>
      <trkpt lat="41.16505" lon="1.31706">
        <ele>81.6</ele>
        <time>2022-10-23 09:11:47</time>
      </trkpt>
      <trkpt lat="41.16507" lon="1.31708">
        <ele>81.6</ele>
        <time>2022-10-23 09:11:51</time>
      </trkpt>
      <trkpt lat="41.1652" lon="1.3172">
        <ele>82.8</ele>
        <time>2022-10-23 09:11:52</time>
      </trkpt>
      <trkpt lat="41.1654" lon="1.31729">
        <ele>83.8</ele>
        <time>2022-10-23 09:11:56</time>
      </trkpt>
      <trkpt lat="41.16545" lon="1.31731">
        <ele>84</ele>
        <time>2022-10-23 09:11:58</time>
      </trkpt>
      <trkpt lat="41.16557" lon="1.31733">
        <ele>84.8</ele>
        <time>2022-10-23 09:12:06</time>
      </trkpt>
      <trkpt lat="41.16562" lon="1.31734">
        <ele>85.2</ele>
        <time>2022-10-23 09:12:07</time>
      </trkpt>
      <trkpt lat="41.16567" lon="1.31734">
        <ele>86</ele>
        <time>2022-10-23 09:12:13</time>
      </trkpt>
      <trkpt lat="41.16571" lon="1.31733">
        <ele>86.6</ele>
        <time>2022-10-23 09:12:18</time>
      </trkpt>
      <trkpt lat="41.16573" lon="1.31741">
        <ele>89</ele>
        <time>2022-10-23 09:12:22</time>
      </trkpt>
      <trkpt lat="41.16574" lon="1.31744">
        <ele>89</ele>
        <time>2022-10-23 09:12:27</time>
      </trkpt>
      <trkpt lat="41.16577" lon="1.31759">
        <ele>89</ele>
        <time>2022-10-23 09:12:34</time>
      </trkpt>
      <trkpt lat="41.1658" lon="1.31786">
        <ele>88.8</ele>
        <time>2022-10-23 09:12:35</time>
      </trkpt>
      <trkpt lat="41.16585" lon="1.31817">
        <ele>88.4</ele>
        <time>2022-10-23 09:12:42</time>
      </trkpt>
      <trkpt lat="41.16595" lon="1.31842">
        <ele>87.8</ele>
        <time>2022-10-23 09:12:50</time>
      </trkpt>
      <trkpt lat="41.16597" lon="1.31846">
        <ele>87.8</ele>
        <time>2022-10-23 09:12:52</time>
      </trkpt>
      <trkpt lat="41.16604" lon="1.31858">
        <ele>87.8</ele>
        <time>2022-10-23 09:12:57</time>
      </trkpt>
      <trkpt lat="41.16614" lon="1.31868">
        <ele>87.8</ele>
        <time>2022-10-23 09:12:59</time>
      </trkpt>
      <trkpt lat="41.16618" lon="1.31871">
        <ele>87.8</ele>
        <time>2022-10-23 09:13:02</time>
      </trkpt>
      <trkpt lat="41.16634" lon="1.31877">
        <ele>87.4</ele>
        <time>2022-10-23 09:13:05</time>
      </trkpt>
      <trkpt lat="41.16645" lon="1.31876">
        <ele>87.4</ele>
        <time>2022-10-23 09:13:28</time>
      </trkpt>
      <trkpt lat="41.16656" lon="1.31871">
        <ele>87.4</ele>
        <time>2022-10-23 09:13:29</time>
      </trkpt>
      <trkpt lat="41.16671" lon="1.31858">
        <ele>87.4</ele>
        <time>2022-10-23 09:13:34</time>
      </trkpt>
      <trkpt lat="41.1669" lon="1.31833">
        <ele>87.8</ele>
        <time>2022-10-23 09:13:41</time>
      </trkpt>
      <trkpt lat="41.16701" lon="1.31819">
        <ele>88</ele>
        <time>2022-10-23 09:13:48</time>
      </trkpt>
      <trkpt lat="41.16706" lon="1.31809">
        <ele>88.8</ele>
        <time>2022-10-23 09:13:54</time>
      </trkpt>
      <trkpt lat="41.16708" lon="1.31806">
        <ele>89</ele>
        <time>2022-10-23 09:13:55</time>
      </trkpt>
      <trkpt lat="41.16712" lon="1.318">
        <ele>89.6</ele>
        <time>2022-10-23 09:13:58</time>
      </trkpt>
      <trkpt lat="41.16716" lon="1.31794">
        <ele>90</ele>
        <time>2022-10-23 09:14:01</time>
      </trkpt>
      <trkpt lat="41.16724" lon="1.31782">
        <ele>91.2</ele>
        <time>2022-10-23 09:14:02</time>
      </trkpt>
      <trkpt lat="41.16726" lon="1.3178">
        <ele>91.4</ele>
        <time>2022-10-23 09:14:06</time>
      </trkpt>
      <trkpt lat="41.16731" lon="1.31771">
        <ele>92.2</ele>
        <time>2022-10-23 09:14:09</time>
      </trkpt>
      <trkpt lat="41.16738" lon="1.3176">
        <ele>93</ele>
        <time>2022-10-23 09:14:12</time>
      </trkpt>
      <trkpt lat="41.1674" lon="1.31758">
        <ele>93.2</ele>
        <time>2022-10-23 09:14:17</time>
      </trkpt>
      <trkpt lat="41.16752" lon="1.31747">
        <ele>94</ele>
        <time>2022-10-23 09:14:23</time>
      </trkpt>
      <trkpt lat="41.16758" lon="1.31743">
        <ele>94.4</ele>
        <time>2022-10-23 09:14:27</time>
      </trkpt>
      <trkpt lat="41.16766" lon="1.31737">
        <ele>94.6</ele>
        <time>2022-10-23 09:14:30</time>
      </trkpt>
      <trkpt lat="41.1678" lon="1.31729">
        <ele>95.2</ele>
        <time>2022-10-23 09:14:31</time>
      </trkpt>
      <trkpt lat="41.16783" lon="1.31727">
        <ele>95.4</ele>
        <time>2022-10-23 09:14:33</time>
      </trkpt>
      <trkpt lat="41.16794" lon="1.31718">
        <ele>96.4</ele>
        <time>2022-10-23 09:14:35</time>
      </trkpt>
      <trkpt lat="41.16809" lon="1.31709">
        <ele>97</ele>
        <time>2022-10-23 09:14:39</time>
      </trkpt>
      <trkpt lat="41.16818" lon="1.31708">
        <ele>97.6</ele>
        <time>2022-10-23 09:14:40</time>
      </trkpt>
      <trkpt lat="41.16828" lon="1.3171">
        <ele>97.8</ele>
        <time>2022-10-23 09:14:43</time>
      </trkpt>
      <trkpt lat="41.16836" lon="1.3171">
        <ele>98.2</ele>
        <time>2022-10-23 09:14:47</time>
      </trkpt>
      <trkpt lat="41.16838" lon="1.31708">
        <ele>98.4</ele>
        <time>2022-10-23 09:14:48</time>
      </trkpt>
      <trkpt lat="41.1684" lon="1.31706">
        <ele>98.6</ele>
        <time>2022-10-23 09:14:53</time>
      </trkpt>
      <trkpt lat="41.16841" lon="1.31696">
        <ele>98.6</ele>
        <time>2022-10-23 09:14:55</time>
      </trkpt>
      <trkpt lat="41.16841" lon="1.31693">
        <ele>98.8</ele>
        <time>2022-10-23 09:14:58</time>
      </trkpt>
      <trkpt lat="41.16843" lon="1.31678">
        <ele>99.6</ele>
        <time>2022-10-23 09:15:03</time>
      </trkpt>
      <trkpt lat="41.16845" lon="1.3167">
        <ele>99.8</ele>
        <time>2022-10-23 09:15:04</time>
      </trkpt>
      <trkpt lat="41.1685" lon="1.31646">
        <ele>99.8</ele>
        <time>2022-10-23 09:15:09</time>
      </trkpt>
      <trkpt lat="41.16851" lon="1.3164">
        <ele>99.8</ele>
        <time>2022-10-23 09:15:16</time>
      </trkpt>
      <trkpt lat="41.16855" lon="1.31615">
        <ele>99.4</ele>
        <time>2022-10-23 09:15:19</time>
      </trkpt>
      <trkpt lat="41.16857" lon="1.31608">
        <ele>99.2</ele>
        <time>2022-10-23 09:15:22</time>
      </trkpt>
      <trkpt lat="41.1687" lon="1.31587">
        <ele>98.6</ele>
        <time>2022-10-23 09:15:25</time>
      </trkpt>
      <trkpt lat="41.16873" lon="1.31582">
        <ele>98.4</ele>
        <time>2022-10-23 09:15:26</time>
      </trkpt>
      <trkpt lat="41.16878" lon="1.3157">
        <ele>97.8</ele>
        <time>2022-10-23 09:15:27</time>
      </trkpt>
      <trkpt lat="41.16881" lon="1.31557">
        <ele>97.6</ele>
        <time>2022-10-23 09:15:30</time>
      </trkpt>
      <trkpt lat="41.16882" lon="1.3155">
        <ele>97.4</ele>
        <time>2022-10-23 09:15:31</time>
      </trkpt>
      <trkpt lat="41.16883" lon="1.31543">
        <ele>97.2</ele>
        <time>2022-10-23 09:15:35</time>
      </trkpt>
      <trkpt lat="41.16885" lon="1.31523">
        <ele>97.2</ele>
        <time>2022-10-23 09:15:37</time>
      </trkpt>
      <trkpt lat="41.16886" lon="1.31511">
        <ele>96.8</ele>
        <time>2022-10-23 09:15:42</time>
      </trkpt>
      <trkpt lat="41.16885" lon="1.31466">
        <ele>96.6</ele>
        <time>2022-10-23 09:15:43</time>
      </trkpt>
      <trkpt lat="41.16884" lon="1.31419">
        <ele>96.4</ele>
        <time>2022-10-23 09:15:47</time>
      </trkpt>
      <trkpt lat="41.16884" lon="1.31412">
        <ele>96.4</ele>
        <time>2022-10-23 09:15:48</time>
      </trkpt>
      <trkpt lat="41.16883" lon="1.314">
        <ele>96.4</ele>
        <time>2022-10-23 09:15:52</time>
      </trkpt>
      <trkpt lat="41.16878" lon="1.31385">
        <ele>96.4</ele>
        <time>2022-10-23 09:15:53</time>
      </trkpt>
      <trkpt lat="41.16874" lon="1.31375">
        <ele>96.4</ele>
        <time>2022-10-23 09:15:55</time>
      </trkpt>
      <trkpt lat="41.16871" lon="1.31356">
        <ele>96.4</ele>
        <time>2022-10-23 09:15:57</time>
      </trkpt>
      <trkpt lat="41.16875" lon="1.3133">
        <ele>96.4</ele>
        <time>2022-10-23 09:15:58</time>
      </trkpt>
      <trkpt lat="41.16877" lon="1.31325">
        <ele>96.4</ele>
        <time>2022-10-23 09:15:59</time>
      </trkpt>
      <trkpt lat="41.16881" lon="1.31314">
        <ele>96.2</ele>
        <time>2022-10-23 09:16:02</time>
      </trkpt>
      <trkpt lat="41.16886" lon="1.31291">
        <ele>96</ele>
        <time>2022-10-23 09:16:04</time>
      </trkpt>
      <trkpt lat="41.16883" lon="1.31268">
        <ele>95.8</ele>
        <time>2022-10-23 09:16:11</time>
      </trkpt>
      <trkpt lat="41.16873" lon="1.31255">
        <ele>95.6</ele>
        <time>2022-10-23 09:16:18</time>
      </trkpt>
      <trkpt lat="41.16863" lon="1.31243">
        <ele>95.4</ele>
        <time>2022-10-23 09:16:19</time>
      </trkpt>
      <trkpt lat="41.16849" lon="1.31224">
        <ele>95.4</ele>
        <time>2022-10-23 09:16:21</time>
      </trkpt>
      <trkpt lat="41.16848" lon="1.3122">
        <ele>95.4</ele>
        <time>2022-10-23 09:16:24</time>
      </trkpt>
      <trkpt lat="41.16844" lon="1.31203">
        <ele>95.8</ele>
        <time>2022-10-23 09:16:26</time>
      </trkpt>
      <trkpt lat="41.16841" lon="1.31194">
        <ele>96.4</ele>
        <time>2022-10-23 09:16:29</time>
      </trkpt>
      <trkpt lat="41.16838" lon="1.31185">
        <ele>97.2</ele>
        <time>2022-10-23 09:16:33</time>
      </trkpt>
      <trkpt lat="41.16834" lon="1.31176">
        <ele>97.8</ele>
        <time>2022-10-23 09:16:34</time>
      </trkpt>
      <trkpt lat="41.16832" lon="1.31172">
        <ele>98.2</ele>
        <time>2022-10-23 09:16:36</time>
      </trkpt>
      <trkpt lat="41.16827" lon="1.31164">
        <ele>98.8</ele>
        <time>2022-10-23 09:16:40</time>
      </trkpt>
      <trkpt lat="41.16821" lon="1.31157">
        <ele>99.4</ele>
        <time>2022-10-23 09:16:44</time>
      </trkpt>
      <trkpt lat="41.16802" lon="1.31133">
        <ele>100.4</ele>
        <time>2022-10-23 09:16:47</time>
      </trkpt>
      <trkpt lat="41.168" lon="1.31129">
        <ele>100.4</ele>
        <time>2022-10-23 09:16:50</time>
      </trkpt>
      <trkpt lat="41.16787" lon="1.31103">
        <ele>100.8</ele>
        <time>2022-10-23 09:16:55</time>
      </trkpt>
      <trkpt lat="41.16774" lon="1.31067">
        <ele>100.8</ele>
        <time>2022-10-23 09:16:56</time>
      </trkpt>
      <trkpt lat="41.1676" lon="1.31046">
        <ele>101</ele>
        <time>2022-10-23 09:17:00</time>
      </trkpt>
      <trkpt lat="41.16752" lon="1.31034">
        <ele>101</ele>
        <time>2022-10-23 09:17:02</time>
      </trkpt>
      <trkpt lat="41.16747" lon="1.31026">
        <ele>101.2</ele>
        <time>2022-10-23 09:17:04</time>
      </trkpt>
      <trkpt lat="41.16743" lon="1.31017">
        <ele>101.4</ele>
        <time>2022-10-23 09:17:06</time>
      </trkpt>
      <trkpt lat="41.16739" lon="1.31009">
        <ele>101.4</ele>
        <time>2022-10-23 09:17:07</time>
      </trkpt>
      <trkpt lat="41.1673" lon="1.30989">
        <ele>101.6</ele>
        <time>2022-10-23 09:17:09</time>
      </trkpt>
      <trkpt lat="41.16722" lon="1.30973">
        <ele>101.6</ele>
        <time>2022-10-23 09:17:11</time>
      </trkpt>
      <trkpt lat="41.16707" lon="1.30936">
        <ele>101.8</ele>
        <time>2022-10-23 09:17:18</time>
      </trkpt>
      <trkpt lat="41.16703" lon="1.30925">
        <ele>101.8</ele>
        <time>2022-10-23 09:17:19</time>
      </trkpt>
      <trkpt lat="41.16699" lon="1.30902">
        <ele>102</ele>
        <time>2022-10-23 09:17:25</time>
      </trkpt>
      <trkpt lat="41.16699" lon="1.30891">
        <ele>102.4</ele>
        <time>2022-10-23 09:17:32</time>
      </trkpt>
      <trkpt lat="41.16699" lon="1.30884">
        <ele>102.6</ele>
        <time>2022-10-23 09:17:37</time>
      </trkpt>
      <trkpt lat="41.16696" lon="1.30859">
        <ele>102.8</ele>
        <time>2022-10-23 09:17:40</time>
      </trkpt>
      <trkpt lat="41.16692" lon="1.30847">
        <ele>102.8</ele>
        <time>2022-10-23 09:17:42</time>
      </trkpt>
      <trkpt lat="41.16683" lon="1.30825">
        <ele>102.8</ele>
        <time>2022-10-23 09:17:44</time>
      </trkpt>
      <trkpt lat="41.16676" lon="1.30806">
        <ele>102.8</ele>
        <time>2022-10-23 09:17:46</time>
      </trkpt>
      <trkpt lat="41.16675" lon="1.30801">
        <ele>102.8</ele>
        <time>2022-10-23 09:17:50</time>
      </trkpt>
      <trkpt lat="41.16676" lon="1.30797">
        <ele>102.8</ele>
        <time>2022-10-23 09:17:53</time>
      </trkpt>
      <trkpt lat="41.16686" lon="1.30782">
        <ele>102.8</ele>
        <time>2022-10-23 09:18:00</time>
      </trkpt>
      <trkpt lat="41.16685" lon="1.30766">
        <ele>103.2</ele>
        <time>2022-10-23 09:18:02</time>
      </trkpt>
      <trkpt lat="41.16681" lon="1.30759">
        <ele>103.4</ele>
        <time>2022-10-23 09:18:06</time>
      </trkpt>
      <trkpt lat="41.16679" lon="1.30755">
        <ele>103.6</ele>
        <time>2022-10-23 09:18:08</time>
      </trkpt>
      <trkpt lat="41.16677" lon="1.30746">
        <ele>104</ele>
        <time>2022-10-23 09:18:09</time>
      </trkpt>
      <trkpt lat="41.16679" lon="1.30733">
        <ele>104.6</ele>
        <time>2022-10-23 09:18:13</time>
      </trkpt>
      <trkpt lat="41.1668" lon="1.30728">
        <ele>105</ele>
        <time>2022-10-23 09:18:15</time>
      </trkpt>
      <trkpt lat="41.16681" lon="1.30715">
        <ele>106</ele>
        <time>2022-10-23 09:18:19</time>
      </trkpt>
      <trkpt lat="41.16681" lon="1.30711">
        <ele>106.2</ele>
        <time>2022-10-23 09:18:23</time>
      </trkpt>
      <trkpt lat="41.16682" lon="1.307">
        <ele>106.6</ele>
        <time>2022-10-23 09:18:24</time>
      </trkpt>
      <trkpt lat="41.16684" lon="1.30698">
        <ele>106.6</ele>
        <time>2022-10-23 09:18:25</time>
      </trkpt>
      <trkpt lat="41.16698" lon="1.30698">
        <ele>106.8</ele>
        <time>2022-10-23 09:18:29</time>
      </trkpt>
      <trkpt lat="41.16701" lon="1.30697">
        <ele>106.8</ele>
        <time>2022-10-23 09:18:32</time>
      </trkpt>
      <trkpt lat="41.16706" lon="1.30693">
        <ele>106.6</ele>
        <time>2022-10-23 09:18:34</time>
      </trkpt>
      <trkpt lat="41.16709" lon="1.30692">
        <ele>106.4</ele>
        <time>2022-10-23 09:18:35</time>
      </trkpt>
      <trkpt lat="41.1671" lon="1.30694">
        <ele>106.4</ele>
        <time>2022-10-23 09:18:37</time>
      </trkpt>
      <trkpt lat="41.16715" lon="1.30703">
        <ele>105</ele>
        <time>2022-10-23 09:18:40</time>
      </trkpt>
      <trkpt lat="41.16723" lon="1.30707">
        <ele>104</ele>
        <time>2022-10-23 09:18:41</time>
      </trkpt>
      <trkpt lat="41.16725" lon="1.3071">
        <ele>103.8</ele>
        <time>2022-10-23 09:18:44</time>
      </trkpt>
      <trkpt lat="41.16731" lon="1.30721">
        <ele>103</ele>
        <time>2022-10-23 09:18:45</time>
      </trkpt>
      <trkpt lat="41.16733" lon="1.30724">
        <ele>102.8</ele>
        <time>2022-10-23 09:18:48</time>
      </trkpt>
      <trkpt lat="41.16735" lon="1.30727">
        <ele>102.4</ele>
        <time>2022-10-23 09:18:49</time>
      </trkpt>
      <trkpt lat="41.16739" lon="1.30732">
        <ele>101.8</ele>
        <time>2022-10-23 09:18:55</time>
      </trkpt>
      <trkpt lat="41.16741" lon="1.30735">
        <ele>101.6</ele>
        <time>2022-10-23 09:18:56</time>
      </trkpt>
      <trkpt lat="41.16743" lon="1.30736">
        <ele>101.2</ele>
        <time>2022-10-23 09:18:58</time>
      </trkpt>
      <trkpt lat="41.16745" lon="1.30735">
        <ele>100.4</ele>
        <time>2022-10-23 09:19:00</time>
      </trkpt>
      <trkpt lat="41.16748" lon="1.30734">
        <ele>100.2</ele>
        <time>2022-10-23 09:19:01</time>
      </trkpt>
      <trkpt lat="41.16753" lon="1.30722">
        <ele>99.4</ele>
        <time>2022-10-23 09:19:05</time>
      </trkpt>
      <trkpt lat="41.16756" lon="1.30707">
        <ele>98</ele>
        <time>2022-10-23 09:19:09</time>
      </trkpt>
      <trkpt lat="41.16758" lon="1.30704">
        <ele>97.4</ele>
        <time>2022-10-23 09:19:10</time>
      </trkpt>
      <trkpt lat="41.16759" lon="1.30701">
        <ele>97</ele>
        <time>2022-10-23 09:19:13</time>
      </trkpt>
      <trkpt lat="41.16763" lon="1.30691">
        <ele>95.8</ele>
        <time>2022-10-23 09:19:14</time>
      </trkpt>
      <trkpt lat="41.16763" lon="1.30677">
        <ele>95.2</ele>
        <time>2022-10-23 09:19:15</time>
      </trkpt>
      <trkpt lat="41.16763" lon="1.30671">
        <ele>94.8</ele>
        <time>2022-10-23 09:19:17</time>
      </trkpt>
      <trkpt lat="41.16763" lon="1.3066">
        <ele>94.2</ele>
        <time>2022-10-23 09:19:18</time>
      </trkpt>
      <trkpt lat="41.16762" lon="1.3065">
        <ele>93.6</ele>
        <time>2022-10-23 09:19:19</time>
      </trkpt>
      <trkpt lat="41.16762" lon="1.3064">
        <ele>93</ele>
        <time>2022-10-23 09:19:20</time>
      </trkpt>
      <trkpt lat="41.16763" lon="1.30631">
        <ele>92.8</ele>
        <time>2022-10-23 09:19:21</time>
      </trkpt>
      <trkpt lat="41.16766" lon="1.30625">
        <ele>92.6</ele>
        <time>2022-10-23 09:19:24</time>
      </trkpt>
      <trkpt lat="41.16766" lon="1.30617">
        <ele>92.4</ele>
        <time>2022-10-23 09:19:28</time>
      </trkpt>
      <trkpt lat="41.16766" lon="1.30615">
        <ele>92.4</ele>
        <time>2022-10-23 09:19:29</time>
      </trkpt>
      <trkpt lat="41.16765" lon="1.30606">
        <ele>92</ele>
        <time>2022-10-23 09:19:30</time>
      </trkpt>
      <trkpt lat="41.16761" lon="1.30596">
        <ele>91.4</ele>
        <time>2022-10-23 09:19:33</time>
      </trkpt>
      <trkpt lat="41.16758" lon="1.30588">
        <ele>90.6</ele>
        <time>2022-10-23 09:19:36</time>
      </trkpt>
      <trkpt lat="41.16758" lon="1.30586">
        <ele>90.2</ele>
        <time>2022-10-23 09:19:37</time>
      </trkpt>
      <trkpt lat="41.16759" lon="1.30583">
        <ele>89.4</ele>
        <time>2022-10-23 09:19:39</time>
      </trkpt>
      <trkpt lat="41.1676" lon="1.30582">
        <ele>89.2</ele>
        <time>2022-10-23 09:19:41</time>
      </trkpt>
      <trkpt lat="41.16761" lon="1.30583">
        <ele>89</ele>
        <time>2022-10-23 09:19:43</time>
      </trkpt>
      <trkpt lat="41.16764" lon="1.30585">
        <ele>89</ele>
        <time>2022-10-23 09:19:45</time>
      </trkpt>
      <trkpt lat="41.16768" lon="1.30588">
        <ele>88.8</ele>
        <time>2022-10-23 09:19:47</time>
      </trkpt>
      <trkpt lat="41.16772" lon="1.30591">
        <ele>87.8</ele>
        <time>2022-10-23 09:19:50</time>
      </trkpt>
      <trkpt lat="41.16776" lon="1.30595">
        <ele>86.8</ele>
        <time>2022-10-23 09:19:51</time>
      </trkpt>
      <trkpt lat="41.16777" lon="1.30597">
        <ele>86.6</ele>
        <time>2022-10-23 09:19:55</time>
      </trkpt>
      <trkpt lat="41.16778" lon="1.30599">
        <ele>86.4</ele>
        <time>2022-10-23 09:19:58</time>
      </trkpt>
      <trkpt lat="41.16784" lon="1.30599">
        <ele>86</ele>
        <time>2022-10-23 09:20:01</time>
      </trkpt>
      <trkpt lat="41.16787" lon="1.30597">
        <ele>86</ele>
        <time>2022-10-23 09:20:02</time>
      </trkpt>
      <trkpt lat="41.16797" lon="1.30589">
        <ele>85.8</ele>
        <time>2022-10-23 09:20:04</time>
      </trkpt>
      <trkpt lat="41.16803" lon="1.30585">
        <ele>85.8</ele>
        <time>2022-10-23 09:20:05</time>
      </trkpt>
      <trkpt lat="41.1682" lon="1.30569">
        <ele>85.6</ele>
        <time>2022-10-23 09:20:06</time>
      </trkpt>
      <trkpt lat="41.16824" lon="1.30566">
        <ele>85.6</ele>
        <time>2022-10-23 09:20:08</time>
      </trkpt>
      <trkpt lat="41.16828" lon="1.30565">
        <ele>86.6</ele>
        <time>2022-10-23 09:20:10</time>
      </trkpt>
      <trkpt lat="41.16829" lon="1.30565">
        <ele>86.8</ele>
        <time>2022-10-23 09:20:12</time>
      </trkpt>
      <trkpt lat="41.16832" lon="1.30562">
        <ele>87.2</ele>
        <time>2022-10-23 09:20:15</time>
      </trkpt>
      <trkpt lat="41.16832" lon="1.30562">
        <ele>87.4</ele>
        <time>2022-10-23 09:20:16</time>
      </trkpt>
      <trkpt lat="41.16834" lon="1.30561">
        <ele>88.2</ele>
        <time>2022-10-23 09:20:17</time>
      </trkpt>
      <trkpt lat="41.16836" lon="1.3056">
        <ele>88.4</ele>
        <time>2022-10-23 09:20:20</time>
      </trkpt>
      <trkpt lat="41.16846" lon="1.30561">
        <ele>88.6</ele>
        <time>2022-10-23 09:20:21</time>
      </trkpt>
      <trkpt lat="41.16847" lon="1.3056">
        <ele>88.6</ele>
        <time>2022-10-23 09:20:25</time>
      </trkpt>
      <trkpt lat="41.16851" lon="1.30559">
        <ele>89</ele>
        <time>2022-10-23 09:20:27</time>
      </trkpt>
      <trkpt lat="41.16853" lon="1.30558">
        <ele>89</ele>
        <time>2022-10-23 09:20:33</time>
      </trkpt>
      <trkpt lat="41.16856" lon="1.30557">
        <ele>89.2</ele>
        <time>2022-10-23 09:20:35</time>
      </trkpt>
      <trkpt lat="41.16861" lon="1.30554">
        <ele>89.8</ele>
        <time>2022-10-23 09:20:42</time>
      </trkpt>
      <trkpt lat="41.16863" lon="1.30552">
        <ele>90.6</ele>
        <time>2022-10-23 09:20:43</time>
      </trkpt>
      <trkpt lat="41.16868" lon="1.30548">
        <ele>91.6</ele>
        <time>2022-10-23 09:20:47</time>
      </trkpt>
      <trkpt lat="41.1687" lon="1.30546">
        <ele>92.2</ele>
        <time>2022-10-23 09:20:48</time>
      </trkpt>
      <trkpt lat="41.16872" lon="1.30543">
        <ele>92.6</ele>
        <time>2022-10-23 09:20:53</time>
      </trkpt>
      <trkpt lat="41.16874" lon="1.3054">
        <ele>92.8</ele>
        <time>2022-10-23 09:20:55</time>
      </trkpt>
      <trkpt lat="41.16876" lon="1.30538">
        <ele>93</ele>
        <time>2022-10-23 09:21:01</time>
      </trkpt>
      <trkpt lat="41.16878" lon="1.30535">
        <ele>93.4</ele>
        <time>2022-10-23 09:21:02</time>
      </trkpt>
      <trkpt lat="41.16881" lon="1.30531">
        <ele>93.8</ele>
        <time>2022-10-23 09:21:05</time>
      </trkpt>
      <trkpt lat="41.16886" lon="1.30526">
        <ele>94.6</ele>
        <time>2022-10-23 09:21:06</time>
      </trkpt>
      <trkpt lat="41.16887" lon="1.30525">
        <ele>94.8</ele>
        <time>2022-10-23 09:21:08</time>
      </trkpt>
      <trkpt lat="41.16889" lon="1.30524">
        <ele>95.2</ele>
        <time>2022-10-23 09:21:11</time>
      </trkpt>
      <trkpt lat="41.16889" lon="1.30523">
        <ele>95.4</ele>
        <time>2022-10-23 09:21:13</time>
      </trkpt>
      <trkpt lat="41.16889" lon="1.30521">
        <ele>96</ele>
        <time>2022-10-23 09:21:16</time>
      </trkpt>
      <trkpt lat="41.1689" lon="1.3052">
        <ele>96.4</ele>
        <time>2022-10-23 09:21:18</time>
      </trkpt>
      <trkpt lat="41.16892" lon="1.30516">
        <ele>97.6</ele>
        <time>2022-10-23 09:21:21</time>
      </trkpt>
      <trkpt lat="41.16891" lon="1.3051">
        <ele>99.2</ele>
        <time>2022-10-23 09:21:23</time>
      </trkpt>
      <trkpt lat="41.16891" lon="1.30509">
        <ele>99.2</ele>
        <time>2022-10-23 09:21:26</time>
      </trkpt>
      <trkpt lat="41.16891" lon="1.30507">
        <ele>99.4</ele>
        <time>2022-10-23 09:21:28</time>
      </trkpt>
      <trkpt lat="41.16892" lon="1.30497">
        <ele>99.4</ele>
        <time>2022-10-23 09:21:31</time>
      </trkpt>
      <trkpt lat="41.16893" lon="1.30488">
        <ele>99.6</ele>
        <time>2022-10-23 09:21:35</time>
      </trkpt>
      <trkpt lat="41.16894" lon="1.30483">
        <ele>99.8</ele>
        <time>2022-10-23 09:21:36</time>
      </trkpt>
      <trkpt lat="41.16895" lon="1.30479">
        <ele>100.4</ele>
        <time>2022-10-23 09:21:37</time>
      </trkpt>
      <trkpt lat="41.16895" lon="1.3047">
        <ele>101.2</ele>
        <time>2022-10-23 09:21:38</time>
      </trkpt>
      <trkpt lat="41.16896" lon="1.30468">
        <ele>101.6</ele>
        <time>2022-10-23 09:21:41</time>
      </trkpt>
      <trkpt lat="41.169" lon="1.3046">
        <ele>102.6</ele>
        <time>2022-10-23 09:21:43</time>
      </trkpt>
      <trkpt lat="41.16901" lon="1.30456">
        <ele>103</ele>
        <time>2022-10-23 09:21:46</time>
      </trkpt>
      <trkpt lat="41.16902" lon="1.30449">
        <ele>103.6</ele>
        <time>2022-10-23 09:21:57</time>
      </trkpt>
      <trkpt lat="41.16902" lon="1.30447">
        <ele>103.8</ele>
        <time>2022-10-23 09:21:58</time>
      </trkpt>
      <trkpt lat="41.16902" lon="1.30445">
        <ele>103.8</ele>
        <time>2022-10-23 09:21:59</time>
      </trkpt>
      <trkpt lat="41.16901" lon="1.30437">
        <ele>104.2</ele>
        <time>2022-10-23 09:22:04</time>
      </trkpt>
      <trkpt lat="41.16904" lon="1.30427">
        <ele>104.2</ele>
        <time>2022-10-23 09:22:08</time>
      </trkpt>
      <trkpt lat="41.16906" lon="1.30415">
        <ele>104</ele>
        <time>2022-10-23 09:22:10</time>
      </trkpt>
      <trkpt lat="41.16906" lon="1.30407">
        <ele>104</ele>
        <time>2022-10-23 09:22:12</time>
      </trkpt>
      <trkpt lat="41.16909" lon="1.30379">
        <ele>103.8</ele>
        <time>2022-10-23 09:22:16</time>
      </trkpt>
      <trkpt lat="41.16915" lon="1.30359">
        <ele>103.2</ele>
        <time>2022-10-23 09:22:17</time>
      </trkpt>
      <trkpt lat="41.16916" lon="1.3035">
        <ele>103.2</ele>
        <time>2022-10-23 09:22:22</time>
      </trkpt>
      <trkpt lat="41.16916" lon="1.30332">
        <ele>102.4</ele>
        <time>2022-10-23 09:22:24</time>
      </trkpt>
      <trkpt lat="41.16917" lon="1.30322">
        <ele>102</ele>
        <time>2022-10-23 09:22:27</time>
      </trkpt>
      <trkpt lat="41.16917" lon="1.30306">
        <ele>101.4</ele>
        <time>2022-10-23 09:22:28</time>
      </trkpt>
      <trkpt lat="41.16916" lon="1.30299">
        <ele>101.2</ele>
        <time>2022-10-23 09:22:29</time>
      </trkpt>
      <trkpt lat="41.16914" lon="1.30289">
        <ele>99.6</ele>
        <time>2022-10-23 09:22:34</time>
      </trkpt>
      <trkpt lat="41.16912" lon="1.30284">
        <ele>99</ele>
        <time>2022-10-23 09:22:39</time>
      </trkpt>
      <trkpt lat="41.1691" lon="1.3028">
        <ele>98.2</ele>
        <time>2022-10-23 09:22:43</time>
      </trkpt>
      <trkpt lat="41.16906" lon="1.3027">
        <ele>96.8</ele>
        <time>2022-10-23 09:22:45</time>
      </trkpt>
      <trkpt lat="41.16907" lon="1.30265">
        <ele>96.2</ele>
        <time>2022-10-23 09:22:50</time>
      </trkpt>
      <trkpt lat="41.16909" lon="1.30262">
        <ele>95.8</ele>
        <time>2022-10-23 09:22:53</time>
      </trkpt>
      <trkpt lat="41.16912" lon="1.3026">
        <ele>95.2</ele>
        <time>2022-10-23 09:22:54</time>
      </trkpt>
      <trkpt lat="41.16915" lon="1.30261">
        <ele>94.6</ele>
        <time>2022-10-23 09:22:56</time>
      </trkpt>
      <trkpt lat="41.1692" lon="1.30265">
        <ele>93.8</ele>
        <time>2022-10-23 09:22:57</time>
      </trkpt>
      <trkpt lat="41.16922" lon="1.30266">
        <ele>93.4</ele>
        <time>2022-10-23 09:22:59</time>
      </trkpt>
      <trkpt lat="41.16928" lon="1.30266">
        <ele>92.6</ele>
        <time>2022-10-23 09:23:00</time>
      </trkpt>
      <trkpt lat="41.1693" lon="1.30262">
        <ele>92.2</ele>
        <time>2022-10-23 09:23:02</time>
      </trkpt>
      <trkpt lat="41.16931" lon="1.3025">
        <ele>91.4</ele>
        <time>2022-10-23 09:23:03</time>
      </trkpt>
      <trkpt lat="41.16932" lon="1.30243">
        <ele>91</ele>
        <time>2022-10-23 09:23:04</time>
      </trkpt>
      <trkpt lat="41.16934" lon="1.30228">
        <ele>90.6</ele>
        <time>2022-10-23 09:23:06</time>
      </trkpt>
      <trkpt lat="41.16933" lon="1.30212">
        <ele>90</ele>
        <time>2022-10-23 09:23:07</time>
      </trkpt>
      <trkpt lat="41.16929" lon="1.30199">
        <ele>89</ele>
        <time>2022-10-23 09:23:08</time>
      </trkpt>
      <trkpt lat="41.1693" lon="1.30193">
        <ele>88.6</ele>
        <time>2022-10-23 09:23:09</time>
      </trkpt>
      <trkpt lat="41.16933" lon="1.30187">
        <ele>88</ele>
        <time>2022-10-23 09:23:10</time>
      </trkpt>
      <trkpt lat="41.16937" lon="1.30182">
        <ele>87.2</ele>
        <time>2022-10-23 09:23:12</time>
      </trkpt>
      <trkpt lat="41.16949" lon="1.30178">
        <ele>85.6</ele>
        <time>2022-10-23 09:23:13</time>
      </trkpt>
      <trkpt lat="41.16955" lon="1.30177">
        <ele>84.2</ele>
        <time>2022-10-23 09:23:15</time>
      </trkpt>
      <trkpt lat="41.16964" lon="1.30169">
        <ele>82.8</ele>
        <time>2022-10-23 09:23:16</time>
      </trkpt>
      <trkpt lat="41.16967" lon="1.30155">
        <ele>81.4</ele>
        <time>2022-10-23 09:23:18</time>
      </trkpt>
      <trkpt lat="41.16966" lon="1.30147">
        <ele>80.6</ele>
        <time>2022-10-23 09:23:19</time>
      </trkpt>
      <trkpt lat="41.16967" lon="1.30139">
        <ele>79.8</ele>
        <time>2022-10-23 09:23:21</time>
      </trkpt>
      <trkpt lat="41.16971" lon="1.30122">
        <ele>78.4</ele>
        <time>2022-10-23 09:23:23</time>
      </trkpt>
      <trkpt lat="41.16974" lon="1.30101">
        <ele>77.2</ele>
        <time>2022-10-23 09:23:25</time>
      </trkpt>
      <trkpt lat="41.16964" lon="1.30086">
        <ele>76.4</ele>
        <time>2022-10-23 09:23:26</time>
      </trkpt>
      <trkpt lat="41.16962" lon="1.30083">
        <ele>75.8</ele>
        <time>2022-10-23 09:23:27</time>
      </trkpt>
      <trkpt lat="41.16959" lon="1.30078">
        <ele>75.2</ele>
        <time>2022-10-23 09:23:28</time>
      </trkpt>
      <trkpt lat="41.16952" lon="1.30073">
        <ele>74.8</ele>
        <time>2022-10-23 09:23:30</time>
      </trkpt>
      <trkpt lat="41.16948" lon="1.30071">
        <ele>74.6</ele>
        <time>2022-10-23 09:23:31</time>
      </trkpt>
      <trkpt lat="41.16943" lon="1.30067">
        <ele>74.6</ele>
        <time>2022-10-23 09:23:33</time>
      </trkpt>
      <trkpt lat="41.16933" lon="1.30053">
        <ele>74</ele>
        <time>2022-10-23 09:23:35</time>
      </trkpt>
      <trkpt lat="41.16925" lon="1.30039">
        <ele>73.8</ele>
        <time>2022-10-23 09:23:36</time>
      </trkpt>
      <trkpt lat="41.1692" lon="1.30028">
        <ele>73.4</ele>
        <time>2022-10-23 09:23:37</time>
      </trkpt>
      <trkpt lat="41.16916" lon="1.30018">
        <ele>73.4</ele>
        <time>2022-10-23 09:23:39</time>
      </trkpt>
      <trkpt lat="41.16915" lon="1.30013">
        <ele>73.4</ele>
        <time>2022-10-23 09:23:42</time>
      </trkpt>
      <trkpt lat="41.16904" lon="1.29999">
        <ele>73.4</ele>
        <time>2022-10-23 09:23:45</time>
      </trkpt>
      <trkpt lat="41.16896" lon="1.29997">
        <ele>73.6</ele>
        <time>2022-10-23 09:23:46</time>
      </trkpt>
      <trkpt lat="41.1689" lon="1.29996">
        <ele>73.6</ele>
        <time>2022-10-23 09:23:48</time>
      </trkpt>
      <trkpt lat="41.16878" lon="1.2999">
        <ele>74.6</ele>
        <time>2022-10-23 09:23:51</time>
      </trkpt>
      <trkpt lat="41.16874" lon="1.29987">
        <ele>75.2</ele>
        <time>2022-10-23 09:23:52</time>
      </trkpt>
      <trkpt lat="41.1687" lon="1.29983">
        <ele>75.8</ele>
        <time>2022-10-23 09:23:53</time>
      </trkpt>
      <trkpt lat="41.16859" lon="1.29972">
        <ele>77.2</ele>
        <time>2022-10-23 09:23:56</time>
      </trkpt>
      <trkpt lat="41.16845" lon="1.29957">
        <ele>78.4</ele>
        <time>2022-10-23 09:23:59</time>
      </trkpt>
      <trkpt lat="41.16835" lon="1.29949">
        <ele>79</ele>
        <time>2022-10-23 09:24:01</time>
      </trkpt>
      <trkpt lat="41.1683" lon="1.29944">
        <ele>79.4</ele>
        <time>2022-10-23 09:24:03</time>
      </trkpt>
      <trkpt lat="41.1681" lon="1.29924">
        <ele>80.4</ele>
        <time>2022-10-23 09:24:04</time>
      </trkpt>
      <trkpt lat="41.16807" lon="1.29922">
        <ele>80.4</ele>
        <time>2022-10-23 09:24:08</time>
      </trkpt>
      <trkpt lat="41.16796" lon="1.2992">
        <ele>80.8</ele>
        <time>2022-10-23 09:24:11</time>
      </trkpt>
      <trkpt lat="41.16787" lon="1.29928">
        <ele>81.4</ele>
        <time>2022-10-23 09:24:13</time>
      </trkpt>
      <trkpt lat="41.16785" lon="1.2993">
        <ele>81.6</ele>
        <time>2022-10-23 09:24:18</time>
      </trkpt>
      <trkpt lat="41.16776" lon="1.29939">
        <ele>82.8</ele>
        <time>2022-10-23 09:24:20</time>
      </trkpt>
      <trkpt lat="41.16766" lon="1.29945">
        <ele>83.6</ele>
        <time>2022-10-23 09:24:22</time>
      </trkpt>
      <trkpt lat="41.16755" lon="1.29946">
        <ele>84.8</ele>
        <time>2022-10-23 09:24:27</time>
      </trkpt>
      <trkpt lat="41.16745" lon="1.29944">
        <ele>85.4</ele>
        <time>2022-10-23 09:24:33</time>
      </trkpt>
      <trkpt lat="41.16739" lon="1.29942">
        <ele>85.8</ele>
        <time>2022-10-23 09:24:37</time>
      </trkpt>
      <trkpt lat="41.16726" lon="1.29932">
        <ele>86.2</ele>
        <time>2022-10-23 09:24:39</time>
      </trkpt>
      <trkpt lat="41.16712" lon="1.29912">
        <ele>86.8</ele>
        <time>2022-10-23 09:24:47</time>
      </trkpt>
      <trkpt lat="41.16709" lon="1.29892">
        <ele>88</ele>
        <time>2022-10-23 09:24:48</time>
      </trkpt>
      <trkpt lat="41.16708" lon="1.29884">
        <ele>88.6</ele>
        <time>2022-10-23 09:24:52</time>
      </trkpt>
      <trkpt lat="41.16707" lon="1.29873">
        <ele>89.4</ele>
        <time>2022-10-23 09:24:56</time>
      </trkpt>
      <trkpt lat="41.16704" lon="1.29859">
        <ele>90.6</ele>
        <time>2022-10-23 09:24:57</time>
      </trkpt>
      <trkpt lat="41.16695" lon="1.29847">
        <ele>91.6</ele>
        <time>2022-10-23 09:25:01</time>
      </trkpt>
      <trkpt lat="41.16693" lon="1.29845">
        <ele>91.8</ele>
        <time>2022-10-23 09:25:05</time>
      </trkpt>
      <trkpt lat="41.16687" lon="1.29838">
        <ele>92.6</ele>
        <time>2022-10-23 09:25:09</time>
      </trkpt>
      <trkpt lat="41.16681" lon="1.29831">
        <ele>93.8</ele>
        <time>2022-10-23 09:25:12</time>
      </trkpt>
      <trkpt lat="41.16676" lon="1.29823">
        <ele>94.4</ele>
        <time>2022-10-23 09:25:14</time>
      </trkpt>
      <trkpt lat="41.16673" lon="1.29818">
        <ele>94.8</ele>
        <time>2022-10-23 09:25:19</time>
      </trkpt>
      <trkpt lat="41.16664" lon="1.29805">
        <ele>96</ele>
        <time>2022-10-23 09:25:26</time>
      </trkpt>
      <trkpt lat="41.16662" lon="1.29803">
        <ele>96.2</ele>
        <time>2022-10-23 09:25:31</time>
      </trkpt>
      <trkpt lat="41.16651" lon="1.29793">
        <ele>97.2</ele>
        <time>2022-10-23 09:25:33</time>
      </trkpt>
      <trkpt lat="41.16644" lon="1.29786">
        <ele>97.6</ele>
        <time>2022-10-23 09:25:36</time>
      </trkpt>
      <trkpt lat="41.16634" lon="1.29778">
        <ele>98.2</ele>
        <time>2022-10-23 09:25:40</time>
      </trkpt>
      <trkpt lat="41.16627" lon="1.29773">
        <ele>98.8</ele>
        <time>2022-10-23 09:25:45</time>
      </trkpt>
      <trkpt lat="41.16625" lon="1.29759">
        <ele>99</ele>
        <time>2022-10-23 09:25:46</time>
      </trkpt>
      <trkpt lat="41.16632" lon="1.29744">
        <ele>99.2</ele>
        <time>2022-10-23 09:25:49</time>
      </trkpt>
      <trkpt lat="41.16639" lon="1.29731">
        <ele>99.4</ele>
        <time>2022-10-23 09:25:52</time>
      </trkpt>
      <trkpt lat="41.16646" lon="1.29712">
        <ele>99.4</ele>
        <time>2022-10-23 09:25:55</time>
      </trkpt>
      <trkpt lat="41.16647" lon="1.29693">
        <ele>99.8</ele>
        <time>2022-10-23 09:25:57</time>
      </trkpt>
      <trkpt lat="41.16647" lon="1.29687">
        <ele>100.4</ele>
        <time>2022-10-23 09:26:02</time>
      </trkpt>
      <trkpt lat="41.16646" lon="1.29675">
        <ele>101.6</ele>
        <time>2022-10-23 09:26:03</time>
      </trkpt>
      <trkpt lat="41.16646" lon="1.29672">
        <ele>101.8</ele>
        <time>2022-10-23 09:26:08</time>
      </trkpt>
      <trkpt lat="41.16645" lon="1.29664">
        <ele>102.6</ele>
        <time>2022-10-23 09:26:11</time>
      </trkpt>
      <trkpt lat="41.16644" lon="1.2965">
        <ele>103.8</ele>
        <time>2022-10-23 09:26:15</time>
      </trkpt>
      <trkpt lat="41.16644" lon="1.29637">
        <ele>105</ele>
        <time>2022-10-23 09:26:18</time>
      </trkpt>
      <trkpt lat="41.16644" lon="1.29634">
        <ele>105.2</ele>
        <time>2022-10-23 09:26:22</time>
      </trkpt>
      <trkpt lat="41.16644" lon="1.29626">
        <ele>106</ele>
        <time>2022-10-23 09:26:26</time>
      </trkpt>
      <trkpt lat="41.16646" lon="1.29614">
        <ele>107.2</ele>
        <time>2022-10-23 09:26:31</time>
      </trkpt>
      <trkpt lat="41.16648" lon="1.29601">
        <ele>108.2</ele>
        <time>2022-10-23 09:26:37</time>
      </trkpt>
      <trkpt lat="41.16648" lon="1.29598">
        <ele>108.4</ele>
        <time>2022-10-23 09:26:43</time>
      </trkpt>
      <trkpt lat="41.16661" lon="1.29559">
        <ele>109.2</ele>
        <time>2022-10-23 09:26:45</time>
      </trkpt>
      <trkpt lat="41.16663" lon="1.29553">
        <ele>109.4</ele>
        <time>2022-10-23 09:26:49</time>
      </trkpt>
      <trkpt lat="41.16669" lon="1.29533">
        <ele>110</ele>
        <time>2022-10-23 09:26:50</time>
      </trkpt>
      <trkpt lat="41.16668" lon="1.29514">
        <ele>110.4</ele>
        <time>2022-10-23 09:26:53</time>
      </trkpt>
      <trkpt lat="41.16667" lon="1.295">
        <ele>111.6</ele>
        <time>2022-10-23 09:26:58</time>
      </trkpt>
      <trkpt lat="41.16666" lon="1.29495">
        <ele>112.4</ele>
        <time>2022-10-23 09:27:03</time>
      </trkpt>
      <trkpt lat="41.16665" lon="1.29492">
        <ele>112.8</ele>
        <time>2022-10-23 09:27:04</time>
      </trkpt>
      <trkpt lat="41.1666" lon="1.29484">
        <ele>114</ele>
        <time>2022-10-23 09:27:07</time>
      </trkpt>
      <trkpt lat="41.1666" lon="1.29481">
        <ele>114</ele>
        <time>2022-10-23 09:27:11</time>
      </trkpt>
      <trkpt lat="41.16665" lon="1.29467">
        <ele>114.2</ele>
        <time>2022-10-23 09:27:15</time>
      </trkpt>
      <trkpt lat="41.16666" lon="1.29465">
        <ele>114.2</ele>
        <time>2022-10-23 09:27:16</time>
      </trkpt>
      <trkpt lat="41.16673" lon="1.29451">
        <ele>114.4</ele>
        <time>2022-10-23 09:27:27</time>
      </trkpt>
      <trkpt lat="41.16682" lon="1.29439">
        <ele>114.4</ele>
        <time>2022-10-23 09:27:29</time>
      </trkpt>
      <trkpt lat="41.16684" lon="1.29434">
        <ele>114.4</ele>
        <time>2022-10-23 09:27:35</time>
      </trkpt>
      <trkpt lat="41.16684" lon="1.29425">
        <ele>114.4</ele>
        <time>2022-10-23 09:27:40</time>
      </trkpt>
      <trkpt lat="41.16684" lon="1.29421">
        <ele>114.4</ele>
        <time>2022-10-23 09:27:44</time>
      </trkpt>
      <trkpt lat="41.16685" lon="1.29419">
        <ele>114.4</ele>
        <time>2022-10-23 09:27:46</time>
      </trkpt>
      <trkpt lat="41.16687" lon="1.29416">
        <ele>114.4</ele>
        <time>2022-10-23 09:27:47</time>
      </trkpt>
      <trkpt lat="41.16688" lon="1.29415">
        <ele>114.4</ele>
        <time>2022-10-23 09:27:50</time>
      </trkpt>
      <trkpt lat="41.16689" lon="1.29413">
        <ele>114.2</ele>
        <time>2022-10-23 09:27:51</time>
      </trkpt>
      <trkpt lat="41.1669" lon="1.29413">
        <ele>114.2</ele>
        <time>2022-10-23 09:27:56</time>
      </trkpt>
      <trkpt lat="41.16695" lon="1.29411">
        <ele>114</ele>
        <time>2022-10-23 09:27:57</time>
      </trkpt>
      <trkpt lat="41.16707" lon="1.29402">
        <ele>114</ele>
        <time>2022-10-23 09:28:04</time>
      </trkpt>
      <trkpt lat="41.16718" lon="1.29384">
        <ele>114</ele>
        <time>2022-10-23 09:28:10</time>
      </trkpt>
      <trkpt lat="41.1672" lon="1.2938">
        <ele>114</ele>
        <time>2022-10-23 09:28:12</time>
      </trkpt>
      <trkpt lat="41.16724" lon="1.2937">
        <ele>114</ele>
        <time>2022-10-23 09:28:16</time>
      </trkpt>
      <trkpt lat="41.16728" lon="1.2936">
        <ele>113.8</ele>
        <time>2022-10-23 09:28:18</time>
      </trkpt>
      <trkpt lat="41.16736" lon="1.29337">
        <ele>113.4</ele>
        <time>2022-10-23 09:28:19</time>
      </trkpt>
      <trkpt lat="41.1674" lon="1.29319">
        <ele>113.2</ele>
        <time>2022-10-23 09:28:22</time>
      </trkpt>
      <trkpt lat="41.16742" lon="1.29312">
        <ele>113</ele>
        <time>2022-10-23 09:28:23</time>
      </trkpt>
      <trkpt lat="41.16743" lon="1.29305">
        <ele>113</ele>
        <time>2022-10-23 09:28:25</time>
      </trkpt>
      <trkpt lat="41.16751" lon="1.29266">
        <ele>112.2</ele>
        <time>2022-10-23 09:28:26</time>
      </trkpt>
      <trkpt lat="41.16755" lon="1.29242">
        <ele>111.4</ele>
        <time>2022-10-23 09:28:30</time>
      </trkpt>
      <trkpt lat="41.1676" lon="1.29218">
        <ele>110.8</ele>
        <time>2022-10-23 09:28:36</time>
      </trkpt>
      <trkpt lat="41.16765" lon="1.29202">
        <ele>110.2</ele>
        <time>2022-10-23 09:28:41</time>
      </trkpt>
      <trkpt lat="41.16775" lon="1.29168">
        <ele>109</ele>
        <time>2022-10-23 09:28:42</time>
      </trkpt>
      <trkpt lat="41.16783" lon="1.29142">
        <ele>107.8</ele>
        <time>2022-10-23 09:28:44</time>
      </trkpt>
      <trkpt lat="41.16794" lon="1.29105">
        <ele>106.6</ele>
        <time>2022-10-23 09:28:46</time>
      </trkpt>
      <trkpt lat="41.168" lon="1.29074">
        <ele>105.6</ele>
        <time>2022-10-23 09:28:50</time>
      </trkpt>
      <trkpt lat="41.16806" lon="1.29042">
        <ele>104.6</ele>
        <time>2022-10-23 09:28:53</time>
      </trkpt>
      <trkpt lat="41.16808" lon="1.29031">
        <ele>104.2</ele>
        <time>2022-10-23 09:28:54</time>
      </trkpt>
      <trkpt lat="41.16814" lon="1.28999">
        <ele>102.8</ele>
        <time>2022-10-23 09:28:55</time>
      </trkpt>
      <trkpt lat="41.16818" lon="1.28978">
        <ele>101.2</ele>
        <time>2022-10-23 09:29:00</time>
      </trkpt>
      <trkpt lat="41.16823" lon="1.28958">
        <ele>100.4</ele>
        <time>2022-10-23 09:29:03</time>
      </trkpt>
      <trkpt lat="41.16825" lon="1.28948">
        <ele>100</ele>
        <time>2022-10-23 09:29:06</time>
      </trkpt>
      <trkpt lat="41.16832" lon="1.28911">
        <ele>98.8</ele>
        <time>2022-10-23 09:29:08</time>
      </trkpt>
      <trkpt lat="41.16836" lon="1.28894">
        <ele>98.4</ele>
        <time>2022-10-23 09:29:12</time>
      </trkpt>
      <trkpt lat="41.1684" lon="1.28871">
        <ele>98.4</ele>
        <time>2022-10-23 09:29:15</time>
      </trkpt>
      <trkpt lat="41.16839" lon="1.28857">
        <ele>98.4</ele>
        <time>2022-10-23 09:29:19</time>
      </trkpt>
      <trkpt lat="41.16828" lon="1.2884">
        <ele>98.4</ele>
        <time>2022-10-23 09:29:22</time>
      </trkpt>
      <trkpt lat="41.16824" lon="1.28835">
        <ele>98.4</ele>
        <time>2022-10-23 09:29:25</time>
      </trkpt>
      <trkpt lat="41.16805" lon="1.28812">
        <ele>98.4</ele>
        <time>2022-10-23 09:29:26</time>
      </trkpt>
      <trkpt lat="41.16786" lon="1.28794">
        <ele>98.4</ele>
        <time>2022-10-23 09:29:29</time>
      </trkpt>
      <trkpt lat="41.1678" lon="1.28787">
        <ele>98.4</ele>
        <time>2022-10-23 09:29:31</time>
      </trkpt>
      <trkpt lat="41.16775" lon="1.28777">
        <ele>97.8</ele>
        <time>2022-10-23 09:29:33</time>
      </trkpt>
      <trkpt lat="41.16768" lon="1.28767">
        <ele>97.2</ele>
        <time>2022-10-23 09:29:34</time>
      </trkpt>
      <trkpt lat="41.1676" lon="1.28764">
        <ele>96.4</ele>
        <time>2022-10-23 09:29:38</time>
      </trkpt>
      <trkpt lat="41.16755" lon="1.28763">
        <ele>96</ele>
        <time>2022-10-23 09:29:40</time>
      </trkpt>
      <trkpt lat="41.16749" lon="1.28762">
        <ele>95.6</ele>
        <time>2022-10-23 09:29:43</time>
      </trkpt>
      <trkpt lat="41.16739" lon="1.28759">
        <ele>95.4</ele>
        <time>2022-10-23 09:29:45</time>
      </trkpt>
      <trkpt lat="41.16731" lon="1.28752">
        <ele>95.2</ele>
        <time>2022-10-23 09:29:48</time>
      </trkpt>
      <trkpt lat="41.16729" lon="1.28734">
        <ele>95</ele>
        <time>2022-10-23 09:29:49</time>
      </trkpt>
      <trkpt lat="41.1673" lon="1.28728">
        <ele>94.8</ele>
        <time>2022-10-23 09:29:54</time>
      </trkpt>
      <trkpt lat="41.16733" lon="1.2871">
        <ele>94.4</ele>
        <time>2022-10-23 09:29:59</time>
      </trkpt>
      <trkpt lat="41.16734" lon="1.287">
        <ele>94.4</ele>
        <time>2022-10-23 09:30:01</time>
      </trkpt>
      <trkpt lat="41.16733" lon="1.28696">
        <ele>94.4</ele>
        <time>2022-10-23 09:30:03</time>
      </trkpt>
      <trkpt lat="41.16727" lon="1.2869">
        <ele>94.4</ele>
        <time>2022-10-23 09:30:06</time>
      </trkpt>
      <trkpt lat="41.16708" lon="1.28683">
        <ele>94.2</ele>
        <time>2022-10-23 09:30:08</time>
      </trkpt>
      <trkpt lat="41.16703" lon="1.2868">
        <ele>94</ele>
        <time>2022-10-23 09:30:09</time>
      </trkpt>
      <trkpt lat="41.16692" lon="1.28673">
        <ele>94</ele>
        <time>2022-10-23 09:30:10</time>
      </trkpt>
      <trkpt lat="41.16684" lon="1.28667">
        <ele>93</ele>
        <time>2022-10-23 09:30:12</time>
      </trkpt>
      <trkpt lat="41.16669" lon="1.28658">
        <ele>92.4</ele>
        <time>2022-10-23 09:30:14</time>
      </trkpt>
      <trkpt lat="41.16655" lon="1.2865">
        <ele>92</ele>
        <time>2022-10-23 09:30:17</time>
      </trkpt>
      <trkpt lat="41.16639" lon="1.28641">
        <ele>91.6</ele>
        <time>2022-10-23 09:30:18</time>
      </trkpt>
      <trkpt lat="41.1663" lon="1.28635">
        <ele>91.4</ele>
        <time>2022-10-23 09:30:21</time>
      </trkpt>
      <trkpt lat="41.16616" lon="1.28625">
        <ele>91</ele>
        <time>2022-10-23 09:30:23</time>
      </trkpt>
      <trkpt lat="41.16612" lon="1.28621">
        <ele>90.8</ele>
        <time>2022-10-23 09:30:24</time>
      </trkpt>
      <trkpt lat="41.16584" lon="1.28601">
        <ele>90.6</ele>
        <time>2022-10-23 09:30:26</time>
      </trkpt>
      <trkpt lat="41.16554" lon="1.28583">
        <ele>91.2</ele>
        <time>2022-10-23 09:30:30</time>
      </trkpt>
      <trkpt lat="41.1655" lon="1.2858">
        <ele>91.4</ele>
        <time>2022-10-23 09:30:31</time>
      </trkpt>
      <trkpt lat="41.16537" lon="1.28573">
        <ele>91.8</ele>
        <time>2022-10-23 09:30:34</time>
      </trkpt>
      <trkpt lat="41.16522" lon="1.28567">
        <ele>92</ele>
        <time>2022-10-23 09:30:37</time>
      </trkpt>
      <trkpt lat="41.16508" lon="1.28567">
        <ele>92</ele>
        <time>2022-10-23 09:30:41</time>
      </trkpt>
      <trkpt lat="41.16505" lon="1.28567">
        <ele>92</ele>
        <time>2022-10-23 09:30:44</time>
      </trkpt>
      <trkpt lat="41.16496" lon="1.28569">
        <ele>91.6</ele>
        <time>2022-10-23 09:30:47</time>
      </trkpt>
      <trkpt lat="41.16483" lon="1.28566">
        <ele>91.2</ele>
        <time>2022-10-23 09:30:49</time>
      </trkpt>
      <trkpt lat="41.16475" lon="1.2856">
        <ele>90.6</ele>
        <time>2022-10-23 09:30:52</time>
      </trkpt>
      <trkpt lat="41.16472" lon="1.28558">
        <ele>90.4</ele>
        <time>2022-10-23 09:30:53</time>
      </trkpt>
      <trkpt lat="41.16463" lon="1.28554">
        <ele>89.6</ele>
        <time>2022-10-23 09:30:59</time>
      </trkpt>
      <trkpt lat="41.16453" lon="1.28549">
        <ele>89.2</ele>
        <time>2022-10-23 09:31:06</time>
      </trkpt>
      <trkpt lat="41.16443" lon="1.28544">
        <ele>88.8</ele>
        <time>2022-10-23 09:31:07</time>
      </trkpt>
      <trkpt lat="41.16438" lon="1.28541">
        <ele>88.8</ele>
        <time>2022-10-23 09:31:10</time>
      </trkpt>
      <trkpt lat="41.16425" lon="1.28545">
        <ele>88.6</ele>
        <time>2022-10-23 09:31:14</time>
      </trkpt>
      <trkpt lat="41.16407" lon="1.28551">
        <ele>88.6</ele>
        <time>2022-10-23 09:31:19</time>
      </trkpt>
      <trkpt lat="41.16402" lon="1.28554">
        <ele>88.6</ele>
        <time>2022-10-23 09:31:20</time>
      </trkpt>
      <trkpt lat="41.16388" lon="1.28561">
        <ele>88.4</ele>
        <time>2022-10-23 09:31:22</time>
      </trkpt>
      <trkpt lat="41.16379" lon="1.28576">
        <ele>88.4</ele>
        <time>2022-10-23 09:31:25</time>
      </trkpt>
      <trkpt lat="41.16376" lon="1.28581">
        <ele>88.4</ele>
        <time>2022-10-23 09:31:27</time>
      </trkpt>
      <trkpt lat="41.16365" lon="1.2859">
        <ele>88.2</ele>
        <time>2022-10-23 09:31:28</time>
      </trkpt>
      <trkpt lat="41.1636" lon="1.28591">
        <ele>88.2</ele>
        <time>2022-10-23 09:31:30</time>
      </trkpt>
      <trkpt lat="41.16343" lon="1.28595">
        <ele>87.6</ele>
        <time>2022-10-23 09:31:32</time>
      </trkpt>
      <trkpt lat="41.1634" lon="1.28595">
        <ele>87.6</ele>
        <time>2022-10-23 09:31:34</time>
      </trkpt>
      <trkpt lat="41.16326" lon="1.28597">
        <ele>87.4</ele>
        <time>2022-10-23 09:31:35</time>
      </trkpt>
      <trkpt lat="41.16314" lon="1.28582">
        <ele>87</ele>
        <time>2022-10-23 09:31:38</time>
      </trkpt>
      <trkpt lat="41.16311" lon="1.28578">
        <ele>87</ele>
        <time>2022-10-23 09:31:42</time>
      </trkpt>
      <trkpt lat="41.16305" lon="1.28569">
        <ele>86.4</ele>
        <time>2022-10-23 09:31:43</time>
      </trkpt>
      <trkpt lat="41.163" lon="1.28563">
        <ele>86</ele>
        <time>2022-10-23 09:31:46</time>
      </trkpt>
      <trkpt lat="41.16291" lon="1.28554">
        <ele>85.8</ele>
        <time>2022-10-23 09:31:49</time>
      </trkpt>
      <trkpt lat="41.16279" lon="1.28543">
        <ele>85.8</ele>
        <time>2022-10-23 09:31:50</time>
      </trkpt>
      <trkpt lat="41.16263" lon="1.28526">
        <ele>85.4</ele>
        <time>2022-10-23 09:31:53</time>
      </trkpt>
      <trkpt lat="41.1626" lon="1.28523">
        <ele>85.4</ele>
        <time>2022-10-23 09:31:54</time>
      </trkpt>
      <trkpt lat="41.16254" lon="1.28517">
        <ele>85.4</ele>
        <time>2022-10-23 09:31:58</time>
      </trkpt>
      <trkpt lat="41.16243" lon="1.28504">
        <ele>85.4</ele>
        <time>2022-10-23 09:31:59</time>
      </trkpt>
      <trkpt lat="41.16237" lon="1.28497">
        <ele>85.4</ele>
        <time>2022-10-23 09:32:04</time>
      </trkpt>
      <trkpt lat="41.16217" lon="1.28471">
        <ele>85.6</ele>
        <time>2022-10-23 09:32:08</time>
      </trkpt>
      <trkpt lat="41.16203" lon="1.28454">
        <ele>85.6</ele>
        <time>2022-10-23 09:32:09</time>
      </trkpt>
      <trkpt lat="41.16197" lon="1.28448">
        <ele>85.8</ele>
        <time>2022-10-23 09:32:11</time>
      </trkpt>
      <trkpt lat="41.16185" lon="1.28434">
        <ele>85.8</ele>
        <time>2022-10-23 09:32:13</time>
      </trkpt>
      <trkpt lat="41.16174" lon="1.2842">
        <ele>85.8</ele>
        <time>2022-10-23 09:32:18</time>
      </trkpt>
      <trkpt lat="41.16163" lon="1.28411">
        <ele>85.8</ele>
        <time>2022-10-23 09:32:22</time>
      </trkpt>
      <trkpt lat="41.16156" lon="1.28408">
        <ele>85.8</ele>
        <time>2022-10-23 09:32:27</time>
      </trkpt>
      <trkpt lat="41.16147" lon="1.28406">
        <ele>86.2</ele>
        <time>2022-10-23 09:32:28</time>
      </trkpt>
      <trkpt lat="41.16142" lon="1.28406">
        <ele>86.4</ele>
        <time>2022-10-23 09:32:30</time>
      </trkpt>
      <trkpt lat="41.1614" lon="1.28406">
        <ele>86.6</ele>
        <time>2022-10-23 09:32:34</time>
      </trkpt>
      <trkpt lat="41.1613" lon="1.28407">
        <ele>87.6</ele>
        <time>2022-10-23 09:32:36</time>
      </trkpt>
      <trkpt lat="41.16122" lon="1.28406">
        <ele>88.2</ele>
        <time>2022-10-23 09:32:43</time>
      </trkpt>
      <trkpt lat="41.16119" lon="1.28403">
        <ele>88.6</ele>
        <time>2022-10-23 09:32:48</time>
      </trkpt>
      <trkpt lat="41.16113" lon="1.28398">
        <ele>89.6</ele>
        <time>2022-10-23 09:32:50</time>
      </trkpt>
      <trkpt lat="41.16111" lon="1.28395">
        <ele>90.2</ele>
        <time>2022-10-23 09:32:54</time>
      </trkpt>
      <trkpt lat="41.16108" lon="1.28391">
        <ele>90.8</ele>
        <time>2022-10-23 09:32:58</time>
      </trkpt>
      <trkpt lat="41.16105" lon="1.28389">
        <ele>90.8</ele>
        <time>2022-10-23 09:33:02</time>
      </trkpt>
      <trkpt lat="41.16103" lon="1.28387">
        <ele>91.2</ele>
        <time>2022-10-23 09:33:04</time>
      </trkpt>
      <trkpt lat="41.16101" lon="1.28387">
        <ele>91.6</ele>
        <time>2022-10-23 09:33:07</time>
      </trkpt>
      <trkpt lat="41.16096" lon="1.28384">
        <ele>92.4</ele>
        <time>2022-10-23 09:33:09</time>
      </trkpt>
      <trkpt lat="41.16096" lon="1.28383">
        <ele>92.4</ele>
        <time>2022-10-23 09:33:10</time>
      </trkpt>
      <trkpt lat="41.16095" lon="1.28383">
        <ele>92.4</ele>
        <time>2022-10-23 09:33:14</time>
      </trkpt>
      <trkpt lat="41.16092" lon="1.28382">
        <ele>92.6</ele>
        <time>2022-10-23 09:33:18</time>
      </trkpt>
      <trkpt lat="41.16088" lon="1.2838">
        <ele>93.2</ele>
        <time>2022-10-23 09:33:20</time>
      </trkpt>
      <trkpt lat="41.16088" lon="1.2838">
        <ele>93.4</ele>
        <time>2022-10-23 09:33:24</time>
      </trkpt>
      <trkpt lat="41.16088" lon="1.2838">
        <ele>93.6</ele>
        <time>2022-10-23 09:33:26</time>
      </trkpt>
      <trkpt lat="41.16085" lon="1.28377">
        <ele>94</ele>
        <time>2022-10-23 09:33:29</time>
      </trkpt>
      <trkpt lat="41.16084" lon="1.28377">
        <ele>94</ele>
        <time>2022-10-23 09:33:31</time>
      </trkpt>
      <trkpt lat="41.16082" lon="1.28375">
        <ele>94.2</ele>
        <time>2022-10-23 09:33:36</time>
      </trkpt>
      <trkpt lat="41.16082" lon="1.28375">
        <ele>94.2</ele>
        <time>2022-10-23 09:33:38</time>
      </trkpt>
      <trkpt lat="41.1608" lon="1.28373">
        <ele>94.4</ele>
        <time>2022-10-23 09:33:43</time>
      </trkpt>
      <trkpt lat="41.16075" lon="1.28369">
        <ele>94.6</ele>
        <time>2022-10-23 09:33:44</time>
      </trkpt>
      <trkpt lat="41.16065" lon="1.28362">
        <ele>95</ele>
        <time>2022-10-23 09:33:45</time>
      </trkpt>
      <trkpt lat="41.16061" lon="1.2836">
        <ele>95.6</ele>
        <time>2022-10-23 09:33:49</time>
      </trkpt>
      <trkpt lat="41.16057" lon="1.28357">
        <ele>96.2</ele>
        <time>2022-10-23 09:33:54</time>
      </trkpt>
      <trkpt lat="41.16048" lon="1.28355">
        <ele>97</ele>
        <time>2022-10-23 09:33:59</time>
      </trkpt>
      <trkpt lat="41.16045" lon="1.28354">
        <ele>97.2</ele>
        <time>2022-10-23 09:34:00</time>
      </trkpt>
      <trkpt lat="41.1604" lon="1.28352">
        <ele>97.2</ele>
        <time>2022-10-23 09:34:14</time>
      </trkpt>
      <trkpt lat="41.16039" lon="1.28352">
        <ele>97.2</ele>
        <time>2022-10-23 09:34:15</time>
      </trkpt>
      <trkpt lat="41.1603" lon="1.28353">
        <ele>97.2</ele>
        <time>2022-10-23 09:34:21</time>
      </trkpt>
      <trkpt lat="41.16011" lon="1.28345">
        <ele>97.2</ele>
        <time>2022-10-23 09:34:22</time>
      </trkpt>
      <trkpt lat="41.15995" lon="1.28336">
        <ele>96.8</ele>
        <time>2022-10-23 09:34:25</time>
      </trkpt>
      <trkpt lat="41.15987" lon="1.28331">
        <ele>96.6</ele>
        <time>2022-10-23 09:34:29</time>
      </trkpt>
      <trkpt lat="41.15969" lon="1.28321">
        <ele>96</ele>
        <time>2022-10-23 09:34:35</time>
      </trkpt>
      <trkpt lat="41.15964" lon="1.28317">
        <ele>96</ele>
        <time>2022-10-23 09:34:37</time>
      </trkpt>
      <trkpt lat="41.15958" lon="1.28314">
        <ele>95.8</ele>
        <time>2022-10-23 09:34:39</time>
      </trkpt>
      <trkpt lat="41.15944" lon="1.28307">
        <ele>95.6</ele>
        <time>2022-10-23 09:34:44</time>
      </trkpt>
      <trkpt lat="41.15928" lon="1.28298">
        <ele>95.4</ele>
        <time>2022-10-23 09:34:46</time>
      </trkpt>
      <trkpt lat="41.1592" lon="1.28293">
        <ele>95.2</ele>
        <time>2022-10-23 09:34:50</time>
      </trkpt>
      <trkpt lat="41.15912" lon="1.28291">
        <ele>95</ele>
        <time>2022-10-23 09:34:51</time>
      </trkpt>
      <trkpt lat="41.15903" lon="1.28289">
        <ele>94.6</ele>
        <time>2022-10-23 09:34:56</time>
      </trkpt>
      <trkpt lat="41.15887" lon="1.28285">
        <ele>93.2</ele>
        <time>2022-10-23 09:35:02</time>
      </trkpt>
      <trkpt lat="41.15871" lon="1.28281">
        <ele>91.4</ele>
        <time>2022-10-23 09:35:06</time>
      </trkpt>
      <trkpt lat="41.15855" lon="1.28278">
        <ele>90</ele>
        <time>2022-10-23 09:35:08</time>
      </trkpt>
      <trkpt lat="41.15819" lon="1.28279">
        <ele>89</ele>
        <time>2022-10-23 09:35:12</time>
      </trkpt>
      <trkpt lat="41.15799" lon="1.28277">
        <ele>89</ele>
        <time>2022-10-23 09:35:13</time>
      </trkpt>
      <trkpt lat="41.15788" lon="1.28271">
        <ele>89</ele>
        <time>2022-10-23 09:35:14</time>
      </trkpt>
      <trkpt lat="41.15775" lon="1.28255">
        <ele>89.2</ele>
        <time>2022-10-23 09:35:16</time>
      </trkpt>
      <trkpt lat="41.1577" lon="1.28251">
        <ele>89.4</ele>
        <time>2022-10-23 09:35:18</time>
      </trkpt>
      <trkpt lat="41.15754" lon="1.2824">
        <ele>90.2</ele>
        <time>2022-10-23 09:35:19</time>
      </trkpt>
      <trkpt lat="41.15747" lon="1.28237">
        <ele>90.4</ele>
        <time>2022-10-23 09:35:20</time>
      </trkpt>
      <trkpt lat="41.15729" lon="1.28227">
        <ele>91</ele>
        <time>2022-10-23 09:35:21</time>
      </trkpt>
      <trkpt lat="41.15717" lon="1.28219">
        <ele>91</ele>
        <time>2022-10-23 09:35:23</time>
      </trkpt>
      <trkpt lat="41.15711" lon="1.28216">
        <ele>91</ele>
        <time>2022-10-23 09:35:25</time>
      </trkpt>
      <trkpt lat="41.1569" lon="1.28213">
        <ele>91</ele>
        <time>2022-10-23 09:35:27</time>
      </trkpt>
      <trkpt lat="41.15683" lon="1.28212">
        <ele>91</ele>
        <time>2022-10-23 09:35:32</time>
      </trkpt>
      <trkpt lat="41.15664" lon="1.28208">
        <ele>91.2</ele>
        <time>2022-10-23 09:35:35</time>
      </trkpt>
      <trkpt lat="41.15658" lon="1.28206">
        <ele>91.2</ele>
        <time>2022-10-23 09:35:37</time>
      </trkpt>
      <trkpt lat="41.15632" lon="1.28196">
        <ele>91.2</ele>
        <time>2022-10-23 09:35:40</time>
      </trkpt>
      <trkpt lat="41.15624" lon="1.28193">
        <ele>92.2</ele>
        <time>2022-10-23 09:35:41</time>
      </trkpt>
      <trkpt lat="41.15606" lon="1.2819">
        <ele>93.6</ele>
        <time>2022-10-23 09:35:44</time>
      </trkpt>
      <trkpt lat="41.15597" lon="1.28188">
        <ele>94</ele>
        <time>2022-10-23 09:35:45</time>
      </trkpt>
      <trkpt lat="41.15567" lon="1.28183">
        <ele>94.8</ele>
        <time>2022-10-23 09:35:48</time>
      </trkpt>
      <trkpt lat="41.15563" lon="1.28182">
        <ele>95</ele>
        <time>2022-10-23 09:35:50</time>
      </trkpt>
      <trkpt lat="41.15546" lon="1.28175">
        <ele>95.8</ele>
        <time>2022-10-23 09:35:51</time>
      </trkpt>
      <trkpt lat="41.15539" lon="1.28172">
        <ele>96.2</ele>
        <time>2022-10-23 09:35:54</time>
      </trkpt>
      <trkpt lat="41.15527" lon="1.28166">
        <ele>96.8</ele>
        <time>2022-10-23 09:35:55</time>
      </trkpt>
      <trkpt lat="41.15513" lon="1.28156">
        <ele>97</ele>
        <time>2022-10-23 09:35:58</time>
      </trkpt>
      <trkpt lat="41.15493" lon="1.28142">
        <ele>97.4</ele>
        <time>2022-10-23 09:35:59</time>
      </trkpt>
      <trkpt lat="41.15491" lon="1.2814">
        <ele>97.6</ele>
        <time>2022-10-23 09:36:05</time>
      </trkpt>
      <trkpt lat="41.1548" lon="1.28131">
        <ele>97.8</ele>
        <time>2022-10-23 09:36:07</time>
      </trkpt>
      <trkpt lat="41.15479" lon="1.2813">
        <ele>97.8</ele>
        <time>2022-10-23 09:36:11</time>
      </trkpt>
      <trkpt lat="41.15468" lon="1.28121">
        <ele>98.6</ele>
        <time>2022-10-23 09:36:13</time>
      </trkpt>
      <trkpt lat="41.15461" lon="1.28116">
        <ele>98.8</ele>
        <time>2022-10-23 09:36:20</time>
      </trkpt>
      <trkpt lat="41.15439" lon="1.281">
        <ele>99.2</ele>
        <time>2022-10-23 09:36:21</time>
      </trkpt>
      <trkpt lat="41.15414" lon="1.28086">
        <ele>99.4</ele>
        <time>2022-10-23 09:36:26</time>
      </trkpt>
      <trkpt lat="41.15402" lon="1.28079">
        <ele>99.8</ele>
        <time>2022-10-23 09:36:28</time>
      </trkpt>
      <trkpt lat="41.15387" lon="1.2807">
        <ele>100.2</ele>
        <time>2022-10-23 09:36:32</time>
      </trkpt>
      <trkpt lat="41.15372" lon="1.28059">
        <ele>101.2</ele>
        <time>2022-10-23 09:36:37</time>
      </trkpt>
      <trkpt lat="41.15359" lon="1.28049">
        <ele>101.6</ele>
        <time>2022-10-23 09:36:44</time>
      </trkpt>
      <trkpt lat="41.15338" lon="1.28036">
        <ele>101.8</ele>
        <time>2022-10-23 09:36:45</time>
      </trkpt>
      <trkpt lat="41.15316" lon="1.28025">
        <ele>102</ele>
        <time>2022-10-23 09:36:50</time>
      </trkpt>
      <trkpt lat="41.15306" lon="1.2802">
        <ele>102.2</ele>
        <time>2022-10-23 09:36:51</time>
      </trkpt>
      <trkpt lat="41.1528" lon="1.28009">
        <ele>103</ele>
        <time>2022-10-23 09:36:55</time>
      </trkpt>
      <trkpt lat="41.15273" lon="1.28004">
        <ele>103.2</ele>
        <time>2022-10-23 09:36:57</time>
      </trkpt>
      <trkpt lat="41.15248" lon="1.27995">
        <ele>103.6</ele>
        <time>2022-10-23 09:37:04</time>
      </trkpt>
      <trkpt lat="41.15233" lon="1.27992">
        <ele>104.2</ele>
        <time>2022-10-23 09:37:12</time>
      </trkpt>
      <trkpt lat="41.15227" lon="1.27991">
        <ele>104.4</ele>
        <time>2022-10-23 09:37:16</time>
      </trkpt>
      <trkpt lat="41.15214" lon="1.27987">
        <ele>105</ele>
        <time>2022-10-23 09:37:21</time>
      </trkpt>
      <trkpt lat="41.15204" lon="1.27984">
        <ele>105.6</ele>
        <time>2022-10-23 09:37:26</time>
      </trkpt>
      <trkpt lat="41.15194" lon="1.2798">
        <ele>106.2</ele>
        <time>2022-10-23 09:37:30</time>
      </trkpt>
      <trkpt lat="41.15184" lon="1.27976">
        <ele>107.4</ele>
        <time>2022-10-23 09:37:36</time>
      </trkpt>
      <trkpt lat="41.15171" lon="1.27971">
        <ele>108.4</ele>
        <time>2022-10-23 09:37:42</time>
      </trkpt>
      <trkpt lat="41.15163" lon="1.2797">
        <ele>108.8</ele>
        <time>2022-10-23 09:37:45</time>
      </trkpt>
      <trkpt lat="41.15154" lon="1.27967">
        <ele>109.4</ele>
        <time>2022-10-23 09:37:52</time>
      </trkpt>
      <trkpt lat="41.15134" lon="1.27963">
        <ele>110.2</ele>
        <time>2022-10-23 09:37:54</time>
      </trkpt>
      <trkpt lat="41.15129" lon="1.27962">
        <ele>110.6</ele>
        <time>2022-10-23 09:38:01</time>
      </trkpt>
      <trkpt lat="41.15117" lon="1.27959">
        <ele>111.4</ele>
        <time>2022-10-23 09:38:06</time>
      </trkpt>
      <trkpt lat="41.151" lon="1.27956">
        <ele>112.4</ele>
        <time>2022-10-23 09:38:08</time>
      </trkpt>
      <trkpt lat="41.15085" lon="1.27956">
        <ele>113.2</ele>
        <time>2022-10-23 09:38:12</time>
      </trkpt>
      <trkpt lat="41.15082" lon="1.27958">
        <ele>113.4</ele>
        <time>2022-10-23 09:38:15</time>
      </trkpt>
      <trkpt lat="41.15074" lon="1.2797">
        <ele>114.2</ele>
        <time>2022-10-23 09:38:19</time>
      </trkpt>
      <trkpt lat="41.15066" lon="1.2798">
        <ele>114.6</ele>
        <time>2022-10-23 09:38:23</time>
      </trkpt>
      <trkpt lat="41.15049" lon="1.27999">
        <ele>114.8</ele>
        <time>2022-10-23 09:38:28</time>
      </trkpt>
      <trkpt lat="41.15046" lon="1.28">
        <ele>114.8</ele>
        <time>2022-10-23 09:38:31</time>
      </trkpt>
      <trkpt lat="41.15039" lon="1.27996">
        <ele>114.8</ele>
        <time>2022-10-23 09:38:34</time>
      </trkpt>
      <trkpt lat="41.15035" lon="1.2799">
        <ele>115</ele>
        <time>2022-10-23 09:38:41</time>
      </trkpt>
      <trkpt lat="41.15023" lon="1.27975">
        <ele>115.6</ele>
        <time>2022-10-23 09:38:43</time>
      </trkpt>
      <trkpt lat="41.15007" lon="1.27954">
        <ele>116.8</ele>
        <time>2022-10-23 09:38:47</time>
      </trkpt>
      <trkpt lat="41.14993" lon="1.27945">
        <ele>117.8</ele>
        <time>2022-10-23 09:38:53</time>
      </trkpt>
      <trkpt lat="41.14987" lon="1.27943">
        <ele>118.2</ele>
        <time>2022-10-23 09:38:59</time>
      </trkpt>
      <trkpt lat="41.14974" lon="1.27939">
        <ele>118.8</ele>
        <time>2022-10-23 09:39:00</time>
      </trkpt>
      <trkpt lat="41.14958" lon="1.27932">
        <ele>120</ele>
        <time>2022-10-23 09:39:04</time>
      </trkpt>
      <trkpt lat="41.14955" lon="1.2793">
        <ele>120.2</ele>
        <time>2022-10-23 09:39:07</time>
      </trkpt>
      <trkpt lat="41.14943" lon="1.27913">
        <ele>121</ele>
        <time>2022-10-23 09:39:14</time>
      </trkpt>
      <trkpt lat="41.14938" lon="1.27907">
        <ele>121.2</ele>
        <time>2022-10-23 09:39:15</time>
      </trkpt>
      <trkpt lat="41.14918" lon="1.27893">
        <ele>122</ele>
        <time>2022-10-23 09:39:17</time>
      </trkpt>
      <trkpt lat="41.14915" lon="1.27892">
        <ele>122.4</ele>
        <time>2022-10-23 09:39:19</time>
      </trkpt>
      <trkpt lat="41.14906" lon="1.27882">
        <ele>123</ele>
        <time>2022-10-23 09:39:24</time>
      </trkpt>
      <trkpt lat="41.1491" lon="1.27871">
        <ele>123.8</ele>
        <time>2022-10-23 09:39:31</time>
      </trkpt>
      <trkpt lat="41.14909" lon="1.27863">
        <ele>124.2</ele>
        <time>2022-10-23 09:39:36</time>
      </trkpt>
      <trkpt lat="41.14907" lon="1.27859">
        <ele>124.6</ele>
        <time>2022-10-23 09:39:38</time>
      </trkpt>
      <trkpt lat="41.14904" lon="1.27856">
        <ele>125</ele>
        <time>2022-10-23 09:39:42</time>
      </trkpt>
      <trkpt lat="41.14897" lon="1.27848">
        <ele>125.2</ele>
        <time>2022-10-23 09:39:47</time>
      </trkpt>
      <trkpt lat="41.14884" lon="1.27836">
        <ele>126.2</ele>
        <time>2022-10-23 09:39:48</time>
      </trkpt>
      <trkpt lat="41.14882" lon="1.27833">
        <ele>126.6</ele>
        <time>2022-10-23 09:39:53</time>
      </trkpt>
      <trkpt lat="41.14873" lon="1.27824">
        <ele>127.8</ele>
        <time>2022-10-23 09:39:55</time>
      </trkpt>
      <trkpt lat="41.14866" lon="1.27817">
        <ele>128.4</ele>
        <time>2022-10-23 09:40:02</time>
      </trkpt>
      <trkpt lat="41.1486" lon="1.2781">
        <ele>128.8</ele>
        <time>2022-10-23 09:40:03</time>
      </trkpt>
      <trkpt lat="41.14855" lon="1.27805">
        <ele>129</ele>
        <time>2022-10-23 09:40:07</time>
      </trkpt>
      <trkpt lat="41.1485" lon="1.27802">
        <ele>129.2</ele>
        <time>2022-10-23 09:40:10</time>
      </trkpt>
      <trkpt lat="41.14847" lon="1.27804">
        <ele>129.2</ele>
        <time>2022-10-23 09:40:12</time>
      </trkpt>
      <trkpt lat="41.14845" lon="1.27808">
        <ele>129.2</ele>
        <time>2022-10-23 09:40:13</time>
      </trkpt>
      <trkpt lat="41.14845" lon="1.27808">
        <ele>129.2</ele>
        <time>2022-10-23 09:40:14</time>
      </trkpt>
      <trkpt lat="41.14845" lon="1.27808">
        <ele>129.2</ele>
        <time>2022-10-23 09:40:17</time>
      </trkpt>
      <trkpt lat="41.1484" lon="1.27822">
        <ele>140</ele>
        <time>2022-10-23 10:17:43</time>
      </trkpt>
      <trkpt lat="41.14839" lon="1.27822">
        <ele>140</ele>
        <time>2022-10-23 10:17:44</time>
      </trkpt>
      <trkpt lat="41.14842" lon="1.27812">
        <ele>140.2</ele>
        <time>2022-10-23 10:17:48</time>
      </trkpt>
      <trkpt lat="41.14843" lon="1.27811">
        <ele>140.2</ele>
        <time>2022-10-23 10:17:49</time>
      </trkpt>
      <trkpt lat="41.14845" lon="1.27802">
        <ele>140</ele>
        <time>2022-10-23 10:17:56</time>
      </trkpt>
      <trkpt lat="41.14843" lon="1.27796">
        <ele>140</ele>
        <time>2022-10-23 10:18:00</time>
      </trkpt>
      <trkpt lat="41.14837" lon="1.27789">
        <ele>140</ele>
        <time>2022-10-23 10:18:04</time>
      </trkpt>
      <trkpt lat="41.14832" lon="1.27784">
        <ele>140</ele>
        <time>2022-10-23 10:18:07</time>
      </trkpt>
      <trkpt lat="41.14828" lon="1.27779">
        <ele>140</ele>
        <time>2022-10-23 10:18:10</time>
      </trkpt>
      <trkpt lat="41.14825" lon="1.27772">
        <ele>140</ele>
        <time>2022-10-23 10:18:13</time>
      </trkpt>
      <trkpt lat="41.14825" lon="1.27769">
        <ele>140</ele>
        <time>2022-10-23 10:18:14</time>
      </trkpt>
      <trkpt lat="41.14828" lon="1.2776">
        <ele>140</ele>
        <time>2022-10-23 10:18:17</time>
      </trkpt>
      <trkpt lat="41.14833" lon="1.2775">
        <ele>140</ele>
        <time>2022-10-23 10:18:20</time>
      </trkpt>
      <trkpt lat="41.14835" lon="1.27747">
        <ele>140</ele>
        <time>2022-10-23 10:18:21</time>
      </trkpt>
      <trkpt lat="41.14839" lon="1.27741">
        <ele>140</ele>
        <time>2022-10-23 10:18:23</time>
      </trkpt>
      <trkpt lat="41.14844" lon="1.27731">
        <ele>140.2</ele>
        <time>2022-10-23 10:18:26</time>
      </trkpt>
      <trkpt lat="41.14853" lon="1.27712">
        <ele>140.6</ele>
        <time>2022-10-23 10:18:32</time>
      </trkpt>
      <trkpt lat="41.14856" lon="1.27705">
        <ele>140.8</ele>
        <time>2022-10-23 10:18:34</time>
      </trkpt>
      <trkpt lat="41.14864" lon="1.27689">
        <ele>141.4</ele>
        <time>2022-10-23 10:18:39</time>
      </trkpt>
      <trkpt lat="41.14868" lon="1.27683">
        <ele>141.6</ele>
        <time>2022-10-23 10:18:41</time>
      </trkpt>
      <trkpt lat="41.14878" lon="1.27664">
        <ele>142</ele>
        <time>2022-10-23 10:18:47</time>
      </trkpt>
      <trkpt lat="41.14884" lon="1.27656">
        <ele>142</ele>
        <time>2022-10-23 10:18:50</time>
      </trkpt>
      <trkpt lat="41.14896" lon="1.27643">
        <ele>142.4</ele>
        <time>2022-10-23 10:18:55</time>
      </trkpt>
      <trkpt lat="41.14907" lon="1.27631">
        <ele>142.8</ele>
        <time>2022-10-23 10:19:00</time>
      </trkpt>
      <trkpt lat="41.14912" lon="1.27626">
        <ele>143</ele>
        <time>2022-10-23 10:19:02</time>
      </trkpt>
      <trkpt lat="41.14926" lon="1.2761">
        <ele>143.6</ele>
        <time>2022-10-23 10:19:08</time>
      </trkpt>
      <trkpt lat="41.14936" lon="1.276">
        <ele>143.8</ele>
        <time>2022-10-23 10:19:12</time>
      </trkpt>
      <trkpt lat="41.14945" lon="1.27589">
        <ele>144.2</ele>
        <time>2022-10-23 10:19:16</time>
      </trkpt>
      <trkpt lat="41.14962" lon="1.27569">
        <ele>145</ele>
        <time>2022-10-23 10:19:23</time>
      </trkpt>
      <trkpt lat="41.14965" lon="1.27567">
        <ele>145</ele>
        <time>2022-10-23 10:19:24</time>
      </trkpt>
      <trkpt lat="41.14984" lon="1.27543">
        <ele>146</ele>
        <time>2022-10-23 10:19:32</time>
      </trkpt>
      <trkpt lat="41.15" lon="1.27522">
        <ele>146.4</ele>
        <time>2022-10-23 10:19:39</time>
      </trkpt>
      <trkpt lat="41.15014" lon="1.27511">
        <ele>147</ele>
        <time>2022-10-23 10:19:44</time>
      </trkpt>
      <trkpt lat="41.15032" lon="1.27497">
        <ele>147.4</ele>
        <time>2022-10-23 10:19:50</time>
      </trkpt>
      <trkpt lat="41.15062" lon="1.2747">
        <ele>148</ele>
        <time>2022-10-23 10:20:00</time>
      </trkpt>
      <trkpt lat="41.15065" lon="1.27467">
        <ele>148</ele>
        <time>2022-10-23 10:20:01</time>
      </trkpt>
      <trkpt lat="41.15082" lon="1.27447">
        <ele>148.4</ele>
        <time>2022-10-23 10:20:08</time>
      </trkpt>
      <trkpt lat="41.15087" lon="1.2744">
        <ele>148.4</ele>
        <time>2022-10-23 10:20:10</time>
      </trkpt>
      <trkpt lat="41.15096" lon="1.27424">
        <ele>148.8</ele>
        <time>2022-10-23 10:20:15</time>
      </trkpt>
      <trkpt lat="41.15103" lon="1.27414">
        <ele>149</ele>
        <time>2022-10-23 10:20:18</time>
      </trkpt>
      <trkpt lat="41.15113" lon="1.27401">
        <ele>149.2</ele>
        <time>2022-10-23 10:20:22</time>
      </trkpt>
      <trkpt lat="41.15115" lon="1.27399">
        <ele>149.2</ele>
        <time>2022-10-23 10:20:23</time>
      </trkpt>
      <trkpt lat="41.15119" lon="1.27395">
        <ele>149.2</ele>
        <time>2022-10-23 10:20:25</time>
      </trkpt>
      <trkpt lat="41.15128" lon="1.27386">
        <ele>149.2</ele>
        <time>2022-10-23 10:20:28</time>
      </trkpt>
      <trkpt lat="41.15131" lon="1.27383">
        <ele>149.2</ele>
        <time>2022-10-23 10:20:29</time>
      </trkpt>
      <trkpt lat="41.15139" lon="1.27374">
        <ele>149.2</ele>
        <time>2022-10-23 10:20:32</time>
      </trkpt>
      <trkpt lat="41.15141" lon="1.27371">
        <ele>149.2</ele>
        <time>2022-10-23 10:20:33</time>
      </trkpt>
      <trkpt lat="41.1515" lon="1.27357">
        <ele>149.2</ele>
        <time>2022-10-23 10:20:37</time>
      </trkpt>
      <trkpt lat="41.15153" lon="1.27354">
        <ele>149.4</ele>
        <time>2022-10-23 10:20:38</time>
      </trkpt>
      <trkpt lat="41.15159" lon="1.27347">
        <ele>149.4</ele>
        <time>2022-10-23 10:20:40</time>
      </trkpt>
      <trkpt lat="41.15172" lon="1.27335">
        <ele>149.8</ele>
        <time>2022-10-23 10:20:44</time>
      </trkpt>
      <trkpt lat="41.15176" lon="1.27334">
        <ele>150</ele>
        <time>2022-10-23 10:20:45</time>
      </trkpt>
      <trkpt lat="41.15188" lon="1.27333">
        <ele>150.2</ele>
        <time>2022-10-23 10:20:49</time>
      </trkpt>
      <trkpt lat="41.15203" lon="1.27336">
        <ele>150.2</ele>
        <time>2022-10-23 10:20:53</time>
      </trkpt>
      <trkpt lat="41.15211" lon="1.27335">
        <ele>150.6</ele>
        <time>2022-10-23 10:20:55</time>
      </trkpt>
      <trkpt lat="41.15228" lon="1.2733">
        <ele>151</ele>
        <time>2022-10-23 10:20:59</time>
      </trkpt>
      <trkpt lat="41.15231" lon="1.27326">
        <ele>151</ele>
        <time>2022-10-23 10:21:00</time>
      </trkpt>
      <trkpt lat="41.15245" lon="1.2731">
        <ele>151.2</ele>
        <time>2022-10-23 10:21:04</time>
      </trkpt>
      <trkpt lat="41.15251" lon="1.27301">
        <ele>151.4</ele>
        <time>2022-10-23 10:21:06</time>
      </trkpt>
      <trkpt lat="41.15257" lon="1.27292">
        <ele>151.6</ele>
        <time>2022-10-23 10:21:08</time>
      </trkpt>
      <trkpt lat="41.15266" lon="1.27278">
        <ele>152</ele>
        <time>2022-10-23 10:21:11</time>
      </trkpt>
      <trkpt lat="41.15269" lon="1.27273">
        <ele>152.2</ele>
        <time>2022-10-23 10:21:12</time>
      </trkpt>
      <trkpt lat="41.15281" lon="1.27245">
        <ele>152.8</ele>
        <time>2022-10-23 10:21:18</time>
      </trkpt>
      <trkpt lat="41.15293" lon="1.27231">
        <ele>152.8</ele>
        <time>2022-10-23 10:21:22</time>
      </trkpt>
      <trkpt lat="41.15313" lon="1.27213">
        <ele>153</ele>
        <time>2022-10-23 10:21:28</time>
      </trkpt>
      <trkpt lat="41.15316" lon="1.27211">
        <ele>153</ele>
        <time>2022-10-23 10:21:29</time>
      </trkpt>
      <trkpt lat="41.15333" lon="1.27202">
        <ele>152.8</ele>
        <time>2022-10-23 10:21:34</time>
      </trkpt>
      <trkpt lat="41.15335" lon="1.272">
        <ele>152.6</ele>
        <time>2022-10-23 10:21:35</time>
      </trkpt>
      <trkpt lat="41.15341" lon="1.27195">
        <ele>152.4</ele>
        <time>2022-10-23 10:21:37</time>
      </trkpt>
      <trkpt lat="41.15352" lon="1.27184">
        <ele>152</ele>
        <time>2022-10-23 10:21:40</time>
      </trkpt>
      <trkpt lat="41.15355" lon="1.27181">
        <ele>151.8</ele>
        <time>2022-10-23 10:21:41</time>
      </trkpt>
      <trkpt lat="41.15362" lon="1.27172">
        <ele>151.4</ele>
        <time>2022-10-23 10:21:43</time>
      </trkpt>
      <trkpt lat="41.15367" lon="1.27161">
        <ele>150.4</ele>
        <time>2022-10-23 10:21:45</time>
      </trkpt>
      <trkpt lat="41.15373" lon="1.27149">
        <ele>149.2</ele>
        <time>2022-10-23 10:21:47</time>
      </trkpt>
      <trkpt lat="41.1538" lon="1.27134">
        <ele>148</ele>
        <time>2022-10-23 10:21:50</time>
      </trkpt>
      <trkpt lat="41.15381" lon="1.2713">
        <ele>147.6</ele>
        <time>2022-10-23 10:21:51</time>
      </trkpt>
      <trkpt lat="41.15384" lon="1.27123">
        <ele>146.4</ele>
        <time>2022-10-23 10:21:53</time>
      </trkpt>
      <trkpt lat="41.15385" lon="1.27115">
        <ele>145.6</ele>
        <time>2022-10-23 10:21:55</time>
      </trkpt>
      <trkpt lat="41.15387" lon="1.27112">
        <ele>145.4</ele>
        <time>2022-10-23 10:21:56</time>
      </trkpt>
      <trkpt lat="41.15388" lon="1.27105">
        <ele>144.4</ele>
        <time>2022-10-23 10:21:59</time>
      </trkpt>
      <trkpt lat="41.15389" lon="1.27104">
        <ele>144.2</ele>
        <time>2022-10-23 10:22:00</time>
      </trkpt>
      <trkpt lat="41.15389" lon="1.27103">
        <ele>144</ele>
        <time>2022-10-23 10:22:01</time>
      </trkpt>
      <trkpt lat="41.15391" lon="1.27096">
        <ele>143.2</ele>
        <time>2022-10-23 10:22:19</time>
      </trkpt>
      <trkpt lat="41.1539" lon="1.27094">
        <ele>143.2</ele>
        <time>2022-10-23 10:22:20</time>
      </trkpt>
      <trkpt lat="41.1539" lon="1.27091">
        <ele>143.2</ele>
        <time>2022-10-23 10:22:21</time>
      </trkpt>
      <trkpt lat="41.15382" lon="1.27069">
        <ele>143.2</ele>
        <time>2022-10-23 10:22:27</time>
      </trkpt>
      <trkpt lat="41.15369" lon="1.27048">
        <ele>143.2</ele>
        <time>2022-10-23 10:22:33</time>
      </trkpt>
      <trkpt lat="41.15363" lon="1.27042">
        <ele>143.2</ele>
        <time>2022-10-23 10:22:35</time>
      </trkpt>
      <trkpt lat="41.15358" lon="1.27035">
        <ele>143.2</ele>
        <time>2022-10-23 10:22:37</time>
      </trkpt>
      <trkpt lat="41.15356" lon="1.2703">
        <ele>143.2</ele>
        <time>2022-10-23 10:22:38</time>
      </trkpt>
      <trkpt lat="41.15356" lon="1.27012">
        <ele>143.2</ele>
        <time>2022-10-23 10:22:41</time>
      </trkpt>
      <trkpt lat="41.15357" lon="1.27006">
        <ele>143.2</ele>
        <time>2022-10-23 10:22:42</time>
      </trkpt>
      <trkpt lat="41.15357" lon="1.27">
        <ele>143.2</ele>
        <time>2022-10-23 10:22:43</time>
      </trkpt>
      <trkpt lat="41.15355" lon="1.26995">
        <ele>143</ele>
        <time>2022-10-23 10:22:44</time>
      </trkpt>
      <trkpt lat="41.15353" lon="1.26991">
        <ele>143</ele>
        <time>2022-10-23 10:22:45</time>
      </trkpt>
      <trkpt lat="41.15343" lon="1.26988">
        <ele>143</ele>
        <time>2022-10-23 10:22:48</time>
      </trkpt>
      <trkpt lat="41.15339" lon="1.26989">
        <ele>143</ele>
        <time>2022-10-23 10:22:49</time>
      </trkpt>
      <trkpt lat="41.1531" lon="1.26995">
        <ele>142.2</ele>
        <time>2022-10-23 10:22:55</time>
      </trkpt>
      <trkpt lat="41.15294" lon="1.27003">
        <ele>142</ele>
        <time>2022-10-23 10:22:58</time>
      </trkpt>
      <trkpt lat="41.15288" lon="1.27005">
        <ele>141.8</ele>
        <time>2022-10-23 10:22:59</time>
      </trkpt>
      <trkpt lat="41.15283" lon="1.27006">
        <ele>141.6</ele>
        <time>2022-10-23 10:23:00</time>
      </trkpt>
      <trkpt lat="41.15265" lon="1.27009">
        <ele>140.6</ele>
        <time>2022-10-23 10:23:03</time>
      </trkpt>
      <trkpt lat="41.15258" lon="1.27011">
        <ele>140.2</ele>
        <time>2022-10-23 10:23:04</time>
      </trkpt>
      <trkpt lat="41.1523" lon="1.27016">
        <ele>139.6</ele>
        <time>2022-10-23 10:23:08</time>
      </trkpt>
      <trkpt lat="41.15209" lon="1.27018">
        <ele>138.2</ele>
        <time>2022-10-23 10:23:11</time>
      </trkpt>
      <trkpt lat="41.15203" lon="1.27019">
        <ele>137.8</ele>
        <time>2022-10-23 10:23:12</time>
      </trkpt>
      <trkpt lat="41.15189" lon="1.27022">
        <ele>137</ele>
        <time>2022-10-23 10:23:14</time>
      </trkpt>
      <trkpt lat="41.15174" lon="1.27026">
        <ele>136.8</ele>
        <time>2022-10-23 10:23:16</time>
      </trkpt>
      <trkpt lat="41.15165" lon="1.2703">
        <ele>136.6</ele>
        <time>2022-10-23 10:23:17</time>
      </trkpt>
      <trkpt lat="41.15143" lon="1.27041">
        <ele>136.4</ele>
        <time>2022-10-23 10:23:20</time>
      </trkpt>
      <trkpt lat="41.15136" lon="1.27043">
        <ele>136.2</ele>
        <time>2022-10-23 10:23:21</time>
      </trkpt>
      <trkpt lat="41.15129" lon="1.27045">
        <ele>135.8</ele>
        <time>2022-10-23 10:23:22</time>
      </trkpt>
      <trkpt lat="41.15113" lon="1.27049">
        <ele>135.4</ele>
        <time>2022-10-23 10:23:25</time>
      </trkpt>
      <trkpt lat="41.15088" lon="1.27052">
        <ele>135.4</ele>
        <time>2022-10-23 10:23:31</time>
      </trkpt>
      <trkpt lat="41.15085" lon="1.2705">
        <ele>135.4</ele>
        <time>2022-10-23 10:23:32</time>
      </trkpt>
      <trkpt lat="41.15082" lon="1.27048">
        <ele>135.8</ele>
        <time>2022-10-23 10:23:33</time>
      </trkpt>
      <trkpt lat="41.15078" lon="1.27045">
        <ele>136.2</ele>
        <time>2022-10-23 10:23:34</time>
      </trkpt>
      <trkpt lat="41.15075" lon="1.27042">
        <ele>136.8</ele>
        <time>2022-10-23 10:23:35</time>
      </trkpt>
      <trkpt lat="41.15072" lon="1.27038">
        <ele>137.2</ele>
        <time>2022-10-23 10:23:36</time>
      </trkpt>
      <trkpt lat="41.15068" lon="1.27031">
        <ele>138.2</ele>
        <time>2022-10-23 10:23:38</time>
      </trkpt>
      <trkpt lat="41.15062" lon="1.27023">
        <ele>139.2</ele>
        <time>2022-10-23 10:23:40</time>
      </trkpt>
      <trkpt lat="41.15059" lon="1.2702">
        <ele>139.4</ele>
        <time>2022-10-23 10:23:41</time>
      </trkpt>
      <trkpt lat="41.15048" lon="1.2701">
        <ele>140</ele>
        <time>2022-10-23 10:23:44</time>
      </trkpt>
      <trkpt lat="41.15038" lon="1.27005">
        <ele>140.4</ele>
        <time>2022-10-23 10:23:47</time>
      </trkpt>
      <trkpt lat="41.15034" lon="1.27004">
        <ele>140.4</ele>
        <time>2022-10-23 10:23:48</time>
      </trkpt>
      <trkpt lat="41.15018" lon="1.26993">
        <ele>141.2</ele>
        <time>2022-10-23 10:23:53</time>
      </trkpt>
      <trkpt lat="41.15015" lon="1.26991">
        <ele>141.4</ele>
        <time>2022-10-23 10:23:54</time>
      </trkpt>
      <trkpt lat="41.15008" lon="1.26986">
        <ele>141.6</ele>
        <time>2022-10-23 10:23:56</time>
      </trkpt>
      <trkpt lat="41.14987" lon="1.26972">
        <ele>141.8</ele>
        <time>2022-10-23 10:24:01</time>
      </trkpt>
      <trkpt lat="41.1496" lon="1.26951">
        <ele>141.8</ele>
        <time>2022-10-23 10:24:06</time>
      </trkpt>
      <trkpt lat="41.14932" lon="1.26932">
        <ele>140.6</ele>
        <time>2022-10-23 10:24:10</time>
      </trkpt>
      <trkpt lat="41.14925" lon="1.26927">
        <ele>140.2</ele>
        <time>2022-10-23 10:24:11</time>
      </trkpt>
      <trkpt lat="41.1491" lon="1.26915">
        <ele>138.8</ele>
        <time>2022-10-23 10:24:13</time>
      </trkpt>
      <trkpt lat="41.14895" lon="1.26904">
        <ele>137.8</ele>
        <time>2022-10-23 10:24:15</time>
      </trkpt>
      <trkpt lat="41.14887" lon="1.26898">
        <ele>137.4</ele>
        <time>2022-10-23 10:24:16</time>
      </trkpt>
      <trkpt lat="41.14872" lon="1.26889">
        <ele>136.4</ele>
        <time>2022-10-23 10:24:18</time>
      </trkpt>
      <trkpt lat="41.14865" lon="1.26886">
        <ele>136</ele>
        <time>2022-10-23 10:24:19</time>
      </trkpt>
      <trkpt lat="41.14853" lon="1.26881">
        <ele>135</ele>
        <time>2022-10-23 10:24:21</time>
      </trkpt>
      <trkpt lat="41.14847" lon="1.26879">
        <ele>134.2</ele>
        <time>2022-10-23 10:24:22</time>
      </trkpt>
      <trkpt lat="41.1484" lon="1.26877">
        <ele>133.4</ele>
        <time>2022-10-23 10:24:23</time>
      </trkpt>
      <trkpt lat="41.14824" lon="1.26871">
        <ele>132.4</ele>
        <time>2022-10-23 10:24:26</time>
      </trkpt>
      <trkpt lat="41.14819" lon="1.26869">
        <ele>132.4</ele>
        <time>2022-10-23 10:24:27</time>
      </trkpt>
      <trkpt lat="41.14815" lon="1.26868">
        <ele>132.4</ele>
        <time>2022-10-23 10:24:28</time>
      </trkpt>
      <trkpt lat="41.14812" lon="1.26868">
        <ele>132.2</ele>
        <time>2022-10-23 10:24:29</time>
      </trkpt>
      <trkpt lat="41.14808" lon="1.2687">
        <ele>132.2</ele>
        <time>2022-10-23 10:24:30</time>
      </trkpt>
      <trkpt lat="41.14797" lon="1.26885">
        <ele>131.8</ele>
        <time>2022-10-23 10:24:33</time>
      </trkpt>
      <trkpt lat="41.14785" lon="1.269">
        <ele>131.6</ele>
        <time>2022-10-23 10:24:36</time>
      </trkpt>
      <trkpt lat="41.14781" lon="1.26903">
        <ele>131.4</ele>
        <time>2022-10-23 10:24:37</time>
      </trkpt>
      <trkpt lat="41.14778" lon="1.26904">
        <ele>131.2</ele>
        <time>2022-10-23 10:24:38</time>
      </trkpt>
      <trkpt lat="41.14775" lon="1.26909">
        <ele>130.2</ele>
        <time>2022-10-23 10:24:40</time>
      </trkpt>
      <trkpt lat="41.14774" lon="1.2691">
        <ele>128.8</ele>
        <time>2022-10-23 10:24:41</time>
      </trkpt>
      <trkpt lat="41.14774" lon="1.26912">
        <ele>128.2</ele>
        <time>2022-10-23 10:24:42</time>
      </trkpt>
      <trkpt lat="41.14774" lon="1.26914">
        <ele>127.6</ele>
        <time>2022-10-23 10:24:43</time>
      </trkpt>
      <trkpt lat="41.14773" lon="1.2692">
        <ele>127.2</ele>
        <time>2022-10-23 10:24:45</time>
      </trkpt>
      <trkpt lat="41.14771" lon="1.26925">
        <ele>126.6</ele>
        <time>2022-10-23 10:24:47</time>
      </trkpt>
      <trkpt lat="41.14769" lon="1.26929">
        <ele>126.4</ele>
        <time>2022-10-23 10:24:49</time>
      </trkpt>
      <trkpt lat="41.14768" lon="1.26933">
        <ele>126.2</ele>
        <time>2022-10-23 10:24:51</time>
      </trkpt>
      <trkpt lat="41.14764" lon="1.26941">
        <ele>125.6</ele>
        <time>2022-10-23 10:24:54</time>
      </trkpt>
      <trkpt lat="41.14762" lon="1.26945">
        <ele>125.6</ele>
        <time>2022-10-23 10:24:55</time>
      </trkpt>
      <trkpt lat="41.14754" lon="1.26952">
        <ele>125.6</ele>
        <time>2022-10-23 10:24:58</time>
      </trkpt>
      <trkpt lat="41.1475" lon="1.26963">
        <ele>124.6</ele>
        <time>2022-10-23 10:25:01</time>
      </trkpt>
      <trkpt lat="41.14748" lon="1.26966">
        <ele>123.8</ele>
        <time>2022-10-23 10:25:02</time>
      </trkpt>
      <trkpt lat="41.14744" lon="1.26967">
        <ele>122.8</ele>
        <time>2022-10-23 10:25:04</time>
      </trkpt>
      <trkpt lat="41.14739" lon="1.26963">
        <ele>122.2</ele>
        <time>2022-10-23 10:25:06</time>
      </trkpt>
      <trkpt lat="41.14737" lon="1.26961">
        <ele>121.8</ele>
        <time>2022-10-23 10:25:07</time>
      </trkpt>
      <trkpt lat="41.14734" lon="1.2696">
        <ele>121.6</ele>
        <time>2022-10-23 10:25:08</time>
      </trkpt>
      <trkpt lat="41.1473" lon="1.26961">
        <ele>121</ele>
        <time>2022-10-23 10:25:10</time>
      </trkpt>
      <trkpt lat="41.14728" lon="1.26961">
        <ele>120.8</ele>
        <time>2022-10-23 10:25:11</time>
      </trkpt>
      <trkpt lat="41.14724" lon="1.26951">
        <ele>120.6</ele>
        <time>2022-10-23 10:25:15</time>
      </trkpt>
      <trkpt lat="41.14723" lon="1.26948">
        <ele>120.6</ele>
        <time>2022-10-23 10:25:16</time>
      </trkpt>
      <trkpt lat="41.14721" lon="1.26944">
        <ele>120.4</ele>
        <time>2022-10-23 10:25:18</time>
      </trkpt>
      <trkpt lat="41.1472" lon="1.26944">
        <ele>120.2</ele>
        <time>2022-10-23 10:25:19</time>
      </trkpt>
      <trkpt lat="41.14714" lon="1.26944">
        <ele>120.2</ele>
        <time>2022-10-23 10:25:22</time>
      </trkpt>
      <trkpt lat="41.14712" lon="1.26942">
        <ele>120.2</ele>
        <time>2022-10-23 10:25:23</time>
      </trkpt>
      <trkpt lat="41.14709" lon="1.26939">
        <ele>120.2</ele>
        <time>2022-10-23 10:25:25</time>
      </trkpt>
      <trkpt lat="41.14705" lon="1.26938">
        <ele>120.2</ele>
        <time>2022-10-23 10:25:27</time>
      </trkpt>
      <trkpt lat="41.147" lon="1.26937">
        <ele>120</ele>
        <time>2022-10-23 10:25:29</time>
      </trkpt>
      <trkpt lat="41.14699" lon="1.26934">
        <ele>120</ele>
        <time>2022-10-23 10:25:31</time>
      </trkpt>
      <trkpt lat="41.14697" lon="1.26927">
        <ele>120</ele>
        <time>2022-10-23 10:25:35</time>
      </trkpt>
      <trkpt lat="41.14693" lon="1.26918">
        <ele>120.2</ele>
        <time>2022-10-23 10:25:38</time>
      </trkpt>
      <trkpt lat="41.1469" lon="1.26909">
        <ele>120.4</ele>
        <time>2022-10-23 10:25:41</time>
      </trkpt>
      <trkpt lat="41.14689" lon="1.26906">
        <ele>120.6</ele>
        <time>2022-10-23 10:25:42</time>
      </trkpt>
      <trkpt lat="41.14685" lon="1.26899">
        <ele>121</ele>
        <time>2022-10-23 10:25:45</time>
      </trkpt>
      <trkpt lat="41.14681" lon="1.26896">
        <ele>121.6</ele>
        <time>2022-10-23 10:25:47</time>
      </trkpt>
      <trkpt lat="41.1468" lon="1.26896">
        <ele>121.4</ele>
        <time>2022-10-23 10:25:48</time>
      </trkpt>
      <trkpt lat="41.14679" lon="1.26897">
        <ele>121.6</ele>
        <time>2022-10-23 10:25:49</time>
      </trkpt>
      <trkpt lat="41.14668" lon="1.269">
        <ele>121.8</ele>
        <time>2022-10-23 10:25:53</time>
      </trkpt>
      <trkpt lat="41.14656" lon="1.26903">
        <ele>121.4</ele>
        <time>2022-10-23 10:25:58</time>
      </trkpt>
      <trkpt lat="41.14653" lon="1.26913">
        <ele>120.4</ele>
        <time>2022-10-23 10:26:02</time>
      </trkpt>
      <trkpt lat="41.14651" lon="1.26915">
        <ele>120.2</ele>
        <time>2022-10-23 10:26:03</time>
      </trkpt>
      <trkpt lat="41.14646" lon="1.26919">
        <ele>119.2</ele>
        <time>2022-10-23 10:26:05</time>
      </trkpt>
      <trkpt lat="41.14646" lon="1.26924">
        <ele>119</ele>
        <time>2022-10-23 10:26:07</time>
      </trkpt>
      <trkpt lat="41.14646" lon="1.26925">
        <ele>118.8</ele>
        <time>2022-10-23 10:26:08</time>
      </trkpt>
      <trkpt lat="41.14645" lon="1.26927">
        <ele>118.4</ele>
        <time>2022-10-23 10:26:09</time>
      </trkpt>
      <trkpt lat="41.14644" lon="1.26928">
        <ele>118.2</ele>
        <time>2022-10-23 10:26:10</time>
      </trkpt>
      <trkpt lat="41.14642" lon="1.26933">
        <ele>117.6</ele>
        <time>2022-10-23 10:26:12</time>
      </trkpt>
      <trkpt lat="41.14639" lon="1.26936">
        <ele>117.6</ele>
        <time>2022-10-23 10:26:13</time>
      </trkpt>
      <trkpt lat="41.14636" lon="1.2694">
        <ele>117.4</ele>
        <time>2022-10-23 10:26:15</time>
      </trkpt>
      <trkpt lat="41.14636" lon="1.26943">
        <ele>117.2</ele>
        <time>2022-10-23 10:26:16</time>
      </trkpt>
      <trkpt lat="41.14634" lon="1.26946">
        <ele>117.2</ele>
        <time>2022-10-23 10:26:17</time>
      </trkpt>
      <trkpt lat="41.1463" lon="1.26951">
        <ele>116.6</ele>
        <time>2022-10-23 10:26:19</time>
      </trkpt>
      <trkpt lat="41.14627" lon="1.26955">
        <ele>116</ele>
        <time>2022-10-23 10:26:20</time>
      </trkpt>
      <trkpt lat="41.14624" lon="1.26966">
        <ele>114.4</ele>
        <time>2022-10-23 10:26:23</time>
      </trkpt>
      <trkpt lat="41.1462" lon="1.26976">
        <ele>113</ele>
        <time>2022-10-23 10:26:26</time>
      </trkpt>
      <trkpt lat="41.14614" lon="1.26981">
        <ele>112.6</ele>
        <time>2022-10-23 10:26:28</time>
      </trkpt>
      <trkpt lat="41.14607" lon="1.26982">
        <ele>112.2</ele>
        <time>2022-10-23 10:26:31</time>
      </trkpt>
      <trkpt lat="41.14606" lon="1.26982">
        <ele>112.2</ele>
        <time>2022-10-23 10:26:32</time>
      </trkpt>
      <trkpt lat="41.14607" lon="1.26978">
        <ele>112.2</ele>
        <time>2022-10-23 10:26:36</time>
      </trkpt>
      <trkpt lat="41.14608" lon="1.26976">
        <ele>111.8</ele>
        <time>2022-10-23 10:26:38</time>
      </trkpt>
      <trkpt lat="41.14606" lon="1.26973">
        <ele>111.8</ele>
        <time>2022-10-23 10:26:40</time>
      </trkpt>
      <trkpt lat="41.14605" lon="1.2697">
        <ele>111.8</ele>
        <time>2022-10-23 10:26:41</time>
      </trkpt>
      <trkpt lat="41.14599" lon="1.2696">
        <ele>111.8</ele>
        <time>2022-10-23 10:26:45</time>
      </trkpt>
      <trkpt lat="41.14596" lon="1.26954">
        <ele>111.8</ele>
        <time>2022-10-23 10:26:48</time>
      </trkpt>
      <trkpt lat="41.14598" lon="1.26951">
        <ele>111.6</ele>
        <time>2022-10-23 10:26:50</time>
      </trkpt>
      <trkpt lat="41.14601" lon="1.2695">
        <ele>111.6</ele>
        <time>2022-10-23 10:26:54</time>
      </trkpt>
      <trkpt lat="41.14602" lon="1.26948">
        <ele>111.6</ele>
        <time>2022-10-23 10:26:55</time>
      </trkpt>
      <trkpt lat="41.14603" lon="1.26945">
        <ele>111.6</ele>
        <time>2022-10-23 10:26:57</time>
      </trkpt>
      <trkpt lat="41.14604" lon="1.26942">
        <ele>112.2</ele>
        <time>2022-10-23 10:26:59</time>
      </trkpt>
      <trkpt lat="41.14606" lon="1.2694">
        <ele>113</ele>
        <time>2022-10-23 10:27:01</time>
      </trkpt>
      <trkpt lat="41.14608" lon="1.2694">
        <ele>113</ele>
        <time>2022-10-23 10:27:02</time>
      </trkpt>
      <trkpt lat="41.14615" lon="1.26935">
        <ele>114.2</ele>
        <time>2022-10-23 10:27:06</time>
      </trkpt>
      <trkpt lat="41.14619" lon="1.26933">
        <ele>114.6</ele>
        <time>2022-10-23 10:27:08</time>
      </trkpt>
      <trkpt lat="41.14621" lon="1.26932">
        <ele>114.6</ele>
        <time>2022-10-23 10:27:09</time>
      </trkpt>
      <trkpt lat="41.14624" lon="1.26929">
        <ele>115</ele>
        <time>2022-10-23 10:27:11</time>
      </trkpt>
      <trkpt lat="41.14625" lon="1.26927">
        <ele>115.2</ele>
        <time>2022-10-23 10:27:12</time>
      </trkpt>
      <trkpt lat="41.14628" lon="1.2692">
        <ele>115.6</ele>
        <time>2022-10-23 10:27:15</time>
      </trkpt>
      <trkpt lat="41.1463" lon="1.26914">
        <ele>116</ele>
        <time>2022-10-23 10:27:18</time>
      </trkpt>
      <trkpt lat="41.14629" lon="1.2691">
        <ele>116.2</ele>
        <time>2022-10-23 10:27:20</time>
      </trkpt>
      <trkpt lat="41.14627" lon="1.26906">
        <ele>116.4</ele>
        <time>2022-10-23 10:27:22</time>
      </trkpt>
      <trkpt lat="41.14627" lon="1.26902">
        <ele>117</ele>
        <time>2022-10-23 10:27:24</time>
      </trkpt>
      <trkpt lat="41.14625" lon="1.26897">
        <ele>117.4</ele>
        <time>2022-10-23 10:27:26</time>
      </trkpt>
      <trkpt lat="41.1462" lon="1.26894">
        <ele>117.6</ele>
        <time>2022-10-23 10:27:28</time>
      </trkpt>
      <trkpt lat="41.14612" lon="1.26898">
        <ele>117.6</ele>
        <time>2022-10-23 10:27:31</time>
      </trkpt>
      <trkpt lat="41.14609" lon="1.269">
        <ele>117.6</ele>
        <time>2022-10-23 10:27:32</time>
      </trkpt>
      <trkpt lat="41.14595" lon="1.26906">
        <ele>117.2</ele>
        <time>2022-10-23 10:27:37</time>
      </trkpt>
      <trkpt lat="41.14585" lon="1.26909">
        <ele>116.2</ele>
        <time>2022-10-23 10:27:41</time>
      </trkpt>
      <trkpt lat="41.14583" lon="1.26903">
        <ele>115.4</ele>
        <time>2022-10-23 10:27:44</time>
      </trkpt>
      <trkpt lat="41.14583" lon="1.26898">
        <ele>115</ele>
        <time>2022-10-23 10:27:46</time>
      </trkpt>
      <trkpt lat="41.14585" lon="1.26895">
        <ele>113.8</ele>
        <time>2022-10-23 10:27:49</time>
      </trkpt>
      <trkpt lat="41.14586" lon="1.26894">
        <ele>113.8</ele>
        <time>2022-10-23 10:27:50</time>
      </trkpt>
      <trkpt lat="41.14594" lon="1.26895">
        <ele>113.6</ele>
        <time>2022-10-23 10:27:56</time>
      </trkpt>
      <trkpt lat="41.14599" lon="1.26889">
        <ele>114.4</ele>
        <time>2022-10-23 10:28:02</time>
      </trkpt>
      <trkpt lat="41.14602" lon="1.26887">
        <ele>114.8</ele>
        <time>2022-10-23 10:28:04</time>
      </trkpt>
      <trkpt lat="41.14605" lon="1.26882">
        <ele>116</ele>
        <time>2022-10-23 10:28:08</time>
      </trkpt>
      <trkpt lat="41.14606" lon="1.26881">
        <ele>116.2</ele>
        <time>2022-10-23 10:28:09</time>
      </trkpt>
      <trkpt lat="41.14609" lon="1.2688">
        <ele>116.4</ele>
        <time>2022-10-23 10:28:12</time>
      </trkpt>
      <trkpt lat="41.14614" lon="1.26882">
        <ele>117</ele>
        <time>2022-10-23 10:28:16</time>
      </trkpt>
      <trkpt lat="41.14615" lon="1.26883">
        <ele>117</ele>
        <time>2022-10-23 10:28:17</time>
      </trkpt>
      <trkpt lat="41.14616" lon="1.26884">
        <ele>117.2</ele>
        <time>2022-10-23 10:28:18</time>
      </trkpt>
      <trkpt lat="41.14622" lon="1.26888">
        <ele>117.8</ele>
        <time>2022-10-23 10:28:23</time>
      </trkpt>
      <trkpt lat="41.14626" lon="1.26885">
        <ele>118</ele>
        <time>2022-10-23 10:28:26</time>
      </trkpt>
      <trkpt lat="41.1463" lon="1.26884">
        <ele>118</ele>
        <time>2022-10-23 10:28:28</time>
      </trkpt>
      <trkpt lat="41.14638" lon="1.26882">
        <ele>118.4</ele>
        <time>2022-10-23 10:28:33</time>
      </trkpt>
      <trkpt lat="41.14641" lon="1.2688">
        <ele>118.6</ele>
        <time>2022-10-23 10:28:35</time>
      </trkpt>
      <trkpt lat="41.14644" lon="1.26879">
        <ele>119</ele>
        <time>2022-10-23 10:28:37</time>
      </trkpt>
      <trkpt lat="41.14648" lon="1.26877">
        <ele>119.4</ele>
        <time>2022-10-23 10:28:40</time>
      </trkpt>
      <trkpt lat="41.14655" lon="1.26873">
        <ele>120</ele>
        <time>2022-10-23 10:28:45</time>
      </trkpt>
      <trkpt lat="41.14659" lon="1.2687">
        <ele>120.2</ele>
        <time>2022-10-23 10:28:47</time>
      </trkpt>
      <trkpt lat="41.14668" lon="1.26866">
        <ele>121</ele>
        <time>2022-10-23 10:28:52</time>
      </trkpt>
      <trkpt lat="41.14671" lon="1.26865">
        <ele>121.2</ele>
        <time>2022-10-23 10:28:54</time>
      </trkpt>
      <trkpt lat="41.14674" lon="1.26864">
        <ele>121.6</ele>
        <time>2022-10-23 10:28:56</time>
      </trkpt>
      <trkpt lat="41.14676" lon="1.26859">
        <ele>122</ele>
        <time>2022-10-23 10:28:59</time>
      </trkpt>
      <trkpt lat="41.14675" lon="1.26854">
        <ele>122.2</ele>
        <time>2022-10-23 10:29:01</time>
      </trkpt>
      <trkpt lat="41.14675" lon="1.26852">
        <ele>122.4</ele>
        <time>2022-10-23 10:29:02</time>
      </trkpt>
      <trkpt lat="41.14674" lon="1.26844">
        <ele>122.4</ele>
        <time>2022-10-23 10:29:05</time>
      </trkpt>
      <trkpt lat="41.14667" lon="1.26843">
        <ele>122.4</ele>
        <time>2022-10-23 10:29:10</time>
      </trkpt>
      <trkpt lat="41.14665" lon="1.26844">
        <ele>122.2</ele>
        <time>2022-10-23 10:29:11</time>
      </trkpt>
      <trkpt lat="41.14661" lon="1.26847">
        <ele>121.4</ele>
        <time>2022-10-23 10:29:14</time>
      </trkpt>
      <trkpt lat="41.14661" lon="1.26849">
        <ele>121.4</ele>
        <time>2022-10-23 10:29:15</time>
      </trkpt>
      <trkpt lat="41.14658" lon="1.26852">
        <ele>121.2</ele>
        <time>2022-10-23 10:29:17</time>
      </trkpt>
      <trkpt lat="41.14656" lon="1.26854">
        <ele>121</ele>
        <time>2022-10-23 10:29:18</time>
      </trkpt>
      <trkpt lat="41.14652" lon="1.26859">
        <ele>120.8</ele>
        <time>2022-10-23 10:29:20</time>
      </trkpt>
      <trkpt lat="41.14649" lon="1.26861">
        <ele>120.8</ele>
        <time>2022-10-23 10:29:22</time>
      </trkpt>
      <trkpt lat="41.14646" lon="1.2686">
        <ele>120.6</ele>
        <time>2022-10-23 10:29:24</time>
      </trkpt>
      <trkpt lat="41.14642" lon="1.26858">
        <ele>120.6</ele>
        <time>2022-10-23 10:29:26</time>
      </trkpt>
      <trkpt lat="41.14635" lon="1.26856">
        <ele>120.2</ele>
        <time>2022-10-23 10:29:29</time>
      </trkpt>
      <trkpt lat="41.14633" lon="1.26857">
        <ele>120</ele>
        <time>2022-10-23 10:29:30</time>
      </trkpt>
      <trkpt lat="41.14629" lon="1.26859">
        <ele>119.8</ele>
        <time>2022-10-23 10:29:31</time>
      </trkpt>
      <trkpt lat="41.1462" lon="1.26863">
        <ele>119.2</ele>
        <time>2022-10-23 10:29:34</time>
      </trkpt>
      <trkpt lat="41.14616" lon="1.26866">
        <ele>118.8</ele>
        <time>2022-10-23 10:29:36</time>
      </trkpt>
      <trkpt lat="41.14611" lon="1.26865">
        <ele>118.2</ele>
        <time>2022-10-23 10:29:38</time>
      </trkpt>
      <trkpt lat="41.14605" lon="1.26866">
        <ele>117.6</ele>
        <time>2022-10-23 10:29:40</time>
      </trkpt>
      <trkpt lat="41.14598" lon="1.26866">
        <ele>117</ele>
        <time>2022-10-23 10:29:42</time>
      </trkpt>
      <trkpt lat="41.14593" lon="1.26863">
        <ele>116.4</ele>
        <time>2022-10-23 10:29:44</time>
      </trkpt>
      <trkpt lat="41.14591" lon="1.26862">
        <ele>116.2</ele>
        <time>2022-10-23 10:29:45</time>
      </trkpt>
      <trkpt lat="41.14587" lon="1.26862">
        <ele>115.2</ele>
        <time>2022-10-23 10:29:47</time>
      </trkpt>
      <trkpt lat="41.14581" lon="1.26859">
        <ele>114.6</ele>
        <time>2022-10-23 10:29:49</time>
      </trkpt>
      <trkpt lat="41.14575" lon="1.26853">
        <ele>114.2</ele>
        <time>2022-10-23 10:29:51</time>
      </trkpt>
      <trkpt lat="41.14567" lon="1.26845">
        <ele>113.4</ele>
        <time>2022-10-23 10:29:54</time>
      </trkpt>
      <trkpt lat="41.14564" lon="1.26842">
        <ele>113.2</ele>
        <time>2022-10-23 10:29:55</time>
      </trkpt>
      <trkpt lat="41.14555" lon="1.26839">
        <ele>112</ele>
        <time>2022-10-23 10:29:58</time>
      </trkpt>
      <trkpt lat="41.14546" lon="1.26842">
        <ele>111.2</ele>
        <time>2022-10-23 10:30:01</time>
      </trkpt>
      <trkpt lat="41.14544" lon="1.26843">
        <ele>111</ele>
        <time>2022-10-23 10:30:02</time>
      </trkpt>
      <trkpt lat="41.14543" lon="1.26845">
        <ele>110.8</ele>
        <time>2022-10-23 10:30:03</time>
      </trkpt>
      <trkpt lat="41.14542" lon="1.26852">
        <ele>110</ele>
        <time>2022-10-23 10:30:07</time>
      </trkpt>
      <trkpt lat="41.14541" lon="1.26854">
        <ele>109.8</ele>
        <time>2022-10-23 10:30:08</time>
      </trkpt>
      <trkpt lat="41.14541" lon="1.26864">
        <ele>109.8</ele>
        <time>2022-10-23 10:30:11</time>
      </trkpt>
      <trkpt lat="41.14541" lon="1.26867">
        <ele>109.8</ele>
        <time>2022-10-23 10:30:12</time>
      </trkpt>
      <trkpt lat="41.14542" lon="1.26871">
        <ele>109.8</ele>
        <time>2022-10-23 10:30:13</time>
      </trkpt>
      <trkpt lat="41.14544" lon="1.26888">
        <ele>109.6</ele>
        <time>2022-10-23 10:30:18</time>
      </trkpt>
      <trkpt lat="41.14545" lon="1.26892">
        <ele>109.6</ele>
        <time>2022-10-23 10:30:19</time>
      </trkpt>
      <trkpt lat="41.14546" lon="1.26899">
        <ele>109.6</ele>
        <time>2022-10-23 10:30:21</time>
      </trkpt>
      <trkpt lat="41.14549" lon="1.26912">
        <ele>109.6</ele>
        <time>2022-10-23 10:30:24</time>
      </trkpt>
      <trkpt lat="41.14555" lon="1.26931">
        <ele>109.4</ele>
        <time>2022-10-23 10:30:30</time>
      </trkpt>
      <trkpt lat="41.14556" lon="1.26935">
        <ele>109.4</ele>
        <time>2022-10-23 10:30:31</time>
      </trkpt>
      <trkpt lat="41.14562" lon="1.26953">
        <ele>109.4</ele>
        <time>2022-10-23 10:30:36</time>
      </trkpt>
      <trkpt lat="41.14567" lon="1.26964">
        <ele>109.6</ele>
        <time>2022-10-23 10:30:39</time>
      </trkpt>
      <trkpt lat="41.14574" lon="1.26996">
        <ele>109.6</ele>
        <time>2022-10-23 10:30:46</time>
      </trkpt>
      <trkpt lat="41.14579" lon="1.27015">
        <ele>109.8</ele>
        <time>2022-10-23 10:30:51</time>
      </trkpt>
      <trkpt lat="41.14587" lon="1.27033">
        <ele>109.8</ele>
        <time>2022-10-23 10:30:57</time>
      </trkpt>
      <trkpt lat="41.14597" lon="1.27038">
        <ele>110</ele>
        <time>2022-10-23 10:31:01</time>
      </trkpt>
      <trkpt lat="41.146" lon="1.27038">
        <ele>110.2</ele>
        <time>2022-10-23 10:31:02</time>
      </trkpt>
      <trkpt lat="41.14611" lon="1.27036">
        <ele>110.8</ele>
        <time>2022-10-23 10:31:06</time>
      </trkpt>
      <trkpt lat="41.14614" lon="1.27037">
        <ele>110.8</ele>
        <time>2022-10-23 10:31:07</time>
      </trkpt>
      <trkpt lat="41.14617" lon="1.27038">
        <ele>111</ele>
        <time>2022-10-23 10:31:08</time>
      </trkpt>
      <trkpt lat="41.14639" lon="1.27048">
        <ele>112</ele>
        <time>2022-10-23 10:31:16</time>
      </trkpt>
      <trkpt lat="41.14642" lon="1.27049">
        <ele>112</ele>
        <time>2022-10-23 10:31:17</time>
      </trkpt>
      <trkpt lat="41.14654" lon="1.27049">
        <ele>112.8</ele>
        <time>2022-10-23 10:31:22</time>
      </trkpt>
      <trkpt lat="41.14656" lon="1.27049">
        <ele>113</ele>
        <time>2022-10-23 10:31:23</time>
      </trkpt>
      <trkpt lat="41.14659" lon="1.27049">
        <ele>113.2</ele>
        <time>2022-10-23 10:31:24</time>
      </trkpt>
      <trkpt lat="41.14668" lon="1.27048">
        <ele>114.2</ele>
        <time>2022-10-23 10:31:28</time>
      </trkpt>
      <trkpt lat="41.14676" lon="1.27048">
        <ele>115.2</ele>
        <time>2022-10-23 10:31:32</time>
      </trkpt>
      <trkpt lat="41.14678" lon="1.27049">
        <ele>115.4</ele>
        <time>2022-10-23 10:31:33</time>
      </trkpt>
      <trkpt lat="41.14681" lon="1.2705">
        <ele>115.8</ele>
        <time>2022-10-23 10:31:35</time>
      </trkpt>
      <trkpt lat="41.14686" lon="1.27057">
        <ele>116.2</ele>
        <time>2022-10-23 10:31:38</time>
      </trkpt>
      <trkpt lat="41.14692" lon="1.27062">
        <ele>116.4</ele>
        <time>2022-10-23 10:31:40</time>
      </trkpt>
      <trkpt lat="41.147" lon="1.27065">
        <ele>116.4</ele>
        <time>2022-10-23 10:31:42</time>
      </trkpt>
      <trkpt lat="41.14709" lon="1.27064">
        <ele>116.6</ele>
        <time>2022-10-23 10:31:45</time>
      </trkpt>
      <trkpt lat="41.14714" lon="1.27063">
        <ele>116.6</ele>
        <time>2022-10-23 10:31:47</time>
      </trkpt>
      <trkpt lat="41.14724" lon="1.27061">
        <ele>117</ele>
        <time>2022-10-23 10:31:51</time>
      </trkpt>
      <trkpt lat="41.14729" lon="1.2706">
        <ele>117.4</ele>
        <time>2022-10-23 10:31:53</time>
      </trkpt>
      <trkpt lat="41.14735" lon="1.27059">
        <ele>117.6</ele>
        <time>2022-10-23 10:31:55</time>
      </trkpt>
      <trkpt lat="41.14742" lon="1.27059">
        <ele>117.8</ele>
        <time>2022-10-23 10:31:58</time>
      </trkpt>
      <trkpt lat="41.14744" lon="1.27063">
        <ele>118</ele>
        <time>2022-10-23 10:32:00</time>
      </trkpt>
      <trkpt lat="41.14745" lon="1.27069">
        <ele>118.2</ele>
        <time>2022-10-23 10:32:02</time>
      </trkpt>
      <trkpt lat="41.14746" lon="1.27076">
        <ele>118.6</ele>
        <time>2022-10-23 10:32:05</time>
      </trkpt>
      <trkpt lat="41.14747" lon="1.27078">
        <ele>118.8</ele>
        <time>2022-10-23 10:32:06</time>
      </trkpt>
      <trkpt lat="41.14751" lon="1.27081">
        <ele>119.2</ele>
        <time>2022-10-23 10:32:08</time>
      </trkpt>
      <trkpt lat="41.14753" lon="1.27083">
        <ele>119.6</ele>
        <time>2022-10-23 10:32:09</time>
      </trkpt>
      <trkpt lat="41.14758" lon="1.27089">
        <ele>120.6</ele>
        <time>2022-10-23 10:32:12</time>
      </trkpt>
      <trkpt lat="41.1476" lon="1.27091">
        <ele>121</ele>
        <time>2022-10-23 10:32:13</time>
      </trkpt>
      <trkpt lat="41.1477" lon="1.27097">
        <ele>121.6</ele>
        <time>2022-10-23 10:32:17</time>
      </trkpt>
      <trkpt lat="41.14776" lon="1.27099">
        <ele>122</ele>
        <time>2022-10-23 10:32:19</time>
      </trkpt>
      <trkpt lat="41.14795" lon="1.27105">
        <ele>122.2</ele>
        <time>2022-10-23 10:32:26</time>
      </trkpt>
      <trkpt lat="41.14799" lon="1.27109">
        <ele>122.2</ele>
        <time>2022-10-23 10:32:28</time>
      </trkpt>
      <trkpt lat="41.148" lon="1.27114">
        <ele>122.4</ele>
        <time>2022-10-23 10:32:30</time>
      </trkpt>
      <trkpt lat="41.14805" lon="1.27121">
        <ele>122.4</ele>
        <time>2022-10-23 10:32:34</time>
      </trkpt>
      <trkpt lat="41.14806" lon="1.27122">
        <ele>122.8</ele>
        <time>2022-10-23 10:32:37</time>
      </trkpt>
      <trkpt lat="41.14808" lon="1.27122">
        <ele>123.4</ele>
        <time>2022-10-23 10:32:40</time>
      </trkpt>
      <trkpt lat="41.1481" lon="1.27122">
        <ele>123.6</ele>
        <time>2022-10-23 10:32:42</time>
      </trkpt>
      <trkpt lat="41.14812" lon="1.27123">
        <ele>123.6</ele>
        <time>2022-10-23 10:32:43</time>
      </trkpt>
      <trkpt lat="41.14816" lon="1.27124">
        <ele>123.6</ele>
        <time>2022-10-23 10:32:45</time>
      </trkpt>
      <trkpt lat="41.14826" lon="1.27132">
        <ele>124.2</ele>
        <time>2022-10-23 10:32:50</time>
      </trkpt>
      <trkpt lat="41.14828" lon="1.27134">
        <ele>124.2</ele>
        <time>2022-10-23 10:32:51</time>
      </trkpt>
      <trkpt lat="41.14842" lon="1.2715">
        <ele>124.4</ele>
        <time>2022-10-23 10:32:58</time>
      </trkpt>
      <trkpt lat="41.14848" lon="1.27156">
        <ele>124.8</ele>
        <time>2022-10-23 10:33:01</time>
      </trkpt>
      <trkpt lat="41.14857" lon="1.27171">
        <ele>125.2</ele>
        <time>2022-10-23 10:33:06</time>
      </trkpt>
      <trkpt lat="41.14865" lon="1.27181">
        <ele>125.6</ele>
        <time>2022-10-23 10:33:11</time>
      </trkpt>
      <trkpt lat="41.14868" lon="1.27186">
        <ele>126</ele>
        <time>2022-10-23 10:33:13</time>
      </trkpt>
      <trkpt lat="41.14873" lon="1.27192">
        <ele>127</ele>
        <time>2022-10-23 10:33:16</time>
      </trkpt>
      <trkpt lat="41.14875" lon="1.27196">
        <ele>127.2</ele>
        <time>2022-10-23 10:33:18</time>
      </trkpt>
      <trkpt lat="41.14878" lon="1.27215">
        <ele>127.8</ele>
        <time>2022-10-23 10:33:25</time>
      </trkpt>
      <trkpt lat="41.14878" lon="1.27221">
        <ele>128</ele>
        <time>2022-10-23 10:33:28</time>
      </trkpt>
      <trkpt lat="41.1488" lon="1.27223">
        <ele>128.6</ele>
        <time>2022-10-23 10:33:30</time>
      </trkpt>
      <trkpt lat="41.14882" lon="1.27226">
        <ele>128.8</ele>
        <time>2022-10-23 10:33:33</time>
      </trkpt>
      <trkpt lat="41.14883" lon="1.27232">
        <ele>129.8</ele>
        <time>2022-10-23 10:33:37</time>
      </trkpt>
      <trkpt lat="41.14883" lon="1.27235">
        <ele>130</ele>
        <time>2022-10-23 10:33:39</time>
      </trkpt>
      <trkpt lat="41.14882" lon="1.27241">
        <ele>130.2</ele>
        <time>2022-10-23 10:33:43</time>
      </trkpt>
      <trkpt lat="41.14884" lon="1.27248">
        <ele>130.4</ele>
        <time>2022-10-23 10:33:48</time>
      </trkpt>
      <trkpt lat="41.14885" lon="1.27248">
        <ele>130.6</ele>
        <time>2022-10-23 10:33:49</time>
      </trkpt>
      <trkpt lat="41.14886" lon="1.27241">
        <ele>130.8</ele>
        <time>2022-10-23 10:33:53</time>
      </trkpt>
      <trkpt lat="41.14885" lon="1.27233">
        <ele>130.8</ele>
        <time>2022-10-23 10:33:56</time>
      </trkpt>
      <trkpt lat="41.14883" lon="1.27223">
        <ele>130.8</ele>
        <time>2022-10-23 10:33:59</time>
      </trkpt>
      <trkpt lat="41.14883" lon="1.2722">
        <ele>130.8</ele>
        <time>2022-10-23 10:34:00</time>
      </trkpt>
      <trkpt lat="41.14885" lon="1.27211">
        <ele>130.6</ele>
        <time>2022-10-23 10:34:02</time>
      </trkpt>
      <trkpt lat="41.14887" lon="1.27206">
        <ele>130.6</ele>
        <time>2022-10-23 10:34:03</time>
      </trkpt>
      <trkpt lat="41.1489" lon="1.27203">
        <ele>130.4</ele>
        <time>2022-10-23 10:34:04</time>
      </trkpt>
      <trkpt lat="41.14896" lon="1.2719">
        <ele>130</ele>
        <time>2022-10-23 10:34:07</time>
      </trkpt>
      <trkpt lat="41.14898" lon="1.27185">
        <ele>129.8</ele>
        <time>2022-10-23 10:34:08</time>
      </trkpt>
      <trkpt lat="41.14904" lon="1.27168">
        <ele>129</ele>
        <time>2022-10-23 10:34:12</time>
      </trkpt>
      <trkpt lat="41.14908" lon="1.27154">
        <ele>128.8</ele>
        <time>2022-10-23 10:34:15</time>
      </trkpt>
      <trkpt lat="41.1491" lon="1.27149">
        <ele>128.6</ele>
        <time>2022-10-23 10:34:16</time>
      </trkpt>
      <trkpt lat="41.14916" lon="1.27129">
        <ele>128.6</ele>
        <time>2022-10-23 10:34:21</time>
      </trkpt>
      <trkpt lat="41.14917" lon="1.27126">
        <ele>128.6</ele>
        <time>2022-10-23 10:34:22</time>
      </trkpt>
      <trkpt lat="41.14923" lon="1.2712">
        <ele>128.8</ele>
        <time>2022-10-23 10:34:26</time>
      </trkpt>
      <trkpt lat="41.14928" lon="1.27121">
        <ele>128.8</ele>
        <time>2022-10-23 10:34:28</time>
      </trkpt>
      <trkpt lat="41.14935" lon="1.27126">
        <ele>129.2</ele>
        <time>2022-10-23 10:34:31</time>
      </trkpt>
      <trkpt lat="41.1494" lon="1.27129">
        <ele>129.8</ele>
        <time>2022-10-23 10:34:34</time>
      </trkpt>
      <trkpt lat="41.14945" lon="1.2713">
        <ele>130</ele>
        <time>2022-10-23 10:34:36</time>
      </trkpt>
      <trkpt lat="41.14959" lon="1.2714">
        <ele>131</ele>
        <time>2022-10-23 10:34:42</time>
      </trkpt>
      <trkpt lat="41.14973" lon="1.27148">
        <ele>132</ele>
        <time>2022-10-23 10:34:48</time>
      </trkpt>
      <trkpt lat="41.14981" lon="1.27149">
        <ele>132.4</ele>
        <time>2022-10-23 10:34:52</time>
      </trkpt>
      <trkpt lat="41.14983" lon="1.27149">
        <ele>132.6</ele>
        <time>2022-10-23 10:34:53</time>
      </trkpt>
      <trkpt lat="41.14987" lon="1.27154">
        <ele>133.2</ele>
        <time>2022-10-23 10:34:57</time>
      </trkpt>
      <trkpt lat="41.14993" lon="1.2716">
        <ele>134.4</ele>
        <time>2022-10-23 10:35:01</time>
      </trkpt>
      <trkpt lat="41.14997" lon="1.27165">
        <ele>135.2</ele>
        <time>2022-10-23 10:35:04</time>
      </trkpt>
      <trkpt lat="41.15" lon="1.27169">
        <ele>135.4</ele>
        <time>2022-10-23 10:35:06</time>
      </trkpt>
      <trkpt lat="41.15005" lon="1.27176">
        <ele>135.8</ele>
        <time>2022-10-23 10:35:09</time>
      </trkpt>
      <trkpt lat="41.15012" lon="1.27187">
        <ele>136.2</ele>
        <time>2022-10-23 10:35:15</time>
      </trkpt>
      <trkpt lat="41.15015" lon="1.2719">
        <ele>136.2</ele>
        <time>2022-10-23 10:35:17</time>
      </trkpt>
      <trkpt lat="41.15021" lon="1.272">
        <ele>136.6</ele>
        <time>2022-10-23 10:35:21</time>
      </trkpt>
      <trkpt lat="41.15027" lon="1.2721">
        <ele>137.2</ele>
        <time>2022-10-23 10:35:25</time>
      </trkpt>
      <trkpt lat="41.1503" lon="1.27214">
        <ele>137.4</ele>
        <time>2022-10-23 10:35:27</time>
      </trkpt>
      <trkpt lat="41.15033" lon="1.27219">
        <ele>137.8</ele>
        <time>2022-10-23 10:35:29</time>
      </trkpt>
      <trkpt lat="41.15031" lon="1.27224">
        <ele>138.4</ele>
        <time>2022-10-23 10:35:31</time>
      </trkpt>
      <trkpt lat="41.1502" lon="1.27238">
        <ele>139.4</ele>
        <time>2022-10-23 10:35:37</time>
      </trkpt>
      <trkpt lat="41.15013" lon="1.27251">
        <ele>139.4</ele>
        <time>2022-10-23 10:35:42</time>
      </trkpt>
      <trkpt lat="41.15005" lon="1.27269">
        <ele>139.4</ele>
        <time>2022-10-23 10:35:48</time>
      </trkpt>
      <trkpt lat="41.15002" lon="1.27281">
        <ele>139.4</ele>
        <time>2022-10-23 10:35:53</time>
      </trkpt>
      <trkpt lat="41.15003" lon="1.27285">
        <ele>139.4</ele>
        <time>2022-10-23 10:35:55</time>
      </trkpt>
      <trkpt lat="41.15006" lon="1.27295">
        <ele>139.8</ele>
        <time>2022-10-23 10:35:59</time>
      </trkpt>
      <trkpt lat="41.1501" lon="1.27306">
        <ele>140.2</ele>
        <time>2022-10-23 10:36:03</time>
      </trkpt>
      <trkpt lat="41.15011" lon="1.27309">
        <ele>140.4</ele>
        <time>2022-10-23 10:36:04</time>
      </trkpt>
      <trkpt lat="41.15017" lon="1.27325">
        <ele>141.4</ele>
        <time>2022-10-23 10:36:09</time>
      </trkpt>
      <trkpt lat="41.15019" lon="1.2733">
        <ele>142</ele>
        <time>2022-10-23 10:36:11</time>
      </trkpt>
      <trkpt lat="41.1502" lon="1.27332">
        <ele>142.2</ele>
        <time>2022-10-23 10:36:12</time>
      </trkpt>
      <trkpt lat="41.15022" lon="1.27336">
        <ele>142.6</ele>
        <time>2022-10-23 10:36:14</time>
      </trkpt>
      <trkpt lat="41.15023" lon="1.27338">
        <ele>142.8</ele>
        <time>2022-10-23 10:36:15</time>
      </trkpt>
      <trkpt lat="41.15025" lon="1.27344">
        <ele>143.8</ele>
        <time>2022-10-23 10:36:18</time>
      </trkpt>
      <trkpt lat="41.15028" lon="1.2735">
        <ele>144.4</ele>
        <time>2022-10-23 10:36:20</time>
      </trkpt>
      <trkpt lat="41.15034" lon="1.27363">
        <ele>144.8</ele>
        <time>2022-10-23 10:36:24</time>
      </trkpt>
      <trkpt lat="41.15039" lon="1.27373">
        <ele>145.2</ele>
        <time>2022-10-23 10:36:27</time>
      </trkpt>
      <trkpt lat="41.15042" lon="1.27388">
        <ele>146</ele>
        <time>2022-10-23 10:36:31</time>
      </trkpt>
      <trkpt lat="41.15043" lon="1.27393">
        <ele>146.6</ele>
        <time>2022-10-23 10:36:33</time>
      </trkpt>
      <trkpt lat="41.15044" lon="1.27396">
        <ele>146.6</ele>
        <time>2022-10-23 10:36:34</time>
      </trkpt>
      <trkpt lat="41.15039" lon="1.27405">
        <ele>146.8</ele>
        <time>2022-10-23 10:36:37</time>
      </trkpt>
      <trkpt lat="41.1503" lon="1.27415">
        <ele>147</ele>
        <time>2022-10-23 10:36:42</time>
      </trkpt>
      <trkpt lat="41.15028" lon="1.27417">
        <ele>147</ele>
        <time>2022-10-23 10:36:43</time>
      </trkpt>
      <trkpt lat="41.15025" lon="1.27423">
        <ele>147</ele>
        <time>2022-10-23 10:36:46</time>
      </trkpt>
      <trkpt lat="41.15024" lon="1.27428">
        <ele>147</ele>
        <time>2022-10-23 10:36:51</time>
      </trkpt>
      <trkpt lat="41.15015" lon="1.27437">
        <ele>146.8</ele>
        <time>2022-10-23 10:36:56</time>
      </trkpt>
      <trkpt lat="41.15009" lon="1.27446">
        <ele>146.6</ele>
        <time>2022-10-23 10:36:59</time>
      </trkpt>
      <trkpt lat="41.14992" lon="1.2746">
        <ele>146.4</ele>
        <time>2022-10-23 10:37:05</time>
      </trkpt>
      <trkpt lat="41.14977" lon="1.27471">
        <ele>146</ele>
        <time>2022-10-23 10:37:10</time>
      </trkpt>
      <trkpt lat="41.14974" lon="1.27475">
        <ele>146</ele>
        <time>2022-10-23 10:37:11</time>
      </trkpt>
      <trkpt lat="41.1496" lon="1.27487">
        <ele>145.8</ele>
        <time>2022-10-23 10:37:15</time>
      </trkpt>
      <trkpt lat="41.14953" lon="1.27493">
        <ele>145.6</ele>
        <time>2022-10-23 10:37:17</time>
      </trkpt>
      <trkpt lat="41.14944" lon="1.275">
        <ele>145.2</ele>
        <time>2022-10-23 10:37:20</time>
      </trkpt>
      <trkpt lat="41.14938" lon="1.27493">
        <ele>144.8</ele>
        <time>2022-10-23 10:37:23</time>
      </trkpt>
      <trkpt lat="41.14929" lon="1.27471">
        <ele>144</ele>
        <time>2022-10-23 10:37:28</time>
      </trkpt>
      <trkpt lat="41.14929" lon="1.27467">
        <ele>144</ele>
        <time>2022-10-23 10:37:29</time>
      </trkpt>
      <trkpt lat="41.14929" lon="1.27453">
        <ele>143.8</ele>
        <time>2022-10-23 10:37:33</time>
      </trkpt>
      <trkpt lat="41.14923" lon="1.2744">
        <ele>143.8</ele>
        <time>2022-10-23 10:37:37</time>
      </trkpt>
      <trkpt lat="41.1492" lon="1.27439">
        <ele>143.8</ele>
        <time>2022-10-23 10:37:38</time>
      </trkpt>
      <trkpt lat="41.1491" lon="1.27434">
        <ele>143.8</ele>
        <time>2022-10-23 10:37:41</time>
      </trkpt>
      <trkpt lat="41.14907" lon="1.27431">
        <ele>143.8</ele>
        <time>2022-10-23 10:37:42</time>
      </trkpt>
      <trkpt lat="41.14899" lon="1.27423">
        <ele>143.8</ele>
        <time>2022-10-23 10:37:44</time>
      </trkpt>
      <trkpt lat="41.14891" lon="1.27414">
        <ele>143.8</ele>
        <time>2022-10-23 10:37:46</time>
      </trkpt>
      <trkpt lat="41.14882" lon="1.27408">
        <ele>143.8</ele>
        <time>2022-10-23 10:37:48</time>
      </trkpt>
      <trkpt lat="41.14865" lon="1.27397">
        <ele>142.8</ele>
        <time>2022-10-23 10:37:51</time>
      </trkpt>
      <trkpt lat="41.1486" lon="1.27394">
        <ele>142.6</ele>
        <time>2022-10-23 10:37:52</time>
      </trkpt>
      <trkpt lat="41.14847" lon="1.27385">
        <ele>141.2</ele>
        <time>2022-10-23 10:37:55</time>
      </trkpt>
      <trkpt lat="41.1484" lon="1.27382">
        <ele>140.2</ele>
        <time>2022-10-23 10:37:57</time>
      </trkpt>
      <trkpt lat="41.1483" lon="1.27381">
        <ele>139.2</ele>
        <time>2022-10-23 10:37:59</time>
      </trkpt>
      <trkpt lat="41.14826" lon="1.2738">
        <ele>138.6</ele>
        <time>2022-10-23 10:38:00</time>
      </trkpt>
      <trkpt lat="41.14823" lon="1.2738">
        <ele>138.2</ele>
        <time>2022-10-23 10:38:01</time>
      </trkpt>
      <trkpt lat="41.14819" lon="1.2738">
        <ele>137.8</ele>
        <time>2022-10-23 10:38:02</time>
      </trkpt>
      <trkpt lat="41.14814" lon="1.27381">
        <ele>137.4</ele>
        <time>2022-10-23 10:38:03</time>
      </trkpt>
      <trkpt lat="41.14809" lon="1.27381">
        <ele>137</ele>
        <time>2022-10-23 10:38:04</time>
      </trkpt>
      <trkpt lat="41.148" lon="1.2738">
        <ele>136</ele>
        <time>2022-10-23 10:38:06</time>
      </trkpt>
      <trkpt lat="41.14795" lon="1.27381">
        <ele>135.6</ele>
        <time>2022-10-23 10:38:07</time>
      </trkpt>
      <trkpt lat="41.14791" lon="1.27381">
        <ele>134.4</ele>
        <time>2022-10-23 10:38:08</time>
      </trkpt>
      <trkpt lat="41.14782" lon="1.27382">
        <ele>133.6</ele>
        <time>2022-10-23 10:38:10</time>
      </trkpt>
      <trkpt lat="41.14779" lon="1.27382">
        <ele>133.4</ele>
        <time>2022-10-23 10:38:11</time>
      </trkpt>
      <trkpt lat="41.14775" lon="1.27383">
        <ele>132.8</ele>
        <time>2022-10-23 10:38:12</time>
      </trkpt>
      <trkpt lat="41.14771" lon="1.27383">
        <ele>132.4</ele>
        <time>2022-10-23 10:38:13</time>
      </trkpt>
      <trkpt lat="41.14767" lon="1.27382">
        <ele>132</ele>
        <time>2022-10-23 10:38:14</time>
      </trkpt>
      <trkpt lat="41.14759" lon="1.2738">
        <ele>131.4</ele>
        <time>2022-10-23 10:38:16</time>
      </trkpt>
      <trkpt lat="41.14752" lon="1.27379">
        <ele>131</ele>
        <time>2022-10-23 10:38:18</time>
      </trkpt>
      <trkpt lat="41.14739" lon="1.27379">
        <ele>129.8</ele>
        <time>2022-10-23 10:38:21</time>
      </trkpt>
      <trkpt lat="41.14722" lon="1.27383">
        <ele>128.6</ele>
        <time>2022-10-23 10:38:25</time>
      </trkpt>
      <trkpt lat="41.14711" lon="1.27382">
        <ele>127.6</ele>
        <time>2022-10-23 10:38:28</time>
      </trkpt>
      <trkpt lat="41.14708" lon="1.27383">
        <ele>127.2</ele>
        <time>2022-10-23 10:38:29</time>
      </trkpt>
      <trkpt lat="41.14702" lon="1.27386">
        <ele>126.4</ele>
        <time>2022-10-23 10:38:31</time>
      </trkpt>
      <trkpt lat="41.14696" lon="1.2739">
        <ele>125.2</ele>
        <time>2022-10-23 10:38:33</time>
      </trkpt>
      <trkpt lat="41.14685" lon="1.27397">
        <ele>123.4</ele>
        <time>2022-10-23 10:38:36</time>
      </trkpt>
      <trkpt lat="41.14677" lon="1.27403">
        <ele>122.8</ele>
        <time>2022-10-23 10:38:38</time>
      </trkpt>
      <trkpt lat="41.14675" lon="1.27406">
        <ele>122.4</ele>
        <time>2022-10-23 10:38:39</time>
      </trkpt>
      <trkpt lat="41.14674" lon="1.2741">
        <ele>122</ele>
        <time>2022-10-23 10:38:40</time>
      </trkpt>
      <trkpt lat="41.14674" lon="1.27414">
        <ele>121.6</ele>
        <time>2022-10-23 10:38:41</time>
      </trkpt>
      <trkpt lat="41.14674" lon="1.27419">
        <ele>121</ele>
        <time>2022-10-23 10:38:42</time>
      </trkpt>
      <trkpt lat="41.14676" lon="1.27442">
        <ele>120</ele>
        <time>2022-10-23 10:38:47</time>
      </trkpt>
      <trkpt lat="41.14674" lon="1.27462">
        <ele>120</ele>
        <time>2022-10-23 10:38:52</time>
      </trkpt>
      <trkpt lat="41.14675" lon="1.27483">
        <ele>120.2</ele>
        <time>2022-10-23 10:38:57</time>
      </trkpt>
      <trkpt lat="41.14674" lon="1.27506">
        <ele>120.4</ele>
        <time>2022-10-23 10:39:03</time>
      </trkpt>
      <trkpt lat="41.14676" lon="1.27531">
        <ele>120.8</ele>
        <time>2022-10-23 10:39:10</time>
      </trkpt>
      <trkpt lat="41.14676" lon="1.27539">
        <ele>121</ele>
        <time>2022-10-23 10:39:12</time>
      </trkpt>
      <trkpt lat="41.14677" lon="1.27564">
        <ele>121.6</ele>
        <time>2022-10-23 10:39:18</time>
      </trkpt>
      <trkpt lat="41.14678" lon="1.27578">
        <ele>121.8</ele>
        <time>2022-10-23 10:39:22</time>
      </trkpt>
      <trkpt lat="41.1468" lon="1.27594">
        <ele>122.2</ele>
        <time>2022-10-23 10:39:26</time>
      </trkpt>
      <trkpt lat="41.14681" lon="1.27614">
        <ele>123</ele>
        <time>2022-10-23 10:39:32</time>
      </trkpt>
      <trkpt lat="41.14681" lon="1.27617">
        <ele>123.2</ele>
        <time>2022-10-23 10:39:33</time>
      </trkpt>
      <trkpt lat="41.14682" lon="1.2763">
        <ele>124</ele>
        <time>2022-10-23 10:39:37</time>
      </trkpt>
      <trkpt lat="41.14682" lon="1.27635">
        <ele>124.4</ele>
        <time>2022-10-23 10:39:39</time>
      </trkpt>
      <trkpt lat="41.14682" lon="1.27651">
        <ele>124.8</ele>
        <time>2022-10-23 10:39:44</time>
      </trkpt>
      <trkpt lat="41.14682" lon="1.27654">
        <ele>125</ele>
        <time>2022-10-23 10:39:45</time>
      </trkpt>
      <trkpt lat="41.14682" lon="1.27657">
        <ele>125.2</ele>
        <time>2022-10-23 10:39:46</time>
      </trkpt>
      <trkpt lat="41.14683" lon="1.27669">
        <ele>126</ele>
        <time>2022-10-23 10:39:50</time>
      </trkpt>
      <trkpt lat="41.14683" lon="1.27672">
        <ele>126.2</ele>
        <time>2022-10-23 10:39:51</time>
      </trkpt>
      <trkpt lat="41.14683" lon="1.27678">
        <ele>126.6</ele>
        <time>2022-10-23 10:39:53</time>
      </trkpt>
      <trkpt lat="41.14683" lon="1.27686">
        <ele>127.4</ele>
        <time>2022-10-23 10:39:56</time>
      </trkpt>
      <trkpt lat="41.14684" lon="1.27694">
        <ele>128</ele>
        <time>2022-10-23 10:39:59</time>
      </trkpt>
      <trkpt lat="41.14684" lon="1.27702">
        <ele>128.4</ele>
        <time>2022-10-23 10:40:02</time>
      </trkpt>
      <trkpt lat="41.14685" lon="1.27712">
        <ele>129.2</ele>
        <time>2022-10-23 10:40:05</time>
      </trkpt>
      <trkpt lat="41.14685" lon="1.27719">
        <ele>129.6</ele>
        <time>2022-10-23 10:40:07</time>
      </trkpt>
      <trkpt lat="41.14683" lon="1.27726">
        <ele>130.2</ele>
        <time>2022-10-23 10:40:10</time>
      </trkpt>
      <trkpt lat="41.14679" lon="1.2773">
        <ele>130.6</ele>
        <time>2022-10-23 10:40:12</time>
      </trkpt>
      <trkpt lat="41.14675" lon="1.27738">
        <ele>131.4</ele>
        <time>2022-10-23 10:40:15</time>
      </trkpt>
      <trkpt lat="41.14674" lon="1.27741">
        <ele>131.6</ele>
        <time>2022-10-23 10:40:16</time>
      </trkpt>
      <trkpt lat="41.14673" lon="1.27753">
        <ele>132.2</ele>
        <time>2022-10-23 10:40:20</time>
      </trkpt>
      <trkpt lat="41.14674" lon="1.27779">
        <ele>132.6</ele>
        <time>2022-10-23 10:40:28</time>
      </trkpt>
      <trkpt lat="41.14674" lon="1.27783">
        <ele>132.8</ele>
        <time>2022-10-23 10:40:29</time>
      </trkpt>
      <trkpt lat="41.14673" lon="1.27817">
        <ele>133.6</ele>
        <time>2022-10-23 10:40:37</time>
      </trkpt>
      <trkpt lat="41.14673" lon="1.2783">
        <ele>133.8</ele>
        <time>2022-10-23 10:40:40</time>
      </trkpt>
      <trkpt lat="41.14673" lon="1.27851">
        <ele>134</ele>
        <time>2022-10-23 10:40:44</time>
      </trkpt>
      <trkpt lat="41.14671" lon="1.27893">
        <ele>134.4</ele>
        <time>2022-10-23 10:40:52</time>
      </trkpt>
      <trkpt lat="41.1467" lon="1.27919">
        <ele>134.4</ele>
        <time>2022-10-23 10:40:57</time>
      </trkpt>
      <trkpt lat="41.14669" lon="1.27928">
        <ele>134.4</ele>
        <time>2022-10-23 10:40:59</time>
      </trkpt>
      <trkpt lat="41.14669" lon="1.27943">
        <ele>134.4</ele>
        <time>2022-10-23 10:41:02</time>
      </trkpt>
      <trkpt lat="41.14668" lon="1.27959">
        <ele>134.4</ele>
        <time>2022-10-23 10:41:05</time>
      </trkpt>
      <trkpt lat="41.14667" lon="1.2797">
        <ele>134.2</ele>
        <time>2022-10-23 10:41:07</time>
      </trkpt>
      <trkpt lat="41.14665" lon="1.27994">
        <ele>133.8</ele>
        <time>2022-10-23 10:41:11</time>
      </trkpt>
      <trkpt lat="41.14664" lon="1.28013">
        <ele>133.6</ele>
        <time>2022-10-23 10:41:14</time>
      </trkpt>
      <trkpt lat="41.14663" lon="1.28025">
        <ele>133.4</ele>
        <time>2022-10-23 10:41:16</time>
      </trkpt>
      <trkpt lat="41.1466" lon="1.28049">
        <ele>132.8</ele>
        <time>2022-10-23 10:41:20</time>
      </trkpt>
      <trkpt lat="41.14659" lon="1.28061">
        <ele>132.6</ele>
        <time>2022-10-23 10:41:22</time>
      </trkpt>
      <trkpt lat="41.14659" lon="1.28073">
        <ele>132.4</ele>
        <time>2022-10-23 10:41:24</time>
      </trkpt>
      <trkpt lat="41.14655" lon="1.28113">
        <ele>131.8</ele>
        <time>2022-10-23 10:41:30</time>
      </trkpt>
      <trkpt lat="41.14652" lon="1.2814">
        <ele>131.6</ele>
        <time>2022-10-23 10:41:34</time>
      </trkpt>
      <trkpt lat="41.14649" lon="1.28174">
        <ele>131.6</ele>
        <time>2022-10-23 10:41:39</time>
      </trkpt>
      <trkpt lat="41.14641" lon="1.28249">
        <ele>132</ele>
        <time>2022-10-23 10:41:51</time>
      </trkpt>
      <trkpt lat="41.14638" lon="1.28279">
        <ele>132.6</ele>
        <time>2022-10-23 10:41:56</time>
      </trkpt>
      <trkpt lat="41.14636" lon="1.28304">
        <ele>133</ele>
        <time>2022-10-23 10:42:00</time>
      </trkpt>
      <trkpt lat="41.14633" lon="1.28315">
        <ele>133</ele>
        <time>2022-10-23 10:42:02</time>
      </trkpt>
      <trkpt lat="41.14627" lon="1.28332">
        <ele>133.2</ele>
        <time>2022-10-23 10:42:05</time>
      </trkpt>
      <trkpt lat="41.14625" lon="1.28345">
        <ele>133.4</ele>
        <time>2022-10-23 10:42:07</time>
      </trkpt>
      <trkpt lat="41.14623" lon="1.2837">
        <ele>133.6</ele>
        <time>2022-10-23 10:42:11</time>
      </trkpt>
      <trkpt lat="41.14621" lon="1.28394">
        <ele>134.2</ele>
        <time>2022-10-23 10:42:15</time>
      </trkpt>
      <trkpt lat="41.1462" lon="1.28412">
        <ele>134.6</ele>
        <time>2022-10-23 10:42:18</time>
      </trkpt>
      <trkpt lat="41.14619" lon="1.28434">
        <ele>135.8</ele>
        <time>2022-10-23 10:42:22</time>
      </trkpt>
      <trkpt lat="41.14619" lon="1.2844">
        <ele>136</ele>
        <time>2022-10-23 10:42:23</time>
      </trkpt>
      <trkpt lat="41.1462" lon="1.28461">
        <ele>136.8</ele>
        <time>2022-10-23 10:42:27</time>
      </trkpt>
      <trkpt lat="41.14621" lon="1.28488">
        <ele>138</ele>
        <time>2022-10-23 10:42:32</time>
      </trkpt>
      <trkpt lat="41.14624" lon="1.28511">
        <ele>139.2</ele>
        <time>2022-10-23 10:42:37</time>
      </trkpt>
      <trkpt lat="41.14624" lon="1.28515">
        <ele>139.4</ele>
        <time>2022-10-23 10:42:38</time>
      </trkpt>
      <trkpt lat="41.14625" lon="1.28526">
        <ele>140.4</ele>
        <time>2022-10-23 10:42:41</time>
      </trkpt>
      <trkpt lat="41.14626" lon="1.28543">
        <ele>141.4</ele>
        <time>2022-10-23 10:42:46</time>
      </trkpt>
      <trkpt lat="41.14628" lon="1.28556">
        <ele>142.6</ele>
        <time>2022-10-23 10:42:50</time>
      </trkpt>
      <trkpt lat="41.14629" lon="1.28569">
        <ele>143.4</ele>
        <time>2022-10-23 10:42:54</time>
      </trkpt>
      <trkpt lat="41.1463" lon="1.28573">
        <ele>143.6</ele>
        <time>2022-10-23 10:42:55</time>
      </trkpt>
      <trkpt lat="41.14633" lon="1.28598">
        <ele>144.6</ele>
        <time>2022-10-23 10:43:02</time>
      </trkpt>
      <trkpt lat="41.14634" lon="1.28606">
        <ele>144.8</ele>
        <time>2022-10-23 10:43:04</time>
      </trkpt>
      <trkpt lat="41.14638" lon="1.28619">
        <ele>145.6</ele>
        <time>2022-10-23 10:43:08</time>
      </trkpt>
      <trkpt lat="41.14643" lon="1.28633">
        <ele>146.6</ele>
        <time>2022-10-23 10:43:12</time>
      </trkpt>
      <trkpt lat="41.14643" lon="1.28636">
        <ele>146.8</ele>
        <time>2022-10-23 10:43:13</time>
      </trkpt>
      <trkpt lat="41.14641" lon="1.28647">
        <ele>147.6</ele>
        <time>2022-10-23 10:43:16</time>
      </trkpt>
      <trkpt lat="41.1464" lon="1.2865">
        <ele>147.8</ele>
        <time>2022-10-23 10:43:17</time>
      </trkpt>
      <trkpt lat="41.14639" lon="1.28667">
        <ele>148.6</ele>
        <time>2022-10-23 10:43:22</time>
      </trkpt>
      <trkpt lat="41.14641" lon="1.28674">
        <ele>149</ele>
        <time>2022-10-23 10:43:24</time>
      </trkpt>
      <trkpt lat="41.14645" lon="1.2869">
        <ele>150.2</ele>
        <time>2022-10-23 10:43:29</time>
      </trkpt>
      <trkpt lat="41.14646" lon="1.28697">
        <ele>150.8</ele>
        <time>2022-10-23 10:43:31</time>
      </trkpt>
      <trkpt lat="41.14649" lon="1.28707">
        <ele>151.4</ele>
        <time>2022-10-23 10:43:34</time>
      </trkpt>
      <trkpt lat="41.14653" lon="1.28724">
        <ele>152.4</ele>
        <time>2022-10-23 10:43:39</time>
      </trkpt>
      <trkpt lat="41.14656" lon="1.28735">
        <ele>153.8</ele>
        <time>2022-10-23 10:43:42</time>
      </trkpt>
      <trkpt lat="41.14659" lon="1.28748">
        <ele>154.8</ele>
        <time>2022-10-23 10:43:46</time>
      </trkpt>
      <trkpt lat="41.1466" lon="1.28751">
        <ele>155</ele>
        <time>2022-10-23 10:43:47</time>
      </trkpt>
      <trkpt lat="41.14663" lon="1.28762">
        <ele>155.8</ele>
        <time>2022-10-23 10:43:51</time>
      </trkpt>
      <trkpt lat="41.14669" lon="1.28767">
        <ele>156.2</ele>
        <time>2022-10-23 10:43:54</time>
      </trkpt>
      <trkpt lat="41.14678" lon="1.28772">
        <ele>156.8</ele>
        <time>2022-10-23 10:43:58</time>
      </trkpt>
      <trkpt lat="41.14683" lon="1.28773">
        <ele>157</ele>
        <time>2022-10-23 10:44:00</time>
      </trkpt>
      <trkpt lat="41.14691" lon="1.28777">
        <ele>157</ele>
        <time>2022-10-23 10:44:04</time>
      </trkpt>
      <trkpt lat="41.14703" lon="1.2879">
        <ele>157.4</ele>
        <time>2022-10-23 10:44:09</time>
      </trkpt>
      <trkpt lat="41.14713" lon="1.28803">
        <ele>157.6</ele>
        <time>2022-10-23 10:44:13</time>
      </trkpt>
      <trkpt lat="41.1472" lon="1.28814">
        <ele>157.6</ele>
        <time>2022-10-23 10:44:16</time>
      </trkpt>
      <trkpt lat="41.14723" lon="1.28818">
        <ele>157.6</ele>
        <time>2022-10-23 10:44:17</time>
      </trkpt>
      <trkpt lat="41.14733" lon="1.28835">
        <ele>157.6</ele>
        <time>2022-10-23 10:44:21</time>
      </trkpt>
      <trkpt lat="41.14739" lon="1.28843">
        <ele>158</ele>
        <time>2022-10-23 10:44:23</time>
      </trkpt>
      <trkpt lat="41.14751" lon="1.28861">
        <ele>158</ele>
        <time>2022-10-23 10:44:27</time>
      </trkpt>
      <trkpt lat="41.14767" lon="1.28882">
        <ele>158</ele>
        <time>2022-10-23 10:44:32</time>
      </trkpt>
      <trkpt lat="41.14771" lon="1.28887">
        <ele>158</ele>
        <time>2022-10-23 10:44:33</time>
      </trkpt>
      <trkpt lat="41.14784" lon="1.28907">
        <ele>158</ele>
        <time>2022-10-23 10:44:37</time>
      </trkpt>
      <trkpt lat="41.14802" lon="1.28937">
        <ele>156.6</ele>
        <time>2022-10-23 10:44:43</time>
      </trkpt>
      <trkpt lat="41.14814" lon="1.28956">
        <ele>156</ele>
        <time>2022-10-23 10:44:47</time>
      </trkpt>
      <trkpt lat="41.1482" lon="1.28967">
        <ele>156</ele>
        <time>2022-10-23 10:44:49</time>
      </trkpt>
      <trkpt lat="41.14841" lon="1.29001">
        <ele>156.2</ele>
        <time>2022-10-23 10:44:55</time>
      </trkpt>
      <trkpt lat="41.14845" lon="1.29006">
        <ele>156.4</ele>
        <time>2022-10-23 10:44:56</time>
      </trkpt>
      <trkpt lat="41.14852" lon="1.29016">
        <ele>157</ele>
        <time>2022-10-23 10:44:58</time>
      </trkpt>
      <trkpt lat="41.14859" lon="1.29025">
        <ele>157.4</ele>
        <time>2022-10-23 10:45:00</time>
      </trkpt>
      <trkpt lat="41.1488" lon="1.29046">
        <ele>158</ele>
        <time>2022-10-23 10:45:05</time>
      </trkpt>
      <trkpt lat="41.14884" lon="1.2905">
        <ele>158.2</ele>
        <time>2022-10-23 10:45:06</time>
      </trkpt>
      <trkpt lat="41.14892" lon="1.29066">
        <ele>159</ele>
        <time>2022-10-23 10:45:10</time>
      </trkpt>
      <trkpt lat="41.14892" lon="1.29071">
        <ele>159.2</ele>
        <time>2022-10-23 10:45:11</time>
      </trkpt>
      <trkpt lat="41.14892" lon="1.29088">
        <ele>160.4</ele>
        <time>2022-10-23 10:45:15</time>
      </trkpt>
      <trkpt lat="41.14893" lon="1.29101">
        <ele>161.2</ele>
        <time>2022-10-23 10:45:19</time>
      </trkpt>
      <trkpt lat="41.14892" lon="1.29107">
        <ele>161.2</ele>
        <time>2022-10-23 10:45:20</time>
      </trkpt>
      <trkpt lat="41.14886" lon="1.29128">
        <ele>161.4</ele>
        <time>2022-10-23 10:45:23</time>
      </trkpt>
      <trkpt lat="41.14882" lon="1.29146">
        <ele>161.2</ele>
        <time>2022-10-23 10:45:27</time>
      </trkpt>
      <trkpt lat="41.14881" lon="1.2915">
        <ele>160.6</ele>
        <time>2022-10-23 10:45:28</time>
      </trkpt>
      <trkpt lat="41.1488" lon="1.29158">
        <ele>159.2</ele>
        <time>2022-10-23 10:45:30</time>
      </trkpt>
      <trkpt lat="41.14879" lon="1.29163">
        <ele>158.8</ele>
        <time>2022-10-23 10:45:31</time>
      </trkpt>
      <trkpt lat="41.14878" lon="1.29169">
        <ele>158.6</ele>
        <time>2022-10-23 10:45:32</time>
      </trkpt>
      <trkpt lat="41.14877" lon="1.29174">
        <ele>158.2</ele>
        <time>2022-10-23 10:45:33</time>
      </trkpt>
      <trkpt lat="41.14876" lon="1.29179">
        <ele>158</ele>
        <time>2022-10-23 10:45:34</time>
      </trkpt>
      <trkpt lat="41.14873" lon="1.29192">
        <ele>157</ele>
        <time>2022-10-23 10:45:37</time>
      </trkpt>
      <trkpt lat="41.1487" lon="1.29202">
        <ele>155.8</ele>
        <time>2022-10-23 10:45:39</time>
      </trkpt>
      <trkpt lat="41.14868" lon="1.29211">
        <ele>154.2</ele>
        <time>2022-10-23 10:45:41</time>
      </trkpt>
      <trkpt lat="41.14867" lon="1.29218">
        <ele>152.4</ele>
        <time>2022-10-23 10:45:43</time>
      </trkpt>
      <trkpt lat="41.14866" lon="1.29223">
        <ele>151</ele>
        <time>2022-10-23 10:45:45</time>
      </trkpt>
      <trkpt lat="41.14867" lon="1.29228">
        <ele>149.8</ele>
        <time>2022-10-23 10:45:47</time>
      </trkpt>
      <trkpt lat="41.14867" lon="1.29231">
        <ele>149.2</ele>
        <time>2022-10-23 10:45:48</time>
      </trkpt>
      <trkpt lat="41.14866" lon="1.29234">
        <ele>148.8</ele>
        <time>2022-10-23 10:45:49</time>
      </trkpt>
      <trkpt lat="41.14864" lon="1.29241">
        <ele>147.8</ele>
        <time>2022-10-23 10:45:51</time>
      </trkpt>
      <trkpt lat="41.14862" lon="1.29246">
        <ele>146.8</ele>
        <time>2022-10-23 10:45:53</time>
      </trkpt>
      <trkpt lat="41.14858" lon="1.29254">
        <ele>145.4</ele>
        <time>2022-10-23 10:45:56</time>
      </trkpt>
      <trkpt lat="41.14856" lon="1.29258">
        <ele>144.8</ele>
        <time>2022-10-23 10:45:57</time>
      </trkpt>
      <trkpt lat="41.14854" lon="1.29262">
        <ele>144.2</ele>
        <time>2022-10-23 10:45:58</time>
      </trkpt>
      <trkpt lat="41.14849" lon="1.29272">
        <ele>142.4</ele>
        <time>2022-10-23 10:46:01</time>
      </trkpt>
      <trkpt lat="41.14846" lon="1.29275">
        <ele>142</ele>
        <time>2022-10-23 10:46:02</time>
      </trkpt>
      <trkpt lat="41.1484" lon="1.29282">
        <ele>140.8</ele>
        <time>2022-10-23 10:46:04</time>
      </trkpt>
      <trkpt lat="41.14837" lon="1.29287">
        <ele>140</ele>
        <time>2022-10-23 10:46:05</time>
      </trkpt>
      <trkpt lat="41.14833" lon="1.29292">
        <ele>139.2</ele>
        <time>2022-10-23 10:46:06</time>
      </trkpt>
      <trkpt lat="41.14824" lon="1.29302">
        <ele>137.8</ele>
        <time>2022-10-23 10:46:08</time>
      </trkpt>
      <trkpt lat="41.14818" lon="1.29308">
        <ele>137.4</ele>
        <time>2022-10-23 10:46:09</time>
      </trkpt>
      <trkpt lat="41.14812" lon="1.29314">
        <ele>136.8</ele>
        <time>2022-10-23 10:46:10</time>
      </trkpt>
      <trkpt lat="41.14801" lon="1.29328">
        <ele>135.8</ele>
        <time>2022-10-23 10:46:12</time>
      </trkpt>
      <trkpt lat="41.14796" lon="1.29336">
        <ele>135</ele>
        <time>2022-10-23 10:46:13</time>
      </trkpt>
      <trkpt lat="41.14792" lon="1.29346">
        <ele>134.2</ele>
        <time>2022-10-23 10:46:14</time>
      </trkpt>
      <trkpt lat="41.14785" lon="1.29363">
        <ele>132.8</ele>
        <time>2022-10-23 10:46:16</time>
      </trkpt>
      <trkpt lat="41.14781" lon="1.29369">
        <ele>131.8</ele>
        <time>2022-10-23 10:46:17</time>
      </trkpt>
      <trkpt lat="41.14778" lon="1.29376">
        <ele>131</ele>
        <time>2022-10-23 10:46:18</time>
      </trkpt>
      <trkpt lat="41.14777" lon="1.29391">
        <ele>129.6</ele>
        <time>2022-10-23 10:46:20</time>
      </trkpt>
      <trkpt lat="41.14776" lon="1.29402">
        <ele>128</ele>
        <time>2022-10-23 10:46:22</time>
      </trkpt>
      <trkpt lat="41.14775" lon="1.29412">
        <ele>127.2</ele>
        <time>2022-10-23 10:46:24</time>
      </trkpt>
      <trkpt lat="41.1477" lon="1.29425">
        <ele>127</ele>
        <time>2022-10-23 10:46:27</time>
      </trkpt>
      <trkpt lat="41.14769" lon="1.29429">
        <ele>127</ele>
        <time>2022-10-23 10:46:28</time>
      </trkpt>
      <trkpt lat="41.14761" lon="1.29439">
        <ele>127</ele>
        <time>2022-10-23 10:46:32</time>
      </trkpt>
      <trkpt lat="41.14755" lon="1.2944">
        <ele>127</ele>
        <time>2022-10-23 10:46:34</time>
      </trkpt>
      <trkpt lat="41.14748" lon="1.29439">
        <ele>127</ele>
        <time>2022-10-23 10:46:36</time>
      </trkpt>
      <trkpt lat="41.14733" lon="1.29437">
        <ele>127</ele>
        <time>2022-10-23 10:46:40</time>
      </trkpt>
      <trkpt lat="41.1473" lon="1.29437">
        <ele>126.8</ele>
        <time>2022-10-23 10:46:41</time>
      </trkpt>
      <trkpt lat="41.14726" lon="1.29438">
        <ele>126.4</ele>
        <time>2022-10-23 10:46:42</time>
      </trkpt>
      <trkpt lat="41.14707" lon="1.29441">
        <ele>126</ele>
        <time>2022-10-23 10:46:46</time>
      </trkpt>
      <trkpt lat="41.14703" lon="1.29444">
        <ele>126</ele>
        <time>2022-10-23 10:46:47</time>
      </trkpt>
      <trkpt lat="41.14698" lon="1.29445">
        <ele>126</ele>
        <time>2022-10-23 10:46:48</time>
      </trkpt>
      <trkpt lat="41.14694" lon="1.29446">
        <ele>125.8</ele>
        <time>2022-10-23 10:46:49</time>
      </trkpt>
      <trkpt lat="41.14687" lon="1.2945">
        <ele>125.2</ele>
        <time>2022-10-23 10:46:51</time>
      </trkpt>
      <trkpt lat="41.14678" lon="1.29453">
        <ele>124.8</ele>
        <time>2022-10-23 10:46:53</time>
      </trkpt>
      <trkpt lat="41.14666" lon="1.29456">
        <ele>124.8</ele>
        <time>2022-10-23 10:46:56</time>
      </trkpt>
      <trkpt lat="41.14662" lon="1.29455">
        <ele>124.8</ele>
        <time>2022-10-23 10:46:57</time>
      </trkpt>
      <trkpt lat="41.14654" lon="1.29453">
        <ele>124.8</ele>
        <time>2022-10-23 10:46:59</time>
      </trkpt>
      <trkpt lat="41.14646" lon="1.29451">
        <ele>124.8</ele>
        <time>2022-10-23 10:47:01</time>
      </trkpt>
      <trkpt lat="41.14638" lon="1.2945">
        <ele>124.8</ele>
        <time>2022-10-23 10:47:03</time>
      </trkpt>
      <trkpt lat="41.14624" lon="1.29448">
        <ele>125</ele>
        <time>2022-10-23 10:47:06</time>
      </trkpt>
      <trkpt lat="41.14604" lon="1.29443">
        <ele>125</ele>
        <time>2022-10-23 10:47:10</time>
      </trkpt>
      <trkpt lat="41.14599" lon="1.29442">
        <ele>125</ele>
        <time>2022-10-23 10:47:11</time>
      </trkpt>
      <trkpt lat="41.1459" lon="1.29437">
        <ele>124.6</ele>
        <time>2022-10-23 10:47:13</time>
      </trkpt>
      <trkpt lat="41.14582" lon="1.29429">
        <ele>124.4</ele>
        <time>2022-10-23 10:47:15</time>
      </trkpt>
      <trkpt lat="41.14571" lon="1.29419">
        <ele>123.6</ele>
        <time>2022-10-23 10:47:18</time>
      </trkpt>
      <trkpt lat="41.14566" lon="1.29417">
        <ele>123.6</ele>
        <time>2022-10-23 10:47:19</time>
      </trkpt>
      <trkpt lat="41.14557" lon="1.29412">
        <ele>123</ele>
        <time>2022-10-23 10:47:21</time>
      </trkpt>
      <trkpt lat="41.14547" lon="1.29412">
        <ele>122.6</ele>
        <time>2022-10-23 10:47:23</time>
      </trkpt>
      <trkpt lat="41.14537" lon="1.2941">
        <ele>121.6</ele>
        <time>2022-10-23 10:47:25</time>
      </trkpt>
      <trkpt lat="41.14531" lon="1.2941">
        <ele>121.4</ele>
        <time>2022-10-23 10:47:26</time>
      </trkpt>
      <trkpt lat="41.14526" lon="1.2941">
        <ele>121</ele>
        <time>2022-10-23 10:47:27</time>
      </trkpt>
      <trkpt lat="41.14515" lon="1.29407">
        <ele>120.2</ele>
        <time>2022-10-23 10:47:29</time>
      </trkpt>
      <trkpt lat="41.14507" lon="1.29406">
        <ele>119.4</ele>
        <time>2022-10-23 10:47:31</time>
      </trkpt>
      <trkpt lat="41.14502" lon="1.29406">
        <ele>119</ele>
        <time>2022-10-23 10:47:32</time>
      </trkpt>
      <trkpt lat="41.14497" lon="1.29406">
        <ele>118.4</ele>
        <time>2022-10-23 10:47:33</time>
      </trkpt>
      <trkpt lat="41.14493" lon="1.29407">
        <ele>118.2</ele>
        <time>2022-10-23 10:47:34</time>
      </trkpt>
      <trkpt lat="41.14489" lon="1.29408">
        <ele>117.6</ele>
        <time>2022-10-23 10:47:35</time>
      </trkpt>
      <trkpt lat="41.14477" lon="1.29414">
        <ele>116.4</ele>
        <time>2022-10-23 10:47:38</time>
      </trkpt>
      <trkpt lat="41.14473" lon="1.29415">
        <ele>116</ele>
        <time>2022-10-23 10:47:39</time>
      </trkpt>
      <trkpt lat="41.14466" lon="1.29418">
        <ele>115.2</ele>
        <time>2022-10-23 10:47:41</time>
      </trkpt>
      <trkpt lat="41.14454" lon="1.2942">
        <ele>114</ele>
        <time>2022-10-23 10:47:44</time>
      </trkpt>
      <trkpt lat="41.14446" lon="1.29423">
        <ele>112.8</ele>
        <time>2022-10-23 10:47:47</time>
      </trkpt>
      <trkpt lat="41.14444" lon="1.29425">
        <ele>112.6</ele>
        <time>2022-10-23 10:47:48</time>
      </trkpt>
      <trkpt lat="41.14438" lon="1.29429">
        <ele>111.8</ele>
        <time>2022-10-23 10:47:50</time>
      </trkpt>
      <trkpt lat="41.14435" lon="1.29432">
        <ele>111.4</ele>
        <time>2022-10-23 10:47:51</time>
      </trkpt>
      <trkpt lat="41.1443" lon="1.29436">
        <ele>110.4</ele>
        <time>2022-10-23 10:47:53</time>
      </trkpt>
      <trkpt lat="41.14417" lon="1.29442">
        <ele>109</ele>
        <time>2022-10-23 10:47:57</time>
      </trkpt>
      <trkpt lat="41.14414" lon="1.29445">
        <ele>108.8</ele>
        <time>2022-10-23 10:47:58</time>
      </trkpt>
      <trkpt lat="41.14406" lon="1.29451">
        <ele>107.8</ele>
        <time>2022-10-23 10:48:00</time>
      </trkpt>
      <trkpt lat="41.14393" lon="1.29458">
        <ele>106.6</ele>
        <time>2022-10-23 10:48:03</time>
      </trkpt>
      <trkpt lat="41.14389" lon="1.29459">
        <ele>106</ele>
        <time>2022-10-23 10:48:04</time>
      </trkpt>
      <trkpt lat="41.14385" lon="1.29459">
        <ele>105.4</ele>
        <time>2022-10-23 10:48:05</time>
      </trkpt>
      <trkpt lat="41.14373" lon="1.2946">
        <ele>104.2</ele>
        <time>2022-10-23 10:48:08</time>
      </trkpt>
      <trkpt lat="41.14363" lon="1.29467">
        <ele>103.4</ele>
        <time>2022-10-23 10:48:11</time>
      </trkpt>
      <trkpt lat="41.14359" lon="1.2947">
        <ele>103</ele>
        <time>2022-10-23 10:48:12</time>
      </trkpt>
      <trkpt lat="41.14356" lon="1.29472">
        <ele>102.8</ele>
        <time>2022-10-23 10:48:13</time>
      </trkpt>
      <trkpt lat="41.1435" lon="1.29474">
        <ele>102</ele>
        <time>2022-10-23 10:48:15</time>
      </trkpt>
      <trkpt lat="41.14346" lon="1.29474">
        <ele>101.6</ele>
        <time>2022-10-23 10:48:16</time>
      </trkpt>
      <trkpt lat="41.14338" lon="1.29476">
        <ele>101.2</ele>
        <time>2022-10-23 10:48:18</time>
      </trkpt>
      <trkpt lat="41.1433" lon="1.29479">
        <ele>100.4</ele>
        <time>2022-10-23 10:48:20</time>
      </trkpt>
      <trkpt lat="41.14321" lon="1.29481">
        <ele>99.6</ele>
        <time>2022-10-23 10:48:22</time>
      </trkpt>
      <trkpt lat="41.14311" lon="1.29487">
        <ele>99</ele>
        <time>2022-10-23 10:48:24</time>
      </trkpt>
      <trkpt lat="41.14302" lon="1.29493">
        <ele>98.6</ele>
        <time>2022-10-23 10:48:26</time>
      </trkpt>
      <trkpt lat="41.14292" lon="1.29497">
        <ele>98.2</ele>
        <time>2022-10-23 10:48:28</time>
      </trkpt>
      <trkpt lat="41.14288" lon="1.29499">
        <ele>98</ele>
        <time>2022-10-23 10:48:29</time>
      </trkpt>
      <trkpt lat="41.14276" lon="1.29505">
        <ele>97</ele>
        <time>2022-10-23 10:48:32</time>
      </trkpt>
      <trkpt lat="41.14272" lon="1.29503">
        <ele>97</ele>
        <time>2022-10-23 10:48:33</time>
      </trkpt>
      <trkpt lat="41.14262" lon="1.29496">
        <ele>96.2</ele>
        <time>2022-10-23 10:48:36</time>
      </trkpt>
      <trkpt lat="41.14258" lon="1.29495">
        <ele>95.8</ele>
        <time>2022-10-23 10:48:37</time>
      </trkpt>
      <trkpt lat="41.14247" lon="1.29494">
        <ele>95.2</ele>
        <time>2022-10-23 10:48:39</time>
      </trkpt>
      <trkpt lat="41.14241" lon="1.29493">
        <ele>94.8</ele>
        <time>2022-10-23 10:48:40</time>
      </trkpt>
      <trkpt lat="41.14236" lon="1.29492">
        <ele>94.6</ele>
        <time>2022-10-23 10:48:41</time>
      </trkpt>
      <trkpt lat="41.14224" lon="1.2949">
        <ele>94</ele>
        <time>2022-10-23 10:48:43</time>
      </trkpt>
      <trkpt lat="41.14219" lon="1.29488">
        <ele>93.6</ele>
        <time>2022-10-23 10:48:44</time>
      </trkpt>
      <trkpt lat="41.14213" lon="1.29486">
        <ele>93.2</ele>
        <time>2022-10-23 10:48:45</time>
      </trkpt>
      <trkpt lat="41.14207" lon="1.29485">
        <ele>92.8</ele>
        <time>2022-10-23 10:48:46</time>
      </trkpt>
      <trkpt lat="41.14202" lon="1.29485">
        <ele>92.2</ele>
        <time>2022-10-23 10:48:47</time>
      </trkpt>
      <trkpt lat="41.14191" lon="1.29485">
        <ele>90.8</ele>
        <time>2022-10-23 10:48:49</time>
      </trkpt>
      <trkpt lat="41.14187" lon="1.29485">
        <ele>90.2</ele>
        <time>2022-10-23 10:48:50</time>
      </trkpt>
      <trkpt lat="41.14183" lon="1.29485">
        <ele>89.4</ele>
        <time>2022-10-23 10:48:51</time>
      </trkpt>
      <trkpt lat="41.14178" lon="1.29483">
        <ele>88.4</ele>
        <time>2022-10-23 10:48:53</time>
      </trkpt>
      <trkpt lat="41.14176" lon="1.29482">
        <ele>87.8</ele>
        <time>2022-10-23 10:48:54</time>
      </trkpt>
      <trkpt lat="41.14175" lon="1.29482">
        <ele>87.4</ele>
        <time>2022-10-23 10:48:55</time>
      </trkpt>
      <trkpt lat="41.14171" lon="1.29482">
        <ele>85.2</ele>
        <time>2022-10-23 10:49:14</time>
      </trkpt>
      <trkpt lat="41.14167" lon="1.29481">
        <ele>85</ele>
        <time>2022-10-23 10:49:16</time>
      </trkpt>
      <trkpt lat="41.14151" lon="1.29481">
        <ele>84.8</ele>
        <time>2022-10-23 10:49:21</time>
      </trkpt>
      <trkpt lat="41.14142" lon="1.29483">
        <ele>84</ele>
        <time>2022-10-23 10:49:24</time>
      </trkpt>
      <trkpt lat="41.14135" lon="1.29482">
        <ele>83.2</ele>
        <time>2022-10-23 10:49:26</time>
      </trkpt>
      <trkpt lat="41.14131" lon="1.29481">
        <ele>82.8</ele>
        <time>2022-10-23 10:49:27</time>
      </trkpt>
      <trkpt lat="41.1412" lon="1.29478">
        <ele>81.8</ele>
        <time>2022-10-23 10:49:30</time>
      </trkpt>
      <trkpt lat="41.14107" lon="1.29476">
        <ele>80.2</ele>
        <time>2022-10-23 10:49:33</time>
      </trkpt>
      <trkpt lat="41.14098" lon="1.29475">
        <ele>79.2</ele>
        <time>2022-10-23 10:49:35</time>
      </trkpt>
      <trkpt lat="41.14089" lon="1.29476">
        <ele>78</ele>
        <time>2022-10-23 10:49:37</time>
      </trkpt>
      <trkpt lat="41.14085" lon="1.29477">
        <ele>77.4</ele>
        <time>2022-10-23 10:49:38</time>
      </trkpt>
      <trkpt lat="41.14081" lon="1.29478">
        <ele>76.8</ele>
        <time>2022-10-23 10:49:39</time>
      </trkpt>
      <trkpt lat="41.14072" lon="1.29479">
        <ele>75.2</ele>
        <time>2022-10-23 10:49:41</time>
      </trkpt>
      <trkpt lat="41.14062" lon="1.2948">
        <ele>73.4</ele>
        <time>2022-10-23 10:49:43</time>
      </trkpt>
      <trkpt lat="41.14048" lon="1.29483">
        <ele>70.8</ele>
        <time>2022-10-23 10:49:45</time>
      </trkpt>
      <trkpt lat="41.14041" lon="1.29484">
        <ele>70</ele>
        <time>2022-10-23 10:49:46</time>
      </trkpt>
      <trkpt lat="41.14035" lon="1.29485">
        <ele>69.2</ele>
        <time>2022-10-23 10:49:47</time>
      </trkpt>
      <trkpt lat="41.14026" lon="1.29488">
        <ele>67.6</ele>
        <time>2022-10-23 10:49:49</time>
      </trkpt>
      <trkpt lat="41.14024" lon="1.29491">
        <ele>66.6</ele>
        <time>2022-10-23 10:49:50</time>
      </trkpt>
      <trkpt lat="41.14021" lon="1.29494">
        <ele>65.8</ele>
        <time>2022-10-23 10:49:51</time>
      </trkpt>
      <trkpt lat="41.14017" lon="1.29504">
        <ele>64</ele>
        <time>2022-10-23 10:49:53</time>
      </trkpt>
      <trkpt lat="41.14016" lon="1.2951">
        <ele>63.6</ele>
        <time>2022-10-23 10:49:54</time>
      </trkpt>
      <trkpt lat="41.14014" lon="1.29541">
        <ele>63</ele>
        <time>2022-10-23 10:49:58</time>
      </trkpt>
      <trkpt lat="41.14014" lon="1.2956">
        <ele>62.8</ele>
        <time>2022-10-23 10:50:00</time>
      </trkpt>
      <trkpt lat="41.14017" lon="1.29588">
        <ele>61.8</ele>
        <time>2022-10-23 10:50:03</time>
      </trkpt>
      <trkpt lat="41.14019" lon="1.29603">
        <ele>60.8</ele>
        <time>2022-10-23 10:50:05</time>
      </trkpt>
      <trkpt lat="41.1402" lon="1.2961">
        <ele>60</ele>
        <time>2022-10-23 10:50:06</time>
      </trkpt>
      <trkpt lat="41.14022" lon="1.29615">
        <ele>59.2</ele>
        <time>2022-10-23 10:50:07</time>
      </trkpt>
      <trkpt lat="41.14023" lon="1.2962">
        <ele>58.4</ele>
        <time>2022-10-23 10:50:08</time>
      </trkpt>
      <trkpt lat="41.14024" lon="1.29625">
        <ele>57.8</ele>
        <time>2022-10-23 10:50:09</time>
      </trkpt>
      <trkpt lat="41.14027" lon="1.29641">
        <ele>56.8</ele>
        <time>2022-10-23 10:50:12</time>
      </trkpt>
      <trkpt lat="41.1403" lon="1.29653">
        <ele>56.6</ele>
        <time>2022-10-23 10:50:14</time>
      </trkpt>
      <trkpt lat="41.14033" lon="1.29666">
        <ele>56.4</ele>
        <time>2022-10-23 10:50:16</time>
      </trkpt>
      <trkpt lat="41.14037" lon="1.29688">
        <ele>55.6</ele>
        <time>2022-10-23 10:50:19</time>
      </trkpt>
      <trkpt lat="41.1404" lon="1.29702">
        <ele>54.6</ele>
        <time>2022-10-23 10:50:21</time>
      </trkpt>
      <trkpt lat="41.14042" lon="1.29708">
        <ele>53.8</ele>
        <time>2022-10-23 10:50:22</time>
      </trkpt>
      <trkpt lat="41.14047" lon="1.2972">
        <ele>52.6</ele>
        <time>2022-10-23 10:50:24</time>
      </trkpt>
      <trkpt lat="41.14052" lon="1.29731">
        <ele>51.6</ele>
        <time>2022-10-23 10:50:26</time>
      </trkpt>
      <trkpt lat="41.14054" lon="1.29736">
        <ele>51.4</ele>
        <time>2022-10-23 10:50:27</time>
      </trkpt>
      <trkpt lat="41.14058" lon="1.29755">
        <ele>51</ele>
        <time>2022-10-23 10:50:30</time>
      </trkpt>
      <trkpt lat="41.14064" lon="1.29769">
        <ele>50.8</ele>
        <time>2022-10-23 10:50:32</time>
      </trkpt>
      <trkpt lat="41.14071" lon="1.29783">
        <ele>50.6</ele>
        <time>2022-10-23 10:50:34</time>
      </trkpt>
      <trkpt lat="41.14075" lon="1.29791">
        <ele>50.4</ele>
        <time>2022-10-23 10:50:35</time>
      </trkpt>
      <trkpt lat="41.14086" lon="1.29812">
        <ele>49.2</ele>
        <time>2022-10-23 10:50:38</time>
      </trkpt>
      <trkpt lat="41.14093" lon="1.29824">
        <ele>48.2</ele>
        <time>2022-10-23 10:50:40</time>
      </trkpt>
      <trkpt lat="41.14096" lon="1.2983">
        <ele>47.4</ele>
        <time>2022-10-23 10:50:41</time>
      </trkpt>
      <trkpt lat="41.14109" lon="1.29843">
        <ele>46.8</ele>
        <time>2022-10-23 10:50:44</time>
      </trkpt>
      <trkpt lat="41.14114" lon="1.29847">
        <ele>46.6</ele>
        <time>2022-10-23 10:50:45</time>
      </trkpt>
      <trkpt lat="41.14122" lon="1.29854">
        <ele>46.4</ele>
        <time>2022-10-23 10:50:47</time>
      </trkpt>
      <trkpt lat="41.14126" lon="1.29857">
        <ele>46.4</ele>
        <time>2022-10-23 10:50:48</time>
      </trkpt>
      <trkpt lat="41.14129" lon="1.2986">
        <ele>46.2</ele>
        <time>2022-10-23 10:50:49</time>
      </trkpt>
      <trkpt lat="41.14141" lon="1.29872">
        <ele>46</ele>
        <time>2022-10-23 10:50:52</time>
      </trkpt>
      <trkpt lat="41.1415" lon="1.29883">
        <ele>45.6</ele>
        <time>2022-10-23 10:50:54</time>
      </trkpt>
      <trkpt lat="41.14155" lon="1.29891">
        <ele>45.4</ele>
        <time>2022-10-23 10:50:55</time>
      </trkpt>
      <trkpt lat="41.14171" lon="1.29911">
        <ele>44.4</ele>
        <time>2022-10-23 10:50:58</time>
      </trkpt>
      <trkpt lat="41.14175" lon="1.29916">
        <ele>43.8</ele>
        <time>2022-10-23 10:50:59</time>
      </trkpt>
      <trkpt lat="41.14189" lon="1.29931">
        <ele>42.6</ele>
        <time>2022-10-23 10:51:02</time>
      </trkpt>
      <trkpt lat="41.14193" lon="1.29938">
        <ele>41.8</ele>
        <time>2022-10-23 10:51:03</time>
      </trkpt>
      <trkpt lat="41.14198" lon="1.29945">
        <ele>41.4</ele>
        <time>2022-10-23 10:51:04</time>
      </trkpt>
      <trkpt lat="41.1421" lon="1.29958">
        <ele>40.2</ele>
        <time>2022-10-23 10:51:06</time>
      </trkpt>
      <trkpt lat="41.14216" lon="1.29964">
        <ele>40</ele>
        <time>2022-10-23 10:51:07</time>
      </trkpt>
      <trkpt lat="41.14233" lon="1.29981">
        <ele>38.8</ele>
        <time>2022-10-23 10:51:10</time>
      </trkpt>
      <trkpt lat="41.14237" lon="1.29986">
        <ele>38</ele>
        <time>2022-10-23 10:51:11</time>
      </trkpt>
      <trkpt lat="41.14241" lon="1.29992">
        <ele>37.4</ele>
        <time>2022-10-23 10:51:12</time>
      </trkpt>
      <trkpt lat="41.14258" lon="1.30017">
        <ele>36.2</ele>
        <time>2022-10-23 10:51:16</time>
      </trkpt>
      <trkpt lat="41.14271" lon="1.30035">
        <ele>36.2</ele>
        <time>2022-10-23 10:51:19</time>
      </trkpt>
      <trkpt lat="41.14289" lon="1.30053">
        <ele>36.2</ele>
        <time>2022-10-23 10:51:23</time>
      </trkpt>
      <trkpt lat="41.143" lon="1.30068">
        <ele>36.2</ele>
        <time>2022-10-23 10:51:26</time>
      </trkpt>
      <trkpt lat="41.14309" lon="1.3008">
        <ele>36.2</ele>
        <time>2022-10-23 10:51:29</time>
      </trkpt>
      <trkpt lat="41.14318" lon="1.30092">
        <ele>36.2</ele>
        <time>2022-10-23 10:51:33</time>
      </trkpt>
      <trkpt lat="41.14319" lon="1.30095">
        <ele>36.6</ele>
        <time>2022-10-23 10:51:34</time>
      </trkpt>
      <trkpt lat="41.1432" lon="1.30102">
        <ele>36.6</ele>
        <time>2022-10-23 10:51:36</time>
      </trkpt>
      <trkpt lat="41.14318" lon="1.3011">
        <ele>36.8</ele>
        <time>2022-10-23 10:51:38</time>
      </trkpt>
      <trkpt lat="41.14307" lon="1.30135">
        <ele>36.8</ele>
        <time>2022-10-23 10:51:43</time>
      </trkpt>
      <trkpt lat="41.14304" lon="1.30141">
        <ele>36.8</ele>
        <time>2022-10-23 10:51:44</time>
      </trkpt>
      <trkpt lat="41.14296" lon="1.30154">
        <ele>36.4</ele>
        <time>2022-10-23 10:51:47</time>
      </trkpt>
      <trkpt lat="41.14293" lon="1.30157">
        <ele>36.2</ele>
        <time>2022-10-23 10:51:48</time>
      </trkpt>
      <trkpt lat="41.14283" lon="1.30167">
        <ele>35.8</ele>
        <time>2022-10-23 10:51:52</time>
      </trkpt>
      <trkpt lat="41.14278" lon="1.30175">
        <ele>35.8</ele>
        <time>2022-10-23 10:51:57</time>
      </trkpt>
      <trkpt lat="41.14276" lon="1.30176">
        <ele>35.8</ele>
        <time>2022-10-23 10:51:58</time>
      </trkpt>
      <trkpt lat="41.14267" lon="1.30178">
        <ele>36</ele>
        <time>2022-10-23 10:52:02</time>
      </trkpt>
      <trkpt lat="41.14264" lon="1.30177">
        <ele>36</ele>
        <time>2022-10-23 10:52:03</time>
      </trkpt>
      <trkpt lat="41.14259" lon="1.30176">
        <ele>36</ele>
        <time>2022-10-23 10:52:05</time>
      </trkpt>
      <trkpt lat="41.14253" lon="1.30179">
        <ele>36</ele>
        <time>2022-10-23 10:52:07</time>
      </trkpt>
      <trkpt lat="41.14247" lon="1.30184">
        <ele>36</ele>
        <time>2022-10-23 10:52:09</time>
      </trkpt>
      <trkpt lat="41.14234" lon="1.30187">
        <ele>35.6</ele>
        <time>2022-10-23 10:52:12</time>
      </trkpt>
      <trkpt lat="41.1423" lon="1.30188">
        <ele>35.4</ele>
        <time>2022-10-23 10:52:13</time>
      </trkpt>
      <trkpt lat="41.14215" lon="1.30192">
        <ele>34.8</ele>
        <time>2022-10-23 10:52:17</time>
      </trkpt>
      <trkpt lat="41.14211" lon="1.30194">
        <ele>34.6</ele>
        <time>2022-10-23 10:52:18</time>
      </trkpt>
      <trkpt lat="41.14199" lon="1.30199">
        <ele>34.4</ele>
        <time>2022-10-23 10:52:21</time>
      </trkpt>
      <trkpt lat="41.14184" lon="1.30205">
        <ele>34.4</ele>
        <time>2022-10-23 10:52:25</time>
      </trkpt>
      <trkpt lat="41.14168" lon="1.3022">
        <ele>34.4</ele>
        <time>2022-10-23 10:52:30</time>
      </trkpt>
      <trkpt lat="41.14165" lon="1.30223">
        <ele>34.4</ele>
        <time>2022-10-23 10:52:31</time>
      </trkpt>
      <trkpt lat="41.14157" lon="1.30234">
        <ele>34.6</ele>
        <time>2022-10-23 10:52:34</time>
      </trkpt>
      <trkpt lat="41.1415" lon="1.30244">
        <ele>35.2</ele>
        <time>2022-10-23 10:52:37</time>
      </trkpt>
      <trkpt lat="41.14147" lon="1.30246">
        <ele>35.4</ele>
        <time>2022-10-23 10:52:38</time>
      </trkpt>
      <trkpt lat="41.14138" lon="1.3025">
        <ele>35.8</ele>
        <time>2022-10-23 10:52:41</time>
      </trkpt>
      <trkpt lat="41.14131" lon="1.30254">
        <ele>36.2</ele>
        <time>2022-10-23 10:52:43</time>
      </trkpt>
      <trkpt lat="41.14125" lon="1.3026">
        <ele>36.4</ele>
        <time>2022-10-23 10:52:45</time>
      </trkpt>
      <trkpt lat="41.14112" lon="1.30271">
        <ele>36.8</ele>
        <time>2022-10-23 10:52:49</time>
      </trkpt>
      <trkpt lat="41.14094" lon="1.30278">
        <ele>37</ele>
        <time>2022-10-23 10:52:55</time>
      </trkpt>
      <trkpt lat="41.14084" lon="1.30282">
        <ele>37.4</ele>
        <time>2022-10-23 10:52:59</time>
      </trkpt>
      <trkpt lat="41.14082" lon="1.30284">
        <ele>37.6</ele>
        <time>2022-10-23 10:53:00</time>
      </trkpt>
      <trkpt lat="41.14076" lon="1.30291">
        <ele>38</ele>
        <time>2022-10-23 10:53:03</time>
      </trkpt>
      <trkpt lat="41.14074" lon="1.30292">
        <ele>38.2</ele>
        <time>2022-10-23 10:53:04</time>
      </trkpt>
      <trkpt lat="41.14066" lon="1.30293">
        <ele>38.4</ele>
        <time>2022-10-23 10:53:07</time>
      </trkpt>
      <trkpt lat="41.14063" lon="1.30294">
        <ele>38.6</ele>
        <time>2022-10-23 10:53:08</time>
      </trkpt>
      <trkpt lat="41.1406" lon="1.30294">
        <ele>38.8</ele>
        <time>2022-10-23 10:53:09</time>
      </trkpt>
      <trkpt lat="41.14053" lon="1.303">
        <ele>39.2</ele>
        <time>2022-10-23 10:53:12</time>
      </trkpt>
      <trkpt lat="41.14052" lon="1.30303">
        <ele>39.4</ele>
        <time>2022-10-23 10:53:13</time>
      </trkpt>
      <trkpt lat="41.14049" lon="1.30307">
        <ele>39.6</ele>
        <time>2022-10-23 10:53:15</time>
      </trkpt>
      <trkpt lat="41.14045" lon="1.30309">
        <ele>39.6</ele>
        <time>2022-10-23 10:53:17</time>
      </trkpt>
      <trkpt lat="41.14043" lon="1.30311">
        <ele>39.6</ele>
        <time>2022-10-23 10:53:18</time>
      </trkpt>
      <trkpt lat="41.14037" lon="1.30319">
        <ele>39.8</ele>
        <time>2022-10-23 10:53:21</time>
      </trkpt>
      <trkpt lat="41.14032" lon="1.30332">
        <ele>40.4</ele>
        <time>2022-10-23 10:53:26</time>
      </trkpt>
      <trkpt lat="41.14026" lon="1.30354">
        <ele>40.8</ele>
        <time>2022-10-23 10:53:32</time>
      </trkpt>
      <trkpt lat="41.14027" lon="1.30374">
        <ele>40.8</ele>
        <time>2022-10-23 10:53:36</time>
      </trkpt>
      <trkpt lat="41.14032" lon="1.30398">
        <ele>40.8</ele>
        <time>2022-10-23 10:53:41</time>
      </trkpt>
      <trkpt lat="41.14036" lon="1.30418">
        <ele>40.8</ele>
        <time>2022-10-23 10:53:45</time>
      </trkpt>
      <trkpt lat="41.14038" lon="1.30423">
        <ele>40.8</ele>
        <time>2022-10-23 10:53:46</time>
      </trkpt>
      <trkpt lat="41.14044" lon="1.30451">
        <ele>41</ele>
        <time>2022-10-23 10:53:51</time>
      </trkpt>
      <trkpt lat="41.14046" lon="1.30462">
        <ele>41</ele>
        <time>2022-10-23 10:53:53</time>
      </trkpt>
      <trkpt lat="41.14049" lon="1.30472">
        <ele>41</ele>
        <time>2022-10-23 10:53:55</time>
      </trkpt>
      <trkpt lat="41.14056" lon="1.30484">
        <ele>41.2</ele>
        <time>2022-10-23 10:53:58</time>
      </trkpt>
      <trkpt lat="41.14059" lon="1.30488">
        <ele>41.2</ele>
        <time>2022-10-23 10:53:59</time>
      </trkpt>
      <trkpt lat="41.14061" lon="1.30493">
        <ele>41.2</ele>
        <time>2022-10-23 10:54:00</time>
      </trkpt>
      <trkpt lat="41.14067" lon="1.30509">
        <ele>41.2</ele>
        <time>2022-10-23 10:54:03</time>
      </trkpt>
      <trkpt lat="41.14076" lon="1.30527">
        <ele>41.4</ele>
        <time>2022-10-23 10:54:07</time>
      </trkpt>
      <trkpt lat="41.14078" lon="1.30532">
        <ele>41.6</ele>
        <time>2022-10-23 10:54:08</time>
      </trkpt>
      <trkpt lat="41.14085" lon="1.30548">
        <ele>41.8</ele>
        <time>2022-10-23 10:54:11</time>
      </trkpt>
      <trkpt lat="41.1409" lon="1.30559">
        <ele>42</ele>
        <time>2022-10-23 10:54:13</time>
      </trkpt>
      <trkpt lat="41.14093" lon="1.30564">
        <ele>42</ele>
        <time>2022-10-23 10:54:14</time>
      </trkpt>
      <trkpt lat="41.14107" lon="1.3058">
        <ele>42.2</ele>
        <time>2022-10-23 10:54:18</time>
      </trkpt>
      <trkpt lat="41.14121" lon="1.30592">
        <ele>42.2</ele>
        <time>2022-10-23 10:54:22</time>
      </trkpt>
      <trkpt lat="41.1413" lon="1.30592">
        <ele>42.2</ele>
        <time>2022-10-23 10:54:24</time>
      </trkpt>
      <trkpt lat="41.14139" lon="1.30592">
        <ele>42.2</ele>
        <time>2022-10-23 10:54:26</time>
      </trkpt>
      <trkpt lat="41.14144" lon="1.30591">
        <ele>42</ele>
        <time>2022-10-23 10:54:27</time>
      </trkpt>
      <trkpt lat="41.14166" lon="1.30579">
        <ele>42</ele>
        <time>2022-10-23 10:54:32</time>
      </trkpt>
      <trkpt lat="41.14179" lon="1.30569">
        <ele>42</ele>
        <time>2022-10-23 10:54:35</time>
      </trkpt>
      <trkpt lat="41.1419" lon="1.30558">
        <ele>42.2</ele>
        <time>2022-10-23 10:54:38</time>
      </trkpt>
      <trkpt lat="41.14198" lon="1.30552">
        <ele>42.2</ele>
        <time>2022-10-23 10:54:40</time>
      </trkpt>
      <trkpt lat="41.14209" lon="1.30543">
        <ele>42.4</ele>
        <time>2022-10-23 10:54:43</time>
      </trkpt>
      <trkpt lat="41.14222" lon="1.30539">
        <ele>43</ele>
        <time>2022-10-23 10:54:46</time>
      </trkpt>
      <trkpt lat="41.14226" lon="1.30538">
        <ele>43</ele>
        <time>2022-10-23 10:54:47</time>
      </trkpt>
      <trkpt lat="41.14248" lon="1.30539">
        <ele>43.6</ele>
        <time>2022-10-23 10:54:52</time>
      </trkpt>
      <trkpt lat="41.14253" lon="1.30539">
        <ele>43.8</ele>
        <time>2022-10-23 10:54:53</time>
      </trkpt>
      <trkpt lat="41.14258" lon="1.30538">
        <ele>44</ele>
        <time>2022-10-23 10:54:54</time>
      </trkpt>
      <trkpt lat="41.14267" lon="1.30533">
        <ele>44</ele>
        <time>2022-10-23 10:54:56</time>
      </trkpt>
      <trkpt lat="41.14275" lon="1.30527">
        <ele>44.2</ele>
        <time>2022-10-23 10:54:58</time>
      </trkpt>
      <trkpt lat="41.14282" lon="1.30525">
        <ele>44.2</ele>
        <time>2022-10-23 10:55:00</time>
      </trkpt>
      <trkpt lat="41.14288" lon="1.30527">
        <ele>44.4</ele>
        <time>2022-10-23 10:55:03</time>
      </trkpt>
      <trkpt lat="41.14289" lon="1.3053">
        <ele>44.6</ele>
        <time>2022-10-23 10:55:05</time>
      </trkpt>
      <trkpt lat="41.14288" lon="1.30532">
        <ele>44.6</ele>
        <time>2022-10-23 10:55:06</time>
      </trkpt>
      <trkpt lat="41.14279" lon="1.30539">
        <ele>44.6</ele>
        <time>2022-10-23 10:55:10</time>
      </trkpt>
      <trkpt lat="41.14276" lon="1.30542">
        <ele>44.6</ele>
        <time>2022-10-23 10:55:11</time>
      </trkpt>
      <trkpt lat="41.14273" lon="1.30545">
        <ele>44.6</ele>
        <time>2022-10-23 10:55:12</time>
      </trkpt>
      <trkpt lat="41.14266" lon="1.30555">
        <ele>44.2</ele>
        <time>2022-10-23 10:55:15</time>
      </trkpt>
      <trkpt lat="41.14263" lon="1.30563">
        <ele>43.6</ele>
        <time>2022-10-23 10:55:18</time>
      </trkpt>
      <trkpt lat="41.1426" lon="1.30569">
        <ele>43</ele>
        <time>2022-10-23 10:55:20</time>
      </trkpt>
      <trkpt lat="41.14249" lon="1.30582">
        <ele>42.6</ele>
        <time>2022-10-23 10:55:24</time>
      </trkpt>
      <trkpt lat="41.14245" lon="1.30585">
        <ele>41.8</ele>
        <time>2022-10-23 10:55:25</time>
      </trkpt>
      <trkpt lat="41.14237" lon="1.30589">
        <ele>40.4</ele>
        <time>2022-10-23 10:55:27</time>
      </trkpt>
      <trkpt lat="41.14227" lon="1.30593">
        <ele>39.4</ele>
        <time>2022-10-23 10:55:29</time>
      </trkpt>
      <trkpt lat="41.14219" lon="1.30603">
        <ele>38</ele>
        <time>2022-10-23 10:55:31</time>
      </trkpt>
      <trkpt lat="41.14217" lon="1.30608">
        <ele>37.4</ele>
        <time>2022-10-23 10:55:32</time>
      </trkpt>
      <trkpt lat="41.14214" lon="1.30613">
        <ele>36.6</ele>
        <time>2022-10-23 10:55:33</time>
      </trkpt>
      <trkpt lat="41.14213" lon="1.30618">
        <ele>35.8</ele>
        <time>2022-10-23 10:55:34</time>
      </trkpt>
      <trkpt lat="41.14211" lon="1.30623">
        <ele>35.2</ele>
        <time>2022-10-23 10:55:35</time>
      </trkpt>
      <trkpt lat="41.14207" lon="1.30629">
        <ele>34.8</ele>
        <time>2022-10-23 10:55:36</time>
      </trkpt>
      <trkpt lat="41.142" lon="1.3064">
        <ele>34</ele>
        <time>2022-10-23 10:55:38</time>
      </trkpt>
      <trkpt lat="41.14192" lon="1.30649">
        <ele>33.6</ele>
        <time>2022-10-23 10:55:40</time>
      </trkpt>
      <trkpt lat="41.14184" lon="1.30652">
        <ele>33.2</ele>
        <time>2022-10-23 10:55:42</time>
      </trkpt>
      <trkpt lat="41.1418" lon="1.30655">
        <ele>32.6</ele>
        <time>2022-10-23 10:55:43</time>
      </trkpt>
      <trkpt lat="41.14176" lon="1.30659">
        <ele>32</ele>
        <time>2022-10-23 10:55:44</time>
      </trkpt>
      <trkpt lat="41.14172" lon="1.30663">
        <ele>31.6</ele>
        <time>2022-10-23 10:55:45</time>
      </trkpt>
      <trkpt lat="41.14163" lon="1.3067">
        <ele>31.2</ele>
        <time>2022-10-23 10:55:47</time>
      </trkpt>
      <trkpt lat="41.14158" lon="1.30674">
        <ele>31.2</ele>
        <time>2022-10-23 10:55:48</time>
      </trkpt>
      <trkpt lat="41.14139" lon="1.30683">
        <ele>31</ele>
        <time>2022-10-23 10:55:52</time>
      </trkpt>
      <trkpt lat="41.14124" lon="1.30687">
        <ele>31</ele>
        <time>2022-10-23 10:55:55</time>
      </trkpt>
      <trkpt lat="41.14114" lon="1.30687">
        <ele>31</ele>
        <time>2022-10-23 10:55:57</time>
      </trkpt>
      <trkpt lat="41.14109" lon="1.30687">
        <ele>31</ele>
        <time>2022-10-23 10:55:58</time>
      </trkpt>
      <trkpt lat="41.14095" lon="1.30685">
        <ele>30.8</ele>
        <time>2022-10-23 10:56:01</time>
      </trkpt>
      <trkpt lat="41.14083" lon="1.30678">
        <ele>31</ele>
        <time>2022-10-23 10:56:05</time>
      </trkpt>
      <trkpt lat="41.14069" lon="1.30668">
        <ele>31</ele>
        <time>2022-10-23 10:56:10</time>
      </trkpt>
      <trkpt lat="41.14055" lon="1.30658">
        <ele>31.4</ele>
        <time>2022-10-23 10:56:15</time>
      </trkpt>
      <trkpt lat="41.14053" lon="1.30656">
        <ele>31.6</ele>
        <time>2022-10-23 10:56:16</time>
      </trkpt>
      <trkpt lat="41.14046" lon="1.30645">
        <ele>31.8</ele>
        <time>2022-10-23 10:56:19</time>
      </trkpt>
      <trkpt lat="41.14035" lon="1.30632">
        <ele>32.4</ele>
        <time>2022-10-23 10:56:23</time>
      </trkpt>
      <trkpt lat="41.14033" lon="1.30628">
        <ele>32.4</ele>
        <time>2022-10-23 10:56:24</time>
      </trkpt>
      <trkpt lat="41.14018" lon="1.30603">
        <ele>32.4</ele>
        <time>2022-10-23 10:56:29</time>
      </trkpt>
      <trkpt lat="41.14014" lon="1.30598">
        <ele>32.4</ele>
        <time>2022-10-23 10:56:30</time>
      </trkpt>
      <trkpt lat="41.14006" lon="1.30593">
        <ele>32.6</ele>
        <time>2022-10-23 10:56:32</time>
      </trkpt>
      <trkpt lat="41.13996" lon="1.30584">
        <ele>32.6</ele>
        <time>2022-10-23 10:56:35</time>
      </trkpt>
      <trkpt lat="41.13993" lon="1.3058">
        <ele>32.6</ele>
        <time>2022-10-23 10:56:36</time>
      </trkpt>
      <trkpt lat="41.13989" lon="1.30576">
        <ele>32.8</ele>
        <time>2022-10-23 10:56:37</time>
      </trkpt>
      <trkpt lat="41.13978" lon="1.30565">
        <ele>33</ele>
        <time>2022-10-23 10:56:40</time>
      </trkpt>
      <trkpt lat="41.13972" lon="1.30559">
        <ele>33.2</ele>
        <time>2022-10-23 10:56:42</time>
      </trkpt>
      <trkpt lat="41.13964" lon="1.30555">
        <ele>33.2</ele>
        <time>2022-10-23 10:56:45</time>
      </trkpt>
      <trkpt lat="41.13963" lon="1.30555">
        <ele>33.2</ele>
        <time>2022-10-23 10:56:46</time>
      </trkpt>
      <trkpt lat="41.1396" lon="1.30565">
        <ele>33.2</ele>
        <time>2022-10-23 10:56:50</time>
      </trkpt>
      <trkpt lat="41.1396" lon="1.30568">
        <ele>33</ele>
        <time>2022-10-23 10:56:51</time>
      </trkpt>
      <trkpt lat="41.13956" lon="1.30573">
        <ele>32.6</ele>
        <time>2022-10-23 10:56:53</time>
      </trkpt>
      <trkpt lat="41.13947" lon="1.30573">
        <ele>32</ele>
        <time>2022-10-23 10:56:56</time>
      </trkpt>
      <trkpt lat="41.13941" lon="1.30574">
        <ele>31.6</ele>
        <time>2022-10-23 10:56:58</time>
      </trkpt>
      <trkpt lat="41.13936" lon="1.30579">
        <ele>31.2</ele>
        <time>2022-10-23 10:57:00</time>
      </trkpt>
      <trkpt lat="41.13934" lon="1.30591">
        <ele>30.4</ele>
        <time>2022-10-23 10:57:03</time>
      </trkpt>
      <trkpt lat="41.13933" lon="1.30596">
        <ele>29.8</ele>
        <time>2022-10-23 10:57:04</time>
      </trkpt>
      <trkpt lat="41.13932" lon="1.306">
        <ele>29.4</ele>
        <time>2022-10-23 10:57:05</time>
      </trkpt>
      <trkpt lat="41.1393" lon="1.30605">
        <ele>29</ele>
        <time>2022-10-23 10:57:06</time>
      </trkpt>
      <trkpt lat="41.13927" lon="1.30609">
        <ele>28.6</ele>
        <time>2022-10-23 10:57:07</time>
      </trkpt>
      <trkpt lat="41.13919" lon="1.30616">
        <ele>27.4</ele>
        <time>2022-10-23 10:57:09</time>
      </trkpt>
      <trkpt lat="41.13915" lon="1.30619">
        <ele>27</ele>
        <time>2022-10-23 10:57:10</time>
      </trkpt>
      <trkpt lat="41.13911" lon="1.30621">
        <ele>26.8</ele>
        <time>2022-10-23 10:57:11</time>
      </trkpt>
      <trkpt lat="41.13907" lon="1.30621">
        <ele>26.8</ele>
        <time>2022-10-23 10:57:12</time>
      </trkpt>
      <trkpt lat="41.139" lon="1.30619">
        <ele>26.4</ele>
        <time>2022-10-23 10:57:14</time>
      </trkpt>
      <trkpt lat="41.13897" lon="1.30617">
        <ele>26</ele>
        <time>2022-10-23 10:57:15</time>
      </trkpt>
      <trkpt lat="41.13891" lon="1.30615">
        <ele>25</ele>
        <time>2022-10-23 10:57:17</time>
      </trkpt>
      <trkpt lat="41.13887" lon="1.30613">
        <ele>24.4</ele>
        <time>2022-10-23 10:57:18</time>
      </trkpt>
      <trkpt lat="41.13878" lon="1.30613">
        <ele>23.6</ele>
        <time>2022-10-23 10:57:20</time>
      </trkpt>
      <trkpt lat="41.13867" lon="1.30617">
        <ele>23.2</ele>
        <time>2022-10-23 10:57:22</time>
      </trkpt>
      <trkpt lat="41.13855" lon="1.30622">
        <ele>22.6</ele>
        <time>2022-10-23 10:57:24</time>
      </trkpt>
      <trkpt lat="41.13848" lon="1.30625">
        <ele>22.2</ele>
        <time>2022-10-23 10:57:25</time>
      </trkpt>
      <trkpt lat="41.13842" lon="1.3063">
        <ele>21.6</ele>
        <time>2022-10-23 10:57:26</time>
      </trkpt>
      <trkpt lat="41.1383" lon="1.3064">
        <ele>20.6</ele>
        <time>2022-10-23 10:57:28</time>
      </trkpt>
      <trkpt lat="41.13817" lon="1.30652">
        <ele>19.4</ele>
        <time>2022-10-23 10:57:30</time>
      </trkpt>
      <trkpt lat="41.13798" lon="1.3067">
        <ele>18.2</ele>
        <time>2022-10-23 10:57:33</time>
      </trkpt>
      <trkpt lat="41.13785" lon="1.30681">
        <ele>17</ele>
        <time>2022-10-23 10:57:35</time>
      </trkpt>
      <trkpt lat="41.13779" lon="1.30685">
        <ele>16.2</ele>
        <time>2022-10-23 10:57:36</time>
      </trkpt>
      <trkpt lat="41.13772" lon="1.3069">
        <ele>15.8</ele>
        <time>2022-10-23 10:57:37</time>
      </trkpt>
      <trkpt lat="41.13758" lon="1.30698">
        <ele>14.8</ele>
        <time>2022-10-23 10:57:39</time>
      </trkpt>
      <trkpt lat="41.13734" lon="1.30714">
        <ele>13.6</ele>
        <time>2022-10-23 10:57:43</time>
      </trkpt>
      <trkpt lat="41.13724" lon="1.3072">
        <ele>13.6</ele>
        <time>2022-10-23 10:57:46</time>
      </trkpt>
      <trkpt lat="41.13721" lon="1.30721">
        <ele>13.6</ele>
        <time>2022-10-23 10:57:47</time>
      </trkpt>
      <trkpt lat="41.13717" lon="1.30721">
        <ele>13.6</ele>
        <time>2022-10-23 10:57:49</time>
      </trkpt>
      <trkpt lat="41.13716" lon="1.30721">
        <ele>13.8</ele>
        <time>2022-10-23 10:57:54</time>
      </trkpt>
      <trkpt lat="41.13715" lon="1.3072">
        <ele>14</ele>
        <time>2022-10-23 10:57:56</time>
      </trkpt>
      <trkpt lat="41.13712" lon="1.3072">
        <ele>14.2</ele>
        <time>2022-10-23 10:57:58</time>
      </trkpt>
      <trkpt lat="41.13712" lon="1.30721">
        <ele>14.2</ele>
        <time>2022-10-23 10:57:59</time>
      </trkpt>
      <trkpt lat="41.13711" lon="1.30721">
        <ele>14.2</ele>
        <time>2022-10-23 10:58:00</time>
      </trkpt>
      <trkpt lat="41.13711" lon="1.30721">
        <ele>14.2</ele>
        <time>2022-10-23 10:58:01</time>
      </trkpt>
      <trkpt lat="41.13709" lon="1.30723">
        <ele>14.8</ele>
        <time>2022-10-23 10:58:07</time>
      </trkpt>
      <trkpt lat="41.13707" lon="1.30726">
        <ele>15.4</ele>
        <time>2022-10-23 10:58:10</time>
      </trkpt>
      <trkpt lat="41.13707" lon="1.30728">
        <ele>15.8</ele>
        <time>2022-10-23 10:58:12</time>
      </trkpt>
      <trkpt lat="41.13707" lon="1.30729">
        <ele>16</ele>
        <time>2022-10-23 10:58:13</time>
      </trkpt>
      <trkpt lat="41.13708" lon="1.3073">
        <ele>16</ele>
        <time>2022-10-23 10:58:16</time>
      </trkpt>
      <trkpt lat="41.13712" lon="1.30735">
        <ele>16.2</ele>
        <time>2022-10-23 10:58:19</time>
      </trkpt>
      <trkpt lat="41.13724" lon="1.30753">
        <ele>16.2</ele>
        <time>2022-10-23 10:58:26</time>
      </trkpt>
      <trkpt lat="41.13742" lon="1.3078">
        <ele>16.4</ele>
        <time>2022-10-23 10:58:36</time>
      </trkpt>
      <trkpt lat="41.1375" lon="1.30793">
        <ele>16.6</ele>
        <time>2022-10-23 10:58:42</time>
      </trkpt>
      <trkpt lat="41.13751" lon="1.30794">
        <ele>16.8</ele>
        <time>2022-10-23 10:58:44</time>
      </trkpt>
      <trkpt lat="41.13751" lon="1.30794">
        <ele>16.8</ele>
        <time>2022-10-23 10:58:45</time>
      </trkpt>
      <trkpt lat="41.13754" lon="1.30797">
        <ele>16.8</ele>
        <time>2022-10-23 10:58:47</time>
      </trkpt>
      <trkpt lat="41.13755" lon="1.30799">
        <ele>16.8</ele>
        <time>2022-10-23 10:58:48</time>
      </trkpt>
      <trkpt lat="41.13765" lon="1.30815">
        <ele>17.2</ele>
        <time>2022-10-23 10:58:54</time>
      </trkpt>
      <trkpt lat="41.13761" lon="1.30815">
        <ele>17.4</ele>
        <time>2022-10-23 10:58:57</time>
      </trkpt>
      <trkpt lat="41.13758" lon="1.30811">
        <ele>17.4</ele>
        <time>2022-10-23 10:58:59</time>
      </trkpt>
      <trkpt lat="41.13755" lon="1.30804">
        <ele>17.4</ele>
        <time>2022-10-23 10:59:01</time>
      </trkpt>
      <trkpt lat="41.13751" lon="1.30799">
        <ele>17.4</ele>
        <time>2022-10-23 10:59:03</time>
      </trkpt>
      <trkpt lat="41.13747" lon="1.30798">
        <ele>17.4</ele>
        <time>2022-10-23 10:59:05</time>
      </trkpt>
      <trkpt lat="41.13741" lon="1.30806">
        <ele>17.4</ele>
        <time>2022-10-23 10:59:09</time>
      </trkpt>
      <trkpt lat="41.13736" lon="1.30814">
        <ele>17.4</ele>
        <time>2022-10-23 10:59:12</time>
      </trkpt>
      <trkpt lat="41.13732" lon="1.30819">
        <ele>17.4</ele>
        <time>2022-10-23 10:59:14</time>
      </trkpt>
      <trkpt lat="41.13729" lon="1.30825">
        <ele>17.4</ele>
        <time>2022-10-23 10:59:17</time>
      </trkpt>
      <trkpt lat="41.13729" lon="1.30828">
        <ele>17.4</ele>
        <time>2022-10-23 10:59:18</time>
      </trkpt>
      <trkpt lat="41.13728" lon="1.30838">
        <ele>17.8</ele>
        <time>2022-10-23 10:59:21</time>
      </trkpt>
      <trkpt lat="41.13726" lon="1.30844">
        <ele>18.2</ele>
        <time>2022-10-23 10:59:23</time>
      </trkpt>
      <trkpt lat="41.13725" lon="1.30853">
        <ele>18.8</ele>
        <time>2022-10-23 10:59:28</time>
      </trkpt>
      <trkpt lat="41.13725" lon="1.30855">
        <ele>19.4</ele>
        <time>2022-10-23 10:59:29</time>
      </trkpt>
      <trkpt lat="41.13727" lon="1.3086">
        <ele>20.2</ele>
        <time>2022-10-23 10:59:32</time>
      </trkpt>
      <trkpt lat="41.13728" lon="1.30863">
        <ele>20.4</ele>
        <time>2022-10-23 10:59:34</time>
      </trkpt>
      <trkpt lat="41.13726" lon="1.30871">
        <ele>21.6</ele>
        <time>2022-10-23 10:59:38</time>
      </trkpt>
      <trkpt lat="41.13725" lon="1.30873">
        <ele>22</ele>
        <time>2022-10-23 10:59:39</time>
      </trkpt>
      <trkpt lat="41.13724" lon="1.30879">
        <ele>22.8</ele>
        <time>2022-10-23 10:59:42</time>
      </trkpt>
      <trkpt lat="41.13723" lon="1.30884">
        <ele>23.4</ele>
        <time>2022-10-23 10:59:44</time>
      </trkpt>
      <trkpt lat="41.13723" lon="1.30892">
        <ele>24</ele>
        <time>2022-10-23 10:59:48</time>
      </trkpt>
      <trkpt lat="41.13722" lon="1.30897">
        <ele>24.2</ele>
        <time>2022-10-23 10:59:50</time>
      </trkpt>
      <trkpt lat="41.1372" lon="1.30911">
        <ele>25</ele>
        <time>2022-10-23 10:59:56</time>
      </trkpt>
      <trkpt lat="41.1372" lon="1.30915">
        <ele>25.8</ele>
        <time>2022-10-23 10:59:58</time>
      </trkpt>
      <trkpt lat="41.13719" lon="1.30924">
        <ele>26.2</ele>
        <time>2022-10-23 11:00:01</time>
      </trkpt>
      <trkpt lat="41.13719" lon="1.30931">
        <ele>26.8</ele>
        <time>2022-10-23 11:00:04</time>
      </trkpt>
      <trkpt lat="41.1372" lon="1.30935">
        <ele>27.2</ele>
        <time>2022-10-23 11:00:06</time>
      </trkpt>
      <trkpt lat="41.1372" lon="1.30938">
        <ele>27.8</ele>
        <time>2022-10-23 11:00:08</time>
      </trkpt>
      <trkpt lat="41.1372" lon="1.30943">
        <ele>28.4</ele>
        <time>2022-10-23 11:00:10</time>
      </trkpt>
      <trkpt lat="41.13718" lon="1.30958">
        <ele>29.4</ele>
        <time>2022-10-23 11:00:16</time>
      </trkpt>
      <trkpt lat="41.13718" lon="1.30961">
        <ele>29.6</ele>
        <time>2022-10-23 11:00:17</time>
      </trkpt>
      <trkpt lat="41.13718" lon="1.30963">
        <ele>29.8</ele>
        <time>2022-10-23 11:00:18</time>
      </trkpt>
      <trkpt lat="41.13716" lon="1.3097">
        <ele>30.4</ele>
        <time>2022-10-23 11:00:21</time>
      </trkpt>
      <trkpt lat="41.13715" lon="1.30972">
        <ele>30.6</ele>
        <time>2022-10-23 11:00:22</time>
      </trkpt>
      <trkpt lat="41.13715" lon="1.30979">
        <ele>31.2</ele>
        <time>2022-10-23 11:00:26</time>
      </trkpt>
      <trkpt lat="41.13715" lon="1.30981">
        <ele>31.2</ele>
        <time>2022-10-23 11:00:27</time>
      </trkpt>
      <trkpt lat="41.13714" lon="1.30984">
        <ele>31.4</ele>
        <time>2022-10-23 11:00:29</time>
      </trkpt>
      <trkpt lat="41.13714" lon="1.30986">
        <ele>31.6</ele>
        <time>2022-10-23 11:00:30</time>
      </trkpt>
      <trkpt lat="41.13713" lon="1.30991">
        <ele>31.8</ele>
        <time>2022-10-23 11:00:32</time>
      </trkpt>
      <trkpt lat="41.13712" lon="1.31004">
        <ele>32.8</ele>
        <time>2022-10-23 11:00:37</time>
      </trkpt>
      <trkpt lat="41.13711" lon="1.31007">
        <ele>32.8</ele>
        <time>2022-10-23 11:00:38</time>
      </trkpt>
      <trkpt lat="41.13709" lon="1.31023">
        <ele>33.8</ele>
        <time>2022-10-23 11:00:44</time>
      </trkpt>
      <trkpt lat="41.13707" lon="1.31026">
        <ele>34</ele>
        <time>2022-10-23 11:00:45</time>
      </trkpt>
      <trkpt lat="41.13705" lon="1.31027">
        <ele>34.2</ele>
        <time>2022-10-23 11:00:46</time>
      </trkpt>
      <trkpt lat="41.13699" lon="1.31031">
        <ele>34.6</ele>
        <time>2022-10-23 11:00:49</time>
      </trkpt>
      <trkpt lat="41.13697" lon="1.31032">
        <ele>34.8</ele>
        <time>2022-10-23 11:00:50</time>
      </trkpt>
      <trkpt lat="41.13693" lon="1.31034">
        <ele>35.2</ele>
        <time>2022-10-23 11:00:52</time>
      </trkpt>
      <trkpt lat="41.13691" lon="1.31037">
        <ele>35.8</ele>
        <time>2022-10-23 11:00:54</time>
      </trkpt>
      <trkpt lat="41.13686" lon="1.31042">
        <ele>36</ele>
        <time>2022-10-23 11:00:57</time>
      </trkpt>
      <trkpt lat="41.13684" lon="1.31047">
        <ele>36.2</ele>
        <time>2022-10-23 11:01:00</time>
      </trkpt>
      <trkpt lat="41.13683" lon="1.31049">
        <ele>36.4</ele>
        <time>2022-10-23 11:01:01</time>
      </trkpt>
      <trkpt lat="41.13678" lon="1.31055">
        <ele>36.8</ele>
        <time>2022-10-23 11:01:04</time>
      </trkpt>
      <trkpt lat="41.13676" lon="1.31057">
        <ele>37</ele>
        <time>2022-10-23 11:01:05</time>
      </trkpt>
      <trkpt lat="41.13673" lon="1.31062">
        <ele>37.2</ele>
        <time>2022-10-23 11:01:07</time>
      </trkpt>
      <trkpt lat="41.13667" lon="1.31072">
        <ele>38</ele>
        <time>2022-10-23 11:01:11</time>
      </trkpt>
      <trkpt lat="41.13664" lon="1.3108">
        <ele>38.4</ele>
        <time>2022-10-23 11:01:14</time>
      </trkpt>
      <trkpt lat="41.13654" lon="1.31093">
        <ele>38.8</ele>
        <time>2022-10-23 11:01:20</time>
      </trkpt>
      <trkpt lat="41.13645" lon="1.31101">
        <ele>38.8</ele>
        <time>2022-10-23 11:01:24</time>
      </trkpt>
      <trkpt lat="41.13642" lon="1.31104">
        <ele>38.8</ele>
        <time>2022-10-23 11:01:25</time>
      </trkpt>
      <trkpt lat="41.13638" lon="1.31106">
        <ele>38.8</ele>
        <time>2022-10-23 11:01:26</time>
      </trkpt>
      <trkpt lat="41.13628" lon="1.31106">
        <ele>38.2</ele>
        <time>2022-10-23 11:01:28</time>
      </trkpt>
      <trkpt lat="41.13624" lon="1.31107">
        <ele>37.8</ele>
        <time>2022-10-23 11:01:29</time>
      </trkpt>
      <trkpt lat="41.13614" lon="1.31108">
        <ele>36.8</ele>
        <time>2022-10-23 11:01:31</time>
      </trkpt>
      <trkpt lat="41.13608" lon="1.31111">
        <ele>35.2</ele>
        <time>2022-10-23 11:01:33</time>
      </trkpt>
      <trkpt lat="41.13606" lon="1.31113">
        <ele>34.6</ele>
        <time>2022-10-23 11:01:34</time>
      </trkpt>
      <trkpt lat="41.13603" lon="1.31118">
        <ele>34.2</ele>
        <time>2022-10-23 11:01:35</time>
      </trkpt>
      <trkpt lat="41.136" lon="1.31121">
        <ele>33.8</ele>
        <time>2022-10-23 11:01:36</time>
      </trkpt>
      <trkpt lat="41.13587" lon="1.31127">
        <ele>33.6</ele>
        <time>2022-10-23 11:01:39</time>
      </trkpt>
      <trkpt lat="41.13583" lon="1.31129">
        <ele>33.6</ele>
        <time>2022-10-23 11:01:40</time>
      </trkpt>
      <trkpt lat="41.13576" lon="1.31134">
        <ele>33</ele>
        <time>2022-10-23 11:01:42</time>
      </trkpt>
      <trkpt lat="41.13573" lon="1.31136">
        <ele>32.4</ele>
        <time>2022-10-23 11:01:43</time>
      </trkpt>
      <trkpt lat="41.13571" lon="1.31138">
        <ele>31.8</ele>
        <time>2022-10-23 11:01:44</time>
      </trkpt>
      <trkpt lat="41.13565" lon="1.31143">
        <ele>31.2</ele>
        <time>2022-10-23 11:01:46</time>
      </trkpt>
      <trkpt lat="41.13562" lon="1.31146">
        <ele>31</ele>
        <time>2022-10-23 11:01:47</time>
      </trkpt>
      <trkpt lat="41.1356" lon="1.31148">
        <ele>31</ele>
        <time>2022-10-23 11:01:48</time>
      </trkpt>
      <trkpt lat="41.13559" lon="1.31152">
        <ele>30.6</ele>
        <time>2022-10-23 11:01:49</time>
      </trkpt>
      <trkpt lat="41.13559" lon="1.31155">
        <ele>30.4</ele>
        <time>2022-10-23 11:01:50</time>
      </trkpt>
      <trkpt lat="41.13551" lon="1.31165">
        <ele>29.2</ele>
        <time>2022-10-23 11:01:53</time>
      </trkpt>
      <trkpt lat="41.13548" lon="1.31167">
        <ele>28.8</ele>
        <time>2022-10-23 11:01:54</time>
      </trkpt>
      <trkpt lat="41.13539" lon="1.31171">
        <ele>28</ele>
        <time>2022-10-23 11:01:56</time>
      </trkpt>
      <trkpt lat="41.13533" lon="1.31177">
        <ele>27.2</ele>
        <time>2022-10-23 11:01:58</time>
      </trkpt>
      <trkpt lat="41.1353" lon="1.31179">
        <ele>26.6</ele>
        <time>2022-10-23 11:01:59</time>
      </trkpt>
      <trkpt lat="41.13527" lon="1.31183">
        <ele>25.6</ele>
        <time>2022-10-23 11:02:01</time>
      </trkpt>
      <trkpt lat="41.13526" lon="1.31185">
        <ele>25.4</ele>
        <time>2022-10-23 11:02:02</time>
      </trkpt>
      <trkpt lat="41.13524" lon="1.31192">
        <ele>24.4</ele>
        <time>2022-10-23 11:02:05</time>
      </trkpt>
      <trkpt lat="41.13523" lon="1.31194">
        <ele>24.2</ele>
        <time>2022-10-23 11:02:06</time>
      </trkpt>
      <trkpt lat="41.13521" lon="1.31199">
        <ele>23.8</ele>
        <time>2022-10-23 11:02:08</time>
      </trkpt>
      <trkpt lat="41.13522" lon="1.31207">
        <ele>23</ele>
        <time>2022-10-23 11:02:10</time>
      </trkpt>
      <trkpt lat="41.13523" lon="1.31212">
        <ele>22.8</ele>
        <time>2022-10-23 11:02:11</time>
      </trkpt>
      <trkpt lat="41.13523" lon="1.31218">
        <ele>22.4</ele>
        <time>2022-10-23 11:02:12</time>
      </trkpt>
      <trkpt lat="41.13522" lon="1.31223">
        <ele>22</ele>
        <time>2022-10-23 11:02:13</time>
      </trkpt>
      <trkpt lat="41.1352" lon="1.31228">
        <ele>21.6</ele>
        <time>2022-10-23 11:02:14</time>
      </trkpt>
      <trkpt lat="41.13517" lon="1.31232">
        <ele>21.2</ele>
        <time>2022-10-23 11:02:15</time>
      </trkpt>
      <trkpt lat="41.13516" lon="1.31236">
        <ele>20.8</ele>
        <time>2022-10-23 11:02:16</time>
      </trkpt>
      <trkpt lat="41.13515" lon="1.3124">
        <ele>20.4</ele>
        <time>2022-10-23 11:02:17</time>
      </trkpt>
      <trkpt lat="41.13515" lon="1.31245">
        <ele>20.2</ele>
        <time>2022-10-23 11:02:18</time>
      </trkpt>
      <trkpt lat="41.1351" lon="1.31254">
        <ele>20.2</ele>
        <time>2022-10-23 11:02:21</time>
      </trkpt>
      <trkpt lat="41.13502" lon="1.31264">
        <ele>20</ele>
        <time>2022-10-23 11:02:24</time>
      </trkpt>
      <trkpt lat="41.13499" lon="1.31268">
        <ele>20</ele>
        <time>2022-10-23 11:02:25</time>
      </trkpt>
      <trkpt lat="41.13496" lon="1.3128">
        <ele>20</ele>
        <time>2022-10-23 11:02:28</time>
      </trkpt>
      <trkpt lat="41.13495" lon="1.31295">
        <ele>20.2</ele>
        <time>2022-10-23 11:02:32</time>
      </trkpt>
      <trkpt lat="41.13494" lon="1.31299">
        <ele>20.4</ele>
        <time>2022-10-23 11:02:33</time>
      </trkpt>
      <trkpt lat="41.13498" lon="1.31316">
        <ele>20.6</ele>
        <time>2022-10-23 11:02:38</time>
      </trkpt>
      <trkpt lat="41.135" lon="1.31326">
        <ele>20.6</ele>
        <time>2022-10-23 11:02:42</time>
      </trkpt>
      <trkpt lat="41.13501" lon="1.31328">
        <ele>20.6</ele>
        <time>2022-10-23 11:02:43</time>
      </trkpt>
      <trkpt lat="41.13505" lon="1.31339">
        <ele>21.2</ele>
        <time>2022-10-23 11:02:47</time>
      </trkpt>
      <trkpt lat="41.13507" lon="1.31342">
        <ele>21.4</ele>
        <time>2022-10-23 11:02:48</time>
      </trkpt>
      <trkpt lat="41.13511" lon="1.31349">
        <ele>21.6</ele>
        <time>2022-10-23 11:02:51</time>
      </trkpt>
      <trkpt lat="41.13518" lon="1.31365">
        <ele>22.2</ele>
        <time>2022-10-23 11:02:56</time>
      </trkpt>
      <trkpt lat="41.13519" lon="1.31368">
        <ele>22.6</ele>
        <time>2022-10-23 11:02:57</time>
      </trkpt>
      <trkpt lat="41.13524" lon="1.31374">
        <ele>23</ele>
        <time>2022-10-23 11:03:00</time>
      </trkpt>
      <trkpt lat="41.13527" lon="1.31378">
        <ele>23.2</ele>
        <time>2022-10-23 11:03:02</time>
      </trkpt>
      <trkpt lat="41.1353" lon="1.31381">
        <ele>23.6</ele>
        <time>2022-10-23 11:03:04</time>
      </trkpt>
      <trkpt lat="41.13536" lon="1.3139">
        <ele>24.6</ele>
        <time>2022-10-23 11:03:08</time>
      </trkpt>
      <trkpt lat="41.13537" lon="1.31392">
        <ele>24.8</ele>
        <time>2022-10-23 11:03:09</time>
      </trkpt>
      <trkpt lat="41.1354" lon="1.31399">
        <ele>25.6</ele>
        <time>2022-10-23 11:03:12</time>
      </trkpt>
      <trkpt lat="41.13541" lon="1.31401">
        <ele>25.8</ele>
        <time>2022-10-23 11:03:13</time>
      </trkpt>
      <trkpt lat="41.13549" lon="1.3141">
        <ele>26.6</ele>
        <time>2022-10-23 11:03:18</time>
      </trkpt>
      <trkpt lat="41.1356" lon="1.31425">
        <ele>27</ele>
        <time>2022-10-23 11:03:25</time>
      </trkpt>
      <trkpt lat="41.13561" lon="1.31427">
        <ele>27.2</ele>
        <time>2022-10-23 11:03:26</time>
      </trkpt>
      <trkpt lat="41.13566" lon="1.31436">
        <ele>27.8</ele>
        <time>2022-10-23 11:03:30</time>
      </trkpt>
      <trkpt lat="41.1357" lon="1.31443">
        <ele>28</ele>
        <time>2022-10-23 11:03:33</time>
      </trkpt>
      <trkpt lat="41.13573" lon="1.31451">
        <ele>28.2</ele>
        <time>2022-10-23 11:03:35</time>
      </trkpt>
      <trkpt lat="41.13578" lon="1.31469">
        <ele>28.2</ele>
        <time>2022-10-23 11:03:40</time>
      </trkpt>
      <trkpt lat="41.13576" lon="1.31476">
        <ele>28.2</ele>
        <time>2022-10-23 11:03:42</time>
      </trkpt>
      <trkpt lat="41.13572" lon="1.31486">
        <ele>28.2</ele>
        <time>2022-10-23 11:03:44</time>
      </trkpt>
      <trkpt lat="41.13569" lon="1.31499">
        <ele>28.2</ele>
        <time>2022-10-23 11:03:46</time>
      </trkpt>
      <trkpt lat="41.13569" lon="1.31514">
        <ele>28.2</ele>
        <time>2022-10-23 11:03:48</time>
      </trkpt>
      <trkpt lat="41.13573" lon="1.31536">
        <ele>27</ele>
        <time>2022-10-23 11:03:51</time>
      </trkpt>
      <trkpt lat="41.13573" lon="1.31544">
        <ele>26.4</ele>
        <time>2022-10-23 11:03:52</time>
      </trkpt>
      <trkpt lat="41.13573" lon="1.31551">
        <ele>25.8</ele>
        <time>2022-10-23 11:03:53</time>
      </trkpt>
      <trkpt lat="41.13575" lon="1.31575">
        <ele>24.8</ele>
        <time>2022-10-23 11:03:56</time>
      </trkpt>
      <trkpt lat="41.13576" lon="1.31583">
        <ele>24.6</ele>
        <time>2022-10-23 11:03:57</time>
      </trkpt>
      <trkpt lat="41.1358" lon="1.31606">
        <ele>24.4</ele>
        <time>2022-10-23 11:04:00</time>
      </trkpt>
      <trkpt lat="41.13583" lon="1.31628">
        <ele>23.6</ele>
        <time>2022-10-23 11:04:03</time>
      </trkpt>
      <trkpt lat="41.13585" lon="1.31643">
        <ele>23.2</ele>
        <time>2022-10-23 11:04:05</time>
      </trkpt>
      <trkpt lat="41.13584" lon="1.31657">
        <ele>23</ele>
        <time>2022-10-23 11:04:07</time>
      </trkpt>
      <trkpt lat="41.13588" lon="1.31671">
        <ele>23</ele>
        <time>2022-10-23 11:04:10</time>
      </trkpt>
      <trkpt lat="41.13591" lon="1.3168">
        <ele>23</ele>
        <time>2022-10-23 11:04:12</time>
      </trkpt>
      <trkpt lat="41.13592" lon="1.31686">
        <ele>23</ele>
        <time>2022-10-23 11:04:14</time>
      </trkpt>
      <trkpt lat="41.13593" lon="1.31699">
        <ele>23.2</ele>
        <time>2022-10-23 11:04:17</time>
      </trkpt>
      <trkpt lat="41.13597" lon="1.31708">
        <ele>24.2</ele>
        <time>2022-10-23 11:04:20</time>
      </trkpt>
      <trkpt lat="41.13598" lon="1.31711">
        <ele>24.6</ele>
        <time>2022-10-23 11:04:21</time>
      </trkpt>
      <trkpt lat="41.13601" lon="1.31722">
        <ele>25.2</ele>
        <time>2022-10-23 11:04:24</time>
      </trkpt>
      <trkpt lat="41.13601" lon="1.3173">
        <ele>25.6</ele>
        <time>2022-10-23 11:04:26</time>
      </trkpt>
      <trkpt lat="41.136" lon="1.31734">
        <ele>25.8</ele>
        <time>2022-10-23 11:04:27</time>
      </trkpt>
      <trkpt lat="41.13597" lon="1.31746">
        <ele>26.4</ele>
        <time>2022-10-23 11:04:30</time>
      </trkpt>
      <trkpt lat="41.13595" lon="1.31751">
        <ele>27</ele>
        <time>2022-10-23 11:04:31</time>
      </trkpt>
      <trkpt lat="41.13593" lon="1.31763">
        <ele>27.4</ele>
        <time>2022-10-23 11:04:34</time>
      </trkpt>
      <trkpt lat="41.13593" lon="1.31768">
        <ele>27.6</ele>
        <time>2022-10-23 11:04:35</time>
      </trkpt>
      <trkpt lat="41.13592" lon="1.31774">
        <ele>27.6</ele>
        <time>2022-10-23 11:04:36</time>
      </trkpt>
      <trkpt lat="41.13589" lon="1.31783">
        <ele>27.6</ele>
        <time>2022-10-23 11:04:38</time>
      </trkpt>
      <trkpt lat="41.13587" lon="1.31797">
        <ele>26.8</ele>
        <time>2022-10-23 11:04:42</time>
      </trkpt>
      <trkpt lat="41.13584" lon="1.31801">
        <ele>26.4</ele>
        <time>2022-10-23 11:04:43</time>
      </trkpt>
      <trkpt lat="41.13577" lon="1.31811">
        <ele>26.2</ele>
        <time>2022-10-23 11:04:47</time>
      </trkpt>
      <trkpt lat="41.13574" lon="1.31813">
        <ele>26.2</ele>
        <time>2022-10-23 11:04:48</time>
      </trkpt>
      <trkpt lat="41.13565" lon="1.31827">
        <ele>26.4</ele>
        <time>2022-10-23 11:04:52</time>
      </trkpt>
      <trkpt lat="41.13554" lon="1.31838">
        <ele>27.4</ele>
        <time>2022-10-23 11:04:57</time>
      </trkpt>
      <trkpt lat="41.13548" lon="1.31846">
        <ele>28.2</ele>
        <time>2022-10-23 11:05:00</time>
      </trkpt>
      <trkpt lat="41.13546" lon="1.31847">
        <ele>28.4</ele>
        <time>2022-10-23 11:05:01</time>
      </trkpt>
      <trkpt lat="41.13544" lon="1.31848">
        <ele>28.6</ele>
        <time>2022-10-23 11:05:02</time>
      </trkpt>
      <trkpt lat="41.13529" lon="1.31847">
        <ele>29</ele>
        <time>2022-10-23 11:05:06</time>
      </trkpt>
      <trkpt lat="41.13514" lon="1.31851">
        <ele>29</ele>
        <time>2022-10-23 11:05:10</time>
      </trkpt>
      <trkpt lat="41.13504" lon="1.31864">
        <ele>28.8</ele>
        <time>2022-10-23 11:05:14</time>
      </trkpt>
      <trkpt lat="41.13506" lon="1.31876">
        <ele>28</ele>
        <time>2022-10-23 11:05:17</time>
      </trkpt>
      <trkpt lat="41.13509" lon="1.31894">
        <ele>27</ele>
        <time>2022-10-23 11:05:21</time>
      </trkpt>
      <trkpt lat="41.1351" lon="1.31899">
        <ele>27</ele>
        <time>2022-10-23 11:05:22</time>
      </trkpt>
      <trkpt lat="41.13515" lon="1.31914">
        <ele>26.8</ele>
        <time>2022-10-23 11:05:25</time>
      </trkpt>
      <trkpt lat="41.13516" lon="1.31918">
        <ele>26.8</ele>
        <time>2022-10-23 11:05:26</time>
      </trkpt>
      <trkpt lat="41.13517" lon="1.31923">
        <ele>26.8</ele>
        <time>2022-10-23 11:05:27</time>
      </trkpt>
      <trkpt lat="41.13521" lon="1.31937">
        <ele>26.4</ele>
        <time>2022-10-23 11:05:30</time>
      </trkpt>
      <trkpt lat="41.13522" lon="1.31942">
        <ele>26.4</ele>
        <time>2022-10-23 11:05:31</time>
      </trkpt>
      <trkpt lat="41.13524" lon="1.31952">
        <ele>26.4</ele>
        <time>2022-10-23 11:05:33</time>
      </trkpt>
      <trkpt lat="41.13526" lon="1.31962">
        <ele>26.4</ele>
        <time>2022-10-23 11:05:35</time>
      </trkpt>
      <trkpt lat="41.1353" lon="1.31971">
        <ele>26.4</ele>
        <time>2022-10-23 11:05:37</time>
      </trkpt>
      <trkpt lat="41.13532" lon="1.31975">
        <ele>26.4</ele>
        <time>2022-10-23 11:05:38</time>
      </trkpt>
      <trkpt lat="41.13534" lon="1.31988">
        <ele>26.4</ele>
        <time>2022-10-23 11:05:41</time>
      </trkpt>
      <trkpt lat="41.13537" lon="1.32006">
        <ele>26.4</ele>
        <time>2022-10-23 11:05:45</time>
      </trkpt>
      <trkpt lat="41.13537" lon="1.32011">
        <ele>26.6</ele>
        <time>2022-10-23 11:05:46</time>
      </trkpt>
      <trkpt lat="41.13539" lon="1.32026">
        <ele>26.6</ele>
        <time>2022-10-23 11:05:49</time>
      </trkpt>
      <trkpt lat="41.13543" lon="1.32048">
        <ele>26.8</ele>
        <time>2022-10-23 11:05:53</time>
      </trkpt>
      <trkpt lat="41.13544" lon="1.32054">
        <ele>27</ele>
        <time>2022-10-23 11:05:54</time>
      </trkpt>
      <trkpt lat="41.13544" lon="1.32072">
        <ele>27.4</ele>
        <time>2022-10-23 11:05:57</time>
      </trkpt>
      <trkpt lat="41.13544" lon="1.32078">
        <ele>27.6</ele>
        <time>2022-10-23 11:05:58</time>
      </trkpt>
      <trkpt lat="41.13543" lon="1.32098">
        <ele>27.6</ele>
        <time>2022-10-23 11:06:02</time>
      </trkpt>
      <trkpt lat="41.13543" lon="1.32112">
        <ele>27.8</ele>
        <time>2022-10-23 11:06:05</time>
      </trkpt>
      <trkpt lat="41.1354" lon="1.32124">
        <ele>28</ele>
        <time>2022-10-23 11:06:08</time>
      </trkpt>
      <trkpt lat="41.1354" lon="1.32128">
        <ele>28.2</ele>
        <time>2022-10-23 11:06:09</time>
      </trkpt>
      <trkpt lat="41.13539" lon="1.32136">
        <ele>28.6</ele>
        <time>2022-10-23 11:06:11</time>
      </trkpt>
      <trkpt lat="41.13536" lon="1.32143">
        <ele>29.6</ele>
        <time>2022-10-23 11:06:13</time>
      </trkpt>
      <trkpt lat="41.13532" lon="1.3215">
        <ele>30.6</ele>
        <time>2022-10-23 11:06:15</time>
      </trkpt>
      <trkpt lat="41.13531" lon="1.32153">
        <ele>30.8</ele>
        <time>2022-10-23 11:06:16</time>
      </trkpt>
      <trkpt lat="41.1353" lon="1.32157">
        <ele>31.4</ele>
        <time>2022-10-23 11:06:17</time>
      </trkpt>
      <trkpt lat="41.1353" lon="1.32166">
        <ele>32.2</ele>
        <time>2022-10-23 11:06:19</time>
      </trkpt>
      <trkpt lat="41.13531" lon="1.32173">
        <ele>32.6</ele>
        <time>2022-10-23 11:06:21</time>
      </trkpt>
      <trkpt lat="41.13533" lon="1.32183">
        <ele>32.8</ele>
        <time>2022-10-23 11:06:24</time>
      </trkpt>
      <trkpt lat="41.13535" lon="1.32194">
        <ele>33.6</ele>
        <time>2022-10-23 11:06:27</time>
      </trkpt>
      <trkpt lat="41.13536" lon="1.32206">
        <ele>34.6</ele>
        <time>2022-10-23 11:06:30</time>
      </trkpt>
      <trkpt lat="41.13538" lon="1.32215">
        <ele>35</ele>
        <time>2022-10-23 11:06:33</time>
      </trkpt>
      <trkpt lat="41.13539" lon="1.3223">
        <ele>35.4</ele>
        <time>2022-10-23 11:06:38</time>
      </trkpt>
      <trkpt lat="41.1354" lon="1.32234">
        <ele>35.6</ele>
        <time>2022-10-23 11:06:39</time>
      </trkpt>
      <trkpt lat="41.13541" lon="1.32246">
        <ele>35.8</ele>
        <time>2022-10-23 11:06:43</time>
      </trkpt>
      <trkpt lat="41.13545" lon="1.32266">
        <ele>36</ele>
        <time>2022-10-23 11:06:49</time>
      </trkpt>
      <trkpt lat="41.13546" lon="1.32288">
        <ele>36</ele>
        <time>2022-10-23 11:06:54</time>
      </trkpt>
      <trkpt lat="41.13551" lon="1.32305">
        <ele>35.8</ele>
        <time>2022-10-23 11:06:57</time>
      </trkpt>
      <trkpt lat="41.13556" lon="1.32321">
        <ele>35.6</ele>
        <time>2022-10-23 11:07:00</time>
      </trkpt>
      <trkpt lat="41.13563" lon="1.32341">
        <ele>35.2</ele>
        <time>2022-10-23 11:07:04</time>
      </trkpt>
      <trkpt lat="41.13566" lon="1.32352">
        <ele>35.2</ele>
        <time>2022-10-23 11:07:06</time>
      </trkpt>
      <trkpt lat="41.13568" lon="1.32358">
        <ele>35</ele>
        <time>2022-10-23 11:07:07</time>
      </trkpt>
      <trkpt lat="41.13571" lon="1.32369">
        <ele>35</ele>
        <time>2022-10-23 11:07:09</time>
      </trkpt>
      <trkpt lat="41.13574" lon="1.3238">
        <ele>34.8</ele>
        <time>2022-10-23 11:07:11</time>
      </trkpt>
      <trkpt lat="41.13575" lon="1.32387">
        <ele>34.6</ele>
        <time>2022-10-23 11:07:12</time>
      </trkpt>
      <trkpt lat="41.13576" lon="1.32393">
        <ele>34.4</ele>
        <time>2022-10-23 11:07:13</time>
      </trkpt>
      <trkpt lat="41.13582" lon="1.32413">
        <ele>34</ele>
        <time>2022-10-23 11:07:16</time>
      </trkpt>
      <trkpt lat="41.13587" lon="1.32432">
        <ele>33.4</ele>
        <time>2022-10-23 11:07:19</time>
      </trkpt>
      <trkpt lat="41.13589" lon="1.32444">
        <ele>32.8</ele>
        <time>2022-10-23 11:07:21</time>
      </trkpt>
      <trkpt lat="41.13591" lon="1.32467">
        <ele>32.2</ele>
        <time>2022-10-23 11:07:25</time>
      </trkpt>
      <trkpt lat="41.13593" lon="1.32474">
        <ele>32.2</ele>
        <time>2022-10-23 11:07:26</time>
      </trkpt>
      <trkpt lat="41.13595" lon="1.32486">
        <ele>32.2</ele>
        <time>2022-10-23 11:07:28</time>
      </trkpt>
      <trkpt lat="41.13596" lon="1.32491">
        <ele>32.2</ele>
        <time>2022-10-23 11:07:29</time>
      </trkpt>
      <trkpt lat="41.13599" lon="1.32503">
        <ele>32</ele>
        <time>2022-10-23 11:07:31</time>
      </trkpt>
      <trkpt lat="41.13602" lon="1.32516">
        <ele>32</ele>
        <time>2022-10-23 11:07:33</time>
      </trkpt>
      <trkpt lat="41.13607" lon="1.32528">
        <ele>31.8</ele>
        <time>2022-10-23 11:07:35</time>
      </trkpt>
      <trkpt lat="41.13615" lon="1.3254">
        <ele>31.6</ele>
        <time>2022-10-23 11:07:37</time>
      </trkpt>
      <trkpt lat="41.13619" lon="1.32546">
        <ele>31.6</ele>
        <time>2022-10-23 11:07:38</time>
      </trkpt>
      <trkpt lat="41.13623" lon="1.32559">
        <ele>31.6</ele>
        <time>2022-10-23 11:07:40</time>
      </trkpt>
      <trkpt lat="41.13626" lon="1.3258">
        <ele>31.4</ele>
        <time>2022-10-23 11:07:43</time>
      </trkpt>
      <trkpt lat="41.13627" lon="1.32587">
        <ele>31.2</ele>
        <time>2022-10-23 11:07:44</time>
      </trkpt>
      <trkpt lat="41.13629" lon="1.32593">
        <ele>31</ele>
        <time>2022-10-23 11:07:45</time>
      </trkpt>
      <trkpt lat="41.13633" lon="1.32611">
        <ele>30.6</ele>
        <time>2022-10-23 11:07:48</time>
      </trkpt>
      <trkpt lat="41.13632" lon="1.32617">
        <ele>30.4</ele>
        <time>2022-10-23 11:07:49</time>
      </trkpt>
      <trkpt lat="41.13627" lon="1.32627">
        <ele>30.2</ele>
        <time>2022-10-23 11:07:51</time>
      </trkpt>
      <trkpt lat="41.13624" lon="1.32637">
        <ele>30</ele>
        <time>2022-10-23 11:07:53</time>
      </trkpt>
      <trkpt lat="41.13618" lon="1.32658">
        <ele>29.8</ele>
        <time>2022-10-23 11:07:57</time>
      </trkpt>
      <trkpt lat="41.13616" lon="1.32663">
        <ele>29.8</ele>
        <time>2022-10-23 11:07:58</time>
      </trkpt>
      <trkpt lat="41.13609" lon="1.32678">
        <ele>29.6</ele>
        <time>2022-10-23 11:08:01</time>
      </trkpt>
      <trkpt lat="41.13606" lon="1.32683">
        <ele>29.6</ele>
        <time>2022-10-23 11:08:02</time>
      </trkpt>
      <trkpt lat="41.13601" lon="1.32696">
        <ele>29.6</ele>
        <time>2022-10-23 11:08:04</time>
      </trkpt>
      <trkpt lat="41.13598" lon="1.32709">
        <ele>29.2</ele>
        <time>2022-10-23 11:08:06</time>
      </trkpt>
      <trkpt lat="41.13593" lon="1.32719">
        <ele>29</ele>
        <time>2022-10-23 11:08:08</time>
      </trkpt>
      <trkpt lat="41.13585" lon="1.32736">
        <ele>28.6</ele>
        <time>2022-10-23 11:08:11</time>
      </trkpt>
      <trkpt lat="41.13581" lon="1.32742">
        <ele>28.6</ele>
        <time>2022-10-23 11:08:12</time>
      </trkpt>
      <trkpt lat="41.13572" lon="1.32748">
        <ele>28.6</ele>
        <time>2022-10-23 11:08:14</time>
      </trkpt>
      <trkpt lat="41.13559" lon="1.32763">
        <ele>28.2</ele>
        <time>2022-10-23 11:08:18</time>
      </trkpt>
      <trkpt lat="41.13557" lon="1.32768">
        <ele>27.8</ele>
        <time>2022-10-23 11:08:19</time>
      </trkpt>
      <trkpt lat="41.13555" lon="1.32774">
        <ele>27.8</ele>
        <time>2022-10-23 11:08:20</time>
      </trkpt>
      <trkpt lat="41.13546" lon="1.32788">
        <ele>27.4</ele>
        <time>2022-10-23 11:08:23</time>
      </trkpt>
      <trkpt lat="41.13544" lon="1.328">
        <ele>27.2</ele>
        <time>2022-10-23 11:08:25</time>
      </trkpt>
      <trkpt lat="41.1354" lon="1.32812">
        <ele>26.8</ele>
        <time>2022-10-23 11:08:27</time>
      </trkpt>
      <trkpt lat="41.13528" lon="1.32823">
        <ele>26.2</ele>
        <time>2022-10-23 11:08:30</time>
      </trkpt>
      <trkpt lat="41.13524" lon="1.32826">
        <ele>25.8</ele>
        <time>2022-10-23 11:08:31</time>
      </trkpt>
      <trkpt lat="41.13521" lon="1.32833">
        <ele>25.4</ele>
        <time>2022-10-23 11:08:33</time>
      </trkpt>
      <trkpt lat="41.13521" lon="1.32837">
        <ele>25.2</ele>
        <time>2022-10-23 11:08:34</time>
      </trkpt>
      <trkpt lat="41.13522" lon="1.32842">
        <ele>24.8</ele>
        <time>2022-10-23 11:08:35</time>
      </trkpt>
      <trkpt lat="41.13522" lon="1.32847">
        <ele>24.6</ele>
        <time>2022-10-23 11:08:36</time>
      </trkpt>
      <trkpt lat="41.13523" lon="1.32852">
        <ele>24.4</ele>
        <time>2022-10-23 11:08:37</time>
      </trkpt>
      <trkpt lat="41.13525" lon="1.32862">
        <ele>23.2</ele>
        <time>2022-10-23 11:08:39</time>
      </trkpt>
      <trkpt lat="41.13526" lon="1.32871">
        <ele>22.8</ele>
        <time>2022-10-23 11:08:41</time>
      </trkpt>
      <trkpt lat="41.13527" lon="1.32882">
        <ele>22.6</ele>
        <time>2022-10-23 11:08:43</time>
      </trkpt>
      <trkpt lat="41.13529" lon="1.32906">
        <ele>22.4</ele>
        <time>2022-10-23 11:08:47</time>
      </trkpt>
      <trkpt lat="41.1353" lon="1.32919">
        <ele>22.4</ele>
        <time>2022-10-23 11:08:49</time>
      </trkpt>
      <trkpt lat="41.1353" lon="1.32932">
        <ele>22.2</ele>
        <time>2022-10-23 11:08:51</time>
      </trkpt>
      <trkpt lat="41.13527" lon="1.32954">
        <ele>22.2</ele>
        <time>2022-10-23 11:08:55</time>
      </trkpt>
      <trkpt lat="41.13524" lon="1.32957">
        <ele>22.2</ele>
        <time>2022-10-23 11:08:56</time>
      </trkpt>
      <trkpt lat="41.13517" lon="1.32962">
        <ele>22.2</ele>
        <time>2022-10-23 11:08:58</time>
      </trkpt>
      <trkpt lat="41.13513" lon="1.3297">
        <ele>22.2</ele>
        <time>2022-10-23 11:09:00</time>
      </trkpt>
      <trkpt lat="41.13502" lon="1.32983">
        <ele>21.8</ele>
        <time>2022-10-23 11:09:04</time>
      </trkpt>
      <trkpt lat="41.13497" lon="1.32989">
        <ele>21.2</ele>
        <time>2022-10-23 11:09:06</time>
      </trkpt>
      <trkpt lat="41.13494" lon="1.32998">
        <ele>20.2</ele>
        <time>2022-10-23 11:09:08</time>
      </trkpt>
      <trkpt lat="41.13495" lon="1.33002">
        <ele>19.8</ele>
        <time>2022-10-23 11:09:09</time>
      </trkpt>
      <trkpt lat="41.13496" lon="1.33014">
        <ele>19.4</ele>
        <time>2022-10-23 11:09:11</time>
      </trkpt>
      <trkpt lat="41.13497" lon="1.33021">
        <ele>19</ele>
        <time>2022-10-23 11:09:12</time>
      </trkpt>
      <trkpt lat="41.13499" lon="1.33027">
        <ele>18.8</ele>
        <time>2022-10-23 11:09:13</time>
      </trkpt>
      <trkpt lat="41.13501" lon="1.33034">
        <ele>18.6</ele>
        <time>2022-10-23 11:09:14</time>
      </trkpt>
      <trkpt lat="41.13505" lon="1.33046">
        <ele>17.8</ele>
        <time>2022-10-23 11:09:16</time>
      </trkpt>
      <trkpt lat="41.13506" lon="1.33053">
        <ele>17.6</ele>
        <time>2022-10-23 11:09:17</time>
      </trkpt>
      <trkpt lat="41.13509" lon="1.33066">
        <ele>17.4</ele>
        <time>2022-10-23 11:09:19</time>
      </trkpt>
      <trkpt lat="41.13511" lon="1.33087">
        <ele>17.4</ele>
        <time>2022-10-23 11:09:22</time>
      </trkpt>
      <trkpt lat="41.13513" lon="1.33101">
        <ele>17.4</ele>
        <time>2022-10-23 11:09:24</time>
      </trkpt>
      <trkpt lat="41.13515" lon="1.33123">
        <ele>17.2</ele>
        <time>2022-10-23 11:09:27</time>
      </trkpt>
      <trkpt lat="41.13517" lon="1.3313">
        <ele>17.2</ele>
        <time>2022-10-23 11:09:28</time>
      </trkpt>
      <trkpt lat="41.13523" lon="1.33151">
        <ele>16.8</ele>
        <time>2022-10-23 11:09:31</time>
      </trkpt>
      <trkpt lat="41.13525" lon="1.33158">
        <ele>16.8</ele>
        <time>2022-10-23 11:09:32</time>
      </trkpt>
      <trkpt lat="41.1353" lon="1.3317">
        <ele>16.4</ele>
        <time>2022-10-23 11:09:34</time>
      </trkpt>
      <trkpt lat="41.13532" lon="1.33197">
        <ele>15.8</ele>
        <time>2022-10-23 11:09:38</time>
      </trkpt>
      <trkpt lat="41.13531" lon="1.33211">
        <ele>15.8</ele>
        <time>2022-10-23 11:09:40</time>
      </trkpt>
      <trkpt lat="41.13526" lon="1.33234">
        <ele>15.6</ele>
        <time>2022-10-23 11:09:43</time>
      </trkpt>
      <trkpt lat="41.13524" lon="1.33249">
        <ele>15.2</ele>
        <time>2022-10-23 11:09:45</time>
      </trkpt>
      <trkpt lat="41.13523" lon="1.33273">
        <ele>14.6</ele>
        <time>2022-10-23 11:09:48</time>
      </trkpt>
      <trkpt lat="41.13524" lon="1.33294">
        <ele>14.4</ele>
        <time>2022-10-23 11:09:51</time>
      </trkpt>
      <trkpt lat="41.13524" lon="1.33301">
        <ele>14.2</ele>
        <time>2022-10-23 11:09:52</time>
      </trkpt>
      <trkpt lat="41.13522" lon="1.33315">
        <ele>14</ele>
        <time>2022-10-23 11:09:54</time>
      </trkpt>
      <trkpt lat="41.13522" lon="1.3335">
        <ele>13.6</ele>
        <time>2022-10-23 11:09:59</time>
      </trkpt>
      <trkpt lat="41.13523" lon="1.33356">
        <ele>13.4</ele>
        <time>2022-10-23 11:10:00</time>
      </trkpt>
      <trkpt lat="41.13521" lon="1.33371">
        <ele>13.2</ele>
        <time>2022-10-23 11:10:03</time>
      </trkpt>
      <trkpt lat="41.13516" lon="1.33393">
        <ele>12.6</ele>
        <time>2022-10-23 11:10:07</time>
      </trkpt>
      <trkpt lat="41.13517" lon="1.33399">
        <ele>12.4</ele>
        <time>2022-10-23 11:10:08</time>
      </trkpt>
      <trkpt lat="41.1352" lon="1.33414">
        <ele>12.4</ele>
        <time>2022-10-23 11:10:10</time>
      </trkpt>
      <trkpt lat="41.1352" lon="1.33422">
        <ele>12.2</ele>
        <time>2022-10-23 11:10:11</time>
      </trkpt>
      <trkpt lat="41.13525" lon="1.33444">
        <ele>11.6</ele>
        <time>2022-10-23 11:10:14</time>
      </trkpt>
      <trkpt lat="41.13525" lon="1.33452">
        <ele>11.2</ele>
        <time>2022-10-23 11:10:15</time>
      </trkpt>
      <trkpt lat="41.13526" lon="1.33469">
        <ele>10</ele>
        <time>2022-10-23 11:10:17</time>
      </trkpt>
      <trkpt lat="41.13527" lon="1.33478">
        <ele>9.2</ele>
        <time>2022-10-23 11:10:18</time>
      </trkpt>
      <trkpt lat="41.13529" lon="1.33485">
        <ele>8.8</ele>
        <time>2022-10-23 11:10:19</time>
      </trkpt>
      <trkpt lat="41.13533" lon="1.33491">
        <ele>8.6</ele>
        <time>2022-10-23 11:10:20</time>
      </trkpt>
      <trkpt lat="41.13541" lon="1.335">
        <ele>7.8</ele>
        <time>2022-10-23 11:10:22</time>
      </trkpt>
      <trkpt lat="41.13552" lon="1.33505">
        <ele>6.6</ele>
        <time>2022-10-23 11:10:24</time>
      </trkpt>
      <trkpt lat="41.13562" lon="1.33513">
        <ele>5.6</ele>
        <time>2022-10-23 11:10:26</time>
      </trkpt>
      <trkpt lat="41.13569" lon="1.33519">
        <ele>5.2</ele>
        <time>2022-10-23 11:10:28</time>
      </trkpt>
      <trkpt lat="41.13574" lon="1.33525">
        <ele>5</ele>
        <time>2022-10-23 11:10:30</time>
      </trkpt>
      <trkpt lat="41.13576" lon="1.3353">
        <ele>5</ele>
        <time>2022-10-23 11:10:32</time>
      </trkpt>
      <trkpt lat="41.13586" lon="1.33532">
        <ele>4.8</ele>
        <time>2022-10-23 11:10:36</time>
      </trkpt>
      <trkpt lat="41.13592" lon="1.33546">
        <ele>4.8</ele>
        <time>2022-10-23 11:10:39</time>
      </trkpt>
      <trkpt lat="41.13592" lon="1.33559">
        <ele>4.8</ele>
        <time>2022-10-23 11:10:41</time>
      </trkpt>
      <trkpt lat="41.13592" lon="1.33571">
        <ele>4.6</ele>
        <time>2022-10-23 11:10:43</time>
      </trkpt>
      <trkpt lat="41.13593" lon="1.33591">
        <ele>4.2</ele>
        <time>2022-10-23 11:10:46</time>
      </trkpt>
      <trkpt lat="41.13591" lon="1.33629">
        <ele>4</ele>
        <time>2022-10-23 11:10:52</time>
      </trkpt>
      <trkpt lat="41.13591" lon="1.33635">
        <ele>3.8</ele>
        <time>2022-10-23 11:10:53</time>
      </trkpt>
      <trkpt lat="41.13595" lon="1.3365">
        <ele>3.6</ele>
        <time>2022-10-23 11:10:56</time>
      </trkpt>
      <trkpt lat="41.13608" lon="1.33661">
        <ele>3.6</ele>
        <time>2022-10-23 11:11:00</time>
      </trkpt>
      <trkpt lat="41.13626" lon="1.3366">
        <ele>3.6</ele>
        <time>2022-10-23 11:11:05</time>
      </trkpt>
      <trkpt lat="41.1363" lon="1.33659">
        <ele>3.6</ele>
        <time>2022-10-23 11:11:06</time>
      </trkpt>
      <trkpt lat="41.13642" lon="1.33659">
        <ele>4</ele>
        <time>2022-10-23 11:11:10</time>
      </trkpt>
      <trkpt lat="41.13645" lon="1.3366">
        <ele>4</ele>
        <time>2022-10-23 11:11:11</time>
      </trkpt>
      <trkpt lat="41.13659" lon="1.33664">
        <ele>4</ele>
        <time>2022-10-23 11:11:14</time>
      </trkpt>
      <trkpt lat="41.13663" lon="1.3368">
        <ele>4.2</ele>
        <time>2022-10-23 11:11:18</time>
      </trkpt>
      <trkpt lat="41.13662" lon="1.33684">
        <ele>4.2</ele>
        <time>2022-10-23 11:11:19</time>
      </trkpt>
      <trkpt lat="41.13662" lon="1.33696">
        <ele>4.4</ele>
        <time>2022-10-23 11:11:22</time>
      </trkpt>
      <trkpt lat="41.13663" lon="1.33699">
        <ele>4.4</ele>
        <time>2022-10-23 11:11:23</time>
      </trkpt>
      <trkpt lat="41.13665" lon="1.33707">
        <ele>4.6</ele>
        <time>2022-10-23 11:11:26</time>
      </trkpt>
      <trkpt lat="41.13665" lon="1.33714">
        <ele>4.8</ele>
        <time>2022-10-23 11:11:28</time>
      </trkpt>
      <trkpt lat="41.13666" lon="1.33717">
        <ele>5</ele>
        <time>2022-10-23 11:11:29</time>
      </trkpt>
      <trkpt lat="41.13667" lon="1.33722">
        <ele>5.4</ele>
        <time>2022-10-23 11:11:31</time>
      </trkpt>
      <trkpt lat="41.13667" lon="1.33723">
        <ele>5.6</ele>
        <time>2022-10-23 11:11:32</time>
      </trkpt>
      <trkpt lat="41.13667" lon="1.33729">
        <ele>6.4</ele>
        <time>2022-10-23 11:11:34</time>
      </trkpt>
      <trkpt lat="41.13667" lon="1.33731">
        <ele>6.8</ele>
        <time>2022-10-23 11:11:35</time>
      </trkpt>
      <trkpt lat="41.13668" lon="1.33734">
        <ele>7</ele>
        <time>2022-10-23 11:11:36</time>
      </trkpt>
      <trkpt lat="41.1367" lon="1.3374">
        <ele>7.8</ele>
        <time>2022-10-23 11:11:38</time>
      </trkpt>
      <trkpt lat="41.13673" lon="1.33749">
        <ele>9</ele>
        <time>2022-10-23 11:11:41</time>
      </trkpt>
      <trkpt lat="41.13674" lon="1.33757">
        <ele>10</ele>
        <time>2022-10-23 11:11:44</time>
      </trkpt>
      <trkpt lat="41.13675" lon="1.3376">
        <ele>10.2</ele>
        <time>2022-10-23 11:11:45</time>
      </trkpt>
      <trkpt lat="41.13679" lon="1.3377">
        <ele>11</ele>
        <time>2022-10-23 11:11:49</time>
      </trkpt>
      <trkpt lat="41.13681" lon="1.33773">
        <ele>11.2</ele>
        <time>2022-10-23 11:11:50</time>
      </trkpt>
      <trkpt lat="41.13686" lon="1.33784">
        <ele>12</ele>
        <time>2022-10-23 11:11:54</time>
      </trkpt>
      <trkpt lat="41.13687" lon="1.33787">
        <ele>12.2</ele>
        <time>2022-10-23 11:11:55</time>
      </trkpt>
      <trkpt lat="41.13689" lon="1.33805">
        <ele>13.4</ele>
        <time>2022-10-23 11:12:00</time>
      </trkpt>
      <trkpt lat="41.13689" lon="1.33808">
        <ele>13.6</ele>
        <time>2022-10-23 11:12:01</time>
      </trkpt>
      <trkpt lat="41.1369" lon="1.33823">
        <ele>14.6</ele>
        <time>2022-10-23 11:12:05</time>
      </trkpt>
      <trkpt lat="41.1369" lon="1.33832">
        <ele>14.8</ele>
        <time>2022-10-23 11:12:07</time>
      </trkpt>
      <trkpt lat="41.13696" lon="1.33862">
        <ele>14.8</ele>
        <time>2022-10-23 11:12:14</time>
      </trkpt>
      <trkpt lat="41.13701" lon="1.33893">
        <ele>14.6</ele>
        <time>2022-10-23 11:12:18</time>
      </trkpt>
      <trkpt lat="41.13701" lon="1.33901">
        <ele>14.6</ele>
        <time>2022-10-23 11:12:19</time>
      </trkpt>
      <trkpt lat="41.13703" lon="1.33919">
        <ele>14.4</ele>
        <time>2022-10-23 11:12:21</time>
      </trkpt>
      <trkpt lat="41.13704" lon="1.33926">
        <ele>14</ele>
        <time>2022-10-23 11:12:22</time>
      </trkpt>
      <trkpt lat="41.13705" lon="1.33933">
        <ele>13.4</ele>
        <time>2022-10-23 11:12:23</time>
      </trkpt>
      <trkpt lat="41.13708" lon="1.33951">
        <ele>12.2</ele>
        <time>2022-10-23 11:12:26</time>
      </trkpt>
      <trkpt lat="41.13714" lon="1.33995">
        <ele>12.2</ele>
        <time>2022-10-23 11:12:34</time>
      </trkpt>
      <trkpt lat="41.13725" lon="1.34032">
        <ele>13.2</ele>
        <time>2022-10-23 11:12:41</time>
      </trkpt>
      <trkpt lat="41.13732" lon="1.34052">
        <ele>13.2</ele>
        <time>2022-10-23 11:12:44</time>
      </trkpt>
      <trkpt lat="41.1374" lon="1.34079">
        <ele>13.2</ele>
        <time>2022-10-23 11:12:48</time>
      </trkpt>
      <trkpt lat="41.13752" lon="1.34131">
        <ele>12.8</ele>
        <time>2022-10-23 11:12:55</time>
      </trkpt>
      <trkpt lat="41.13756" lon="1.34154">
        <ele>12</ele>
        <time>2022-10-23 11:12:58</time>
      </trkpt>
      <trkpt lat="41.13758" lon="1.34161">
        <ele>12</ele>
        <time>2022-10-23 11:12:59</time>
      </trkpt>
      <trkpt lat="41.13764" lon="1.34176">
        <ele>11.6</ele>
        <time>2022-10-23 11:13:01</time>
      </trkpt>
      <trkpt lat="41.13783" lon="1.34225">
        <ele>11</ele>
        <time>2022-10-23 11:13:07</time>
      </trkpt>
      <trkpt lat="41.13786" lon="1.34233">
        <ele>11</ele>
        <time>2022-10-23 11:13:08</time>
      </trkpt>
      <trkpt lat="41.13802" lon="1.34285">
        <ele>10.4</ele>
        <time>2022-10-23 11:13:15</time>
      </trkpt>
      <trkpt lat="41.13807" lon="1.34299">
        <ele>10.4</ele>
        <time>2022-10-23 11:13:17</time>
      </trkpt>
      <trkpt lat="41.13812" lon="1.3431">
        <ele>10.4</ele>
        <time>2022-10-23 11:13:19</time>
      </trkpt>
      <trkpt lat="41.13817" lon="1.34319">
        <ele>10.4</ele>
        <time>2022-10-23 11:13:21</time>
      </trkpt>
      <trkpt lat="41.13824" lon="1.34337">
        <ele>10.6</ele>
        <time>2022-10-23 11:13:25</time>
      </trkpt>
      <trkpt lat="41.13827" lon="1.34341">
        <ele>11</ele>
        <time>2022-10-23 11:13:26</time>
      </trkpt>
      <trkpt lat="41.13834" lon="1.34352">
        <ele>12.2</ele>
        <time>2022-10-23 11:13:29</time>
      </trkpt>
      <trkpt lat="41.1384" lon="1.34365">
        <ele>13.2</ele>
        <time>2022-10-23 11:13:32</time>
      </trkpt>
      <trkpt lat="41.13843" lon="1.3437">
        <ele>13.4</ele>
        <time>2022-10-23 11:13:33</time>
      </trkpt>
      <trkpt lat="41.13845" lon="1.34374">
        <ele>13.6</ele>
        <time>2022-10-23 11:13:34</time>
      </trkpt>
      <trkpt lat="41.13853" lon="1.34392">
        <ele>14.2</ele>
        <time>2022-10-23 11:13:38</time>
      </trkpt>
      <trkpt lat="41.13864" lon="1.34413">
        <ele>14.4</ele>
        <time>2022-10-23 11:13:43</time>
      </trkpt>
      <trkpt lat="41.13872" lon="1.34424">
        <ele>14.8</ele>
        <time>2022-10-23 11:13:46</time>
      </trkpt>
      <trkpt lat="41.13889" lon="1.3446">
        <ele>15.4</ele>
        <time>2022-10-23 11:13:54</time>
      </trkpt>
      <trkpt lat="41.13896" lon="1.34473">
        <ele>15.8</ele>
        <time>2022-10-23 11:13:57</time>
      </trkpt>
      <trkpt lat="41.13906" lon="1.34487">
        <ele>16.6</ele>
        <time>2022-10-23 11:14:01</time>
      </trkpt>
      <trkpt lat="41.13908" lon="1.3449">
        <ele>16.8</ele>
        <time>2022-10-23 11:14:02</time>
      </trkpt>
      <trkpt lat="41.13915" lon="1.34509">
        <ele>17.6</ele>
        <time>2022-10-23 11:14:07</time>
      </trkpt>
      <trkpt lat="41.13915" lon="1.34511">
        <ele>17.6</ele>
        <time>2022-10-23 11:14:08</time>
      </trkpt>
      <trkpt lat="41.13916" lon="1.34512">
        <ele>17.8</ele>
        <time>2022-10-23 11:14:09</time>
      </trkpt>
      <trkpt lat="41.13917" lon="1.34513">
        <ele>17.8</ele>
        <time>2022-10-23 11:14:10</time>
      </trkpt>
      <trkpt lat="41.13919" lon="1.34513">
        <ele>18</ele>
        <time>2022-10-23 11:14:11</time>
      </trkpt>
      <trkpt lat="41.13924" lon="1.34518">
        <ele>18.6</ele>
        <time>2022-10-23 11:14:15</time>
      </trkpt>
      <trkpt lat="41.13924" lon="1.34522">
        <ele>19.2</ele>
        <time>2022-10-23 11:14:16</time>
      </trkpt>
      <trkpt lat="41.13924" lon="1.34531">
        <ele>19.8</ele>
        <time>2022-10-23 11:14:18</time>
      </trkpt>
      <trkpt lat="41.13929" lon="1.34551">
        <ele>20</ele>
        <time>2022-10-23 11:14:22</time>
      </trkpt>
      <trkpt lat="41.13929" lon="1.34558">
        <ele>20</ele>
        <time>2022-10-23 11:14:23</time>
      </trkpt>
      <trkpt lat="41.1393" lon="1.34594">
        <ele>19.8</ele>
        <time>2022-10-23 11:14:28</time>
      </trkpt>
      <trkpt lat="41.13931" lon="1.34624">
        <ele>18.2</ele>
        <time>2022-10-23 11:14:32</time>
      </trkpt>
      <trkpt lat="41.13931" lon="1.34632">
        <ele>17.8</ele>
        <time>2022-10-23 11:14:33</time>
      </trkpt>
      <trkpt lat="41.13932" lon="1.3464">
        <ele>17.6</ele>
        <time>2022-10-23 11:14:34</time>
      </trkpt>
      <trkpt lat="41.13936" lon="1.34656">
        <ele>17.2</ele>
        <time>2022-10-23 11:14:36</time>
      </trkpt>
      <trkpt lat="41.13937" lon="1.34665">
        <ele>17</ele>
        <time>2022-10-23 11:14:37</time>
      </trkpt>
      <trkpt lat="41.13938" lon="1.34682">
        <ele>16.6</ele>
        <time>2022-10-23 11:14:39</time>
      </trkpt>
      <trkpt lat="41.13942" lon="1.34716">
        <ele>15.6</ele>
        <time>2022-10-23 11:14:43</time>
      </trkpt>
      <trkpt lat="41.13943" lon="1.34724">
        <ele>15.2</ele>
        <time>2022-10-23 11:14:44</time>
      </trkpt>
      <trkpt lat="41.13942" lon="1.34731">
        <ele>15</ele>
        <time>2022-10-23 11:14:45</time>
      </trkpt>
      <trkpt lat="41.13943" lon="1.34739">
        <ele>14.6</ele>
        <time>2022-10-23 11:14:46</time>
      </trkpt>
      <trkpt lat="41.13947" lon="1.34761">
        <ele>13.8</ele>
        <time>2022-10-23 11:14:49</time>
      </trkpt>
      <trkpt lat="41.13951" lon="1.34775">
        <ele>13.6</ele>
        <time>2022-10-23 11:14:51</time>
      </trkpt>
      <trkpt lat="41.13955" lon="1.34788">
        <ele>13.4</ele>
        <time>2022-10-23 11:14:53</time>
      </trkpt>
      <trkpt lat="41.13961" lon="1.34801">
        <ele>12.8</ele>
        <time>2022-10-23 11:14:55</time>
      </trkpt>
      <trkpt lat="41.13964" lon="1.34807">
        <ele>12.6</ele>
        <time>2022-10-23 11:14:56</time>
      </trkpt>
      <trkpt lat="41.13967" lon="1.34812">
        <ele>12.6</ele>
        <time>2022-10-23 11:14:57</time>
      </trkpt>
      <trkpt lat="41.1397" lon="1.34816">
        <ele>12.4</ele>
        <time>2022-10-23 11:14:58</time>
      </trkpt>
      <trkpt lat="41.13978" lon="1.34823">
        <ele>12.4</ele>
        <time>2022-10-23 11:15:00</time>
      </trkpt>
      <trkpt lat="41.13982" lon="1.34833">
        <ele>12.2</ele>
        <time>2022-10-23 11:15:02</time>
      </trkpt>
      <trkpt lat="41.13983" lon="1.34838">
        <ele>12</ele>
        <time>2022-10-23 11:15:03</time>
      </trkpt>
      <trkpt lat="41.13983" lon="1.34849">
        <ele>12</ele>
        <time>2022-10-23 11:15:05</time>
      </trkpt>
      <trkpt lat="41.13987" lon="1.34858">
        <ele>11.6</ele>
        <time>2022-10-23 11:15:07</time>
      </trkpt>
      <trkpt lat="41.13989" lon="1.34863">
        <ele>11.4</ele>
        <time>2022-10-23 11:15:08</time>
      </trkpt>
      <trkpt lat="41.13992" lon="1.34867">
        <ele>11.2</ele>
        <time>2022-10-23 11:15:09</time>
      </trkpt>
      <trkpt lat="41.14003" lon="1.34885">
        <ele>10.6</ele>
        <time>2022-10-23 11:15:13</time>
      </trkpt>
      <trkpt lat="41.14008" lon="1.34895">
        <ele>10.4</ele>
        <time>2022-10-23 11:15:15</time>
      </trkpt>
      <trkpt lat="41.14013" lon="1.34905">
        <ele>10.2</ele>
        <time>2022-10-23 11:15:17</time>
      </trkpt>
      <trkpt lat="41.14023" lon="1.34918">
        <ele>10</ele>
        <time>2022-10-23 11:15:20</time>
      </trkpt>
      <trkpt lat="41.14047" lon="1.34949">
        <ele>9.6</ele>
        <time>2022-10-23 11:15:27</time>
      </trkpt>
      <trkpt lat="41.14053" lon="1.34957">
        <ele>9.6</ele>
        <time>2022-10-23 11:15:29</time>
      </trkpt>
      <trkpt lat="41.14066" lon="1.34967">
        <ele>9.6</ele>
        <time>2022-10-23 11:15:32</time>
      </trkpt>
      <trkpt lat="41.14079" lon="1.34979">
        <ele>9.6</ele>
        <time>2022-10-23 11:15:35</time>
      </trkpt>
      <trkpt lat="41.14087" lon="1.34989">
        <ele>9.4</ele>
        <time>2022-10-23 11:15:37</time>
      </trkpt>
      <trkpt lat="41.14104" lon="1.35005">
        <ele>9.2</ele>
        <time>2022-10-23 11:15:41</time>
      </trkpt>
      <trkpt lat="41.14111" lon="1.35012">
        <ele>8.6</ele>
        <time>2022-10-23 11:15:43</time>
      </trkpt>
      <trkpt lat="41.14115" lon="1.35015">
        <ele>8.2</ele>
        <time>2022-10-23 11:15:44</time>
      </trkpt>
      <trkpt lat="41.14128" lon="1.35022">
        <ele>7.6</ele>
        <time>2022-10-23 11:15:48</time>
      </trkpt>
      <trkpt lat="41.1413" lon="1.35022">
        <ele>7.6</ele>
        <time>2022-10-23 11:15:49</time>
      </trkpt>
      <trkpt lat="41.14142" lon="1.35028">
        <ele>7.4</ele>
        <time>2022-10-23 11:15:54</time>
      </trkpt>
      <trkpt lat="41.14152" lon="1.35036">
        <ele>7.4</ele>
        <time>2022-10-23 11:15:58</time>
      </trkpt>
      <trkpt lat="41.14155" lon="1.35038">
        <ele>7.2</ele>
        <time>2022-10-23 11:15:59</time>
      </trkpt>
      <trkpt lat="41.14158" lon="1.3504">
        <ele>7.2</ele>
        <time>2022-10-23 11:16:00</time>
      </trkpt>
      <trkpt lat="41.14168" lon="1.35043">
        <ele>6.8</ele>
        <time>2022-10-23 11:16:03</time>
      </trkpt>
      <trkpt lat="41.14176" lon="1.35047">
        <ele>6.8</ele>
        <time>2022-10-23 11:16:05</time>
      </trkpt>
      <trkpt lat="41.14196" lon="1.35056">
        <ele>6.6</ele>
        <time>2022-10-23 11:16:10</time>
      </trkpt>
      <trkpt lat="41.14203" lon="1.35064">
        <ele>6.6</ele>
        <time>2022-10-23 11:16:13</time>
      </trkpt>
      <trkpt lat="41.14204" lon="1.35087">
        <ele>6.4</ele>
        <time>2022-10-23 11:16:18</time>
      </trkpt>
      <trkpt lat="41.14204" lon="1.35099">
        <ele>6.4</ele>
        <time>2022-10-23 11:16:21</time>
      </trkpt>
      <trkpt lat="41.14205" lon="1.35104">
        <ele>6.4</ele>
        <time>2022-10-23 11:16:22</time>
      </trkpt>
      <trkpt lat="41.14214" lon="1.35118">
        <ele>6.4</ele>
        <time>2022-10-23 11:16:26</time>
      </trkpt>
      <trkpt lat="41.14216" lon="1.35121">
        <ele>6.4</ele>
        <time>2022-10-23 11:16:27</time>
      </trkpt>
      <trkpt lat="41.14222" lon="1.35132">
        <ele>6.4</ele>
        <time>2022-10-23 11:16:30</time>
      </trkpt>
      <trkpt lat="41.14223" lon="1.35136">
        <ele>6.4</ele>
        <time>2022-10-23 11:16:31</time>
      </trkpt>
      <trkpt lat="41.14226" lon="1.35146">
        <ele>7</ele>
        <time>2022-10-23 11:16:33</time>
      </trkpt>
      <trkpt lat="41.14227" lon="1.35151">
        <ele>7.4</ele>
        <time>2022-10-23 11:16:34</time>
      </trkpt>
      <trkpt lat="41.1423" lon="1.35159">
        <ele>8.2</ele>
        <time>2022-10-23 11:16:36</time>
      </trkpt>
      <trkpt lat="41.14242" lon="1.3517">
        <ele>8.6</ele>
        <time>2022-10-23 11:16:39</time>
      </trkpt>
      <trkpt lat="41.14247" lon="1.35173">
        <ele>8.6</ele>
        <time>2022-10-23 11:16:40</time>
      </trkpt>
      <trkpt lat="41.14252" lon="1.35177">
        <ele>8.6</ele>
        <time>2022-10-23 11:16:41</time>
      </trkpt>
      <trkpt lat="41.14263" lon="1.35193">
        <ele>8.6</ele>
        <time>2022-10-23 11:16:44</time>
      </trkpt>
      <trkpt lat="41.14267" lon="1.35199">
        <ele>8.4</ele>
        <time>2022-10-23 11:16:45</time>
      </trkpt>
      <trkpt lat="41.14285" lon="1.35226">
        <ele>7.4</ele>
        <time>2022-10-23 11:16:50</time>
      </trkpt>
      <trkpt lat="41.14289" lon="1.35231">
        <ele>7.4</ele>
        <time>2022-10-23 11:16:51</time>
      </trkpt>
      <trkpt lat="41.14299" lon="1.35247">
        <ele>7.4</ele>
        <time>2022-10-23 11:16:54</time>
      </trkpt>
      <trkpt lat="41.14308" lon="1.35264">
        <ele>7.4</ele>
        <time>2022-10-23 11:16:57</time>
      </trkpt>
      <trkpt lat="41.14316" lon="1.35281">
        <ele>7.4</ele>
        <time>2022-10-23 11:17:00</time>
      </trkpt>
      <trkpt lat="41.14318" lon="1.35294">
        <ele>7.4</ele>
        <time>2022-10-23 11:17:02</time>
      </trkpt>
      <trkpt lat="41.14316" lon="1.35322">
        <ele>7.6</ele>
        <time>2022-10-23 11:17:07</time>
      </trkpt>
      <trkpt lat="41.14314" lon="1.35328">
        <ele>7.6</ele>
        <time>2022-10-23 11:17:08</time>
      </trkpt>
      <trkpt lat="41.14312" lon="1.35334">
        <ele>7.8</ele>
        <time>2022-10-23 11:17:09</time>
      </trkpt>
      <trkpt lat="41.14305" lon="1.35348">
        <ele>8</ele>
        <time>2022-10-23 11:17:12</time>
      </trkpt>
      <trkpt lat="41.14289" lon="1.35369">
        <ele>8</ele>
        <time>2022-10-23 11:17:17</time>
      </trkpt>
      <trkpt lat="41.14286" lon="1.35373">
        <ele>8</ele>
        <time>2022-10-23 11:17:18</time>
      </trkpt>
      <trkpt lat="41.14283" lon="1.35378">
        <ele>8</ele>
        <time>2022-10-23 11:17:19</time>
      </trkpt>
      <trkpt lat="41.14277" lon="1.35393">
        <ele>8</ele>
        <time>2022-10-23 11:17:22</time>
      </trkpt>
      <trkpt lat="41.14268" lon="1.35409">
        <ele>8</ele>
        <time>2022-10-23 11:17:25</time>
      </trkpt>
      <trkpt lat="41.14257" lon="1.35432">
        <ele>7.6</ele>
        <time>2022-10-23 11:17:29</time>
      </trkpt>
      <trkpt lat="41.14253" lon="1.35438">
        <ele>7.6</ele>
        <time>2022-10-23 11:17:30</time>
      </trkpt>
      <trkpt lat="41.14251" lon="1.35445">
        <ele>7.6</ele>
        <time>2022-10-23 11:17:31</time>
      </trkpt>
      <trkpt lat="41.14248" lon="1.35465">
        <ele>7</ele>
        <time>2022-10-23 11:17:34</time>
      </trkpt>
      <trkpt lat="41.14248" lon="1.35473">
        <ele>7</ele>
        <time>2022-10-23 11:17:35</time>
      </trkpt>
      <trkpt lat="41.14255" lon="1.35517">
        <ele>6.4</ele>
        <time>2022-10-23 11:17:41</time>
      </trkpt>
      <trkpt lat="41.14263" lon="1.35546">
        <ele>6.2</ele>
        <time>2022-10-23 11:17:45</time>
      </trkpt>
      <trkpt lat="41.1427" lon="1.35558">
        <ele>6</ele>
        <time>2022-10-23 11:17:47</time>
      </trkpt>
      <trkpt lat="41.14284" lon="1.35571">
        <ele>6</ele>
        <time>2022-10-23 11:17:50</time>
      </trkpt>
      <trkpt lat="41.14293" lon="1.35578">
        <ele>6</ele>
        <time>2022-10-23 11:17:52</time>
      </trkpt>
      <trkpt lat="41.14306" lon="1.35587">
        <ele>6</ele>
        <time>2022-10-23 11:17:55</time>
      </trkpt>
      <trkpt lat="41.1432" lon="1.35594">
        <ele>6</ele>
        <time>2022-10-23 11:17:58</time>
      </trkpt>
      <trkpt lat="41.14342" lon="1.35598">
        <ele>6.2</ele>
        <time>2022-10-23 11:18:03</time>
      </trkpt>
      <trkpt lat="41.1435" lon="1.35605">
        <ele>6.4</ele>
        <time>2022-10-23 11:18:06</time>
      </trkpt>
      <trkpt lat="41.14353" lon="1.35608">
        <ele>6.4</ele>
        <time>2022-10-23 11:18:07</time>
      </trkpt>
      <trkpt lat="41.14356" lon="1.35609">
        <ele>6.6</ele>
        <time>2022-10-23 11:18:08</time>
      </trkpt>
      <trkpt lat="41.14364" lon="1.35612">
        <ele>7.2</ele>
        <time>2022-10-23 11:18:10</time>
      </trkpt>
      <trkpt lat="41.14372" lon="1.35612">
        <ele>8</ele>
        <time>2022-10-23 11:18:12</time>
      </trkpt>
      <trkpt lat="41.1438" lon="1.35611">
        <ele>8.4</ele>
        <time>2022-10-23 11:18:14</time>
      </trkpt>
      <trkpt lat="41.14385" lon="1.35612">
        <ele>8.4</ele>
        <time>2022-10-23 11:18:15</time>
      </trkpt>
      <trkpt lat="41.14392" lon="1.35613">
        <ele>8.4</ele>
        <time>2022-10-23 11:18:17</time>
      </trkpt>
      <trkpt lat="41.14413" lon="1.35624">
        <ele>8.4</ele>
        <time>2022-10-23 11:18:22</time>
      </trkpt>
      <trkpt lat="41.14426" lon="1.35643">
        <ele>8.2</ele>
        <time>2022-10-23 11:18:26</time>
      </trkpt>
      <trkpt lat="41.14428" lon="1.35648">
        <ele>8</ele>
        <time>2022-10-23 11:18:27</time>
      </trkpt>
      <trkpt lat="41.14434" lon="1.35664">
        <ele>7.6</ele>
        <time>2022-10-23 11:18:30</time>
      </trkpt>
      <trkpt lat="41.14437" lon="1.35676">
        <ele>7.6</ele>
        <time>2022-10-23 11:18:32</time>
      </trkpt>
      <trkpt lat="41.14439" lon="1.35682">
        <ele>7.4</ele>
        <time>2022-10-23 11:18:33</time>
      </trkpt>
      <trkpt lat="41.14447" lon="1.35699">
        <ele>7.4</ele>
        <time>2022-10-23 11:18:36</time>
      </trkpt>
      <trkpt lat="41.14449" lon="1.35706">
        <ele>7.4</ele>
        <time>2022-10-23 11:18:37</time>
      </trkpt>
      <trkpt lat="41.1446" lon="1.35738">
        <ele>7.4</ele>
        <time>2022-10-23 11:18:42</time>
      </trkpt>
      <trkpt lat="41.14467" lon="1.35758">
        <ele>7.2</ele>
        <time>2022-10-23 11:18:45</time>
      </trkpt>
      <trkpt lat="41.14474" lon="1.35776">
        <ele>7.2</ele>
        <time>2022-10-23 11:18:48</time>
      </trkpt>
      <trkpt lat="41.14485" lon="1.35792">
        <ele>7.2</ele>
        <time>2022-10-23 11:18:51</time>
      </trkpt>
      <trkpt lat="41.1449" lon="1.35804">
        <ele>7.4</ele>
        <time>2022-10-23 11:18:53</time>
      </trkpt>
      <trkpt lat="41.14497" lon="1.35822">
        <ele>7.4</ele>
        <time>2022-10-23 11:18:56</time>
      </trkpt>
      <trkpt lat="41.14498" lon="1.35828">
        <ele>7.4</ele>
        <time>2022-10-23 11:18:57</time>
      </trkpt>
      <trkpt lat="41.14496" lon="1.35848">
        <ele>7.8</ele>
        <time>2022-10-23 11:19:01</time>
      </trkpt>
      <trkpt lat="41.14491" lon="1.3587">
        <ele>8</ele>
        <time>2022-10-23 11:19:06</time>
      </trkpt>
      <trkpt lat="41.14483" lon="1.35883">
        <ele>8.2</ele>
        <time>2022-10-23 11:19:10</time>
      </trkpt>
      <trkpt lat="41.14482" lon="1.35885">
        <ele>8.2</ele>
        <time>2022-10-23 11:19:11</time>
      </trkpt>
      <trkpt lat="41.14479" lon="1.35892">
        <ele>8.2</ele>
        <time>2022-10-23 11:19:14</time>
      </trkpt>
      <trkpt lat="41.14478" lon="1.35894">
        <ele>7.2</ele>
        <time>2022-10-23 11:19:22</time>
      </trkpt>
      <trkpt lat="41.14478" lon="1.35896">
        <ele>7.2</ele>
        <time>2022-10-23 11:19:23</time>
      </trkpt>
      <trkpt lat="41.14479" lon="1.35899">
        <ele>7.2</ele>
        <time>2022-10-23 11:19:24</time>
      </trkpt>
      <trkpt lat="41.14483" lon="1.35907">
        <ele>7</ele>
        <time>2022-10-23 11:19:26</time>
      </trkpt>
      <trkpt lat="41.145" lon="1.35917">
        <ele>7</ele>
        <time>2022-10-23 11:19:30</time>
      </trkpt>
      <trkpt lat="41.14504" lon="1.3592">
        <ele>7</ele>
        <time>2022-10-23 11:19:31</time>
      </trkpt>
      <trkpt lat="41.14543" lon="1.35942">
        <ele>6.4</ele>
        <time>2022-10-23 11:19:39</time>
      </trkpt>
      <trkpt lat="41.14586" lon="1.35962">
        <ele>6.4</ele>
        <time>2022-10-23 11:19:47</time>
      </trkpt>
      <trkpt lat="41.14591" lon="1.35965">
        <ele>6.4</ele>
        <time>2022-10-23 11:19:48</time>
      </trkpt>
      <trkpt lat="41.14626" lon="1.35985">
        <ele>6.6</ele>
        <time>2022-10-23 11:19:55</time>
      </trkpt>
      <trkpt lat="41.14628" lon="1.35989">
        <ele>6.6</ele>
        <time>2022-10-23 11:19:56</time>
      </trkpt>
      <trkpt lat="41.14625" lon="1.36006">
        <ele>7</ele>
        <time>2022-10-23 11:19:59</time>
      </trkpt>
      <trkpt lat="41.14609" lon="1.36052">
        <ele>7.6</ele>
        <time>2022-10-23 11:20:06</time>
      </trkpt>
      <trkpt lat="41.14607" lon="1.36058">
        <ele>7.6</ele>
        <time>2022-10-23 11:20:07</time>
      </trkpt>
      <trkpt lat="41.14584" lon="1.36122">
        <ele>7.8</ele>
        <time>2022-10-23 11:20:17</time>
      </trkpt>
      <trkpt lat="41.14575" lon="1.36155">
        <ele>8.2</ele>
        <time>2022-10-23 11:20:23</time>
      </trkpt>
      <trkpt lat="41.14572" lon="1.36172">
        <ele>8.6</ele>
        <time>2022-10-23 11:20:27</time>
      </trkpt>
      <trkpt lat="41.14571" lon="1.36183">
        <ele>8.8</ele>
        <time>2022-10-23 11:20:29</time>
      </trkpt>
      <trkpt lat="41.14565" lon="1.36197">
        <ele>9</ele>
        <time>2022-10-23 11:20:32</time>
      </trkpt>
      <trkpt lat="41.14562" lon="1.36199">
        <ele>9</ele>
        <time>2022-10-23 11:20:33</time>
      </trkpt>
      <trkpt lat="41.14547" lon="1.36197">
        <ele>9</ele>
        <time>2022-10-23 11:20:36</time>
      </trkpt>
      <trkpt lat="41.14537" lon="1.36198">
        <ele>9</ele>
        <time>2022-10-23 11:20:38</time>
      </trkpt>
      <trkpt lat="41.14513" lon="1.36199">
        <ele>8</ele>
        <time>2022-10-23 11:20:42</time>
      </trkpt>
      <trkpt lat="41.14507" lon="1.36199">
        <ele>7.6</ele>
        <time>2022-10-23 11:20:43</time>
      </trkpt>
      <trkpt lat="41.14502" lon="1.36199">
        <ele>7.4</ele>
        <time>2022-10-23 11:20:44</time>
      </trkpt>
      <trkpt lat="41.14492" lon="1.36197">
        <ele>7</ele>
        <time>2022-10-23 11:20:46</time>
      </trkpt>
      <trkpt lat="41.14485" lon="1.36196">
        <ele>6.2</ele>
        <time>2022-10-23 11:20:48</time>
      </trkpt>
      <trkpt lat="41.14483" lon="1.36197">
        <ele>6</ele>
        <time>2022-10-23 11:20:49</time>
      </trkpt>
      <trkpt lat="41.14481" lon="1.362">
        <ele>6</ele>
        <time>2022-10-23 11:20:50</time>
      </trkpt>
      <trkpt lat="41.14466" lon="1.36218">
        <ele>5.6</ele>
        <time>2022-10-23 11:20:56</time>
      </trkpt>
      <trkpt lat="41.14452" lon="1.3622">
        <ele>5.6</ele>
        <time>2022-10-23 11:21:00</time>
      </trkpt>
      <trkpt lat="41.14449" lon="1.36223">
        <ele>5.6</ele>
        <time>2022-10-23 11:21:01</time>
      </trkpt>
      <trkpt lat="41.14445" lon="1.3624">
        <ele>6.2</ele>
        <time>2022-10-23 11:21:05</time>
      </trkpt>
      <trkpt lat="41.14444" lon="1.36244">
        <ele>6.4</ele>
        <time>2022-10-23 11:21:06</time>
      </trkpt>
      <trkpt lat="41.14442" lon="1.3627">
        <ele>7.4</ele>
        <time>2022-10-23 11:21:11</time>
      </trkpt>
      <trkpt lat="41.14441" lon="1.36275">
        <ele>7.4</ele>
        <time>2022-10-23 11:21:12</time>
      </trkpt>
      <trkpt lat="41.14436" lon="1.36316">
        <ele>8</ele>
        <time>2022-10-23 11:21:20</time>
      </trkpt>
      <trkpt lat="41.14434" lon="1.36331">
        <ele>8.2</ele>
        <time>2022-10-23 11:21:23</time>
      </trkpt>
      <trkpt lat="41.14432" lon="1.36347">
        <ele>8.2</ele>
        <time>2022-10-23 11:21:26</time>
      </trkpt>
      <trkpt lat="41.14428" lon="1.36386">
        <ele>8.4</ele>
        <time>2022-10-23 11:21:33</time>
      </trkpt>
      <trkpt lat="41.14428" lon="1.36391">
        <ele>8.2</ele>
        <time>2022-10-23 11:21:34</time>
      </trkpt>
      <trkpt lat="41.14427" lon="1.36422">
        <ele>8.6</ele>
        <time>2022-10-23 11:21:39</time>
      </trkpt>
      <trkpt lat="41.14427" lon="1.36445">
        <ele>8.6</ele>
        <time>2022-10-23 11:21:43</time>
      </trkpt>
      <trkpt lat="41.14426" lon="1.36462">
        <ele>8.6</ele>
        <time>2022-10-23 11:21:46</time>
      </trkpt>
      <trkpt lat="41.14424" lon="1.36478">
        <ele>8.8</ele>
        <time>2022-10-23 11:21:49</time>
      </trkpt>
      <trkpt lat="41.14423" lon="1.36483">
        <ele>9</ele>
        <time>2022-10-23 11:21:50</time>
      </trkpt>
      <trkpt lat="41.14418" lon="1.36499">
        <ele>9.8</ele>
        <time>2022-10-23 11:21:53</time>
      </trkpt>
      <trkpt lat="41.14413" lon="1.36523">
        <ele>10.6</ele>
        <time>2022-10-23 11:21:58</time>
      </trkpt>
      <trkpt lat="41.14412" lon="1.36531">
        <ele>10.8</ele>
        <time>2022-10-23 11:22:00</time>
      </trkpt>
      <trkpt lat="41.14409" lon="1.3655">
        <ele>12</ele>
        <time>2022-10-23 11:22:05</time>
      </trkpt>
      <trkpt lat="41.14406" lon="1.36562">
        <ele>12.8</ele>
        <time>2022-10-23 11:22:08</time>
      </trkpt>
      <trkpt lat="41.14406" lon="1.36566">
        <ele>13</ele>
        <time>2022-10-23 11:22:09</time>
      </trkpt>
      <trkpt lat="41.144" lon="1.36586">
        <ele>14.2</ele>
        <time>2022-10-23 11:22:14</time>
      </trkpt>
      <trkpt lat="41.14397" lon="1.36593">
        <ele>14.6</ele>
        <time>2022-10-23 11:22:16</time>
      </trkpt>
      <trkpt lat="41.14392" lon="1.36604">
        <ele>15.4</ele>
        <time>2022-10-23 11:22:19</time>
      </trkpt>
      <trkpt lat="41.14381" lon="1.3663">
        <ele>16.2</ele>
        <time>2022-10-23 11:22:26</time>
      </trkpt>
      <trkpt lat="41.1438" lon="1.36634">
        <ele>16.4</ele>
        <time>2022-10-23 11:22:27</time>
      </trkpt>
      <trkpt lat="41.14375" lon="1.36664">
        <ele>17.2</ele>
        <time>2022-10-23 11:22:34</time>
      </trkpt>
      <trkpt lat="41.14374" lon="1.36668">
        <ele>17.4</ele>
        <time>2022-10-23 11:22:35</time>
      </trkpt>
      <trkpt lat="41.1437" lon="1.367">
        <ele>18.6</ele>
        <time>2022-10-23 11:22:42</time>
      </trkpt>
      <trkpt lat="41.14369" lon="1.36709">
        <ele>19</ele>
        <time>2022-10-23 11:22:44</time>
      </trkpt>
      <trkpt lat="41.14369" lon="1.36717">
        <ele>19.6</ele>
        <time>2022-10-23 11:22:46</time>
      </trkpt>
      <trkpt lat="41.14366" lon="1.36731">
        <ele>20.6</ele>
        <time>2022-10-23 11:22:50</time>
      </trkpt>
      <trkpt lat="41.14364" lon="1.36734">
        <ele>20.8</ele>
        <time>2022-10-23 11:22:51</time>
      </trkpt>
      <trkpt lat="41.14358" lon="1.36736">
        <ele>21.6</ele>
        <time>2022-10-23 11:22:54</time>
      </trkpt>
      <trkpt lat="41.14352" lon="1.36737">
        <ele>22.2</ele>
        <time>2022-10-23 11:22:56</time>
      </trkpt>
      <trkpt lat="41.14329" lon="1.36734">
        <ele>22.6</ele>
        <time>2022-10-23 11:23:03</time>
      </trkpt>
      <trkpt lat="41.14295" lon="1.36735">
        <ele>22.4</ele>
        <time>2022-10-23 11:23:11</time>
      </trkpt>
      <trkpt lat="41.14291" lon="1.36736">
        <ele>22.2</ele>
        <time>2022-10-23 11:23:12</time>
      </trkpt>
      <trkpt lat="41.14282" lon="1.36747">
        <ele>21.6</ele>
        <time>2022-10-23 11:23:15</time>
      </trkpt>
      <trkpt lat="41.14284" lon="1.36761">
        <ele>21.6</ele>
        <time>2022-10-23 11:23:18</time>
      </trkpt>
      <trkpt lat="41.14297" lon="1.36814">
        <ele>22.6</ele>
        <time>2022-10-23 11:23:29</time>
      </trkpt>
      <trkpt lat="41.14304" lon="1.36839">
        <ele>23.8</ele>
        <time>2022-10-23 11:23:34</time>
      </trkpt>
      <trkpt lat="41.1431" lon="1.36863">
        <ele>24.8</ele>
        <time>2022-10-23 11:23:39</time>
      </trkpt>
      <trkpt lat="41.14311" lon="1.36867">
        <ele>25</ele>
        <time>2022-10-23 11:23:40</time>
      </trkpt>
      <trkpt lat="41.14314" lon="1.36886">
        <ele>26</ele>
        <time>2022-10-23 11:23:44</time>
      </trkpt>
      <trkpt lat="41.14314" lon="1.36895">
        <ele>26.6</ele>
        <time>2022-10-23 11:23:46</time>
      </trkpt>
      <trkpt lat="41.14313" lon="1.36909">
        <ele>27</ele>
        <time>2022-10-23 11:23:49</time>
      </trkpt>
      <trkpt lat="41.14311" lon="1.36942">
        <ele>28</ele>
        <time>2022-10-23 11:23:56</time>
      </trkpt>
      <trkpt lat="41.14311" lon="1.36946">
        <ele>28</ele>
        <time>2022-10-23 11:23:57</time>
      </trkpt>
      <trkpt lat="41.14309" lon="1.36969">
        <ele>28.4</ele>
        <time>2022-10-23 11:24:02</time>
      </trkpt>
      <trkpt lat="41.14307" lon="1.37007">
        <ele>29.2</ele>
        <time>2022-10-23 11:24:10</time>
      </trkpt>
      <trkpt lat="41.14308" lon="1.37045">
        <ele>29.6</ele>
        <time>2022-10-23 11:24:18</time>
      </trkpt>
      <trkpt lat="41.14309" lon="1.37069">
        <ele>30.2</ele>
        <time>2022-10-23 11:24:23</time>
      </trkpt>
      <trkpt lat="41.14309" lon="1.37084">
        <ele>30.4</ele>
        <time>2022-10-23 11:24:26</time>
      </trkpt>
      <trkpt lat="41.14311" lon="1.37125">
        <ele>30.8</ele>
        <time>2022-10-23 11:24:34</time>
      </trkpt>
      <trkpt lat="41.14311" lon="1.37135">
        <ele>31</ele>
        <time>2022-10-23 11:24:36</time>
      </trkpt>
      <trkpt lat="41.14312" lon="1.37159">
        <ele>31.4</ele>
        <time>2022-10-23 11:24:41</time>
      </trkpt>
      <trkpt lat="41.1431" lon="1.37179">
        <ele>31.6</ele>
        <time>2022-10-23 11:24:45</time>
      </trkpt>
      <trkpt lat="41.14308" lon="1.37184">
        <ele>31.6</ele>
        <time>2022-10-23 11:24:46</time>
      </trkpt>
      <trkpt lat="41.14295" lon="1.37211">
        <ele>32</ele>
        <time>2022-10-23 11:24:52</time>
      </trkpt>
      <trkpt lat="41.14291" lon="1.3722">
        <ele>32.2</ele>
        <time>2022-10-23 11:24:54</time>
      </trkpt>
      <trkpt lat="41.14271" lon="1.37261">
        <ele>32.8</ele>
        <time>2022-10-23 11:25:03</time>
      </trkpt>
      <trkpt lat="41.14265" lon="1.37276">
        <ele>33.2</ele>
        <time>2022-10-23 11:25:06</time>
      </trkpt>
      <trkpt lat="41.14253" lon="1.37305">
        <ele>34.4</ele>
        <time>2022-10-23 11:25:12</time>
      </trkpt>
      <trkpt lat="41.14251" lon="1.37309">
        <ele>34.6</ele>
        <time>2022-10-23 11:25:13</time>
      </trkpt>
      <trkpt lat="41.14244" lon="1.37328">
        <ele>35.4</ele>
        <time>2022-10-23 11:25:17</time>
      </trkpt>
      <trkpt lat="41.1424" lon="1.37339">
        <ele>35.8</ele>
        <time>2022-10-23 11:25:19</time>
      </trkpt>
      <trkpt lat="41.14236" lon="1.37354">
        <ele>36.4</ele>
        <time>2022-10-23 11:25:22</time>
      </trkpt>
      <trkpt lat="41.14228" lon="1.37386">
        <ele>37.2</ele>
        <time>2022-10-23 11:25:28</time>
      </trkpt>
      <trkpt lat="41.14225" lon="1.37397">
        <ele>37.4</ele>
        <time>2022-10-23 11:25:30</time>
      </trkpt>
      <trkpt lat="41.14218" lon="1.37428">
        <ele>38.2</ele>
        <time>2022-10-23 11:25:36</time>
      </trkpt>
      <trkpt lat="41.14215" lon="1.37443">
        <ele>38.4</ele>
        <time>2022-10-23 11:25:39</time>
      </trkpt>
      <trkpt lat="41.1421" lon="1.37462">
        <ele>38.6</ele>
        <time>2022-10-23 11:25:43</time>
      </trkpt>
      <trkpt lat="41.14201" lon="1.37475">
        <ele>38.8</ele>
        <time>2022-10-23 11:25:47</time>
      </trkpt>
      <trkpt lat="41.14179" lon="1.3749">
        <ele>38.8</ele>
        <time>2022-10-23 11:25:53</time>
      </trkpt>
      <trkpt lat="41.14167" lon="1.37503">
        <ele>38.6</ele>
        <time>2022-10-23 11:25:57</time>
      </trkpt>
      <trkpt lat="41.14165" lon="1.37507">
        <ele>38.6</ele>
        <time>2022-10-23 11:25:58</time>
      </trkpt>
      <trkpt lat="41.14155" lon="1.37527">
        <ele>38</ele>
        <time>2022-10-23 11:26:04</time>
      </trkpt>
      <trkpt lat="41.1416" lon="1.3754">
        <ele>37.6</ele>
        <time>2022-10-23 11:26:08</time>
      </trkpt>
      <trkpt lat="41.14156" lon="1.37548">
        <ele>37.4</ele>
        <time>2022-10-23 11:26:11</time>
      </trkpt>
      <trkpt lat="41.14153" lon="1.37551">
        <ele>37.2</ele>
        <time>2022-10-23 11:26:12</time>
      </trkpt>
      <trkpt lat="41.14145" lon="1.37559">
        <ele>37</ele>
        <time>2022-10-23 11:26:15</time>
      </trkpt>
      <trkpt lat="41.14143" lon="1.3756">
        <ele>37</ele>
        <time>2022-10-23 11:26:16</time>
      </trkpt>
      <trkpt lat="41.14141" lon="1.37563">
        <ele>36.8</ele>
        <time>2022-10-23 11:26:18</time>
      </trkpt>
      <trkpt lat="41.14142" lon="1.37566">
        <ele>36.4</ele>
        <time>2022-10-23 11:26:19</time>
      </trkpt>
      <trkpt lat="41.14143" lon="1.37571">
        <ele>35.8</ele>
        <time>2022-10-23 11:26:20</time>
      </trkpt>
      <trkpt lat="41.14146" lon="1.37582">
        <ele>34.4</ele>
        <time>2022-10-23 11:26:22</time>
      </trkpt>
      <trkpt lat="41.14151" lon="1.37592">
        <ele>33.2</ele>
        <time>2022-10-23 11:26:24</time>
      </trkpt>
      <trkpt lat="41.14153" lon="1.37597">
        <ele>32.6</ele>
        <time>2022-10-23 11:26:25</time>
      </trkpt>
      <trkpt lat="41.14155" lon="1.37602">
        <ele>32.2</ele>
        <time>2022-10-23 11:26:26</time>
      </trkpt>
      <trkpt lat="41.14163" lon="1.37618">
        <ele>31.6</ele>
        <time>2022-10-23 11:26:29</time>
      </trkpt>
      <trkpt lat="41.14166" lon="1.37629">
        <ele>31.4</ele>
        <time>2022-10-23 11:26:31</time>
      </trkpt>
      <trkpt lat="41.14169" lon="1.37633">
        <ele>31.4</ele>
        <time>2022-10-23 11:26:32</time>
      </trkpt>
      <trkpt lat="41.14179" lon="1.37651">
        <ele>31.4</ele>
        <time>2022-10-23 11:26:36</time>
      </trkpt>
      <trkpt lat="41.1419" lon="1.37667">
        <ele>31.6</ele>
        <time>2022-10-23 11:26:40</time>
      </trkpt>
      <trkpt lat="41.14197" lon="1.3768">
        <ele>31.8</ele>
        <time>2022-10-23 11:26:43</time>
      </trkpt>
      <trkpt lat="41.142" lon="1.37685">
        <ele>31.8</ele>
        <time>2022-10-23 11:26:44</time>
      </trkpt>
      <trkpt lat="41.14211" lon="1.37699">
        <ele>31.8</ele>
        <time>2022-10-23 11:26:48</time>
      </trkpt>
      <trkpt lat="41.14223" lon="1.37703">
        <ele>31.8</ele>
        <time>2022-10-23 11:26:52</time>
      </trkpt>
      <trkpt lat="41.14233" lon="1.37707">
        <ele>32</ele>
        <time>2022-10-23 11:26:55</time>
      </trkpt>
      <trkpt lat="41.14237" lon="1.37707">
        <ele>32</ele>
        <time>2022-10-23 11:26:56</time>
      </trkpt>
      <trkpt lat="41.14245" lon="1.37706">
        <ele>32.2</ele>
        <time>2022-10-23 11:26:58</time>
      </trkpt>
      <trkpt lat="41.14258" lon="1.37706">
        <ele>33</ele>
        <time>2022-10-23 11:27:01</time>
      </trkpt>
      <trkpt lat="41.14267" lon="1.37704">
        <ele>33.2</ele>
        <time>2022-10-23 11:27:03</time>
      </trkpt>
      <trkpt lat="41.14289" lon="1.37697">
        <ele>34.4</ele>
        <time>2022-10-23 11:27:08</time>
      </trkpt>
      <trkpt lat="41.14306" lon="1.37694">
        <ele>35.4</ele>
        <time>2022-10-23 11:27:13</time>
      </trkpt>
      <trkpt lat="41.14308" lon="1.37697">
        <ele>35.4</ele>
        <time>2022-10-23 11:27:14</time>
      </trkpt>
      <trkpt lat="41.14315" lon="1.37708">
        <ele>35.6</ele>
        <time>2022-10-23 11:27:16</time>
      </trkpt>
      <trkpt lat="41.14337" lon="1.37744">
        <ele>35.6</ele>
        <time>2022-10-23 11:27:21</time>
      </trkpt>
      <trkpt lat="41.14356" lon="1.3777">
        <ele>34.6</ele>
        <time>2022-10-23 11:27:25</time>
      </trkpt>
      <trkpt lat="41.1436" lon="1.37775">
        <ele>33.4</ele>
        <time>2022-10-23 11:27:26</time>
      </trkpt>
      <trkpt lat="41.14369" lon="1.37784">
        <ele>33</ele>
        <time>2022-10-23 11:27:28</time>
      </trkpt>
      <trkpt lat="41.14378" lon="1.3779">
        <ele>32.8</ele>
        <time>2022-10-23 11:27:30</time>
      </trkpt>
      <trkpt lat="41.14417" lon="1.37809">
        <ele>32.8</ele>
        <time>2022-10-23 11:27:38</time>
      </trkpt>
      <trkpt lat="41.14433" lon="1.37817">
        <ele>33</ele>
        <time>2022-10-23 11:27:42</time>
      </trkpt>
      <trkpt lat="41.14445" lon="1.37822">
        <ele>33.2</ele>
        <time>2022-10-23 11:27:46</time>
      </trkpt>
      <trkpt lat="41.14449" lon="1.37824">
        <ele>33.4</ele>
        <time>2022-10-23 11:27:47</time>
      </trkpt>
      <trkpt lat="41.1448" lon="1.37838">
        <ele>33.8</ele>
        <time>2022-10-23 11:27:53</time>
      </trkpt>
      <trkpt lat="41.14495" lon="1.37845">
        <ele>33.8</ele>
        <time>2022-10-23 11:27:56</time>
      </trkpt>
      <trkpt lat="41.14515" lon="1.37857">
        <ele>33.6</ele>
        <time>2022-10-23 11:28:00</time>
      </trkpt>
      <trkpt lat="41.14545" lon="1.37873">
        <ele>32.6</ele>
        <time>2022-10-23 11:28:06</time>
      </trkpt>
      <trkpt lat="41.14549" lon="1.37874">
        <ele>32.2</ele>
        <time>2022-10-23 11:28:07</time>
      </trkpt>
      <trkpt lat="41.14551" lon="1.37875">
        <ele>32.2</ele>
        <time>2022-10-23 11:28:08</time>
      </trkpt>
      <trkpt lat="41.14561" lon="1.37881">
        <ele>31.8</ele>
        <time>2022-10-23 11:28:12</time>
      </trkpt>
      <trkpt lat="41.14568" lon="1.37885">
        <ele>31.8</ele>
        <time>2022-10-23 11:28:14</time>
      </trkpt>
      <trkpt lat="41.14576" lon="1.37888">
        <ele>31.8</ele>
        <time>2022-10-23 11:28:16</time>
      </trkpt>
      <trkpt lat="41.14593" lon="1.37892">
        <ele>31.6</ele>
        <time>2022-10-23 11:28:19</time>
      </trkpt>
      <trkpt lat="41.14606" lon="1.37896">
        <ele>31.4</ele>
        <time>2022-10-23 11:28:21</time>
      </trkpt>
      <trkpt lat="41.1462" lon="1.37899">
        <ele>31</ele>
        <time>2022-10-23 11:28:23</time>
      </trkpt>
      <trkpt lat="41.14634" lon="1.37901">
        <ele>30.2</ele>
        <time>2022-10-23 11:28:25</time>
      </trkpt>
      <trkpt lat="41.14641" lon="1.37903">
        <ele>29.8</ele>
        <time>2022-10-23 11:28:26</time>
      </trkpt>
      <trkpt lat="41.14665" lon="1.37912">
        <ele>28.8</ele>
        <time>2022-10-23 11:28:29</time>
      </trkpt>
      <trkpt lat="41.14689" lon="1.37922">
        <ele>27.8</ele>
        <time>2022-10-23 11:28:32</time>
      </trkpt>
      <trkpt lat="41.14703" lon="1.37929">
        <ele>26.8</ele>
        <time>2022-10-23 11:28:34</time>
      </trkpt>
      <trkpt lat="41.14723" lon="1.37942">
        <ele>25.6</ele>
        <time>2022-10-23 11:28:37</time>
      </trkpt>
      <trkpt lat="41.14735" lon="1.37949">
        <ele>25.6</ele>
        <time>2022-10-23 11:28:39</time>
      </trkpt>
      <trkpt lat="41.14747" lon="1.37956">
        <ele>25.6</ele>
        <time>2022-10-23 11:28:41</time>
      </trkpt>
      <trkpt lat="41.14765" lon="1.37965">
        <ele>25.6</ele>
        <time>2022-10-23 11:28:44</time>
      </trkpt>
      <trkpt lat="41.1479" lon="1.37978">
        <ele>26.2</ele>
        <time>2022-10-23 11:28:48</time>
      </trkpt>
      <trkpt lat="41.14801" lon="1.37987">
        <ele>26.8</ele>
        <time>2022-10-23 11:28:50</time>
      </trkpt>
      <trkpt lat="41.14825" lon="1.38004">
        <ele>27</ele>
        <time>2022-10-23 11:28:54</time>
      </trkpt>
      <trkpt lat="41.14836" lon="1.38014">
        <ele>27</ele>
        <time>2022-10-23 11:28:56</time>
      </trkpt>
      <trkpt lat="41.14859" lon="1.38033">
        <ele>27.4</ele>
        <time>2022-10-23 11:29:00</time>
      </trkpt>
      <trkpt lat="41.14884" lon="1.38051">
        <ele>27.4</ele>
        <time>2022-10-23 11:29:04</time>
      </trkpt>
      <trkpt lat="41.14909" lon="1.38071">
        <ele>27.6</ele>
        <time>2022-10-23 11:29:08</time>
      </trkpt>
      <trkpt lat="41.14921" lon="1.38084">
        <ele>27.6</ele>
        <time>2022-10-23 11:29:10</time>
      </trkpt>
      <trkpt lat="41.14927" lon="1.38091">
        <ele>27.6</ele>
        <time>2022-10-23 11:29:11</time>
      </trkpt>
      <trkpt lat="41.1495" lon="1.3812">
        <ele>27.6</ele>
        <time>2022-10-23 11:29:15</time>
      </trkpt>
      <trkpt lat="41.14967" lon="1.38142">
        <ele>26.8</ele>
        <time>2022-10-23 11:29:18</time>
      </trkpt>
      <trkpt lat="41.15005" lon="1.38191">
        <ele>25.8</ele>
        <time>2022-10-23 11:29:25</time>
      </trkpt>
      <trkpt lat="41.1501" lon="1.38198">
        <ele>25.8</ele>
        <time>2022-10-23 11:29:26</time>
      </trkpt>
      <trkpt lat="41.15038" lon="1.38229">
        <ele>24.8</ele>
        <time>2022-10-23 11:29:31</time>
      </trkpt>
      <trkpt lat="41.15043" lon="1.38235">
        <ele>24.6</ele>
        <time>2022-10-23 11:29:32</time>
      </trkpt>
      <trkpt lat="41.15065" lon="1.38256">
        <ele>23.6</ele>
        <time>2022-10-23 11:29:36</time>
      </trkpt>
      <trkpt lat="41.15071" lon="1.38261">
        <ele>23.6</ele>
        <time>2022-10-23 11:29:37</time>
      </trkpt>
      <trkpt lat="41.15077" lon="1.38265">
        <ele>23.4</ele>
        <time>2022-10-23 11:29:38</time>
      </trkpt>
      <trkpt lat="41.15103" lon="1.38281">
        <ele>23.4</ele>
        <time>2022-10-23 11:29:42</time>
      </trkpt>
      <trkpt lat="41.15128" lon="1.38297">
        <ele>22.8</ele>
        <time>2022-10-23 11:29:46</time>
      </trkpt>
      <trkpt lat="41.15134" lon="1.383">
        <ele>22.6</ele>
        <time>2022-10-23 11:29:47</time>
      </trkpt>
      <trkpt lat="41.15141" lon="1.38304">
        <ele>22.6</ele>
        <time>2022-10-23 11:29:48</time>
      </trkpt>
      <trkpt lat="41.15177" lon="1.38329">
        <ele>22.2</ele>
        <time>2022-10-23 11:29:54</time>
      </trkpt>
      <trkpt lat="41.15214" lon="1.38362">
        <ele>21.8</ele>
        <time>2022-10-23 11:30:01</time>
      </trkpt>
      <trkpt lat="41.15224" lon="1.38373">
        <ele>22</ele>
        <time>2022-10-23 11:30:05</time>
      </trkpt>
      <trkpt lat="41.15237" lon="1.38386">
        <ele>23</ele>
        <time>2022-10-23 11:30:10</time>
      </trkpt>
      <trkpt lat="41.15238" lon="1.3839">
        <ele>23.4</ele>
        <time>2022-10-23 11:30:11</time>
      </trkpt>
      <trkpt lat="41.15237" lon="1.38394">
        <ele>23.6</ele>
        <time>2022-10-23 11:30:12</time>
      </trkpt>
      <trkpt lat="41.15232" lon="1.38402">
        <ele>23.8</ele>
        <time>2022-10-23 11:30:14</time>
      </trkpt>
      <trkpt lat="41.15217" lon="1.38431">
        <ele>24</ele>
        <time>2022-10-23 11:30:19</time>
      </trkpt>
      <trkpt lat="41.15197" lon="1.38481">
        <ele>23</ele>
        <time>2022-10-23 11:30:26</time>
      </trkpt>
      <trkpt lat="41.15187" lon="1.38505">
        <ele>22.4</ele>
        <time>2022-10-23 11:30:29</time>
      </trkpt>
      <trkpt lat="41.15176" lon="1.38528">
        <ele>21.8</ele>
        <time>2022-10-23 11:30:32</time>
      </trkpt>
      <trkpt lat="41.15172" lon="1.38546">
        <ele>21.2</ele>
        <time>2022-10-23 11:30:34</time>
      </trkpt>
      <trkpt lat="41.15166" lon="1.38573">
        <ele>20.6</ele>
        <time>2022-10-23 11:30:37</time>
      </trkpt>
      <trkpt lat="41.1516" lon="1.38592">
        <ele>20.2</ele>
        <time>2022-10-23 11:30:39</time>
      </trkpt>
      <trkpt lat="41.15144" lon="1.38642">
        <ele>19.2</ele>
        <time>2022-10-23 11:30:44</time>
      </trkpt>
      <trkpt lat="41.1513" lon="1.38681">
        <ele>18</ele>
        <time>2022-10-23 11:30:48</time>
      </trkpt>
      <trkpt lat="41.1511" lon="1.38739">
        <ele>17.4</ele>
        <time>2022-10-23 11:30:54</time>
      </trkpt>
      <trkpt lat="41.15099" lon="1.38764">
        <ele>16.8</ele>
        <time>2022-10-23 11:30:57</time>
      </trkpt>
      <trkpt lat="41.15092" lon="1.38779">
        <ele>16.6</ele>
        <time>2022-10-23 11:30:59</time>
      </trkpt>
      <trkpt lat="41.15084" lon="1.38789">
        <ele>16.6</ele>
        <time>2022-10-23 11:31:02</time>
      </trkpt>
      <trkpt lat="41.15079" lon="1.38796">
        <ele>16.6</ele>
        <time>2022-10-23 11:31:06</time>
      </trkpt>
      <trkpt lat="41.15071" lon="1.38811">
        <ele>16.6</ele>
        <time>2022-10-23 11:31:10</time>
      </trkpt>
      <trkpt lat="41.1506" lon="1.38831">
        <ele>16.6</ele>
        <time>2022-10-23 11:31:14</time>
      </trkpt>
      <trkpt lat="41.15055" lon="1.38841">
        <ele>16.6</ele>
        <time>2022-10-23 11:31:16</time>
      </trkpt>
      <trkpt lat="41.15031" lon="1.38886">
        <ele>16.2</ele>
        <time>2022-10-23 11:31:24</time>
      </trkpt>
      <trkpt lat="41.15007" lon="1.38915">
        <ele>16</ele>
        <time>2022-10-23 11:31:30</time>
      </trkpt>
      <trkpt lat="41.15" lon="1.38924">
        <ele>16</ele>
        <time>2022-10-23 11:31:32</time>
      </trkpt>
      <trkpt lat="41.14981" lon="1.38955">
        <ele>16</ele>
        <time>2022-10-23 11:31:38</time>
      </trkpt>
      <trkpt lat="41.1496" lon="1.38994">
        <ele>15.8</ele>
        <time>2022-10-23 11:31:45</time>
      </trkpt>
      <trkpt lat="41.14958" lon="1.39">
        <ele>15.8</ele>
        <time>2022-10-23 11:31:46</time>
      </trkpt>
      <trkpt lat="41.1495" lon="1.39016">
        <ele>15.8</ele>
        <time>2022-10-23 11:31:49</time>
      </trkpt>
      <trkpt lat="41.14945" lon="1.39026">
        <ele>16</ele>
        <time>2022-10-23 11:31:51</time>
      </trkpt>
      <trkpt lat="41.14938" lon="1.3904">
        <ele>16</ele>
        <time>2022-10-23 11:31:54</time>
      </trkpt>
      <trkpt lat="41.14935" lon="1.39044">
        <ele>16</ele>
        <time>2022-10-23 11:31:55</time>
      </trkpt>
      <trkpt lat="41.14922" lon="1.39049">
        <ele>16.2</ele>
        <time>2022-10-23 11:31:58</time>
      </trkpt>
      <trkpt lat="41.14913" lon="1.39048">
        <ele>16.2</ele>
        <time>2022-10-23 11:32:00</time>
      </trkpt>
      <trkpt lat="41.14894" lon="1.39044">
        <ele>16.4</ele>
        <time>2022-10-23 11:32:04</time>
      </trkpt>
      <trkpt lat="41.14872" lon="1.39033">
        <ele>16.4</ele>
        <time>2022-10-23 11:32:09</time>
      </trkpt>
      <trkpt lat="41.14867" lon="1.39033">
        <ele>16.6</ele>
        <time>2022-10-23 11:32:10</time>
      </trkpt>
      <trkpt lat="41.14857" lon="1.39044">
        <ele>16.6</ele>
        <time>2022-10-23 11:32:13</time>
      </trkpt>
      <trkpt lat="41.14852" lon="1.39056">
        <ele>16.6</ele>
        <time>2022-10-23 11:32:15</time>
      </trkpt>
      <trkpt lat="41.14846" lon="1.39078">
        <ele>16.6</ele>
        <time>2022-10-23 11:32:18</time>
      </trkpt>
      <trkpt lat="41.14844" lon="1.39085">
        <ele>16.6</ele>
        <time>2022-10-23 11:32:19</time>
      </trkpt>
      <trkpt lat="41.14831" lon="1.39127">
        <ele>15.6</ele>
        <time>2022-10-23 11:32:25</time>
      </trkpt>
      <trkpt lat="41.14829" lon="1.39134">
        <ele>15.4</ele>
        <time>2022-10-23 11:32:26</time>
      </trkpt>
      <trkpt lat="41.14822" lon="1.3916">
        <ele>14.6</ele>
        <time>2022-10-23 11:32:30</time>
      </trkpt>
      <trkpt lat="41.14818" lon="1.39181">
        <ele>14.4</ele>
        <time>2022-10-23 11:32:33</time>
      </trkpt>
      <trkpt lat="41.14806" lon="1.39252">
        <ele>14.2</ele>
        <time>2022-10-23 11:32:42</time>
      </trkpt>
      <trkpt lat="41.14804" lon="1.3926">
        <ele>14.2</ele>
        <time>2022-10-23 11:32:43</time>
      </trkpt>
      <trkpt lat="41.14801" lon="1.39275">
        <ele>14.4</ele>
        <time>2022-10-23 11:32:45</time>
      </trkpt>
      <trkpt lat="41.14797" lon="1.39311">
        <ele>14</ele>
        <time>2022-10-23 11:32:50</time>
      </trkpt>
      <trkpt lat="41.14797" lon="1.39324">
        <ele>13.8</ele>
        <time>2022-10-23 11:32:52</time>
      </trkpt>
      <trkpt lat="41.14797" lon="1.39347">
        <ele>13.8</ele>
        <time>2022-10-23 11:32:56</time>
      </trkpt>
      <trkpt lat="41.14798" lon="1.39352">
        <ele>13.8</ele>
        <time>2022-10-23 11:32:57</time>
      </trkpt>
      <trkpt lat="41.14804" lon="1.39375">
        <ele>13.8</ele>
        <time>2022-10-23 11:33:02</time>
      </trkpt>
      <trkpt lat="41.14806" lon="1.39382">
        <ele>13.8</ele>
        <time>2022-10-23 11:33:04</time>
      </trkpt>
      <trkpt lat="41.14804" lon="1.39389">
        <ele>13.8</ele>
        <time>2022-10-23 11:33:06</time>
      </trkpt>
      <trkpt lat="41.14799" lon="1.39393">
        <ele>14.4</ele>
        <time>2022-10-23 11:33:09</time>
      </trkpt>
      <trkpt lat="41.14797" lon="1.39396">
        <ele>14.8</ele>
        <time>2022-10-23 11:33:11</time>
      </trkpt>
      <trkpt lat="41.14797" lon="1.39397">
        <ele>14.8</ele>
        <time>2022-10-23 11:33:12</time>
      </trkpt>
      <trkpt lat="41.14797" lon="1.39398">
        <ele>15.2</ele>
        <time>2022-10-23 11:33:16</time>
      </trkpt>
      <trkpt lat="41.14797" lon="1.394">
        <ele>15.4</ele>
        <time>2022-10-23 11:33:17</time>
      </trkpt>
      <trkpt lat="41.14797" lon="1.39404">
        <ele>15.8</ele>
        <time>2022-10-23 11:33:19</time>
      </trkpt>
      <trkpt lat="41.14798" lon="1.3941">
        <ele>15.8</ele>
        <time>2022-10-23 11:33:21</time>
      </trkpt>
      <trkpt lat="41.14801" lon="1.39415">
        <ele>15.8</ele>
        <time>2022-10-23 11:33:23</time>
      </trkpt>
      <trkpt lat="41.14802" lon="1.39422">
        <ele>16</ele>
        <time>2022-10-23 11:33:26</time>
      </trkpt>
      <trkpt lat="41.14801" lon="1.39428">
        <ele>16</ele>
        <time>2022-10-23 11:33:28</time>
      </trkpt>
      <trkpt lat="41.14803" lon="1.39438">
        <ele>16</ele>
        <time>2022-10-23 11:33:30</time>
      </trkpt>
      <trkpt lat="41.14807" lon="1.39454">
        <ele>15.8</ele>
        <time>2022-10-23 11:33:33</time>
      </trkpt>
      <trkpt lat="41.14811" lon="1.39464">
        <ele>16</ele>
        <time>2022-10-23 11:33:35</time>
      </trkpt>
      <trkpt lat="41.14816" lon="1.39479">
        <ele>16</ele>
        <time>2022-10-23 11:33:38</time>
      </trkpt>
      <trkpt lat="41.14817" lon="1.39484">
        <ele>16</ele>
        <time>2022-10-23 11:33:39</time>
      </trkpt>
      <trkpt lat="41.14811" lon="1.39498">
        <ele>16.2</ele>
        <time>2022-10-23 11:33:42</time>
      </trkpt>
      <trkpt lat="41.14804" lon="1.39505">
        <ele>16.4</ele>
        <time>2022-10-23 11:33:44</time>
      </trkpt>
      <trkpt lat="41.14789" lon="1.39519">
        <ele>16.8</ele>
        <time>2022-10-23 11:33:48</time>
      </trkpt>
      <trkpt lat="41.14782" lon="1.39526">
        <ele>17</ele>
        <time>2022-10-23 11:33:50</time>
      </trkpt>
      <trkpt lat="41.14755" lon="1.39554">
        <ele>17.4</ele>
        <time>2022-10-23 11:33:58</time>
      </trkpt>
      <trkpt lat="41.14749" lon="1.39561">
        <ele>17.4</ele>
        <time>2022-10-23 11:34:00</time>
      </trkpt>
      <trkpt lat="41.14738" lon="1.3957">
        <ele>17.6</ele>
        <time>2022-10-23 11:34:03</time>
      </trkpt>
      <trkpt lat="41.14717" lon="1.3959">
        <ele>17.8</ele>
        <time>2022-10-23 11:34:09</time>
      </trkpt>
      <trkpt lat="41.14711" lon="1.39596">
        <ele>18</ele>
        <time>2022-10-23 11:34:11</time>
      </trkpt>
      <trkpt lat="41.147" lon="1.39607">
        <ele>18</ele>
        <time>2022-10-23 11:34:16</time>
      </trkpt>
      <trkpt lat="41.14699" lon="1.39608">
        <ele>18</ele>
        <time>2022-10-23 11:34:17</time>
      </trkpt>
      <trkpt lat="41.14696" lon="1.39612">
        <ele>18.2</ele>
        <time>2022-10-23 11:34:20</time>
      </trkpt>
      <trkpt lat="41.14697" lon="1.39618">
        <ele>18.2</ele>
        <time>2022-10-23 11:34:22</time>
      </trkpt>
      <trkpt lat="41.14701" lon="1.39626">
        <ele>18.2</ele>
        <time>2022-10-23 11:34:24</time>
      </trkpt>
      <trkpt lat="41.14706" lon="1.39634">
        <ele>18.2</ele>
        <time>2022-10-23 11:34:26</time>
      </trkpt>
      <trkpt lat="41.14712" lon="1.39643">
        <ele>18.2</ele>
        <time>2022-10-23 11:34:28</time>
      </trkpt>
      <trkpt lat="41.14716" lon="1.39652">
        <ele>18.4</ele>
        <time>2022-10-23 11:34:30</time>
      </trkpt>
      <trkpt lat="41.14718" lon="1.39657">
        <ele>18.4</ele>
        <time>2022-10-23 11:34:31</time>
      </trkpt>
      <trkpt lat="41.14724" lon="1.39686">
        <ele>18.4</ele>
        <time>2022-10-23 11:34:37</time>
      </trkpt>
      <trkpt lat="41.14728" lon="1.39711">
        <ele>19</ele>
        <time>2022-10-23 11:34:42</time>
      </trkpt>
      <trkpt lat="41.14728" lon="1.39719">
        <ele>19.2</ele>
        <time>2022-10-23 11:34:44</time>
      </trkpt>
      <trkpt lat="41.14733" lon="1.3974">
        <ele>19.6</ele>
        <time>2022-10-23 11:34:49</time>
      </trkpt>
      <trkpt lat="41.14734" lon="1.39745">
        <ele>19.8</ele>
        <time>2022-10-23 11:34:50</time>
      </trkpt>
      <trkpt lat="41.14734" lon="1.39751">
        <ele>20</ele>
        <time>2022-10-23 11:34:51</time>
      </trkpt>
      <trkpt lat="41.14735" lon="1.39768">
        <ele>20.8</ele>
        <time>2022-10-23 11:34:54</time>
      </trkpt>
      <trkpt lat="41.14735" lon="1.39784">
        <ele>21</ele>
        <time>2022-10-23 11:34:57</time>
      </trkpt>
      <trkpt lat="41.14735" lon="1.39789">
        <ele>21.2</ele>
        <time>2022-10-23 11:34:58</time>
      </trkpt>
      <trkpt lat="41.14735" lon="1.39814">
        <ele>22</ele>
        <time>2022-10-23 11:35:03</time>
      </trkpt>
      <trkpt lat="41.14735" lon="1.3982">
        <ele>22.2</ele>
        <time>2022-10-23 11:35:04</time>
      </trkpt>
      <trkpt lat="41.14735" lon="1.3984">
        <ele>22.8</ele>
        <time>2022-10-23 11:35:08</time>
      </trkpt>
      <trkpt lat="41.14734" lon="1.39864">
        <ele>23.4</ele>
        <time>2022-10-23 11:35:13</time>
      </trkpt>
      <trkpt lat="41.14733" lon="1.39873">
        <ele>23.8</ele>
        <time>2022-10-23 11:35:15</time>
      </trkpt>
      <trkpt lat="41.1473" lon="1.39896">
        <ele>24.4</ele>
        <time>2022-10-23 11:35:20</time>
      </trkpt>
      <trkpt lat="41.1473" lon="1.39901">
        <ele>24.8</ele>
        <time>2022-10-23 11:35:21</time>
      </trkpt>
      <trkpt lat="41.1473" lon="1.39916">
        <ele>25.4</ele>
        <time>2022-10-23 11:35:24</time>
      </trkpt>
      <trkpt lat="41.14729" lon="1.39932">
        <ele>25.8</ele>
        <time>2022-10-23 11:35:27</time>
      </trkpt>
      <trkpt lat="41.14727" lon="1.39952">
        <ele>26.6</ele>
        <time>2022-10-23 11:35:31</time>
      </trkpt>
      <trkpt lat="41.14727" lon="1.39961">
        <ele>27</ele>
        <time>2022-10-23 11:35:33</time>
      </trkpt>
      <trkpt lat="41.14725" lon="1.39981">
        <ele>27.6</ele>
        <time>2022-10-23 11:35:37</time>
      </trkpt>
      <trkpt lat="41.14723" lon="1.39989">
        <ele>28</ele>
        <time>2022-10-23 11:35:39</time>
      </trkpt>
      <trkpt lat="41.14717" lon="1.40009">
        <ele>28.8</ele>
        <time>2022-10-23 11:35:44</time>
      </trkpt>
      <trkpt lat="41.14716" lon="1.40017">
        <ele>29.2</ele>
        <time>2022-10-23 11:35:46</time>
      </trkpt>
      <trkpt lat="41.14714" lon="1.4003">
        <ele>30</ele>
        <time>2022-10-23 11:35:49</time>
      </trkpt>
      <trkpt lat="41.14709" lon="1.40049">
        <ele>30.2</ele>
        <time>2022-10-23 11:35:53</time>
      </trkpt>
      <trkpt lat="41.14706" lon="1.40066">
        <ele>30.2</ele>
        <time>2022-10-23 11:35:56</time>
      </trkpt>
      <trkpt lat="41.14702" lon="1.40078">
        <ele>30.2</ele>
        <time>2022-10-23 11:35:58</time>
      </trkpt>
      <trkpt lat="41.14683" lon="1.40121">
        <ele>29.4</ele>
        <time>2022-10-23 11:36:04</time>
      </trkpt>
      <trkpt lat="41.14676" lon="1.40136">
        <ele>28.8</ele>
        <time>2022-10-23 11:36:06</time>
      </trkpt>
      <trkpt lat="41.14672" lon="1.40143">
        <ele>28.6</ele>
        <time>2022-10-23 11:36:07</time>
      </trkpt>
      <trkpt lat="41.14662" lon="1.40153">
        <ele>27.8</ele>
        <time>2022-10-23 11:36:09</time>
      </trkpt>
      <trkpt lat="41.14658" lon="1.40157">
        <ele>27.4</ele>
        <time>2022-10-23 11:36:10</time>
      </trkpt>
      <trkpt lat="41.14652" lon="1.40172">
        <ele>26.8</ele>
        <time>2022-10-23 11:36:12</time>
      </trkpt>
      <trkpt lat="41.14652" lon="1.4018">
        <ele>26.4</ele>
        <time>2022-10-23 11:36:13</time>
      </trkpt>
      <trkpt lat="41.14655" lon="1.40197">
        <ele>25.8</ele>
        <time>2022-10-23 11:36:15</time>
      </trkpt>
      <trkpt lat="41.14661" lon="1.40213">
        <ele>25.4</ele>
        <time>2022-10-23 11:36:17</time>
      </trkpt>
      <trkpt lat="41.14664" lon="1.40221">
        <ele>25</ele>
        <time>2022-10-23 11:36:18</time>
      </trkpt>
      <trkpt lat="41.14666" lon="1.40229">
        <ele>24.8</ele>
        <time>2022-10-23 11:36:19</time>
      </trkpt>
      <trkpt lat="41.14668" lon="1.40247">
        <ele>24</ele>
        <time>2022-10-23 11:36:21</time>
      </trkpt>
      <trkpt lat="41.1467" lon="1.40277">
        <ele>23.6</ele>
        <time>2022-10-23 11:36:24</time>
      </trkpt>
      <trkpt lat="41.14671" lon="1.40287">
        <ele>23.6</ele>
        <time>2022-10-23 11:36:25</time>
      </trkpt>
      <trkpt lat="41.14672" lon="1.40308">
        <ele>23.2</ele>
        <time>2022-10-23 11:36:27</time>
      </trkpt>
      <trkpt lat="41.14673" lon="1.40319">
        <ele>23</ele>
        <time>2022-10-23 11:36:28</time>
      </trkpt>
      <trkpt lat="41.14676" lon="1.40364">
        <ele>21.6</ele>
        <time>2022-10-23 11:36:32</time>
      </trkpt>
      <trkpt lat="41.14679" lon="1.40398">
        <ele>20.2</ele>
        <time>2022-10-23 11:36:35</time>
      </trkpt>
      <trkpt lat="41.14682" lon="1.40431">
        <ele>19.4</ele>
        <time>2022-10-23 11:36:38</time>
      </trkpt>
      <trkpt lat="41.14684" lon="1.40443">
        <ele>19</ele>
        <time>2022-10-23 11:36:39</time>
      </trkpt>
      <trkpt lat="41.14685" lon="1.40454">
        <ele>18.4</ele>
        <time>2022-10-23 11:36:40</time>
      </trkpt>
      <trkpt lat="41.14687" lon="1.40466">
        <ele>17.8</ele>
        <time>2022-10-23 11:36:41</time>
      </trkpt>
      <trkpt lat="41.14691" lon="1.40502">
        <ele>16.2</ele>
        <time>2022-10-23 11:36:44</time>
      </trkpt>
      <trkpt lat="41.14695" lon="1.40538">
        <ele>14.6</ele>
        <time>2022-10-23 11:36:47</time>
      </trkpt>
      <trkpt lat="41.14697" lon="1.4055">
        <ele>14.2</ele>
        <time>2022-10-23 11:36:48</time>
      </trkpt>
      <trkpt lat="41.147" lon="1.40574">
        <ele>13</ele>
        <time>2022-10-23 11:36:50</time>
      </trkpt>
      <trkpt lat="41.14703" lon="1.40597">
        <ele>11.8</ele>
        <time>2022-10-23 11:36:52</time>
      </trkpt>
      <trkpt lat="41.14705" lon="1.40609">
        <ele>11.4</ele>
        <time>2022-10-23 11:36:53</time>
      </trkpt>
      <trkpt lat="41.14712" lon="1.40645">
        <ele>10.4</ele>
        <time>2022-10-23 11:36:56</time>
      </trkpt>
      <trkpt lat="41.14716" lon="1.40669">
        <ele>9.4</ele>
        <time>2022-10-23 11:36:58</time>
      </trkpt>
      <trkpt lat="41.14718" lon="1.40681">
        <ele>9</ele>
        <time>2022-10-23 11:36:59</time>
      </trkpt>
      <trkpt lat="41.14721" lon="1.40704">
        <ele>8.2</ele>
        <time>2022-10-23 11:37:01</time>
      </trkpt>
      <trkpt lat="41.14726" lon="1.40738">
        <ele>7</ele>
        <time>2022-10-23 11:37:04</time>
      </trkpt>
      <trkpt lat="41.14729" lon="1.40759">
        <ele>6.2</ele>
        <time>2022-10-23 11:37:06</time>
      </trkpt>
      <trkpt lat="41.1473" lon="1.40769">
        <ele>5.8</ele>
        <time>2022-10-23 11:37:07</time>
      </trkpt>
      <trkpt lat="41.14731" lon="1.40796">
        <ele>5.6</ele>
        <time>2022-10-23 11:37:10</time>
      </trkpt>
      <trkpt lat="41.14737" lon="1.40814">
        <ele>5</ele>
        <time>2022-10-23 11:37:13</time>
      </trkpt>
      <trkpt lat="41.14748" lon="1.40816">
        <ele>4.6</ele>
        <time>2022-10-23 11:37:16</time>
      </trkpt>
      <trkpt lat="41.14751" lon="1.40816">
        <ele>4.8</ele>
        <time>2022-10-23 11:37:17</time>
      </trkpt>
      <trkpt lat="41.14753" lon="1.40816">
        <ele>4.8</ele>
        <time>2022-10-23 11:37:18</time>
      </trkpt>
      <trkpt lat="41.14756" lon="1.40809">
        <ele>5.4</ele>
        <time>2022-10-23 11:37:40</time>
      </trkpt>
      <trkpt lat="41.14757" lon="1.40807">
        <ele>5.4</ele>
        <time>2022-10-23 11:37:41</time>
      </trkpt>
      <trkpt lat="41.14756" lon="1.40793">
        <ele>5.4</ele>
        <time>2022-10-23 11:37:44</time>
      </trkpt>
      <trkpt lat="41.14756" lon="1.40782">
        <ele>5.2</ele>
        <time>2022-10-23 11:37:47</time>
      </trkpt>
    </trkseg>
  </trk>
</gpx>
